EK35 / A6-EGM 7700 Squawk Report (28th of November, 2022)

Aircraft B77W Reg No. A6-EGM Age 11 years old
Model 777 Jet engines 2 First flight 05-01-12
Registered 24-01-12 Rollout 17-12-11 Delivered 24-01-12
Construction No. 41073 Line No. 0988 Series 31H(ER)
ADSHEX 89620E Airline name Emirates Airlines Owner N/A
Airfield based Dubai International~Dubai~A6 First tracked N/A

Flight history for A6-EGM

Route Flight No Date Playback
???? N/A 2023-02-07 15:36:00
Ninoy Aquino Intl (MNL) - Dubai International (DXB) EK333 2023-02-07 18:47:00
Dubai International (DXB) - Ninoy Aquino Intl (MNL) EK332 2023-02-07 09:41:00
Rajiv Gandhi International Airport (HYD) - Dubai International (DXB) EK529 2023-02-06 19:41:00
Dubai International (DXB) - Rajiv Gandhi International Airport (HYD) EK528 2023-02-06 16:03:00
Kuwait Intl (KWI) - Dubai International (DXB) EK856 2023-02-06 08:25:00
Dubai International (DXB) - Kuwait Intl (KWI) EK855 2023-02-06 05:47:00
Netaji Subhash Chandra Bose Intl (CCU) - Dubai International (DXB) EK573 2023-02-06 04:13:00
Dubai International (DXB) - Netaji Subhash Chandra Bose Intl (CCU) EK572 2023-02-05 13:29:00
Hazrat Shahjalal Intl (DAC) - Dubai International (DXB) EK585 2023-02-04 00:07:00
Dubai International (DXB) - Hazrat Shahjalal Intl (DAC) EK584 2023-02-03 19:23:00
King Fahd Intl (DMM) - Dubai International (DXB) EK828 2023-02-03 13:10:00
Dubai International (DXB) - King Fahd Intl (DMM) EK827 2023-02-03 05:15:00
Birmingham (BHX) - Dubai International (DXB) EK40 2023-02-02 20:16:00
Dubai International (DXB) - Birmingham (BHX) EK39 2023-02-02 11:42:00
Dublin (DUB) - Dubai International (DXB) EK162 2023-02-01 20:18:00
Dubai International (DXB) - Dublin (DUB) EK161 2023-02-01 11:24:00
Gardermoen (OSL) - Dubai International (DXB) EK160 2023-01-31 21:24:00
Dubai International (DXB) - Gardermoen (OSL) EK159 2023-01-31 11:37:00
Hazrat Shahjalal Intl (DAC) - Dubai International (DXB) EK585 2023-01-31 04:13:00
Time Lat Lon Altitude Heading Speed Vertical Rate
2022-11-28 10:58:34 GMT 55.037212 -1.706072 0 241 0 0
2022-11-28 10:58:30 GMT 55.037220 -1.706064 0 241 0 0
2022-11-28 10:58:19 GMT 55.037235 -1.706011 0 241 2 0
2022-11-28 10:58:10 GMT 55.037270 -1.705910 0 241 3 0
2022-11-28 10:58:00 GMT 55.037327 -1.705688 0 241 5 0
2022-11-28 10:57:39 GMT 55.037628 -1.704816 0 272 5 0
2022-11-28 10:57:29 GMT 55.037727 -1.704476 0 329 7 0
2022-11-28 10:57:18 GMT 55.037476 -1.704254 0 2 10 0
2022-11-28 10:56:56 GMT 55.036453 -1.704358 0 47 10 0
2022-11-28 10:56:53 GMT 55.036266 -1.704441 0 47 10 0
2022-11-28 10:56:43 GMT 55.036045 -1.704921 0 75 10 0
2022-11-28 10:56:34 GMT 55.035942 -1.705627 0 64 10 0
2022-11-28 10:56:28 GMT 55.035885 -1.706085 0 36 8 0
2022-11-28 10:56:17 GMT 55.035488 -1.706397 0 0 14 0
2022-11-28 10:56:05 GMT 55.034603 -1.706439 0 0 14 0
2022-11-28 10:55:39 GMT 55.033813 -1.705304 0 244 19 0
2022-11-28 10:55:31 GMT 55.034157 -1.704032 0 244 27 0
2022-11-28 10:55:26 GMT 55.034405 -1.703110 0 244 31 0
2022-11-28 10:55:17 GMT 55.035023 -1.700800 0 244 35 0
2022-11-28 10:55:01 GMT 55.036045 -1.696951 0 247 30 0
2022-11-28 10:54:51 GMT 55.036560 -1.694924 0 244 31 0
2022-11-28 10:54:45 GMT 55.036961 -1.693510 375 244 63 0
2022-11-28 10:54:33 GMT 55.039078 -1.685594 375 246 132 -64
2022-11-28 10:54:27 GMT 55.040588 -1.679777 375 246 144 -704
2022-11-28 10:54:24 GMT 55.041641 -1.675900 425 246 142 -768
2022-11-28 10:54:17 GMT 55.043610 -1.668387 550 246 142 -832
2022-11-28 10:54:07 GMT 55.046391 -1.657937 675 245 141 -768
2022-11-28 10:53:57 GMT 55.049057 -1.647788 800 246 140 -768
2022-11-28 10:53:47 GMT 55.051804 -1.637448 925 246 139 -768
2022-11-28 10:53:37 GMT 55.054493 -1.627475 1,050 246 138 -768
2022-11-28 10:53:27 GMT 55.057194 -1.617154 1,175 246 140 -832
2022-11-28 10:53:17 GMT 55.059940 -1.606750 1,350 246 140 -768
2022-11-28 10:53:12 GMT 55.061054 -1.602506 1,375 246 141 -768
2022-11-28 10:53:06 GMT 55.062790 -1.596087 1,450 246 142 -832
2022-11-28 10:53:01 GMT 55.064117 -1.590998 1,525 246 143 -832
2022-11-28 10:52:57 GMT 55.065525 -1.585693 1,600 246 144 -768
2022-11-28 10:52:51 GMT 55.067047 -1.579931 1,650 246 144 -704
2022-11-28 10:52:47 GMT 55.068130 -1.575789 1,700 246 144 -704
2022-11-28 10:52:44 GMT 55.068878 -1.572959 1,750 246 144 -768
2022-11-28 10:52:40 GMT 55.069946 -1.568881 1,800 246 144 -832
2022-11-28 10:52:35 GMT 55.071259 -1.563936 1,925 246 146 -768
2022-11-28 10:52:29 GMT 55.073067 -1.557146 1,925 246 147 -832
2022-11-28 10:52:25 GMT 55.074371 -1.552318 2,025 245 151 -896
2022-11-28 10:52:20 GMT 55.075699 -1.547376 2,075 246 152 -896
2022-11-28 10:52:17 GMT 55.076885 -1.542830 2,175 246 161 64
2022-11-28 10:52:14 GMT 55.077583 -1.540250 2,175 246 159 -64
2022-11-28 10:52:10 GMT 55.078812 -1.535662 2,175 246 158 -64
2022-11-28 10:52:07 GMT 55.079865 -1.531760 2,175 246 161 128
2022-11-28 10:52:04 GMT 55.080654 -1.528764 2,175 246 163 0
2022-11-28 10:52:00 GMT 55.081970 -1.523949 2,175 246 163 0
2022-11-28 10:51:57 GMT 55.082935 -1.520192 2,175 245 162 0
2022-11-28 10:51:53 GMT 55.083939 -1.516436 2,175 245 162 64
2022-11-28 10:51:47 GMT 55.086182 -1.508116 2,175 245 161 -64
2022-11-28 10:51:43 GMT 55.087189 -1.504481 2,175 245 161 -64
2022-11-28 10:51:37 GMT 55.089294 -1.496645 2,175 246 161 0
2022-11-28 10:51:33 GMT 55.090530 -1.491960 2,175 246 161 0
2022-11-28 10:51:30 GMT 55.091583 -1.487840 2,175 247 161 0
2022-11-28 10:51:26 GMT 55.092407 -1.484528 2,175 248 161 -64
2022-11-28 10:51:23 GMT 55.093323 -1.480892 2,175 252 162 0
2022-11-28 10:51:19 GMT 55.094528 -1.475747 2,175 249 162 0
2022-11-28 10:51:16 GMT 55.095428 -1.471764 2,175 249 162 0
2022-11-28 10:51:12 GMT 55.096481 -1.466998 2,175 252 162 0
2022-11-28 10:51:09 GMT 55.097168 -1.463686 2,175 254 163 64
2022-11-28 10:51:06 GMT 55.097923 -1.459434 2,175 255 163 64
2022-11-28 10:51:03 GMT 55.098495 -1.456012 2,175 260 163 64
2022-11-28 10:50:59 GMT 55.098995 -1.450778 2,175 277 163 64
2022-11-28 10:50:56 GMT 55.099045 -1.447126 2,175 281 163 64
2022-11-28 10:50:53 GMT 55.097351 -1.437916 2,175 295 162 0
2022-11-28 10:50:49 GMT 55.097351 -1.437916 2,175 303 162 -64
2022-11-28 10:50:46 GMT 55.096111 -1.434215 2,175 303 162 0
2022-11-28 10:50:43 GMT 55.094948 -1.431136 2,175 304 162 0
2022-11-28 10:50:36 GMT 55.091766 -1.422649 2,175 306 162 0
2022-11-28 10:50:33 GMT 55.090805 -1.420306 2,175 308 162 0
2022-11-28 10:50:26 GMT 55.087402 -1.412659 2,175 310 163 0
2022-11-28 10:50:23 GMT 55.086227 -1.410128 2,175 310 163 0
2022-11-28 10:50:17 GMT 55.083355 -1.403920 2,175 309 162 64
2022-11-28 10:50:12 GMT 55.081215 -1.399259 2,175 309 162 64
2022-11-28 10:50:06 GMT 55.078327 -1.393100 2,175 311 163 64
2022-11-28 10:50:01 GMT 55.076019 -1.388397 2,175 314 168 64
2022-11-28 10:49:57 GMT 55.073456 -1.383712 2,150 316 172 -128
2022-11-28 10:49:51 GMT 55.070206 -1.378138 2,225 317 178 -320
2022-11-28 10:49:48 GMT 55.068176 -1.374789 2,200 317 179 -384
2022-11-28 10:49:43 GMT 55.065033 -1.369656 2,225 317 182 -704
2022-11-28 10:49:37 GMT 55.062035 -1.364635 2,300 317 183 -896
2022-11-28 10:49:33 GMT 55.058807 -1.359316 2,400 317 183 -1024
2022-11-28 10:49:27 GMT 55.055786 -1.354307 2,475 317 184 -1024
2022-11-28 10:49:21 GMT 55.052170 -1.348410 2,575 317 184 -1088
2022-11-28 10:49:18 GMT 55.049465 -1.343911 2,650 317 184 -1216
2022-11-28 10:49:12 GMT 55.046345 -1.338751 2,750 318 184 -1280
2022-11-28 10:49:07 GMT 55.043289 -1.333869 2,850 320 185 -1216
2022-11-28 10:49:02 GMT 55.039642 -1.328680 3,025 326 185 -1280
2022-11-28 10:48:57 GMT 55.036102 -1.324352 3,075 329 186 -1280
2022-11-28 10:48:52 GMT 55.032578 -1.320621 3,375 330 186 -1344
2022-11-28 10:48:47 GMT 55.024979 -1.312783 3,350 330 186 -1472
2022-11-28 10:48:42 GMT 55.024979 -1.312783 3,475 330 186 -1408
2022-11-28 10:48:37 GMT 55.021362 -1.309069 3,525 330 186 -1280
2022-11-28 10:48:30 GMT 55.016190 -1.303738 3,675 330 191 64
2022-11-28 10:48:26 GMT 55.008682 -1.295983 3,675 330 190 64
2022-11-28 10:48:20 GMT 55.008682 -1.295983 3,675 330 191 64
2022-11-28 10:48:16 GMT 55.005936 -1.293236 3,675 330 191 0
2022-11-28 10:48:10 GMT 55.001144 -1.288230 3,675 330 198 64
2022-11-28 10:48:07 GMT 54.998165 -1.285151 3,675 330 192 0
2022-11-28 10:48:02 GMT 54.994629 -1.281523 3,675 330 192 0
2022-11-28 10:47:57 GMT 54.991554 -1.278326 3,675 330 194 0
2022-11-28 10:47:54 GMT 54.988808 -1.275579 3,675 330 194 64
2022-11-28 10:47:49 GMT 54.985245 -1.271910 3,675 330 197 64
2022-11-28 10:47:45 GMT 54.981720 -1.268275 3,650 330 201 0
2022-11-28 10:47:41 GMT 54.978798 -1.265259 3,650 330 206 0
2022-11-28 10:47:37 GMT 54.975773 -1.262263 3,650 330 211 -64
2022-11-28 10:47:34 GMT 54.972095 -1.258517 3,650 330 211 -64
2022-11-28 10:47:31 GMT 54.970413 -1.256804 3,675 330 213 -64
2022-11-28 10:47:27 GMT 54.966248 -1.252522 3,675 330 213 -64
2022-11-28 10:47:24 GMT 54.964600 -1.250907 3,675 330 214 -64
2022-11-28 10:47:19 GMT 54.959850 -1.246033 3,675 330 213 -64
2022-11-28 10:47:15 GMT 54.956451 -1.242620 3,700 330 212 -64
2022-11-28 10:47:09 GMT 54.951286 -1.237377 3,700 330 212 64
2022-11-28 10:47:04 GMT 54.947609 -1.233631 3,675 328 214 64
2022-11-28 10:47:01 GMT 54.944504 -1.230307 3,675 328 213 64
2022-11-28 10:46:58 GMT 54.942719 -1.228305 3,675 327 214 0
2022-11-28 10:46:55 GMT 54.939835 -1.225056 3,675 327 213 0
2022-11-28 10:46:50 GMT 54.936157 -1.220814 3,675 327 214 0
2022-11-28 10:46:47 GMT 54.932922 -1.217059 3,675 326 213 0
2022-11-28 10:46:44 GMT 54.931229 -1.215120 3,675 326 213 0
2022-11-28 10:46:41 GMT 54.928009 -1.211326 3,675 326 212 0
2022-11-28 10:46:38 GMT 54.925964 -1.208819 3,675 326 211 0
2022-11-28 10:46:35 GMT 54.923355 -1.205669 3,675 325 212 64
2022-11-28 10:46:31 GMT 54.920105 -1.201791 3,675 326 213 64
2022-11-28 10:46:26 GMT 54.916718 -1.197671 3,675 327 215 0
2022-11-28 10:46:23 GMT 54.913204 -1.193681 3,675 329 219 128
2022-11-28 10:46:20 GMT 54.910927 -1.191184 3,675 329 219 128
2022-11-28 10:46:16 GMT 54.907806 -1.187938 3,650 330 225 0
2022-11-28 10:46:13 GMT 54.905247 -1.185275 3,650 330 227 -64
2022-11-28 10:46:10 GMT 54.902481 -1.182404 3,650 330 229 -64
2022-11-28 10:46:07 GMT 54.898960 -1.178866 3,675 330 233 -128
2022-11-28 10:46:04 GMT 54.896988 -1.176830 3,700 330 235 -192
2022-11-28 10:46:01 GMT 54.893143 -1.172871 3,675 330 237 -384
2022-11-28 10:45:55 GMT 54.883785 -1.163302 3,825 330 242 -768
2022-11-28 10:45:50 GMT 54.883785 -1.163302 3,775 330 244 -832
2022-11-28 10:45:47 GMT 54.880432 -1.159890 3,850 330 247 -896
2022-11-28 10:45:44 GMT 54.877441 -1.156796 3,875 330 249 -960
2022-11-28 10:45:40 GMT 54.873356 -1.152732 3,925 330 251 -896
2022-11-28 10:45:36 GMT 54.869354 -1.148654 4,000 330 255 -896
2022-11-28 10:45:33 GMT 54.866501 -1.145648 4,050 330 256 -768
2022-11-28 10:45:30 GMT 54.863300 -1.142495 4,075 330 257 -832
2022-11-28 10:45:27 GMT 54.860184 -1.139249 4,125 330 258 -832
2022-11-28 10:45:24 GMT 54.857296 -1.136336 4,225 330 259 -832
2022-11-28 10:45:20 GMT 54.853016 -1.131925 4,225 330 260 -832
2022-11-28 10:45:17 GMT 54.850204 -1.129088 4,275 330 262 -832
2022-11-28 10:45:14 GMT 54.845612 -1.124434 4,325 330 262 -832
2022-11-28 10:45:09 GMT 54.841415 -1.120121 4,375 330 263 -832
2022-11-28 10:45:06 GMT 54.838669 -1.117374 4,400 330 265 -832
2022-11-28 10:45:03 GMT 54.835091 -1.113697 4,450 330 265 -832
2022-11-28 10:45:00 GMT 54.832260 -1.110831 4,475 330 266 -832
2022-11-28 10:44:56 GMT 54.827591 -1.106065 4,550 330 268 -832
2022-11-28 10:44:53 GMT 54.824524 -1.102961 4,575 330 270 -832
2022-11-28 10:44:50 GMT 54.821136 -1.099521 4,625 330 270 -832
2022-11-28 10:44:46 GMT 54.816193 -1.094471 4,700 330 271 -768
2022-11-28 10:44:43 GMT 54.814087 -1.092251 4,725 330 270 -768
2022-11-28 10:44:40 GMT 54.810379 -1.088535 4,775 330 270 -768
2022-11-28 10:44:36 GMT 54.807068 -1.085150 4,800 330 270 -768
2022-11-28 10:44:33 GMT 54.802971 -1.080905 4,850 330 270 -768
2022-11-28 10:44:30 GMT 54.799805 -1.077742 4,900 330 270 -768
2022-11-28 10:44:23 GMT 54.788956 -1.066643 4,975 330 270 -768
2022-11-28 10:44:20 GMT 54.788956 -1.066643 5,025 330 270 -704
2022-11-28 10:44:17 GMT 54.785660 -1.063331 5,050 330 270 -704
2022-11-28 10:44:13 GMT 54.781540 -1.059131 5,125 330 270 -576
2022-11-28 10:44:10 GMT 54.777832 -1.055353 5,125 330 270 -512
2022-11-28 10:44:06 GMT 54.773968 -1.051442 5,150 330 271 -320
2022-11-28 10:44:03 GMT 54.769779 -1.047197 5,175 330 271 -64
2022-11-28 10:43:59 GMT 54.766617 -1.044024 5,175 330 271 -64
2022-11-28 10:43:55 GMT 54.762222 -1.039501 5,200 330 272 -512
2022-11-28 10:43:52 GMT 54.758743 -1.035946 5,200 330 271 -448
2022-11-28 10:43:49 GMT 54.755627 -1.032798 5,225 330 272 -576
2022-11-28 10:43:44 GMT 54.747433 -1.024475 6,000 330 273 -960
2022-11-28 10:43:41 GMT 54.747433 -1.024475 5,325 330 273 -1024
2022-11-28 10:43:38 GMT 54.744175 -1.021229 5,375 330 274 -960
2022-11-28 10:43:34 GMT 54.739891 -1.016901 5,450 330 274 -1024
2022-11-28 10:43:31 GMT 54.736038 -1.012923 5,500 330 274 -960
2022-11-28 10:43:27 GMT 54.730957 -1.007834 5,625 330 274 -1024
2022-11-28 10:43:22 GMT 54.726471 -1.003310 5,675 330 275 -1024
2022-11-28 10:43:19 GMT 54.722580 -0.999271 5,700 330 275 -1024
2022-11-28 10:43:14 GMT 54.717499 -0.994101 5,775 330 275 -1024
2022-11-28 10:43:09 GMT 54.711960 -0.988527 5,875 330 276 -1024
2022-11-28 10:43:06 GMT 54.708801 -0.985296 5,925 330 276 -1024
2022-11-28 10:43:02 GMT 54.703949 -0.980368 6,025 330 274 -960
2022-11-28 10:42:59 GMT 54.700699 -0.977056 6,050 330 273 -960
2022-11-28 10:42:56 GMT 54.695251 -0.971563 6,150 330 271 -896
2022-11-28 10:42:53 GMT 54.695251 -0.971563 6,250 330 271 -896
2022-11-28 10:42:49 GMT 54.686966 -0.963162 9,475 330 265 -896
2022-11-28 10:42:46 GMT 54.686966 -0.963162 6,250 330 267 -896
2022-11-28 10:42:42 GMT 54.683052 -0.959223 6,300 330 265 -896
2022-11-28 10:42:39 GMT 54.679188 -0.955311 9,475 330 265 -896
2022-11-28 10:42:34 GMT 54.674301 -0.950317 6,450 330 265 -896
2022-11-28 10:42:31 GMT 54.671127 -0.947086 6,475 330 269 -1152
2022-11-28 10:42:28 GMT 54.668243 -0.944178 6,500 330 268 -1152
2022-11-28 10:42:25 GMT 54.665222 -0.941108 6,550 330 271 -1216
2022-11-28 10:42:22 GMT 54.662018 -0.937877 6,625 330 274 -1408
2022-11-28 10:42:19 GMT 54.657539 -0.933339 6,725 330 276 -1728
2022-11-28 10:42:16 GMT 54.654842 -0.930592 6,800 330 278 -1920
2022-11-28 10:42:11 GMT 54.648697 -0.924386 7,300 330 283 -1984
2022-11-28 10:42:08 GMT 54.646362 -0.922044 7,075 330 282 -2048
2022-11-28 10:42:05 GMT 54.643295 -0.918893 7,175 330 283 -1984
2022-11-28 10:42:01 GMT 54.637943 -0.913530 7,375 330 290 0
2022-11-28 10:41:58 GMT 54.634731 -0.910284 7,375 330 291 -1408
2022-11-28 10:41:55 GMT 54.628029 -0.903459 7,550 330 300 -1472
2022-11-28 10:41:52 GMT 54.628029 -0.903459 7,550 330 300 -1472
2022-11-28 10:41:49 GMT 54.624535 -0.899963 7,575 330 303 -1600
2022-11-28 10:41:46 GMT 54.620270 -0.895628 7,750 330 306 -1600
2022-11-28 10:41:43 GMT 54.616760 -0.892057 7,775 330 308 -1664
2022-11-28 10:41:40 GMT 54.613129 -0.888394 7,875 330 314 -1664
2022-11-28 10:41:37 GMT 54.610107 -0.885369 7,900 330 315 -1664
2022-11-28 10:41:35 GMT 54.607170 -0.882402 8,050 330 318 -1664
2022-11-28 10:41:32 GMT 54.603195 -0.878422 8,050 330 319 -1664
2022-11-28 10:41:30 GMT 54.600082 -0.875271 8,175 330 323 -1664
2022-11-28 10:41:27 GMT 54.597301 -0.872498 8,175 330 328 -1600
2022-11-28 10:41:25 GMT 54.593124 -0.868324 8,250 330 333 -1472
2022-11-28 10:41:21 GMT 54.585022 -0.860165 8,550 330 336 -1472
2022-11-28 10:41:18 GMT 54.585022 -0.860165 8,550 330 344 -1344
2022-11-28 10:41:15 GMT 54.581009 -0.856101 8,550 330 344 -1344
2022-11-28 10:41:11 GMT 54.575684 -0.850713 8,550 330 347 -1216
2022-11-28 10:41:08 GMT 54.570877 -0.845947 8,650 330 354 -832
2022-11-28 10:41:04 GMT 54.565693 -0.840704 8,675 330 354 -896
2022-11-28 10:41:00 GMT 54.555637 -0.830550 8,750 330 358 -1088
2022-11-28 10:40:57 GMT 54.555637 -0.830550 8,800 330 359 -1216
2022-11-28 10:40:53 GMT 54.549500 -0.824379 8,900 330 362 -1600
2022-11-28 10:40:51 GMT 54.546795 -0.821727 9,025 330 363 -1792
2022-11-28 10:40:48 GMT 54.542862 -0.817754 9,025 330 364 -1920
2022-11-28 10:40:47 GMT 54.541252 -0.816151 9,050 330 365 -2112
2022-11-28 10:40:46 GMT 54.539623 -0.814570 9,100 330 365 -2112
2022-11-28 10:40:44 GMT 54.532127 -0.806996 9,275 330 366 -2112
2022-11-28 10:40:41 GMT 54.532127 -0.806996 9,275 330 367 -2176
2022-11-28 10:40:38 GMT 54.528534 -0.803375 9,375 330 367 -2176
2022-11-28 10:40:36 GMT 54.525421 -0.800225 9,450 330 368 -2176
2022-11-28 10:40:35 GMT 54.524170 -0.799006 9,475 330 368 -2176
2022-11-28 10:40:34 GMT 54.522724 -0.797508 9,525 330 369 -2176
2022-11-28 10:40:32 GMT 54.518372 -0.793197 9,625 330 369 -2240
2022-11-28 10:40:30 GMT 54.516037 -0.790773 9,675 330 369 -2240
2022-11-28 10:40:29 GMT 54.514019 -0.788768 9,750 330 370 -2240
2022-11-28 10:40:27 GMT 54.511414 -0.786188 9,800 330 370 -2304
2022-11-28 10:40:25 GMT 54.505325 -0.780110 9,925 330 370 -2368
2022-11-28 10:40:23 GMT 54.505325 -0.780110 10,100 330 371 -2496
2022-11-28 10:40:20 GMT 54.500885 -0.775586 10,100 330 371 -2496
2022-11-28 10:40:19 GMT 54.499237 -0.773971 10,150 330 371 -2560
2022-11-28 10:40:17 GMT 54.496330 -0.771040 10,225 330 371 0
2022-11-28 10:40:15 GMT 54.494293 -0.768962 10,275 330 372 -2432
2022-11-28 10:40:14 GMT 54.492874 -0.767589 10,325 330 372 -2432
2022-11-28 10:40:13 GMT 54.491070 -0.765797 10,375 330 372 -2368
2022-11-28 10:40:10 GMT 54.487160 -0.761885 10,475 330 373 -2304
2022-11-28 10:40:07 GMT 54.480927 -0.755552 10,650 330 375 -2176
2022-11-28 10:40:04 GMT 54.478779 -0.753396 10,650 330 375 -2112
2022-11-28 10:40:02 GMT 54.475342 -0.749978 10,750 330 377 -2112
2022-11-28 10:40:00 GMT 54.472916 -0.747555 10,800 330 377 -2112
2022-11-28 10:39:59 GMT 54.470913 -0.745489 10,850 330 378 -2176
2022-11-28 10:39:57 GMT 54.467701 -0.742326 10,925 330 379 -2176
2022-11-28 10:39:55 GMT 54.464813 -0.739396 11,000 330 380 -2240
2022-11-28 10:39:53 GMT 54.462479 -0.737053 11,050 330 380 -2304
2022-11-28 10:39:52 GMT 54.460098 -0.734711 11,100 330 381 -2368
2022-11-28 10:39:50 GMT 54.457088 -0.731673 11,200 330 383 -2496
2022-11-28 10:39:49 GMT 54.453827 -0.728427 11,300 330 384 -2624
2022-11-28 10:39:46 GMT 54.452042 -0.726633 11,350 330 384 -2624
2022-11-28 10:39:43 GMT 54.446800 -0.721352 11,650 330 384 -2624
2022-11-28 10:39:40 GMT 54.441650 -0.716212 11,650 330 385 -2624
2022-11-28 10:39:38 GMT 54.439270 -0.713869 11,700 330 386 -2624
2022-11-28 10:39:37 GMT 54.437767 -0.712364 11,750 330 386 -2624
2022-11-28 10:39:35 GMT 54.434090 -0.708701 11,850 330 387 -2688
2022-11-28 10:39:33 GMT 54.430893 -0.705548 11,950 330 387 -2688
2022-11-28 10:39:32 GMT 54.429337 -0.704014 12,000 330 387 -2752
2022-11-28 10:39:31 GMT 54.427597 -0.702236 12,050 330 387 -2816
2022-11-28 10:39:29 GMT 54.423019 -0.697713 12,250 330 388 -2944
2022-11-28 10:39:26 GMT 54.419891 -0.694552 12,275 330 387 -3072
2022-11-28 10:39:25 GMT 54.416840 -0.691492 12,400 330 387 -3200
2022-11-28 10:39:22 GMT 54.413040 -0.687696 12,625 330 388 -3264
2022-11-28 10:39:19 GMT 54.409279 -0.683982 12,650 330 388 -3200
2022-11-28 10:39:16 GMT 54.404434 -0.679133 12,825 330 388 -3136
2022-11-28 10:39:15 GMT 54.402924 -0.677598 12,875 330 388 -3136
2022-11-28 10:39:13 GMT 54.398712 -0.673397 13,000 330 389 -3136
2022-11-28 10:39:11 GMT 54.396240 -0.670974 13,100 330 390 -3072
2022-11-28 10:39:09 GMT 54.393036 -0.667743 13,200 330 390 -3008
2022-11-28 10:39:08 GMT 54.391525 -0.666288 13,250 330 390 -3008
2022-11-28 10:39:06 GMT 54.388550 -0.663300 13,325 330 391 -3008
2022-11-28 10:39:04 GMT 54.386280 -0.661094 13,400 330 391 -2944
2022-11-28 10:39:03 GMT 54.383862 -0.658680 13,475 330 392 -2944
2022-11-28 10:39:02 GMT 54.380585 -0.655464 13,575 330 393 -2944
2022-11-28 10:39:00 GMT 54.379166 -0.654010 13,625 330 393 -2944
2022-11-28 10:38:59 GMT 54.375759 -0.650690 13,725 331 394 -2944
2022-11-28 10:38:57 GMT 54.374363 -0.649275 13,775 331 394 -2944
2022-11-28 10:38:56 GMT 54.372597 -0.647528 13,825 330 395 -3008
2022-11-28 10:38:54 GMT 54.369644 -0.644558 13,925 331 396 -3008
2022-11-28 10:38:52 GMT 54.366257 -0.641246 14,050 331 396 -3072
2022-11-28 10:38:51 GMT 54.361328 -0.636375 14,175 331 396 -3008
2022-11-28 10:38:49 GMT 54.361328 -0.636375 14,200 331 396 -3008
2022-11-28 10:38:48 GMT 54.359619 -0.634703 14,250 331 396 -3008
2022-11-28 10:38:46 GMT 54.357925 -0.633006 14,300 331 397 -3008
2022-11-28 10:38:45 GMT 54.355453 -0.630583 14,375 331 398 -3008
2022-11-28 10:38:44 GMT 54.353321 -0.628468 14,450 331 398 -3008
2022-11-28 10:38:42 GMT 54.350876 -0.626059 14,525 331 399 -2944
2022-11-28 10:38:41 GMT 54.348724 -0.623959 14,600 331 399 -2944
2022-11-28 10:38:40 GMT 54.346992 -0.622309 14,650 330 399 -2944
2022-11-28 10:38:38 GMT 54.344559 -0.619839 14,725 330 399 -2944
2022-11-28 10:38:36 GMT 54.340530 -0.615881 14,850 330 401 -2880
2022-11-28 10:38:35 GMT 54.339031 -0.614319 14,900 330 401 -2880
2022-11-28 10:38:33 GMT 54.335724 -0.611034 14,975 329 402 -2880
2022-11-28 10:38:29 GMT 54.329906 -0.605080 15,150 329 403 -2880
2022-11-28 10:38:28 GMT 54.327579 -0.602583 15,225 328 403 -2880
2022-11-28 10:38:27 GMT 54.324417 -0.599240 15,325 327 403 -2944
2022-11-28 10:38:23 GMT 54.320389 -0.594716 15,450 325 404 -2944
2022-11-28 10:38:22 GMT 54.318779 -0.592846 15,500 325 404 -3008
2022-11-28 10:38:21 GMT 54.317291 -0.591181 15,550 324 405 -3008
2022-11-28 10:38:19 GMT 54.314266 -0.587519 15,650 323 405 -3008
2022-11-28 10:38:17 GMT 54.311462 -0.583810 15,750 322 405 -3008
2022-11-28 10:38:16 GMT 54.309265 -0.580983 15,825 321 405 -3072
2022-11-28 10:38:14 GMT 54.306442 -0.577032 15,925 319 405 -3136
2022-11-28 10:38:13 GMT 54.305145 -0.575167 15,975 319 405 -3136
2022-11-28 10:38:11 GMT 54.302486 -0.571289 16,075 318 405 -3136
2022-11-28 10:38:10 GMT 54.301277 -0.569375 16,125 317 406 -3200
2022-11-28 10:38:09 GMT 54.299416 -0.566545 16,175 316 405 -3200
2022-11-28 10:38:08 GMT 54.298096 -0.564423 16,225 316 406 -3200
2022-11-28 10:38:06 GMT 54.295177 -0.559470 16,350 314 406 -3200
2022-11-28 10:38:04 GMT 54.293747 -0.556910 16,400 314 406 -3200
2022-11-28 10:38:03 GMT 54.292198 -0.554227 16,475 313 406 -3200
2022-11-28 10:38:02 GMT 54.291000 -0.551982 16,525 313 407 -3264
2022-11-28 10:38:01 GMT 54.287201 -0.544793 16,700 312 406 -3264
2022-11-28 10:37:59 GMT 54.287201 -0.544793 16,700 311 406 -3264
2022-11-28 10:37:58 GMT 54.285820 -0.542159 16,750 311 407 -3264
2022-11-28 10:37:56 GMT 54.283447 -0.537415 16,850 310 408 -3264
2022-11-28 10:37:55 GMT 54.282028 -0.534533 16,925 310 408 -3328
2022-11-28 10:37:52 GMT 54.278687 -0.527748 17,075 310 409 -3392
2022-11-28 10:37:51 GMT 54.277534 -0.525405 17,125 310 409 -3392
2022-11-28 10:37:50 GMT 54.274063 -0.518241 17,300 310 411 -3456
2022-11-28 10:37:47 GMT 54.272739 -0.515550 17,350 310 411 -3520
2022-11-28 10:37:45 GMT 54.269806 -0.509609 17,500 310 411 -3520
2022-11-28 10:37:44 GMT 54.268551 -0.506987 17,550 310 411 -3584
2022-11-28 10:37:43 GMT 54.267342 -0.504563 17,600 310 411 -3584
2022-11-28 10:37:41 GMT 54.264828 -0.499474 17,725 310 412 -3584
2022-11-28 10:37:40 GMT 54.263626 -0.496974 17,800 310 413 -3584
2022-11-28 10:37:39 GMT 54.262390 -0.494463 17,850 310 413 -3584
2022-11-28 10:37:37 GMT 54.259918 -0.489362 17,950 310 414 -3648
2022-11-28 10:37:35 GMT 54.257401 -0.484105 18,100 310 415 -3584
2022-11-28 10:37:33 GMT 54.256165 -0.481594 18,175 310 415 -3584
2022-11-28 10:37:32 GMT 54.254196 -0.477591 18,225 310 416 -3584
2022-11-28 10:37:30 GMT 54.251606 -0.472251 18,375 310 416 -3584
2022-11-28 10:37:29 GMT 54.249138 -0.467081 18,500 310 416 -3520
2022-11-28 10:37:26 GMT 54.245647 -0.459810 18,650 310 417 -3520
2022-11-28 10:37:25 GMT 54.245647 -0.459810 18,675 309 416 -3520
2022-11-28 10:37:24 GMT 54.244019 -0.456337 18,750 309 417 -3520
2022-11-28 10:37:22 GMT 54.241783 -0.451651 18,850 309 417 -3520
2022-11-28 10:37:21 GMT 54.240479 -0.448905 18,925 309 418 -3584
2022-11-28 10:37:19 GMT 54.238060 -0.443654 19,025 309 418 -3584
2022-11-28 10:37:17 GMT 54.235825 -0.438807 19,150 308 419 -3648
2022-11-28 10:37:15 GMT 54.233170 -0.433071 19,275 308 419 -3712
2022-11-28 10:37:13 GMT 54.231354 -0.429016 19,375 308 420 -3776
2022-11-28 10:37:12 GMT 54.230145 -0.426366 19,450 308 420 -3776
2022-11-28 10:37:11 GMT 54.228928 -0.423601 19,500 308 420 -3840
2022-11-28 10:37:08 GMT 54.224808 -0.414655 19,725 309 422 -3840
2022-11-28 10:37:07 GMT 54.223618 -0.412066 19,800 309 422 -3840
2022-11-28 10:37:06 GMT 54.222416 -0.409402 19,850 309 422 -3840
2022-11-28 10:37:04 GMT 54.220001 -0.404140 19,975 309 422 -3776
2022-11-28 10:37:03 GMT 54.218693 -0.401324 20,050 309 422 -3776
2022-11-28 10:37:02 GMT 54.217575 -0.398901 20,100 310 423 -3712
2022-11-28 10:37:01 GMT 54.216248 -0.396057 20,175 310 423 -3712
2022-11-28 10:37:00 GMT 54.213108 -0.389611 20,325 310 425 -3712
2022-11-28 10:36:57 GMT 54.211292 -0.385895 20,425 311 425 -3712
2022-11-28 10:36:55 GMT 54.208778 -0.380806 20,550 311 426 -3712
2022-11-28 10:36:54 GMT 54.207333 -0.377897 20,600 311 426 -3776
2022-11-28 10:36:53 GMT 54.206085 -0.375340 20,700 311 426 -3776
2022-11-28 10:36:51 GMT 54.202744 -0.368748 20,850 311 427 -3840
2022-11-28 10:36:49 GMT 54.201004 -0.365295 21,150 311 428 -3776
2022-11-28 10:36:47 GMT 54.199677 -0.362627 21,150 311 428 -3776
2022-11-28 10:36:45 GMT 54.193863 -0.351092 21,250 311 429 -3712
2022-11-28 10:36:43 GMT 54.193863 -0.351092 21,275 311 429 -3712
2022-11-28 10:36:41 GMT 54.191391 -0.346226 21,350 311 429 -3712
2022-11-28 10:36:39 GMT 54.188156 -0.339768 21,550 311 431 -3584
2022-11-28 10:36:37 GMT 54.185486 -0.334455 21,625 311 431 -3584
2022-11-28 10:36:35 GMT 54.183266 -0.330075 21,775 311 432 -3456
2022-11-28 10:36:34 GMT 54.181778 -0.327166 21,825 311 433 -3392
2022-11-28 10:36:33 GMT 54.178802 -0.321193 21,950 311 434 -3200
2022-11-28 10:36:30 GMT 54.177586 -0.318765 22,000 311 434 -3072
2022-11-28 10:36:29 GMT 54.176235 -0.316180 22,050 311 435 -2944
2022-11-28 10:36:28 GMT 54.172485 -0.308637 22,200 311 436 -2752
2022-11-28 10:36:26 GMT 54.172485 -0.308637 22,200 311 436 -2752
2022-11-28 10:36:24 GMT 54.167038 -0.297808 22,350 311 439 -2240
2022-11-28 10:36:22 GMT 54.167038 -0.297808 22,375 311 439 -2176
2022-11-28 10:36:21 GMT 54.165577 -0.294934 22,400 311 441 -2048
2022-11-28 10:36:19 GMT 54.163467 -0.290824 22,475 311 441 -2048
2022-11-28 10:36:18 GMT 54.161407 -0.286665 22,475 311 441 -1792
2022-11-28 10:36:16 GMT 54.159439 -0.282741 22,575 311 442 -1792
2022-11-28 10:36:15 GMT 54.155960 -0.275914 22,650 311 443 -1664
2022-11-28 10:36:12 GMT 54.154499 -0.273043 22,675 311 443 -1664
2022-11-28 10:36:11 GMT 54.152390 -0.268930 22,725 311 443 -1600
2022-11-28 10:36:10 GMT 54.151100 -0.266338 22,775 311 443 -1600
2022-11-28 10:36:09 GMT 54.149780 -0.263672 22,775 311 445 -1536
2022-11-28 10:36:08 GMT 54.146957 -0.258179 22,825 311 445 -1472
2022-11-28 10:36:05 GMT 54.141090 -0.246627 22,925 311 447 -1408
2022-11-28 10:36:03 GMT 54.141090 -0.246627 22,925 311 448 -1408
2022-11-28 10:36:01 GMT 54.135681 -0.235892 23,000 311 450 -1344
2022-11-28 10:35:59 GMT 54.135681 -0.235892 23,000 311 450 -1344
2022-11-28 10:35:57 GMT 54.132896 -0.230390 23,050 311 450 -1344
2022-11-28 10:35:56 GMT 54.131500 -0.227562 23,050 311 452 -1280
2022-11-28 10:35:54 GMT 54.128799 -0.222231 23,175 311 452 -1280
2022-11-28 10:35:51 GMT 54.125076 -0.214960 23,175 312 453 -1344
2022-11-28 10:35:50 GMT 54.123642 -0.212193 23,200 312 453 -1344
2022-11-28 10:35:48 GMT 54.120758 -0.206543 23,225 312 453 -1344
2022-11-28 10:35:47 GMT 54.119476 -0.204032 23,275 312 454 -1472
2022-11-28 10:35:45 GMT 54.117348 -0.199854 23,300 312 454 -1536
2022-11-28 10:35:44 GMT 54.115082 -0.195478 23,475 312 456 -1728
2022-11-28 10:35:42 GMT 54.111511 -0.188651 23,475 312 456 -1728
2022-11-28 10:35:39 GMT 54.107895 -0.181667 23,475 312 456 -1728
2022-11-28 10:35:38 GMT 54.105061 -0.176347 23,550 312 456 -1792
2022-11-28 10:35:36 GMT 54.103729 -0.173819 23,575 312 457 -1856
2022-11-28 10:35:35 GMT 54.102314 -0.171096 23,600 312 457 -1856
2022-11-28 10:35:34 GMT 54.098217 -0.163341 23,700 312 457 -1984
2022-11-28 10:35:32 GMT 54.098217 -0.163341 23,700 312 457 -1984
2022-11-28 10:35:30 GMT 54.095516 -0.158171 23,750 312 457 -1984
2022-11-28 10:35:28 GMT 54.092148 -0.151690 23,850 311 457 0
2022-11-28 10:35:25 GMT 54.088161 -0.143953 23,925 311 458 -2048
2022-11-28 10:35:24 GMT 54.086765 -0.141207 23,975 311 458 -2048
2022-11-28 10:35:22 GMT 54.084156 -0.135956 24,025 310 457 -1984
2022-11-28 10:35:20 GMT 54.082214 -0.131993 24,075 310 457 -1920
2022-11-28 10:35:19 GMT 54.078804 -0.125131 24,175 310 457 -1792
2022-11-28 10:35:17 GMT 54.077408 -0.122223 24,200 310 457 -1792
2022-11-28 10:35:15 GMT 54.074566 -0.116245 24,250 310 457 -1728
2022-11-28 10:35:14 GMT 54.073124 -0.113418 24,300 310 457 -1728
2022-11-28 10:35:13 GMT 54.071869 -0.110805 24,325 310 456 -1728
2022-11-28 10:35:12 GMT 54.069305 -0.105469 24,350 310 456 -1728
2022-11-28 10:35:09 GMT 54.066055 -0.098877 24,425 310 456 -1728
2022-11-28 10:35:07 GMT 54.063309 -0.093305 24,500 311 455 -1728
2022-11-28 10:35:05 GMT 54.061207 -0.089022 24,550 311 455 -1792
2022-11-28 10:35:04 GMT 54.058228 -0.082963 24,600 311 454 -1856
2022-11-28 10:35:02 GMT 54.056740 -0.079893 24,650 311 454 -1792
2022-11-28 10:35:01 GMT 54.054131 -0.074723 24,700 311 453 -1728
2022-11-28 10:34:59 GMT 54.052963 -0.072353 24,725 311 453 -1728
2022-11-28 10:34:57 GMT 54.049755 -0.065918 24,800 311 452 -1600
2022-11-28 10:34:56 GMT 54.048981 -0.064348 24,800 311 452 -1472
2022-11-28 10:34:55 GMT 54.047653 -0.061602 24,825 311 452 -1472
2022-11-28 10:34:54 GMT 54.043331 -0.052993 24,900 311 452 -1408
2022-11-28 10:34:52 GMT 54.043331 -0.052993 24,925 311 452 -1344
2022-11-28 10:34:50 GMT 54.040676 -0.047661 24,950 311 451 -1408
2022-11-28 10:34:49 GMT 54.037766 -0.041827 25,000 311 451 -1408
2022-11-28 10:34:46 GMT 54.036579 -0.039422 25,025 311 451 -1472
2022-11-28 10:34:45 GMT 54.035000 -0.036190 25,050 311 451 -1600
2022-11-28 10:34:43 GMT 54.032532 -0.031263 25,100 311 450 -1856
2022-11-28 10:34:42 GMT 54.031181 -0.028516 25,125 311 450 -1856
2022-11-28 10:34:41 GMT 54.028381 -0.022914 25,200 311 450 -1920
2022-11-28 10:34:40 GMT 54.027225 -0.020599 25,225 311 449 -1984
2022-11-28 10:34:37 GMT 54.021500 -0.009128 25,375 311 447 -2176
2022-11-28 10:34:35 GMT 54.021500 -0.009128 25,375 311 446 -2304
2022-11-28 10:34:33 GMT 54.019497 -0.005008 25,450 311 446 -2368
2022-11-28 10:34:32 GMT 54.017494 -0.001050 25,500 311 445 -2432
2022-11-28 10:34:31 GMT 54.015793 0.002354 25,550 311 444 -2432
2022-11-28 10:34:30 GMT 54.014374 0.005179 25,600 311 443 -2496
2022-11-28 10:34:29 GMT 54.012142 0.009694 25,675 311 442 -2432
2022-11-28 10:34:26 GMT 54.009430 0.015067 25,775 311 440 -2240
2022-11-28 10:34:25 GMT 54.007965 0.017970 25,825 311 440 -2112
2022-11-28 10:34:23 GMT 54.005253 0.023427 25,900 311 440 -1728
2022-11-28 10:34:22 GMT 54.003994 0.025931 25,925 311 439 -1472
2022-11-28 10:34:21 GMT 54.002609 0.028800 25,950 311 439 -1216
2022-11-28 10:34:19 GMT 53.999851 0.034251 25,975 311 439 -640
2022-11-28 10:34:18 GMT 53.998535 0.036961 26,000 311 439 0
2022-11-28 10:34:16 GMT 53.995941 0.042168 26,000 311 439 -128
2022-11-28 10:34:15 GMT 53.994553 0.044887 26,000 311 439 -64
2022-11-28 10:34:14 GMT 53.993088 0.047791 26,000 311 438 -64
2022-11-28 10:34:13 GMT 53.989609 0.054770 26,000 311 437 -64
2022-11-28 10:34:11 GMT 53.989609 0.054770 26,000 311 437 -64
2022-11-28 10:34:09 GMT 53.986404 0.061210 26,025 311 437 -64
2022-11-28 10:34:08 GMT 53.983837 0.066241 26,025 311 437 0
2022-11-28 10:34:06 GMT 53.982422 0.069135 26,025 311 437 0
2022-11-28 10:34:05 GMT 53.981697 0.070603 26,025 311 436 0
2022-11-28 10:34:03 GMT 53.978943 0.076041 26,000 311 436 0
2022-11-28 10:34:02 GMT 53.977505 0.078924 26,000 311 437 0
2022-11-28 10:34:01 GMT 53.976295 0.081347 26,000 311 437 0
2022-11-28 10:33:59 GMT 53.973587 0.086714 26,000 311 437 0
2022-11-28 10:33:58 GMT 53.972244 0.089425 26,000 311 438 0
2022-11-28 10:33:57 GMT 53.971176 0.091607 26,000 311 438 0
2022-11-28 10:33:56 GMT 53.969730 0.094515 26,000 311 438 0
2022-11-28 10:33:54 GMT 53.967087 0.099740 26,000 311 439 -64
2022-11-28 10:33:53 GMT 53.965668 0.102565 26,000 311 439 -128
2022-11-28 10:33:50 GMT 53.961723 0.110429 26,000 311 442 -256
2022-11-28 10:33:49 GMT 53.960587 0.112688 26,000 311 442 -320
2022-11-28 10:33:48 GMT 53.957153 0.119516 26,025 311 443 -448
2022-11-28 10:33:45 GMT 53.955276 0.123282 26,025 311 444 -576
2022-11-28 10:33:44 GMT 53.953995 0.125793 26,025 311 444 -640
2022-11-28 10:33:43 GMT 53.951344 0.131190 26,050 311 446 -704
2022-11-28 10:33:41 GMT 53.949600 0.134661 26,075 311 446 -768
2022-11-28 10:33:39 GMT 53.947311 0.139212 26,100 311 447 -960
2022-11-28 10:33:36 GMT 53.942642 0.148472 26,150 311 448 -1024
2022-11-28 10:33:34 GMT 53.940029 0.153728 26,175 311 449 -1152
2022-11-28 10:33:33 GMT 53.938637 0.156474 26,200 311 449 -1280
2022-11-28 10:33:32 GMT 53.935936 0.161887 26,250 311 450 -1344
2022-11-28 10:33:30 GMT 53.934723 0.164229 26,275 311 450 -1408
2022-11-28 10:33:29 GMT 53.933327 0.167057 26,300 311 450 -1472
2022-11-28 10:33:28 GMT 53.930534 0.172631 26,350 311 451 -1664
2022-11-28 10:33:26 GMT 53.929230 0.175310 26,375 311 451 -1664
2022-11-28 10:33:25 GMT 53.927856 0.177979 26,400 311 451 -1728
2022-11-28 10:33:24 GMT 53.926392 0.180871 26,425 311 452 -1792
2022-11-28 10:33:22 GMT 53.924149 0.185355 26,475 311 453 -2048
2022-11-28 10:33:21 GMT 53.922295 0.189029 26,525 311 453 -2048
2022-11-28 10:33:20 GMT 53.921505 0.190645 26,550 311 453 -2176
2022-11-28 10:33:17 GMT 53.917374 0.198774 26,650 311 454 -2176
2022-11-28 10:33:15 GMT 53.913116 0.207092 26,750 311 454 -2240
2022-11-28 10:33:14 GMT 53.913116 0.207092 26,775 311 455 -2240
2022-11-28 10:33:13 GMT 53.911560 0.210153 26,800 311 455 -2240
2022-11-28 10:33:11 GMT 53.908749 0.215768 26,875 312 455 -2240
2022-11-28 10:33:10 GMT 53.907444 0.218192 26,925 312 455 -2240
2022-11-28 10:33:08 GMT 53.904694 0.223572 27,000 312 455 -2176
2022-11-28 10:33:06 GMT 53.903442 0.226028 27,050 312 456 -2176
2022-11-28 10:33:05 GMT 53.902084 0.228673 27,075 312 456 -2176
2022-11-28 10:33:04 GMT 53.897949 0.236691 27,150 312 457 -2176
2022-11-28 10:33:02 GMT 53.897949 0.236691 27,225 312 457 -2176
2022-11-28 10:33:01 GMT 53.895851 0.240730 27,275 312 458 -2176
2022-11-28 10:32:59 GMT 53.891617 0.248808 27,400 312 461 -2112
2022-11-28 10:32:56 GMT 53.887390 0.256845 27,450 312 461 -2112
2022-11-28 10:32:53 GMT 53.884369 0.262652 27,575 312 461 -2112
2022-11-28 10:32:50 GMT 53.880585 0.269973 27,650 312 461 -2176
2022-11-28 10:32:48 GMT 53.876999 0.276699 27,750 312 461 -2176
2022-11-28 10:32:45 GMT 53.872902 0.284514 28,175 312 462 -2240
2022-11-28 10:32:42 GMT 53.869766 0.290510 28,175 312 462 -2240
2022-11-28 10:32:39 GMT 53.864803 0.299943 28,150 312 463 -2560
2022-11-28 10:32:36 GMT 53.859283 0.310521 28,275 312 465 -2112
2022-11-28 10:32:33 GMT 53.855679 0.317311 28,350 312 464 -2304
2022-11-28 10:32:30 GMT 53.852234 0.323861 28,475 312 464 -2176
2022-11-28 10:32:28 GMT 53.848892 0.330375 28,475 312 465 -2112
2022-11-28 10:32:25 GMT 53.844738 0.338314 28,675 312 466 -2112
2022-11-28 10:32:22 GMT 53.840469 0.346540 28,725 312 467 -2112
2022-11-28 10:32:19 GMT 53.830074 0.366669 28,875 311 467 -2112
2022-11-28 10:32:15 GMT 53.830074 0.366669 28,950 311 468 -2112
2022-11-28 10:32:12 GMT 53.826141 0.374398 29,100 311 470 -2112
2022-11-28 10:32:09 GMT 53.821060 0.384365 29,200 311 470 -2112
2022-11-28 10:32:06 GMT 53.817692 0.391065 29,375 311 472 -2112
2022-11-28 10:32:03 GMT 53.814056 0.398254 29,375 311 472 -2112
2022-11-28 10:32:01 GMT 53.810989 0.404218 29,425 311 474 -2112
2022-11-28 10:31:58 GMT 53.805130 0.415754 29,600 311 473 -2112
2022-11-28 10:31:55 GMT 53.801308 0.423458 29,775 311 475 -2112
2022-11-28 10:31:52 GMT 53.796341 0.433175 29,775 311 475 -2112
2022-11-28 10:31:49 GMT 53.792973 0.439776 29,925 311 475 -2112
2022-11-28 10:31:46 GMT 53.789387 0.446885 30,000 311 476 -2176
2022-11-28 10:31:43 GMT 53.784126 0.457225 30,075 311 477 -2176
2022-11-28 10:31:40 GMT 53.779907 0.465428 30,200 311 477 -2176
2022-11-28 10:31:38 GMT 53.777802 0.469587 30,300 312 478 -2176
2022-11-28 10:31:35 GMT 53.774231 0.476493 30,450 312 479 -2176
2022-11-28 10:31:33 GMT 53.771324 0.482187 30,400 312 479 -2176
2022-11-28 10:31:30 GMT 53.763878 0.496566 31,700 311 486 -3008
2022-11-28 10:31:28 GMT 53.757919 0.508118 31,700 311 486 -3008
2022-11-28 10:31:25 GMT 53.757919 0.508118 30,750 312 481 -2112
2022-11-28 10:31:22 GMT 53.755188 0.513297 30,800 312 481 -2112
2022-11-28 10:31:20 GMT 53.751308 0.520800 30,925 312 482 -2112
2022-11-28 10:31:17 GMT 53.748192 0.526778 30,925 312 482 -2112
2022-11-28 10:31:14 GMT 53.743114 0.536553 31,150 311 484 -2048
2022-11-28 10:31:11 GMT 53.733013 0.556183 31,250 311 485 -2112
2022-11-28 10:31:08 GMT 53.733013 0.556183 31,800 311 487 -2816
2022-11-28 10:31:05 GMT 53.729416 0.563363 31,450 311 487 -2304
2022-11-28 10:31:02 GMT 53.724472 0.573172 31,700 311 487 -2624
2022-11-28 10:30:59 GMT 53.721607 0.578802 31,650 311 487 -2496
2022-11-28 10:30:57 GMT 53.717045 0.587849 31,775 311 487 -2752
2022-11-28 10:30:53 GMT 53.712299 0.597220 31,925 311 487 -2944
2022-11-28 10:30:51 GMT 53.709457 0.602875 32,375 311 487 -3072
2022-11-28 10:30:48 GMT 53.704468 0.612723 32,250 311 486 -3072
2022-11-28 10:30:45 GMT 53.699936 0.621826 32,375 311 486 -3072
2022-11-28 10:30:42 GMT 53.696182 0.629203 32,450 311 485 -3072
2022-11-28 10:30:39 GMT 53.691212 0.639227 33,700 311 482 -3072
2022-11-28 10:30:36 GMT 53.687531 0.646497 32,900 311 484 -3136
2022-11-28 10:30:33 GMT 53.683228 0.655099 32,950 311 484 -3136
2022-11-28 10:30:31 GMT 53.676453 0.668440 33,175 311 483 -3136
2022-11-28 10:30:28 GMT 53.676453 0.668440 33,175 311 483 -3200
2022-11-28 10:30:25 GMT 53.671509 0.678092 33,600 311 483 -3136
2022-11-28 10:30:22 GMT 53.665512 0.689877 33,550 311 483 -3136
2022-11-28 10:30:19 GMT 53.658714 0.703206 33,925 311 482 -2880
2022-11-28 10:30:16 GMT 53.658714 0.703206 34,150 311 483 -2816
2022-11-28 10:30:13 GMT 53.653702 0.713091 34,225 311 483 -2304
2022-11-28 10:30:09 GMT 53.648071 0.724234 34,125 311 483 -2496
2022-11-28 10:30:07 GMT 53.644936 0.730348 34,750 311 486 -1344
2022-11-28 10:30:04 GMT 53.642166 0.735849 34,375 311 484 -2048
2022-11-28 10:30:01 GMT 53.635815 0.748444 34,550 311 485 -1856
2022-11-28 10:29:58 GMT 53.631718 0.756603 34,750 311 485 -1600
2022-11-28 10:29:55 GMT 53.627472 0.764962 34,700 311 485 -1728
2022-11-28 10:29:52 GMT 53.623398 0.772967 34,875 311 487 -1088
2022-11-28 10:29:49 GMT 53.618774 0.782130 34,875 311 486 -1152
2022-11-28 10:29:47 GMT 53.615795 0.788027 34,975 311 487 -1472
2022-11-28 10:29:44 GMT 53.612869 0.793841 34,975 311 487 -1344
2022-11-28 10:29:41 GMT 53.608246 0.802944 35,025 311 487 -1856
2022-11-28 10:29:38 GMT 53.603714 0.811890 35,075 311 487 -1536
2022-11-28 10:29:35 GMT 53.599274 0.820600 35,275 311 487 -1792
2022-11-28 10:29:32 GMT 53.589352 0.840050 35,275 311 487 -1920
2022-11-28 10:29:29 GMT 53.589352 0.840050 35,375 311 487 -1984
2022-11-28 10:29:27 GMT 53.585953 0.846654 35,475 311 487 -2304
2022-11-28 10:29:24 GMT 53.583347 0.851764 35,900 311 485 -2304
2022-11-28 10:29:21 GMT 53.578461 0.861215 35,725 311 485 -2496
2022-11-28 10:29:17 GMT 53.571030 0.875846 35,850 311 485 -2496
2022-11-28 10:29:14 GMT 53.568787 0.880240 36,525 311 486 -2368
2022-11-28 10:29:11 GMT 53.563568 0.890442 36,175 311 486 -2496
2022-11-28 10:29:07 GMT 53.556839 0.903547 36,325 311 486 -2368
2022-11-28 10:29:04 GMT 53.553680 0.909825 36,525 311 486 -2816
2022-11-28 10:29:01 GMT 53.549133 0.918732 36,800 311 485 -2560
2022-11-28 10:28:57 GMT 53.543964 0.928749 36,925 311 485 -2560
2022-11-28 10:28:54 GMT 53.539398 0.937683 36,800 311 485 -2624
2022-11-28 10:28:52 GMT 53.534794 0.946682 36,900 311 485 -2624
2022-11-28 10:28:48 GMT 53.530838 0.954518 37,000 311 486 -2496
2022-11-28 10:28:46 GMT 53.526443 0.963030 37,900 311 490 -1216
2022-11-28 10:28:43 GMT 53.522736 0.970351 37,350 311 487 -1856
2022-11-28 10:28:40 GMT 53.519058 0.977460 37,500 311 487 -1856
2022-11-28 10:28:37 GMT 53.508587 0.997898 37,525 311 488 -1600
2022-11-28 10:28:34 GMT 53.508587 0.997898 37,775 311 488 -1664
2022-11-28 10:28:31 GMT 53.503929 1.006945 37,875 311 490 -1216
2022-11-28 10:28:27 GMT 53.499390 1.015765 37,750 311 490 -1216
2022-11-28 10:28:24 GMT 53.494949 1.024397 37,775 311 490 -1216
2022-11-28 10:28:22 GMT 53.492012 1.030130 37,850 311 492 -1088
2022-11-28 10:28:19 GMT 53.482796 1.048144 37,925 311 492 -896
2022-11-28 10:28:16 GMT 53.482796 1.048144 37,950 311 492 -768
2022-11-28 10:28:13 GMT 53.479614 1.054295 37,950 311 493 -640
2022-11-28 10:28:11 GMT 53.476501 1.060338 37,975 311 493 -448
2022-11-28 10:28:09 GMT 53.472931 1.067322 38,000 311 494 64
2022-11-28 10:28:06 GMT 53.469040 1.074855 38,000 311 493 64
2022-11-28 10:28:03 GMT 53.462677 1.087176 38,000 311 494 0
2022-11-28 10:28:00 GMT 53.453201 1.105539 38,000 311 494 0
2022-11-28 10:27:57 GMT 53.453201 1.105539 38,000 311 494 0
2022-11-28 10:27:54 GMT 53.450348 1.111154 38,000 311 494 0
2022-11-28 10:27:52 GMT 53.447388 1.116839 38,000 311 494 0
2022-11-28 10:27:50 GMT 53.443367 1.124645 38,000 311 494 0
2022-11-28 10:27:47 GMT 53.438477 1.134096 38,000 311 494 0
2022-11-28 10:27:44 GMT 53.434753 1.141323 38,000 311 493 0
2022-11-28 10:27:40 GMT 53.429817 1.150979 38,000 311 493 0
2022-11-28 10:27:37 GMT 53.425209 1.159865 38,000 311 493 -64
2022-11-28 10:27:34 GMT 53.420601 1.168832 38,000 306 491 64
2022-11-28 10:27:31 GMT 53.414886 1.179932 38,000 311 493 0
2022-11-28 10:27:28 GMT 53.410965 1.187493 38,000 311 492 0
2022-11-28 10:27:25 GMT 53.406170 1.196864 38,000 311 493 -64
2022-11-28 10:27:22 GMT 53.402893 1.203238 38,000 311 492 0
2022-11-28 10:27:20 GMT 53.400375 1.208104 38,000 311 493 0
2022-11-28 10:27:17 GMT 53.394424 1.219718 38,000 311 493 0
2022-11-28 10:27:14 GMT 53.390808 1.226780 38,000 311 493 0
2022-11-28 10:27:12 GMT 53.387695 1.232901 38,000 311 493 0
2022-11-28 10:27:10 GMT 53.385086 1.238081 38,000 311 493 0
2022-11-28 10:27:07 GMT 53.380100 1.247918 38,000 311 493 0
2022-11-28 10:27:04 GMT 53.376377 1.255350 38,000 311 493 0
2022-11-28 10:27:01 GMT 53.371948 1.263899 38,000 311 492 0
2022-11-28 10:26:58 GMT 53.366043 1.275513 38,000 310 493 0
2022-11-28 10:26:55 GMT 53.363014 1.281281 38,000 310 493 0
2022-11-28 10:26:52 GMT 53.358353 1.290266 38,000 310 493 0
2022-11-28 10:26:49 GMT 53.353378 1.300183 38,000 309 493 0
2022-11-28 10:26:46 GMT 53.349655 1.307777 38,000 307 492 64
2022-11-28 10:26:43 GMT 53.345627 1.316633 38,000 306 491 64
2022-11-28 10:26:40 GMT 53.341782 1.325422 38,000 303 490 0
2022-11-28 10:26:37 GMT 53.336609 1.337899 38,000 303 490 0
2022-11-28 10:26:34 GMT 53.333130 1.346767 38,000 302 489 0
2022-11-28 10:26:31 GMT 53.330795 1.353045 38,000 301 489 0
2022-11-28 10:26:29 GMT 53.324612 1.370464 38,000 298 487 0
2022-11-28 10:26:26 GMT 53.324612 1.370464 38,000 298 487 -64
2022-11-28 10:26:23 GMT 53.318802 1.388672 38,000 297 486 0
2022-11-28 10:26:20 GMT 53.318802 1.388672 38,000 297 486 0
2022-11-28 10:26:17 GMT 53.314774 1.402326 38,000 294 485 0
2022-11-28 10:26:14 GMT 53.312599 1.410128 38,000 292 483 0
2022-11-28 10:26:11 GMT 53.309807 1.420629 38,000 294 484 0
2022-11-28 10:26:08 GMT 53.306580 1.433873 38,000 290 483 0
2022-11-28 10:26:05 GMT 53.303101 1.449411 38,000 288 482 64
2022-11-28 10:26:02 GMT 53.303101 1.449411 38,000 288 482 64
2022-11-28 10:26:00 GMT 53.301941 1.455042 38,000 288 482 64
2022-11-28 10:25:58 GMT 53.299938 1.465625 38,000 286 479 0
2022-11-28 10:25:56 GMT 53.298496 1.473380 38,000 286 479 -64
2022-11-28 10:25:53 GMT 53.296959 1.482589 38,000 286 479 0
2022-11-28 10:25:51 GMT 53.295822 1.489511 38,000 286 479 -64
2022-11-28 10:25:48 GMT 53.293533 1.503244 38,000 286 479 64
2022-11-28 10:25:46 GMT 53.292862 1.507389 38,000 286 479 64
2022-11-28 10:25:43 GMT 53.291245 1.517290 38,000 286 480 0
2022-11-28 10:25:40 GMT 53.288544 1.533534 38,000 286 480 0
2022-11-28 10:25:37 GMT 53.287369 1.540752 38,000 286 480 0
2022-11-28 10:25:34 GMT 53.285385 1.552604 38,000 286 481 0
2022-11-28 10:25:31 GMT 53.284195 1.559902 38,000 286 481 0
2022-11-28 10:25:29 GMT 53.282761 1.568379 38,000 286 481 0
2022-11-28 10:25:26 GMT 53.280621 1.581466 38,000 286 482 0
2022-11-28 10:25:23 GMT 53.279037 1.590675 38,000 286 482 -64
2022-11-28 10:25:20 GMT 53.275219 1.613779 38,000 286 482 -64
2022-11-28 10:25:17 GMT 53.275219 1.613779 38,000 286 482 -64
2022-11-28 10:25:14 GMT 53.273987 1.621033 38,000 286 482 -64
2022-11-28 10:25:11 GMT 53.272285 1.631227 38,000 286 481 0
2022-11-28 10:25:09 GMT 53.270798 1.640194 38,000 286 481 0
2022-11-28 10:25:06 GMT 53.269215 1.649807 38,000 286 481 64
2022-11-28 10:25:03 GMT 53.266888 1.663621 38,000 286 481 0
2022-11-28 10:25:00 GMT 53.264877 1.675807 38,000 286 481 0
2022-11-28 10:24:56 GMT 53.263069 1.686482 38,000 286 481 0
2022-11-28 10:24:53 GMT 53.261169 1.697702 38,000 286 481 0
2022-11-28 10:24:51 GMT 53.260025 1.704529 38,000 287 478 0
2022-11-28 10:24:48 GMT 53.258240 1.715280 38,000 286 481 0
2022-11-28 10:24:45 GMT 53.256134 1.727836 38,000 286 481 0
2022-11-28 10:24:43 GMT 53.254971 1.734790 38,000 286 481 0
2022-11-28 10:24:41 GMT 53.254086 1.740040 38,000 286 481 0
2022-11-28 10:24:39 GMT 53.250919 1.758943 38,000 286 481 0
2022-11-28 10:24:35 GMT 53.248901 1.771075 38,000 286 481 -64
2022-11-28 10:24:32 GMT 53.248901 1.771075 38,000 286 481 0
2022-11-28 10:24:29 GMT 53.246658 1.784337 38,000 286 481 -64
2022-11-28 10:24:26 GMT 53.244919 1.794617 38,000 286 480 0
2022-11-28 10:24:23 GMT 53.243332 1.803939 38,000 286 480 0
2022-11-28 10:24:20 GMT 53.241653 1.813956 38,000 286 480 0
2022-11-28 10:24:18 GMT 53.240211 1.822519 38,000 286 480 0
2022-11-28 10:24:15 GMT 53.238373 1.833461 38,000 286 482 0
2022-11-28 10:24:11 GMT 53.235928 1.847884 38,000 286 480 64
2022-11-28 10:24:09 GMT 53.234436 1.856846 38,000 286 481 64
2022-11-28 10:24:06 GMT 53.233246 1.864066 38,000 286 481 64
2022-11-28 10:24:04 GMT 53.231461 1.874461 38,000 286 481 0
2022-11-28 10:24:01 GMT 53.229538 1.885803 38,000 286 482 0
2022-11-28 10:23:57 GMT 53.227688 1.896838 38,000 286 482 0
2022-11-28 10:23:55 GMT 53.226665 1.902816 38,000 286 482 -64
2022-11-28 10:23:52 GMT 53.224411 1.916016 38,000 286 482 0
2022-11-28 10:23:49 GMT 53.222672 1.926217 38,000 286 482 0
2022-11-28 10:23:46 GMT 53.220798 1.937148 38,000 286 482 64
2022-11-28 10:23:43 GMT 53.219009 1.947798 38,000 286 482 0
2022-11-28 10:23:40 GMT 53.217400 1.957263 38,000 286 482 0
2022-11-28 10:23:37 GMT 53.214748 1.972854 38,000 286 482 0
2022-11-28 10:23:34 GMT 53.213150 1.982247 38,000 286 482 0
2022-11-28 10:23:31 GMT 53.209900 2.001238 38,000 286 482 0
2022-11-28 10:23:28 GMT 53.209900 2.001238 38,000 286 481 64
2022-11-28 10:23:25 GMT 53.207794 2.013637 38,000 286 481 64
2022-11-28 10:23:22 GMT 53.206421 2.021877 38,000 286 481 64
2022-11-28 10:23:20 GMT 53.204971 2.030451 38,000 286 481 0
2022-11-28 10:23:17 GMT 53.201935 2.048165 38,000 286 481 0
2022-11-28 10:23:14 GMT 53.201935 2.048165 38,000 286 481 -64
2022-11-28 10:23:10 GMT 53.199463 2.062683 38,000 286 480 0
2022-11-28 10:23:08 GMT 53.198135 2.070374 38,000 286 479 0
2022-11-28 10:23:05 GMT 53.196350 2.080889 38,000 286 481 -64
2022-11-28 10:23:03 GMT 53.194794 2.089835 38,000 286 480 0
2022-11-28 10:23:00 GMT 53.191380 2.109860 38,000 286 480 0
2022-11-28 10:22:57 GMT 53.191380 2.109860 38,000 286 479 0
2022-11-28 10:22:55 GMT 53.189896 2.118635 38,000 287 478 0
2022-11-28 10:22:51 GMT 53.187748 2.131186 38,000 286 479 0
2022-11-28 10:22:48 GMT 53.186142 2.140372 38,000 287 478 0
2022-11-28 10:22:45 GMT 53.184071 2.152512 38,000 287 478 0
2022-11-28 10:22:42 GMT 53.182068 2.164307 38,000 286 479 0
2022-11-28 10:22:40 GMT 53.180485 2.173354 38,000 287 478 0
2022-11-28 10:22:37 GMT 53.178864 2.182748 38,000 287 478 0
2022-11-28 10:22:35 GMT 53.177856 2.188634 38,000 287 478 0
2022-11-28 10:22:33 GMT 53.176620 2.195932 38,000 287 478 0
2022-11-28 10:22:30 GMT 53.174973 2.205348 38,000 287 478 0
2022-11-28 10:22:28 GMT 53.173595 2.213422 38,000 287 478 0
2022-11-28 10:22:25 GMT 53.171501 2.225378 38,000 287 478 0
2022-11-28 10:22:23 GMT 53.168987 2.240080 38,000 287 478 0
2022-11-28 10:22:20 GMT 53.168987 2.240080 38,000 287 477 0
2022-11-28 10:22:18 GMT 53.167404 2.249047 38,000 287 477 0
2022-11-28 10:22:15 GMT 53.165588 2.259710 38,000 287 478 0
2022-11-28 10:22:13 GMT 53.164284 2.267142 38,000 287 478 0
2022-11-28 10:22:10 GMT 53.162796 2.275786 38,000 287 478 0
2022-11-28 10:22:08 GMT 53.161057 2.285627 38,000 287 478 0
2022-11-28 10:22:05 GMT 53.159225 2.296378 38,000 287 478 0
2022-11-28 10:22:02 GMT 53.157627 2.305675 38,000 287 478 0
2022-11-28 10:21:59 GMT 53.155975 2.314976 38,000 287 477 0
2022-11-28 10:21:57 GMT 53.154190 2.325335 38,000 287 477 0
2022-11-28 10:21:54 GMT 53.153111 2.331525 38,000 287 477 0
2022-11-28 10:21:50 GMT 53.150391 2.347151 38,000 287 478 -64
2022-11-28 10:21:48 GMT 53.147339 2.364726 38,000 287 478 0
2022-11-28 10:21:45 GMT 53.147339 2.364726 38,000 287 478 0
2022-11-28 10:21:42 GMT 53.145264 2.376500 38,000 287 477 0
2022-11-28 10:21:39 GMT 53.143616 2.386053 38,000 287 477 0
2022-11-28 10:21:37 GMT 53.142517 2.392273 38,000 287 477 0
2022-11-28 10:21:34 GMT 53.138680 2.414165 38,000 287 477 0
2022-11-28 10:21:31 GMT 53.138680 2.414165 38,000 287 477 0
2022-11-28 10:21:29 GMT 53.136818 2.424909 38,000 287 477 0
2022-11-28 10:21:26 GMT 53.135376 2.433158 38,000 287 476 -64
2022-11-28 10:21:24 GMT 53.134167 2.440177 38,000 287 476 0
2022-11-28 10:21:22 GMT 53.133224 2.445557 38,000 287 476 0
2022-11-28 10:21:19 GMT 53.130814 2.459241 38,000 287 476 0
2022-11-28 10:21:16 GMT 53.129288 2.468079 38,000 287 476 0
2022-11-28 10:21:13 GMT 53.127594 2.477966 38,000 287 476 0
2022-11-28 10:21:10 GMT 53.125553 2.489615 38,000 287 476 0
2022-11-28 10:21:07 GMT 53.124249 2.497128 38,000 287 476 0
2022-11-28 10:21:04 GMT 53.121735 2.511239 38,000 287 476 64
2022-11-28 10:21:01 GMT 53.119781 2.522493 38,000 287 476 64
2022-11-28 10:20:58 GMT 53.116661 2.540184 38,000 287 476 0
2022-11-28 10:20:55 GMT 53.116661 2.540184 38,000 287 476 -64
2022-11-28 10:20:53 GMT 53.115005 2.549456 38,000 287 476 -64
2022-11-28 10:20:50 GMT 53.113312 2.559108 38,000 287 476 0
2022-11-28 10:20:47 GMT 53.111729 2.568216 38,000 287 476 0
2022-11-28 10:20:44 GMT 53.109493 2.580899 38,000 287 475 0
2022-11-28 10:20:40 GMT 53.107071 2.594631 38,000 287 475 0
2022-11-28 10:20:38 GMT 53.105713 2.602269 38,000 287 474 0
2022-11-28 10:20:34 GMT 53.103516 2.614746 38,000 287 474 0
2022-11-28 10:20:31 GMT 53.101868 2.624320 38,000 287 472 0
2022-11-28 10:20:28 GMT 53.099762 2.636091 38,000 287 473 0
2022-11-28 10:20:25 GMT 53.096924 2.652257 38,000 287 472 0
2022-11-28 10:20:23 GMT 53.096924 2.652257 38,000 287 473 0
2022-11-28 10:20:21 GMT 53.095573 2.659742 38,000 287 473 0
2022-11-28 10:20:18 GMT 53.093803 2.669835 38,000 287 473 0
2022-11-28 10:20:15 GMT 53.091385 2.683334 38,000 287 472 0
2022-11-28 10:20:12 GMT 53.090408 2.688904 38,000 287 472 0
2022-11-28 10:20:09 GMT 53.087769 2.703781 38,000 287 472 0
2022-11-28 10:20:06 GMT 53.086544 2.710641 38,000 287 472 0
2022-11-28 10:20:03 GMT 53.084290 2.723389 38,000 287 472 0
2022-11-28 10:20:00 GMT 53.082680 2.732300 38,000 287 472 0
2022-11-28 10:19:58 GMT 53.080719 2.743378 38,000 287 472 64
2022-11-28 10:19:55 GMT 53.078255 2.757176 38,000 287 472 0
2022-11-28 10:19:53 GMT 53.078255 2.757176 38,000 287 472 0
2022-11-28 10:19:49 GMT 53.075745 2.771380 38,000 287 472 -64
2022-11-28 10:19:47 GMT 53.074486 2.778521 38,000 287 472 -64
2022-11-28 10:19:44 GMT 53.072948 2.787231 38,000 287 472 0
2022-11-28 10:19:41 GMT 53.071041 2.797904 38,000 287 472 0
2022-11-28 10:19:38 GMT 53.068634 2.811356 38,000 287 474 0
2022-11-28 10:19:35 GMT 53.066528 2.823257 38,000 287 472 0
2022-11-28 10:19:32 GMT 53.065338 2.829895 38,000 287 472 0
2022-11-28 10:19:29 GMT 53.063553 2.839813 38,000 287 472 0
2022-11-28 10:19:26 GMT 53.061031 2.853934 38,000 287 472 64
2022-11-28 10:19:23 GMT 53.059845 2.860641 38,000 287 472 0
2022-11-28 10:19:20 GMT 53.057144 2.875748 38,000 287 472 0
2022-11-28 10:19:17 GMT 53.056145 2.881400 38,000 287 472 0
2022-11-28 10:19:15 GMT 53.054466 2.890738 38,000 287 472 64
2022-11-28 10:19:13 GMT 53.052933 2.899292 38,000 287 472 0
2022-11-28 10:19:10 GMT 53.051628 2.906669 38,000 287 472 0
2022-11-28 10:19:07 GMT 53.049866 2.916412 38,000 287 473 0
2022-11-28 10:19:04 GMT 53.047905 2.927386 38,000 287 473 0
2022-11-28 10:19:02 GMT 53.045517 2.940674 38,000 287 473 0
2022-11-28 10:19:00 GMT 53.045517 2.940674 38,000 287 473 0
2022-11-28 10:18:58 GMT 53.044228 2.947867 38,000 287 473 0
2022-11-28 10:18:55 GMT 53.042450 2.957840 38,000 287 473 0
2022-11-28 10:18:52 GMT 53.040573 2.968292 38,000 287 473 0
2022-11-28 10:18:49 GMT 53.038696 2.978821 38,000 287 473 0
2022-11-28 10:18:46 GMT 53.036873 2.988988 38,000 287 473 0
2022-11-28 10:18:43 GMT 53.034962 2.999503 38,000 287 473 0
2022-11-28 10:18:40 GMT 53.033379 3.008449 38,000 287 473 0
2022-11-28 10:18:37 GMT 53.029449 3.030396 38,000 287 473 0
2022-11-28 10:18:34 GMT 53.029449 3.030396 38,000 287 473 0
2022-11-28 10:18:32 GMT 53.027794 3.039368 38,000 287 473 0
2022-11-28 10:18:30 GMT 53.026062 3.049088 38,000 287 473 0
2022-11-28 10:18:27 GMT 53.024258 3.058986 38,000 287 473 0
2022-11-28 10:18:24 GMT 53.022263 3.070068 38,000 287 473 0
2022-11-28 10:18:20 GMT 53.020477 3.080063 38,000 287 474 0
2022-11-28 10:18:17 GMT 53.018417 3.091278 38,000 287 473 0
2022-11-28 10:18:14 GMT 53.014938 3.110504 38,000 287 473 0
2022-11-28 10:18:12 GMT 53.014938 3.110504 38,000 287 473 0
2022-11-28 10:18:10 GMT 53.013969 3.115958 38,000 287 474 64
2022-11-28 10:18:07 GMT 53.012291 3.124983 38,000 287 474 64
2022-11-28 10:18:04 GMT 53.010429 3.135420 38,000 287 474 0
2022-11-28 10:18:02 GMT 53.008987 3.143188 38,000 287 474 0
2022-11-28 10:17:59 GMT 53.007126 3.153547 38,000 287 474 -64
2022-11-28 10:17:56 GMT 53.005310 3.163513 38,000 287 474 0
2022-11-28 10:17:53 GMT 53.003403 3.173981 38,000 287 475 0
2022-11-28 10:17:50 GMT 52.999054 3.197861 38,000 287 475 0
2022-11-28 10:17:47 GMT 52.999054 3.197861 38,000 287 475 0
2022-11-28 10:17:44 GMT 52.997452 3.206787 38,000 287 475 0
2022-11-28 10:17:41 GMT 52.995811 3.215934 38,000 287 475 0
2022-11-28 10:17:39 GMT 52.994461 3.223232 38,000 287 475 0
2022-11-28 10:17:36 GMT 52.992695 3.233119 38,000 287 475 0
2022-11-28 10:17:33 GMT 52.990829 3.243399 38,000 287 475 0
2022-11-28 10:17:30 GMT 52.988846 3.254242 38,000 287 475 0
2022-11-28 10:17:27 GMT 52.986919 3.264823 38,000 287 475 0
2022-11-28 10:17:24 GMT 52.984825 3.276437 38,000 287 475 0
2022-11-28 10:17:21 GMT 52.982803 3.287277 38,000 287 475 0
2022-11-28 10:17:18 GMT 52.981293 3.295670 38,000 287 475 0
2022-11-28 10:17:15 GMT 52.979553 3.305206 38,000 287 475 0
2022-11-28 10:17:12 GMT 52.977631 3.315659 38,000 287 475 0
2022-11-28 10:17:09 GMT 52.975754 3.325729 38,000 287 475 0
2022-11-28 10:17:07 GMT 52.974400 3.333252 38,000 287 475 0
2022-11-28 10:17:05 GMT 52.971188 3.350595 38,000 287 475 0
2022-11-28 10:17:02 GMT 52.971188 3.350595 38,000 287 475 0
2022-11-28 10:16:59 GMT 52.969322 3.360718 38,000 287 475 0
2022-11-28 10:16:56 GMT 52.965866 3.379745 38,000 287 475 0
2022-11-28 10:16:53 GMT 52.965866 3.379745 38,000 287 475 0
2022-11-28 10:16:51 GMT 52.963806 3.390808 38,000 287 475 64
2022-11-28 10:16:48 GMT 52.962109 3.400033 38,000 287 475 0
2022-11-28 10:16:45 GMT 52.959000 3.416977 38,000 287 475 0
2022-11-28 10:16:43 GMT 52.957592 3.424674 38,000 287 475 0
2022-11-28 10:16:41 GMT 52.957592 3.424674 38,000 287 475 0
2022-11-28 10:16:38 GMT 52.955498 3.435974 38,000 287 475 0
2022-11-28 10:16:36 GMT 52.954567 3.441075 38,000 287 475 0
2022-11-28 10:16:33 GMT 52.950703 3.462106 38,000 287 475 0
2022-11-28 10:16:30 GMT 52.949261 3.469953 38,000 287 475 0
2022-11-28 10:16:28 GMT 52.949261 3.469953 38,000 287 475 0
2022-11-28 10:16:25 GMT 52.947144 3.481445 38,000 287 475 -64
2022-11-28 10:16:22 GMT 52.945583 3.489886 38,000 287 475 -64
2022-11-28 10:16:19 GMT 52.943115 3.503342 38,000 288 474 -64
2022-11-28 10:16:16 GMT 52.941578 3.511466 38,000 288 475 0
2022-11-28 10:16:13 GMT 52.939716 3.521511 38,000 288 475 -64
2022-11-28 10:16:10 GMT 52.937389 3.534066 38,000 288 475 0
2022-11-28 10:16:07 GMT 52.935883 3.542099 38,000 288 475 0
2022-11-28 10:16:04 GMT 52.933640 3.554230 38,000 288 475 -64
2022-11-28 10:16:02 GMT 52.932781 3.558786 38,000 288 475 0
2022-11-28 10:15:59 GMT 52.930161 3.572845 38,000 288 475 0
2022-11-28 10:15:56 GMT 52.928776 3.580209 38,000 288 475 0
2022-11-28 10:15:53 GMT 52.926682 3.591309 38,000 288 475 0
2022-11-28 10:15:49 GMT 52.924301 3.604050 38,000 288 475 0
2022-11-28 10:15:47 GMT 52.922913 3.611677 38,000 288 475 0
2022-11-28 10:15:44 GMT 52.920822 3.622742 38,000 288 475 64
2022-11-28 10:15:42 GMT 52.916954 3.643459 38,000 288 475 64
2022-11-28 10:15:38 GMT 52.916954 3.643459 38,000 288 476 64
2022-11-28 10:15:35 GMT 52.914734 3.655319 38,000 288 476 0
2022-11-28 10:15:32 GMT 52.912674 3.666229 38,000 288 476 0
2022-11-28 10:15:29 GMT 52.911346 3.673325 38,000 288 476 0
2022-11-28 10:15:26 GMT 52.909058 3.685303 38,000 288 476 0
2022-11-28 10:15:23 GMT 52.905781 3.702785 38,000 288 477 0
2022-11-28 10:15:21 GMT 52.905781 3.702785 38,000 288 477 0
2022-11-28 10:15:18 GMT 52.903732 3.713536 38,000 288 476 0
2022-11-28 10:15:15 GMT 52.902054 3.722382 38,000 288 476 0
2022-11-28 10:15:12 GMT 52.900379 3.731192 38,000 288 476 0
2022-11-28 10:15:09 GMT 52.896610 3.750968 38,000 288 476 0
2022-11-28 10:15:07 GMT 52.896610 3.750968 38,000 288 476 0
2022-11-28 10:15:04 GMT 52.894730 3.760986 38,000 288 476 0
2022-11-28 10:15:01 GMT 52.893398 3.767840 38,000 288 476 0
2022-11-28 10:14:59 GMT 52.891487 3.778120 38,000 288 476 0
2022-11-28 10:14:56 GMT 52.889511 3.788528 38,000 288 475 0
2022-11-28 10:14:53 GMT 52.887390 3.799622 38,000 288 475 0
2022-11-28 10:14:50 GMT 52.885391 3.810196 38,000 288 475 0
2022-11-28 10:14:47 GMT 52.883247 3.821437 38,000 288 475 0
2022-11-28 10:14:44 GMT 52.881248 3.831796 38,000 288 475 0
2022-11-28 10:14:41 GMT 52.879387 3.841684 38,000 288 476 0
2022-11-28 10:14:38 GMT 52.877991 3.849060 38,000 288 476 0
2022-11-28 10:14:35 GMT 52.875458 3.862076 38,000 288 476 0
2022-11-28 10:14:33 GMT 52.873707 3.871268 38,000 288 476 0
2022-11-28 10:14:30 GMT 52.872169 3.879272 38,000 288 476 -64
2022-11-28 10:14:27 GMT 52.870819 3.886335 38,000 288 476 0
2022-11-28 10:14:25 GMT 52.868774 3.896713 38,000 288 476 0
2022-11-28 10:14:23 GMT 52.867493 3.903351 38,000 288 476 0
2022-11-28 10:14:21 GMT 52.866486 3.908691 38,000 288 476 0
2022-11-28 10:14:19 GMT 52.864792 3.917389 38,000 288 478 0
2022-11-28 10:14:16 GMT 52.863007 3.926468 38,000 288 478 0
2022-11-28 10:14:13 GMT 52.860577 3.938991 38,000 288 477 0
2022-11-28 10:14:10 GMT 52.859135 3.946289 38,000 288 477 0
2022-11-28 10:14:07 GMT 52.855923 3.962847 38,000 288 478 0
2022-11-28 10:14:04 GMT 52.854538 3.969879 38,000 288 478 0
2022-11-28 10:14:02 GMT 52.853119 3.977432 38,000 288 478 0
2022-11-28 10:14:00 GMT 52.852341 3.981476 38,000 288 478 64
2022-11-28 10:13:57 GMT 52.849640 3.995895 38,000 288 477 64
2022-11-28 10:13:54 GMT 52.846611 4.012129 38,000 288 478 0
2022-11-28 10:13:52 GMT 52.845589 4.017465 38,000 290 479 0
2022-11-28 10:13:50 GMT 52.845589 4.017465 38,000 288 478 0
2022-11-28 10:13:47 GMT 52.843918 4.026413 38,000 289 479 -64
2022-11-28 10:13:44 GMT 52.841305 4.039594 38,000 289 479 -64
2022-11-28 10:13:40 GMT 52.838242 4.054489 38,000 290 480 0
2022-11-28 10:13:37 GMT 52.833298 4.077497 38,000 291 480 0
2022-11-28 10:13:34 GMT 52.833298 4.077497 38,000 291 481 0
2022-11-28 10:13:31 GMT 52.831715 4.084481 38,000 291 480 0
2022-11-28 10:13:28 GMT 52.829247 4.095075 38,000 292 481 0
2022-11-28 10:13:25 GMT 52.827293 4.103315 38,000 293 482 0
2022-11-28 10:13:22 GMT 52.824825 4.113360 38,000 293 483 0
2022-11-28 10:13:20 GMT 52.823242 4.119873 38,000 295 484 0
2022-11-28 10:13:17 GMT 52.820297 4.131393 38,000 294 483 0
2022-11-28 10:13:14 GMT 52.817005 4.143964 38,000 295 483 0
2022-11-28 10:13:11 GMT 52.815189 4.150556 38,000 295 483 0
2022-11-28 10:13:08 GMT 52.812489 4.160522 38,000 296 485 0
2022-11-28 10:13:05 GMT 52.809650 4.170567 38,000 297 485 0
2022-11-28 10:13:02 GMT 52.806671 4.180847 38,000 297 485 0
2022-11-28 10:12:59 GMT 52.802155 4.195914 38,000 298 486 0
2022-11-28 10:12:56 GMT 52.799686 4.203918 38,000 299 487 0
2022-11-28 10:12:54 GMT 52.798096 4.209061 38,000 299 487 0
2022-11-28 10:12:52 GMT 52.796474 4.214042 38,000 299 487 0
2022-11-28 10:12:50 GMT 52.793655 4.222565 38,000 300 487 0
2022-11-28 10:12:47 GMT 52.790516 4.231934 38,000 300 488 0
2022-11-28 10:12:45 GMT 52.788280 4.238604 38,000 300 488 0
2022-11-28 10:12:42 GMT 52.785301 4.247236 38,000 300 488 0
2022-11-28 10:12:40 GMT 52.783672 4.252101 38,000 300 488 0
2022-11-28 10:12:37 GMT 52.779251 4.264971 38,000 300 488 0
2022-11-28 10:12:35 GMT 52.777390 4.270464 38,000 300 488 0
2022-11-28 10:12:32 GMT 52.774017 4.280396 38,000 300 488 0
2022-11-28 10:12:29 GMT 52.769714 4.292908 38,000 300 488 0
2022-11-28 10:12:26 GMT 52.767567 4.299186 38,000 300 488 0
2022-11-28 10:12:23 GMT 52.764313 4.308701 38,000 300 488 0
2022-11-28 10:12:21 GMT 52.762680 4.313546 38,000 300 488 0
2022-11-28 10:12:19 GMT 52.759277 4.323425 38,000 300 487 0
2022-11-28 10:12:16 GMT 52.756485 4.331665 38,000 300 487 0
2022-11-28 10:12:13 GMT 52.753876 4.339294 38,000 300 487 0
2022-11-28 10:12:11 GMT 52.751598 4.345878 38,000 300 487 0
2022-11-28 10:12:09 GMT 52.749527 4.352036 38,000 300 487 0
2022-11-28 10:12:06 GMT 52.745178 4.364777 38,000 300 488 0
2022-11-28 10:12:03 GMT 52.742798 4.371643 38,000 300 488 0
2022-11-28 10:12:01 GMT 52.739731 4.380720 38,000 300 487 0
2022-11-28 10:11:59 GMT 52.737305 4.387741 38,000 300 487 0
2022-11-28 10:11:56 GMT 52.734055 4.397125 38,000 300 487 0
2022-11-28 10:11:54 GMT 52.732040 4.403076 38,000 300 487 0
2022-11-28 10:11:51 GMT 52.729019 4.411850 38,000 300 487 0
2022-11-28 10:11:49 GMT 52.726692 4.418623 38,000 300 488 0
2022-11-28 10:11:46 GMT 52.723202 4.428824 38,000 300 488 0
2022-11-28 10:11:43 GMT 52.719944 4.438241 38,000 300 488 0
2022-11-28 10:11:41 GMT 52.717438 4.445496 38,000 300 488 0
2022-11-28 10:11:39 GMT 52.715614 4.450875 38,000 300 488 0
2022-11-28 10:11:36 GMT 52.711990 4.461365 38,000 300 488 0
2022-11-28 10:11:34 GMT 52.710262 4.466413 38,000 300 488 0
2022-11-28 10:11:32 GMT 52.707962 4.473114 38,000 300 488 0
2022-11-28 10:11:29 GMT 52.703697 4.485561 38,000 300 488 0
2022-11-28 10:11:25 GMT 52.700809 4.493958 38,000 300 488 -64
2022-11-28 10:11:23 GMT 52.697342 4.504013 38,000 300 488 -64
2022-11-28 10:11:20 GMT 52.694733 4.511566 38,000 300 487 0
2022-11-28 10:11:18 GMT 52.692478 4.518206 38,000 300 486 0
2022-11-28 10:11:15 GMT 52.689011 4.528122 38,000 300 487 0
2022-11-28 10:11:13 GMT 52.686630 4.535065 38,000 300 487 0
2022-11-28 10:11:11 GMT 52.684296 4.541855 38,000 300 487 0
2022-11-28 10:11:08 GMT 52.681412 4.550247 38,000 300 487 0
2022-11-28 10:11:05 GMT 52.677906 4.560346 38,000 300 487 0
2022-11-28 10:11:02 GMT 52.675068 4.568508 38,000 300 487 0
2022-11-28 10:11:00 GMT 52.672760 4.575272 38,000 300 487 0
2022-11-28 10:10:57 GMT 52.668045 4.588852 38,000 300 488 0
2022-11-28 10:10:54 GMT 52.664062 4.600296 38,000 300 488 0
2022-11-28 10:10:51 GMT 52.662312 4.605469 38,000 300 487 0
2022-11-28 10:10:49 GMT 52.657379 4.619673 38,000 300 485 0
2022-11-28 10:10:47 GMT 52.657379 4.619673 38,000 300 487 0
2022-11-28 10:10:44 GMT 52.654404 4.628220 38,000 300 487 0
2022-11-28 10:10:41 GMT 52.651047 4.637957 38,000 300 487 0
2022-11-28 10:10:39 GMT 52.647972 4.646824 38,000 300 487 0
2022-11-28 10:10:36 GMT 52.644997 4.655378 38,000 300 486 0
2022-11-28 10:10:33 GMT 52.638851 4.673113 38,000 300 486 0
2022-11-28 10:10:30 GMT 52.638851 4.673113 38,000 300 486 0
2022-11-28 10:10:27 GMT 52.635269 4.683456 38,000 300 486 0
2022-11-28 10:10:24 GMT 52.632099 4.692653 38,000 300 486 0
2022-11-28 10:10:21 GMT 52.628769 4.702301 38,000 300 485 0
2022-11-28 10:10:19 GMT 52.625381 4.711990 38,000 300 485 0
2022-11-28 10:10:16 GMT 52.622131 4.721298 38,000 300 485 0
2022-11-28 10:10:13 GMT 52.619858 4.727809 38,000 300 485 0
2022-11-28 10:10:10 GMT 52.616085 4.738639 38,000 300 485 0
2022-11-28 10:10:07 GMT 52.612782 4.748134 38,000 300 485 0
2022-11-28 10:10:04 GMT 52.610126 4.755746 38,000 300 485 0
2022-11-28 10:10:01 GMT 52.606728 4.765555 38,000 300 485 0
2022-11-28 10:09:59 GMT 52.603317 4.775391 38,000 300 485 0
2022-11-28 10:09:56 GMT 52.600349 4.783761 38,000 300 485 0
2022-11-28 10:09:53 GMT 52.596954 4.793549 38,000 300 485 0
2022-11-28 10:09:50 GMT 52.593510 4.803458 38,000 300 485 0
2022-11-28 10:09:47 GMT 52.590298 4.812718 38,000 300 485 0
2022-11-28 10:09:44 GMT 52.587875 4.819624 38,000 300 485 0
2022-11-28 10:09:41 GMT 52.583874 4.831081 38,000 300 485 0
2022-11-28 10:09:38 GMT 52.581619 4.837494 38,000 300 485 0
2022-11-28 10:09:35 GMT 52.577499 4.849319 38,000 300 485 0
2022-11-28 10:09:32 GMT 52.574890 4.856720 38,000 300 485 0
2022-11-28 10:09:30 GMT 52.571548 4.866409 38,000 300 485 0
2022-11-28 10:09:27 GMT 52.568756 4.874268 38,000 300 486 0
2022-11-28 10:09:24 GMT 52.564926 4.885228 38,000 300 485 0
2022-11-28 10:09:22 GMT 52.563766 4.888611 38,000 300 485 0
2022-11-28 10:09:19 GMT 52.560410 4.898176 38,000 300 486 0
2022-11-28 10:09:16 GMT 52.557152 4.907593 38,000 300 486 0
2022-11-28 10:09:13 GMT 52.552322 4.921417 38,000 300 486 0
2022-11-28 10:09:10 GMT 52.550079 4.927826 38,000 300 486 0
2022-11-28 10:09:07 GMT 52.543045 4.947850 38,000 300 486 0
2022-11-28 10:09:04 GMT 52.543045 4.947850 38,000 300 486 0
2022-11-28 10:09:01 GMT 52.540787 4.954376 38,000 300 486 0
2022-11-28 10:08:59 GMT 52.537491 4.963837 38,000 300 486 0
2022-11-28 10:08:56 GMT 52.534016 4.973746 38,000 300 486 0
2022-11-28 10:08:53 GMT 52.527420 4.992523 38,000 300 486 0
2022-11-28 10:08:50 GMT 52.527420 4.992523 38,000 300 486 0
2022-11-28 10:08:48 GMT 52.525085 4.999084 38,000 300 486 0
2022-11-28 10:08:45 GMT 52.520874 5.011215 38,000 300 486 0
2022-11-28 10:08:42 GMT 52.518539 5.017776 38,000 300 486 0
2022-11-28 10:08:39 GMT 52.515335 5.026932 38,000 300 486 0
2022-11-28 10:08:36 GMT 52.510437 5.040817 38,000 300 486 0
2022-11-28 10:08:33 GMT 52.507572 5.049003 38,000 300 486 0
2022-11-28 10:08:30 GMT 52.505173 5.055847 38,000 300 486 0
2022-11-28 10:08:28 GMT 52.503151 5.061637 38,000 300 486 0
2022-11-28 10:08:26 GMT 52.500076 5.070347 38,000 300 486 0
2022-11-28 10:08:23 GMT 52.497162 5.078583 38,000 300 486 0
2022-11-28 10:08:21 GMT 52.494305 5.086670 38,000 300 486 0
2022-11-28 10:08:18 GMT 52.491558 5.094596 38,000 300 486 0
2022-11-28 10:08:15 GMT 52.487183 5.106916 38,000 300 486 0
2022-11-28 10:08:12 GMT 52.484299 5.115128 38,000 300 486 0
2022-11-28 10:08:09 GMT 52.480713 5.125279 38,000 300 486 0
2022-11-28 10:08:05 GMT 52.476475 5.137286 38,000 301 485 0
2022-11-28 10:08:02 GMT 52.473907 5.144577 38,000 301 485 0
2022-11-28 10:07:59 GMT 52.470051 5.155491 38,000 301 485 0
2022-11-28 10:07:56 GMT 52.465439 5.168533 38,000 301 485 0
2022-11-28 10:07:53 GMT 52.462601 5.176544 38,000 301 485 0
2022-11-28 10:07:50 GMT 52.457748 5.190201 38,000 301 485 0
2022-11-28 10:07:45 GMT 52.453758 5.201477 38,000 301 485 0
2022-11-28 10:07:42 GMT 52.451012 5.209167 38,000 301 485 0
2022-11-28 10:07:39 GMT 52.447426 5.219212 38,000 301 485 0
2022-11-28 10:07:37 GMT 52.445572 5.224533 38,000 301 485 0
2022-11-28 10:07:34 GMT 52.441795 5.235142 38,000 301 485 0
2022-11-28 10:07:31 GMT 52.437466 5.247306 38,000 301 485 0
2022-11-28 10:07:28 GMT 52.429916 5.268707 38,000 301 485 0
2022-11-28 10:07:24 GMT 52.429916 5.268707 38,000 301 485 0
2022-11-28 10:07:21 GMT 52.428177 5.273514 38,000 301 485 0
2022-11-28 10:07:18 GMT 52.424152 5.284973 38,000 301 484 0
2022-11-28 10:07:15 GMT 52.420761 5.294418 38,000 301 484 0
2022-11-28 10:07:12 GMT 52.416779 5.305634 38,000 301 484 0
2022-11-28 10:07:09 GMT 52.414581 5.311890 38,000 301 484 0
2022-11-28 10:07:07 GMT 52.412235 5.318481 38,000 301 484 0
2022-11-28 10:07:04 GMT 52.408035 5.330200 38,000 301 486 0
2022-11-28 10:07:01 GMT 52.405060 5.338593 38,000 301 485 0
2022-11-28 10:06:58 GMT 52.401627 5.348206 38,000 301 485 0
2022-11-28 10:06:56 GMT 52.398315 5.357483 38,000 301 485 0
2022-11-28 10:06:53 GMT 52.396126 5.363682 38,000 301 485 0
2022-11-28 10:06:50 GMT 52.391846 5.375689 38,000 301 485 0
2022-11-28 10:06:47 GMT 52.389702 5.381731 38,000 301 485 0
2022-11-28 10:06:44 GMT 52.385468 5.393738 38,000 301 485 0
2022-11-28 10:06:41 GMT 52.382301 5.402605 38,000 301 485 0
2022-11-28 10:06:38 GMT 52.378830 5.412445 38,000 301 486 0
2022-11-28 10:06:35 GMT 52.375854 5.420685 38,000 301 486 0
2022-11-28 10:06:32 GMT 52.371094 5.434036 38,000 301 486 0
2022-11-28 10:06:29 GMT 52.368759 5.440598 38,000 301 486 0
2022-11-28 10:06:27 GMT 52.364136 5.453415 38,000 301 487 0
2022-11-28 10:06:25 GMT 52.364136 5.453415 38,000 301 487 0
2022-11-28 10:06:22 GMT 52.361572 5.460587 38,000 301 488 0
2022-11-28 10:06:19 GMT 52.357117 5.472918 38,000 301 487 0
2022-11-28 10:06:17 GMT 52.354740 5.479588 38,000 301 487 0
2022-11-28 10:06:13 GMT 52.350086 5.492458 38,000 301 487 0
2022-11-28 10:06:10 GMT 52.347713 5.499128 38,000 301 487 0
2022-11-28 10:06:08 GMT 52.345413 5.505524 38,000 301 488 0
2022-11-28 10:06:06 GMT 52.342896 5.512466 38,000 301 488 0
2022-11-28 10:06:03 GMT 52.339005 5.523376 38,000 301 488 0
2022-11-28 10:06:00 GMT 52.335747 5.532401 38,000 301 488 0
2022-11-28 10:05:57 GMT 52.332165 5.542446 38,000 301 488 0
2022-11-28 10:05:54 GMT 52.328903 5.551392 38,000 301 488 0
2022-11-28 10:05:51 GMT 52.325226 5.561752 38,000 301 488 0
2022-11-28 10:05:49 GMT 52.322762 5.568577 38,000 301 488 0
2022-11-28 10:05:46 GMT 52.318817 5.579605 38,000 301 487 0
2022-11-28 10:05:43 GMT 52.316437 5.586090 38,000 301 488 0
2022-11-28 10:05:40 GMT 52.311634 5.599496 38,000 301 487 0
2022-11-28 10:05:37 GMT 52.309818 5.604518 38,000 301 487 0
2022-11-28 10:05:34 GMT 52.306419 5.614014 38,000 301 487 0
2022-11-28 10:05:31 GMT 52.302887 5.623779 38,000 301 487 0
2022-11-28 10:05:28 GMT 52.299454 5.633240 38,000 301 487 0
2022-11-28 10:05:25 GMT 52.295929 5.643005 38,000 301 487 0
2022-11-28 10:05:22 GMT 52.292908 5.651321 38,000 301 487 0
2022-11-28 10:05:19 GMT 52.289337 5.661240 38,000 301 487 0
2022-11-28 10:05:16 GMT 52.285995 5.670471 38,000 301 487 0
2022-11-28 10:05:13 GMT 52.282539 5.680089 38,000 301 487 0
2022-11-28 10:05:10 GMT 52.279037 5.689774 38,000 301 487 0
2022-11-28 10:05:07 GMT 52.275604 5.699234 38,000 301 487 0
2022-11-28 10:05:04 GMT 52.267689 5.721209 38,000 301 487 0
2022-11-28 10:05:01 GMT 52.267689 5.721209 38,000 301 486 0
2022-11-28 10:04:58 GMT 52.264938 5.728760 38,000 301 486 0
2022-11-28 10:04:56 GMT 52.259773 5.743103 38,000 301 486 0
2022-11-28 10:04:53 GMT 52.259773 5.743103 38,000 301 486 0
2022-11-28 10:04:50 GMT 52.255920 5.753708 38,000 301 486 0
2022-11-28 10:04:47 GMT 52.252281 5.763742 38,000 301 486 0
2022-11-28 10:04:44 GMT 52.248695 5.773708 38,000 301 486 0
2022-11-28 10:04:41 GMT 52.245163 5.783386 38,000 301 486 0
2022-11-28 10:04:38 GMT 52.242317 5.791207 38,000 301 486 0
2022-11-28 10:04:36 GMT 52.239441 5.799103 38,000 301 486 0
2022-11-28 10:04:32 GMT 52.234684 5.812160 38,000 301 486 0
2022-11-28 10:04:29 GMT 52.232208 5.818939 38,000 301 486 0
2022-11-28 10:04:27 GMT 52.230633 5.823303 38,000 301 486 0
2022-11-28 10:04:25 GMT 52.227051 5.833191 38,000 301 486 0
2022-11-28 10:04:22 GMT 52.223557 5.842686 38,000 301 486 0
2022-11-28 10:04:19 GMT 52.221416 5.848650 38,000 301 486 0
2022-11-28 10:04:17 GMT 52.217972 5.858146 38,000 301 486 0
2022-11-28 10:04:14 GMT 52.213715 5.869827 38,000 301 486 0
2022-11-28 10:04:11 GMT 52.210197 5.879490 38,000 301 486 0
2022-11-28 10:04:08 GMT 52.208054 5.885376 38,000 301 486 0
2022-11-28 10:04:05 GMT 52.203781 5.897141 38,000 301 486 0
2022-11-28 10:04:02 GMT 52.200420 5.906407 38,000 301 486 0
2022-11-28 10:03:59 GMT 52.197556 5.914307 38,000 301 486 0
2022-11-28 10:03:56 GMT 52.193390 5.925711 38,000 301 486 0
2022-11-28 10:03:53 GMT 52.190002 5.934982 38,000 301 486 0
2022-11-28 10:03:50 GMT 52.187256 5.942612 38,000 301 486 0
2022-11-28 10:03:47 GMT 52.184464 5.950241 38,000 301 485 0
2022-11-28 10:03:45 GMT 52.181892 5.957336 38,000 301 485 0
2022-11-28 10:03:42 GMT 52.177460 5.969467 38,000 301 485 0
2022-11-28 10:03:39 GMT 52.175079 5.975952 38,000 301 484 0
2022-11-28 10:03:37 GMT 52.171509 5.985870 38,000 301 484 0
2022-11-28 10:03:34 GMT 52.169083 5.992432 38,000 301 485 0
2022-11-28 10:03:31 GMT 52.165558 6.002121 38,000 301 485 0
2022-11-28 10:03:28 GMT 52.161301 6.013794 38,000 301 485 0
2022-11-28 10:03:25 GMT 52.157639 6.023882 38,000 301 484 0
2022-11-28 10:03:22 GMT 52.154892 6.031418 38,000 301 484 0
2022-11-28 10:03:19 GMT 52.152008 6.039200 38,000 301 484 0
2022-11-28 10:03:17 GMT 52.149212 6.046875 38,000 301 484 0
2022-11-28 10:03:14 GMT 52.145599 6.056671 38,000 301 484 0
2022-11-28 10:03:11 GMT 52.143356 6.062851 38,000 301 484 0
2022-11-28 10:03:08 GMT 52.140060 6.071854 38,000 301 484 0
2022-11-28 10:03:05 GMT 52.135109 6.085327 38,000 301 484 0
2022-11-28 10:03:02 GMT 52.131569 6.094979 38,000 301 484 0
2022-11-28 10:02:59 GMT 52.129288 6.101179 38,000 301 484 0
2022-11-28 10:02:57 GMT 52.126637 6.108477 38,000 301 484 0
2022-11-28 10:02:55 GMT 52.124680 6.113813 38,000 301 483 0
2022-11-28 10:02:52 GMT 52.121281 6.123073 38,000 301 483 0
2022-11-28 10:02:49 GMT 52.114243 6.142273 38,000 301 483 0
2022-11-28 10:02:46 GMT 52.114243 6.142273 38,000 301 482 0
2022-11-28 10:02:44 GMT 52.111645 6.149362 38,000 301 483 0
2022-11-28 10:02:41 GMT 52.107643 6.160348 38,000 301 483 0
2022-11-28 10:02:38 GMT 52.104630 6.168518 38,000 301 483 -64
2022-11-28 10:02:35 GMT 52.101124 6.178005 38,000 301 482 -64
2022-11-28 10:02:32 GMT 52.097672 6.187363 38,000 301 482 0
2022-11-28 10:02:28 GMT 52.094189 6.196838 38,000 301 482 0
2022-11-28 10:02:25 GMT 52.090210 6.207581 38,000 301 481 0
2022-11-28 10:02:22 GMT 52.086090 6.218811 38,000 301 481 0
2022-11-28 10:02:19 GMT 52.082657 6.228027 38,000 302 480 0
2022-11-28 10:02:16 GMT 52.079178 6.237411 38,000 301 481 0
2022-11-28 10:02:13 GMT 52.076870 6.243687 38,000 301 481 0
2022-11-28 10:02:10 GMT 52.072037 6.256790 38,000 301 481 0
2022-11-28 10:02:07 GMT 52.068649 6.265869 38,000 302 480 0
2022-11-28 10:02:04 GMT 52.066544 6.271591 38,000 302 480 0
2022-11-28 10:02:01 GMT 52.061695 6.284651 38,000 302 480 0
2022-11-28 10:01:58 GMT 52.054993 6.302699 38,000 302 480 0
2022-11-28 10:01:55 GMT 52.054993 6.302699 38,000 301 481 0
2022-11-28 10:01:52 GMT 52.052124 6.310425 38,000 302 480 0
2022-11-28 10:01:49 GMT 52.048615 6.319964 38,000 302 480 0
2022-11-28 10:01:46 GMT 52.045357 6.328831 38,000 302 480 0
2022-11-28 10:01:43 GMT 52.041916 6.337967 38,000 302 480 0
2022-11-28 10:01:40 GMT 52.038025 6.348495 38,000 302 480 0
2022-11-28 10:01:37 GMT 52.035645 6.354980 38,000 302 480 0
2022-11-28 10:01:34 GMT 52.028690 6.373718 38,000 302 479 0
2022-11-28 10:01:31 GMT 52.028690 6.373718 38,000 302 480 0
2022-11-28 10:01:28 GMT 52.024384 6.385269 38,000 302 480 0
2022-11-28 10:01:25 GMT 52.021614 6.392630 38,000 302 480 0
2022-11-28 10:01:22 GMT 52.014130 6.412811 38,000 302 480 0
2022-11-28 10:01:19 GMT 52.014130 6.412811 38,000 302 480 0
2022-11-28 10:01:16 GMT 52.010880 6.421509 38,000 302 480 0
2022-11-28 10:01:13 GMT 52.007355 6.431046 38,000 302 480 0
2022-11-28 10:01:10 GMT 52.004333 6.439133 38,000 302 479 0
2022-11-28 10:01:07 GMT 52.000305 6.449890 38,000 302 480 0
2022-11-28 10:01:04 GMT 51.996799 6.459333 38,000 302 480 0
2022-11-28 10:01:01 GMT 51.993263 6.468828 38,000 302 480 0
2022-11-28 10:00:58 GMT 51.990784 6.475449 38,000 302 480 0
2022-11-28 10:00:55 GMT 51.988049 6.482875 38,000 302 479 0
2022-11-28 10:00:53 GMT 51.984791 6.491507 38,000 302 480 0
2022-11-28 10:00:50 GMT 51.981022 6.501709 38,000 302 479 0
2022-11-28 10:00:47 GMT 51.974411 6.519444 38,000 302 479 0
2022-11-28 10:00:44 GMT 51.974411 6.519444 38,000 302 479 0
2022-11-28 10:00:41 GMT 51.971432 6.527448 38,000 302 479 0
2022-11-28 10:00:38 GMT 51.967484 6.538162 38,000 302 479 0
2022-11-28 10:00:35 GMT 51.964096 6.547165 38,000 302 479 0
2022-11-28 10:00:32 GMT 51.956680 6.567078 38,000 302 478 0
2022-11-28 10:00:29 GMT 51.956680 6.567078 38,000 302 479 0
2022-11-28 10:00:26 GMT 51.953323 6.576181 38,000 302 479 0
2022-11-28 10:00:23 GMT 51.950409 6.583939 38,000 302 479 0
2022-11-28 10:00:20 GMT 51.947250 6.592407 38,000 302 479 0
2022-11-28 10:00:18 GMT 51.943771 6.601715 38,000 302 478 0
2022-11-28 10:00:15 GMT 51.941483 6.607819 38,000 302 478 0
2022-11-28 10:00:12 GMT 51.936794 6.620283 38,000 302 478 0
2022-11-28 10:00:09 GMT 51.934891 6.625366 38,000 302 478 0
2022-11-28 10:00:06 GMT 51.930882 6.635978 38,000 302 478 0
2022-11-28 10:00:03 GMT 51.927998 6.643747 38,000 302 478 0
2022-11-28 10:00:00 GMT 51.923527 6.655596 38,000 302 478 0
2022-11-28 09:59:57 GMT 51.920013 6.664963 38,000 302 478 0
2022-11-28 09:59:54 GMT 51.916870 6.673331 38,000 302 478 0
2022-11-28 09:59:51 GMT 51.913925 6.681137 38,000 302 478 0
2022-11-28 09:59:48 GMT 51.910217 6.691055 38,000 302 478 0
2022-11-28 09:59:45 GMT 51.906189 6.701813 38,000 302 478 0
2022-11-28 09:59:42 GMT 51.903648 6.708566 38,000 302 478 0
2022-11-28 09:59:39 GMT 51.899185 6.720505 38,000 302 478 0
2022-11-28 09:59:36 GMT 51.896164 6.728439 38,000 302 478 0
2022-11-28 09:59:33 GMT 51.892227 6.738925 38,000 302 479 0
2022-11-28 09:59:30 GMT 51.889870 6.745224 38,000 302 478 0
2022-11-28 09:59:27 GMT 51.886414 6.754365 38,000 302 478 0
2022-11-28 09:59:24 GMT 51.883118 6.763198 38,000 302 479 0
2022-11-28 09:59:21 GMT 51.880051 6.771364 38,000 302 479 0
2022-11-28 09:59:18 GMT 51.876984 6.779529 38,000 302 478 0
2022-11-28 09:59:16 GMT 51.873322 6.789254 38,000 302 478 0
2022-11-28 09:59:13 GMT 51.870785 6.796036 38,000 302 478 0
2022-11-28 09:59:10 GMT 51.866966 6.806107 38,000 302 479 0
2022-11-28 09:59:07 GMT 51.863480 6.815383 38,000 302 479 0
2022-11-28 09:59:04 GMT 51.855377 6.836837 38,000 302 479 0
2022-11-28 09:59:01 GMT 51.855377 6.836837 38,000 302 479 0
2022-11-28 09:58:58 GMT 51.852211 6.845093 38,000 302 479 0
2022-11-28 09:58:55 GMT 51.849930 6.851196 38,000 302 479 0
2022-11-28 09:58:52 GMT 51.842480 6.870804 38,000 302 480 0
2022-11-28 09:58:49 GMT 51.838200 6.882172 38,000 302 480 0
2022-11-28 09:58:46 GMT 51.838200 6.882172 38,000 302 480 0
2022-11-28 09:58:43 GMT 51.835876 6.888354 38,000 302 480 0
2022-11-28 09:58:40 GMT 51.830750 6.901932 38,000 302 480 0
2022-11-28 09:58:37 GMT 51.828598 6.907654 38,000 302 480 0
2022-11-28 09:58:34 GMT 51.825073 6.916933 38,000 302 480 0
2022-11-28 09:58:32 GMT 51.822601 6.923447 38,000 302 479 0
2022-11-28 09:58:29 GMT 51.820229 6.929703 38,000 302 480 0
2022-11-28 09:58:26 GMT 51.816597 6.939316 38,000 302 480 0
2022-11-28 09:58:23 GMT 51.813061 6.948624 38,000 302 479 0
2022-11-28 09:58:20 GMT 51.808868 6.959686 38,000 302 479 0
2022-11-28 09:58:17 GMT 51.801819 6.978248 38,000 302 480 0
2022-11-28 09:58:14 GMT 51.801819 6.978248 38,000 302 480 0
2022-11-28 09:58:11 GMT 51.798294 6.987453 38,000 302 480 0
2022-11-28 09:58:08 GMT 51.794357 6.997697 38,000 302 480 0
2022-11-28 09:58:05 GMT 51.792019 7.003860 38,000 302 480 0
2022-11-28 09:58:02 GMT 51.788361 7.013286 38,000 302 480 0
2022-11-28 09:57:59 GMT 51.784836 7.022565 38,000 302 480 0
2022-11-28 09:57:56 GMT 51.780239 7.034607 38,000 302 480 -64
2022-11-28 09:57:53 GMT 51.777447 7.041931 38,000 302 480 0
2022-11-28 09:57:50 GMT 51.774765 7.048917 38,000 302 480 0
2022-11-28 09:57:47 GMT 51.771301 7.057953 38,000 302 480 0
2022-11-28 09:57:44 GMT 51.767349 7.068366 38,000 302 480 0
2022-11-28 09:57:41 GMT 51.762863 7.080169 38,000 302 479 0
2022-11-28 09:57:38 GMT 51.760365 7.086639 38,000 302 479 0
2022-11-28 09:57:35 GMT 51.757336 7.094650 38,000 302 479 0
2022-11-28 09:57:32 GMT 51.753891 7.103653 38,000 302 479 0
2022-11-28 09:57:29 GMT 51.750092 7.113499 38,000 302 479 0
2022-11-28 09:57:26 GMT 51.742580 7.133255 38,000 302 479 0
2022-11-28 09:57:23 GMT 51.742580 7.133255 38,000 302 479 0
2022-11-28 09:57:20 GMT 51.739609 7.141039 38,000 302 479 0
2022-11-28 09:57:17 GMT 51.735901 7.150763 38,000 302 479 0
2022-11-28 09:57:14 GMT 51.732468 7.159671 38,000 302 479 0
2022-11-28 09:57:12 GMT 51.730316 7.165387 38,000 302 479 0
2022-11-28 09:57:09 GMT 51.726700 7.174740 38,000 302 479 0
2022-11-28 09:57:06 GMT 51.722168 7.186692 38,000 302 478 0
2022-11-28 09:57:03 GMT 51.718651 7.195816 38,000 302 478 0
2022-11-28 09:57:00 GMT 51.715759 7.203394 38,000 302 478 0
2022-11-28 09:56:57 GMT 51.711857 7.213593 38,000 302 478 0
2022-11-28 09:56:54 GMT 51.709442 7.219873 38,000 302 478 0
2022-11-28 09:56:52 GMT 51.707291 7.225441 38,000 302 477 0
2022-11-28 09:56:49 GMT 51.702778 7.237244 38,000 302 477 0
2022-11-28 09:56:46 GMT 51.699100 7.246857 38,000 302 477 0
2022-11-28 09:56:43 GMT 51.696808 7.252832 38,000 302 477 0
2022-11-28 09:56:40 GMT 51.693100 7.262408 38,000 302 477 0
2022-11-28 09:56:37 GMT 51.690022 7.270355 38,000 302 477 0
2022-11-28 09:56:35 GMT 51.687698 7.276438 38,000 302 477 0
2022-11-28 09:56:32 GMT 51.683121 7.288389 38,000 302 477 0
2022-11-28 09:56:29 GMT 51.679966 7.296524 38,000 302 477 0
2022-11-28 09:56:26 GMT 51.676662 7.305145 38,000 302 477 0
2022-11-28 09:56:23 GMT 51.673683 7.312927 38,000 302 477 0
2022-11-28 09:56:21 GMT 51.672005 7.317276 38,000 302 477 0
2022-11-28 09:56:19 GMT 51.669258 7.324448 38,000 302 477 0
2022-11-28 09:56:17 GMT 51.665768 7.333450 38,000 302 477 0
2022-11-28 09:56:14 GMT 51.663441 7.339478 38,000 302 477 0
2022-11-28 09:56:11 GMT 51.655334 7.360394 38,000 302 477 0
2022-11-28 09:56:08 GMT 51.655334 7.360394 38,000 302 477 0
2022-11-28 09:56:05 GMT 51.652405 7.368040 38,000 302 477 0
2022-11-28 09:56:02 GMT 51.648560 7.377913 38,000 302 477 0
2022-11-28 09:55:59 GMT 51.645100 7.386932 38,000 302 477 0
2022-11-28 09:55:56 GMT 51.641655 7.395782 38,000 302 477 0
2022-11-28 09:55:53 GMT 51.637466 7.406693 38,000 302 477 0
2022-11-28 09:55:50 GMT 51.634506 7.414361 38,000 302 477 0
2022-11-28 09:55:47 GMT 51.632202 7.420349 38,000 302 477 0
2022-11-28 09:55:45 GMT 51.629410 7.427521 38,000 302 477 0
2022-11-28 09:55:42 GMT 51.625534 7.437596 38,000 302 477 0
2022-11-28 09:55:39 GMT 51.622429 7.445602 38,000 302 477 0
2022-11-28 09:55:37 GMT 51.619637 7.452927 38,000 302 477 0
2022-11-28 09:55:34 GMT 51.616562 7.460709 38,000 302 477 0
2022-11-28 09:55:31 GMT 51.612743 7.470703 38,000 302 477 0
2022-11-28 09:55:28 GMT 51.605762 7.488708 38,000 302 477 0
2022-11-28 09:55:25 GMT 51.605762 7.488708 38,000 302 477 0
2022-11-28 09:55:22 GMT 51.602097 7.498095 38,000 302 477 0
2022-11-28 09:55:19 GMT 51.598312 7.507935 38,000 302 477 0
2022-11-28 09:55:16 GMT 51.595894 7.514191 38,000 302 477 0
2022-11-28 09:55:13 GMT 51.589050 7.531738 38,000 302 477 0
2022-11-28 09:55:11 GMT 51.589050 7.531738 38,000 302 477 0
2022-11-28 09:55:08 GMT 51.584209 7.544250 38,000 302 477 0
2022-11-28 09:55:05 GMT 51.582047 7.549760 38,000 302 477 0
2022-11-28 09:55:02 GMT 51.579849 7.555476 38,000 302 476 0
2022-11-28 09:55:00 GMT 51.577553 7.561493 38,000 302 476 0
2022-11-28 09:54:58 GMT 51.574993 7.567978 38,000 302 476 0
2022-11-28 09:54:55 GMT 51.566528 7.589771 38,000 302 477 0
2022-11-28 09:54:52 GMT 51.566528 7.589771 38,000 302 477 0
2022-11-28 09:54:49 GMT 51.563026 7.598801 38,000 302 477 0
2022-11-28 09:54:46 GMT 51.561356 7.603059 38,000 302 477 0
2022-11-28 09:54:44 GMT 51.558277 7.610931 38,000 303 476 0
2022-11-28 09:54:41 GMT 51.553711 7.622730 38,000 303 476 0
2022-11-28 09:54:38 GMT 51.551468 7.628446 38,000 303 476 0
2022-11-28 09:54:35 GMT 51.548080 7.637205 38,000 303 476 0
2022-11-28 09:54:32 GMT 51.545059 7.644958 38,000 303 476 0
2022-11-28 09:54:30 GMT 51.541901 7.653017 38,000 303 476 0
2022-11-28 09:54:27 GMT 51.538635 7.661362 38,000 303 477 0
2022-11-28 09:54:24 GMT 51.535049 7.670517 38,000 303 477 0
2022-11-28 09:54:21 GMT 51.531876 7.678627 38,000 303 477 0
2022-11-28 09:54:19 GMT 51.525558 7.694809 38,000 303 477 0
2022-11-28 09:54:16 GMT 51.525558 7.694809 38,000 303 477 0
2022-11-28 09:54:14 GMT 51.522575 7.702408 38,000 303 477 0
2022-11-28 09:54:11 GMT 51.520020 7.708988 38,000 303 477 0
2022-11-28 09:54:08 GMT 51.515404 7.720642 38,000 303 477 0
2022-11-28 09:54:05 GMT 51.512924 7.727026 38,000 303 477 0
2022-11-28 09:54:03 GMT 51.511215 7.731323 38,000 303 477 0
2022-11-28 09:54:00 GMT 51.507065 7.742021 38,000 303 476 0
2022-11-28 09:53:57 GMT 51.499950 7.760086 38,000 303 477 0
2022-11-28 09:53:54 GMT 51.499950 7.760086 38,000 303 474 0
2022-11-28 09:53:51 GMT 51.496552 7.768707 38,000 303 476 0
2022-11-28 09:53:48 GMT 51.493011 7.777786 38,000 303 476 0
2022-11-28 09:53:45 GMT 51.489845 7.785873 38,000 303 476 0
2022-11-28 09:53:42 GMT 51.485413 7.797175 38,000 303 476 0
2022-11-28 09:53:39 GMT 51.482208 7.805267 38,000 303 475 0
2022-11-28 09:53:36 GMT 51.478210 7.815475 38,000 303 475 0
2022-11-28 09:53:34 GMT 51.476349 7.820187 38,000 303 475 0
2022-11-28 09:53:31 GMT 51.472019 7.831268 38,000 303 475 0
2022-11-28 09:53:28 GMT 51.466095 7.846391 38,000 303 475 0
2022-11-28 09:53:25 GMT 51.464149 7.851257 38,000 303 474 0
2022-11-28 09:53:23 GMT 51.464149 7.851257 38,000 303 474 0
2022-11-28 09:53:20 GMT 51.460285 7.861176 38,000 303 474 0
2022-11-28 09:53:17 GMT 51.457401 7.868500 38,000 303 474 0
2022-11-28 09:53:15 GMT 51.454926 7.874822 38,000 303 474 0
2022-11-28 09:53:13 GMT 51.452232 7.881622 38,000 303 474 0
2022-11-28 09:53:10 GMT 51.448059 7.892341 38,000 303 474 0
2022-11-28 09:53:07 GMT 51.444645 7.901001 38,000 303 474 0
2022-11-28 09:53:04 GMT 51.441284 7.909488 38,000 303 474 0
2022-11-28 09:53:01 GMT 51.438313 7.917099 38,000 303 474 0
2022-11-28 09:52:59 GMT 51.434544 7.926636 38,000 303 474 0
2022-11-28 09:52:56 GMT 51.432358 7.932129 38,000 303 474 0
2022-11-28 09:52:53 GMT 51.427467 7.944641 38,000 303 474 0
2022-11-28 09:52:50 GMT 51.424026 7.953359 38,000 303 474 0
2022-11-28 09:52:47 GMT 51.421322 7.960129 38,000 303 473 0
2022-11-28 09:52:44 GMT 51.418396 7.967612 38,000 303 473 0
2022-11-28 09:52:41 GMT 51.412262 7.983126 38,000 303 473 0
2022-11-28 09:52:39 GMT 51.412262 7.983126 38,000 303 473 0
2022-11-28 09:52:37 GMT 51.410477 7.987595 38,000 303 473 0
2022-11-28 09:52:35 GMT 51.407730 7.994558 38,000 303 473 0
2022-11-28 09:52:33 GMT 51.405403 8.000488 38,000 303 473 0
2022-11-28 09:52:30 GMT 51.402008 8.009107 38,000 303 472 0
2022-11-28 09:52:27 GMT 51.398300 8.018386 38,000 303 472 0
2022-11-28 09:52:25 GMT 51.395950 8.024292 38,000 303 472 0
2022-11-28 09:52:23 GMT 51.392990 8.031897 38,000 303 472 0
2022-11-28 09:52:20 GMT 51.389603 8.040359 38,000 303 472 0
2022-11-28 09:52:17 GMT 51.382095 8.059288 38,000 303 472 0
2022-11-28 09:52:14 GMT 51.382095 8.059288 38,000 303 471 0
2022-11-28 09:52:11 GMT 51.379749 8.065109 38,000 303 471 0
2022-11-28 09:52:08 GMT 51.376587 8.073196 38,000 303 471 0
2022-11-28 09:52:06 GMT 51.374584 8.078156 38,000 303 471 0
2022-11-28 09:52:04 GMT 51.371044 8.087082 38,000 303 471 0
2022-11-28 09:52:01 GMT 51.367538 8.095959 38,000 303 471 0
2022-11-28 09:51:58 GMT 51.363735 8.105545 38,000 303 467 0
2022-11-28 09:51:55 GMT 51.359734 8.115616 38,000 303 471 0
2022-11-28 09:51:53 GMT 51.357872 8.120270 38,000 303 470 0
2022-11-28 09:51:50 GMT 51.354939 8.127670 38,000 303 470 0
2022-11-28 09:51:47 GMT 51.351471 8.136415 38,000 303 470 0
2022-11-28 09:51:45 GMT 51.349091 8.142354 38,000 303 470 0
2022-11-28 09:51:43 GMT 51.346840 8.148041 38,000 303 470 0
2022-11-28 09:51:40 GMT 51.344372 8.154144 38,000 303 470 0
2022-11-28 09:51:38 GMT 51.341251 8.162079 38,000 303 470 0
2022-11-28 09:51:36 GMT 51.339668 8.165970 38,000 303 470 0
2022-11-28 09:51:34 GMT 51.336136 8.174867 38,000 303 470 0
2022-11-28 09:51:31 GMT 51.333069 8.182662 38,000 303 470 0
2022-11-28 09:51:28 GMT 51.330048 8.190159 38,000 303 470 0
2022-11-28 09:51:26 GMT 51.327393 8.196914 38,000 303 470 0
2022-11-28 09:51:23 GMT 51.323181 8.207381 38,000 303 470 0
2022-11-28 09:51:20 GMT 51.320770 8.213501 38,000 303 470 0
2022-11-28 09:51:18 GMT 51.318069 8.220291 38,000 303 469 0
2022-11-28 09:51:15 GMT 51.315090 8.227844 38,000 303 469 0
2022-11-28 09:51:13 GMT 51.311920 8.235812 38,000 303 469 0
2022-11-28 09:51:10 GMT 51.303963 8.255768 38,000 303 469 0
2022-11-28 09:51:06 GMT 51.301666 8.261496 38,000 303 469 0
2022-11-28 09:51:04 GMT 51.301666 8.261496 38,000 303 469 0
2022-11-28 09:51:02 GMT 51.299469 8.266915 38,000 303 468 0
2022-11-28 09:50:59 GMT 51.295898 8.275971 38,000 303 468 0
2022-11-28 09:50:56 GMT 51.292141 8.285294 38,000 303 468 0
2022-11-28 09:50:54 GMT 51.290405 8.289704 38,000 303 467 0
2022-11-28 09:50:52 GMT 51.286648 8.299026 38,000 303 467 0
2022-11-28 09:50:49 GMT 51.283127 8.307891 38,000 303 467 0
2022-11-28 09:50:46 GMT 51.279739 8.316279 38,000 303 467 0
2022-11-28 09:50:43 GMT 51.277359 8.322144 38,000 303 467 0
2022-11-28 09:50:40 GMT 51.270958 8.338165 38,000 303 467 0
2022-11-28 09:50:37 GMT 51.270958 8.338165 38,000 303 467 0
2022-11-28 09:50:34 GMT 51.266769 8.348541 38,000 303 467 0
2022-11-28 09:50:32 GMT 51.261600 8.361359 38,000 303 467 0
2022-11-28 09:50:30 GMT 51.261600 8.361359 38,000 303 467 0
2022-11-28 09:50:27 GMT 51.257599 8.371506 38,000 303 466 0
2022-11-28 09:50:24 GMT 51.254711 8.378525 38,000 303 466 0
2022-11-28 09:50:21 GMT 51.249218 8.392334 38,000 303 466 0
2022-11-28 09:50:17 GMT 51.247265 8.397064 38,000 303 466 0
2022-11-28 09:50:14 GMT 51.243256 8.407065 38,000 303 465 0
2022-11-28 09:50:12 GMT 51.241398 8.411713 38,000 303 464 0
2022-11-28 09:50:09 GMT 51.237762 8.420724 38,000 303 465 0
2022-11-28 09:50:06 GMT 51.234970 8.427627 38,000 303 465 0
2022-11-28 09:50:04 GMT 51.231621 8.435974 38,000 303 464 0
2022-11-28 09:50:01 GMT 51.224625 8.453311 38,000 303 463 0
2022-11-28 09:49:58 GMT 51.224625 8.453311 38,000 303 464 0
2022-11-28 09:49:55 GMT 51.221661 8.460693 38,000 303 464 0
2022-11-28 09:49:53 GMT 51.219891 8.465042 38,000 303 463 0
2022-11-28 09:49:51 GMT 51.216248 8.474096 38,000 303 463 0
2022-11-28 09:49:48 GMT 51.210114 8.489304 38,000 303 463 0
2022-11-28 09:49:45 GMT 51.210114 8.489304 38,000 303 463 0
2022-11-28 09:49:42 GMT 51.206085 8.499261 38,000 303 463 0
2022-11-28 09:49:39 GMT 51.202423 8.508392 38,000 303 463 0
2022-11-28 09:49:37 GMT 51.201363 8.511047 38,000 303 463 0
2022-11-28 09:49:34 GMT 51.196701 8.522644 38,000 303 462 0
2022-11-28 09:49:31 GMT 51.194241 8.528671 38,000 303 462 0
2022-11-28 09:49:28 GMT 51.190563 8.537827 38,000 303 462 0
2022-11-28 09:49:25 GMT 51.186092 8.548889 38,000 303 462 0
2022-11-28 09:49:22 GMT 51.184341 8.553228 38,000 303 461 0
2022-11-28 09:49:19 GMT 51.179306 8.565699 38,000 303 461 0
2022-11-28 09:49:16 GMT 51.175854 8.574219 38,000 303 461 0
2022-11-28 09:49:13 GMT 51.171478 8.585073 38,000 303 461 0
2022-11-28 09:49:10 GMT 51.168549 8.592348 38,000 303 461 0
2022-11-28 09:49:07 GMT 51.164978 8.601107 38,000 303 460 0
2022-11-28 09:49:04 GMT 51.162231 8.607937 38,000 303 460 0
2022-11-28 09:49:01 GMT 51.156021 8.623352 38,000 303 460 0
2022-11-28 09:48:58 GMT 51.156021 8.623352 38,000 303 460 0
2022-11-28 09:48:55 GMT 51.148338 8.642273 38,000 303 460 0
2022-11-28 09:48:52 GMT 51.148338 8.642273 38,000 303 460 0
2022-11-28 09:48:49 GMT 51.141499 8.659210 38,000 303 460 0
2022-11-28 09:48:46 GMT 51.141499 8.659210 38,000 303 460 0
2022-11-28 09:48:43 GMT 51.138107 8.667471 38,000 303 459 0
2022-11-28 09:48:40 GMT 51.134995 8.675191 38,000 303 459 0
2022-11-28 09:48:35 GMT 51.126183 8.696899 38,000 303 459 0
2022-11-28 09:48:30 GMT 51.122688 8.705444 38,000 303 459 0
2022-11-28 09:48:27 GMT 51.119339 8.713791 38,000 303 458 -64
2022-11-28 09:48:24 GMT 51.117012 8.719482 38,000 303 459 0
2022-11-28 09:48:22 GMT 51.114716 8.725149 38,000 303 459 0
2022-11-28 09:48:20 GMT 51.111423 8.733292 38,000 303 458 -64
2022-11-28 09:48:17 GMT 51.109085 8.739030 38,000 303 458 -64
2022-11-28 09:48:14 GMT 51.105515 8.747715 38,000 303 458 0
2022-11-28 09:48:12 GMT 51.102997 8.753951 38,000 303 458 0
2022-11-28 09:48:09 GMT 51.098648 8.764640 38,000 303 457 0
2022-11-28 09:48:06 GMT 51.096016 8.771057 38,000 303 457 0
2022-11-28 09:48:03 GMT 51.089638 8.786697 38,000 303 457 0
2022-11-28 09:48:00 GMT 51.089638 8.786697 38,000 303 457 0
2022-11-28 09:47:57 GMT 51.081573 8.806433 38,000 303 457 0
2022-11-28 09:47:54 GMT 51.078735 8.813411 38,000 303 457 0
2022-11-28 09:47:51 GMT 51.075348 8.821650 38,000 303 457 0
2022-11-28 09:47:48 GMT 51.075348 8.821650 38,000 303 457 0
2022-11-28 09:47:46 GMT 51.073059 8.827143 38,000 303 457 0
2022-11-28 09:47:43 GMT 51.069481 8.835983 38,000 303 457 0
2022-11-28 09:47:40 GMT 51.065105 8.846664 38,000 303 457 0
2022-11-28 09:47:37 GMT 51.062313 8.853455 38,000 303 457 0
2022-11-28 09:47:33 GMT 51.057423 8.865433 38,000 303 457 0
2022-11-28 09:47:30 GMT 51.054153 8.873464 38,000 303 457 0
2022-11-28 09:47:27 GMT 51.047417 8.889923 38,000 303 457 0
2022-11-28 09:47:24 GMT 51.047417 8.889923 38,000 303 457 0
2022-11-28 09:47:20 GMT 51.039734 8.908691 38,000 303 457 0
2022-11-28 09:47:17 GMT 51.039734 8.908691 38,000 303 457 0
2022-11-28 09:47:14 GMT 51.035778 8.918457 38,000 304 456 64
2022-11-28 09:47:11 GMT 51.032547 8.926243 38,000 304 456 64
2022-11-28 09:47:07 GMT 51.025909 8.942490 38,000 304 456 64
2022-11-28 09:47:05 GMT 51.025909 8.942490 38,000 303 457 64
2022-11-28 09:47:02 GMT 51.021950 8.952179 38,000 303 457 64
2022-11-28 09:46:59 GMT 51.018970 8.959427 38,000 303 457 0
2022-11-28 09:46:56 GMT 51.014408 8.970490 38,000 304 458 0
2022-11-28 09:46:53 GMT 51.011009 8.978882 38,000 304 458 0
2022-11-28 09:46:50 GMT 51.007462 8.987484 38,000 304 458 -64
2022-11-28 09:46:47 GMT 51.005192 8.993073 38,000 304 458 -64
2022-11-28 09:46:45 GMT 51.002884 8.998694 38,000 304 457 0
2022-11-28 09:46:42 GMT 50.999680 9.006414 38,000 304 457 0
2022-11-28 09:46:39 GMT 50.995602 9.016342 38,000 304 457 0
2022-11-28 09:46:36 GMT 50.992081 9.024897 38,000 304 457 0
2022-11-28 09:46:33 GMT 50.988388 9.033890 38,000 304 457 0
2022-11-28 09:46:31 GMT 50.987175 9.036865 38,000 304 457 0
2022-11-28 09:46:29 GMT 50.984253 9.043901 38,000 304 457 0
2022-11-28 09:46:26 GMT 50.981312 9.051056 38,000 304 457 0
2022-11-28 09:46:23 GMT 50.977478 9.060380 38,000 304 457 0
2022-11-28 09:46:21 GMT 50.974503 9.067655 38,000 304 457 0
2022-11-28 09:46:18 GMT 50.971527 9.074781 38,000 304 457 64
2022-11-28 09:46:16 GMT 50.965996 9.088211 38,000 304 455 0
2022-11-28 09:46:13 GMT 50.965996 9.088211 38,000 304 457 0
2022-11-28 09:46:10 GMT 50.961548 9.098981 38,000 304 457 0
2022-11-28 09:46:07 GMT 50.958824 9.105606 38,000 304 457 0
2022-11-28 09:46:05 GMT 50.956963 9.110107 38,000 304 457 0
2022-11-28 09:46:02 GMT 50.953472 9.118576 38,000 304 457 0
2022-11-28 09:46:00 GMT 50.951157 9.124220 38,000 304 457 -64
2022-11-28 09:45:57 GMT 50.946945 9.134390 38,000 304 456 0
2022-11-28 09:45:55 GMT 50.944519 9.140254 38,000 304 455 0
2022-11-28 09:45:52 GMT 50.941742 9.147034 38,000 304 456 0
2022-11-28 09:45:50 GMT 50.939072 9.153467 38,000 304 456 0
2022-11-28 09:45:47 GMT 50.935089 9.163117 38,000 304 456 0
2022-11-28 09:45:44 GMT 50.928429 9.179306 38,000 304 455 0
2022-11-28 09:45:41 GMT 50.928429 9.179306 38,000 304 455 0
2022-11-28 09:45:37 GMT 50.924561 9.188505 38,000 304 455 0
2022-11-28 09:45:34 GMT 50.905243 9.235153 38,000 304 455 0
2022-11-28 09:45:26 GMT 50.905243 9.235153 38,000 304 455 0
2022-11-28 09:45:21 GMT 50.901985 9.242935 38,000 304 455 0
2022-11-28 09:45:17 GMT 50.898376 9.251750 38,000 304 454 -64
2022-11-28 09:45:12 GMT 50.894676 9.260559 38,000 304 454 0
2022-11-28 09:45:09 GMT 50.892349 9.266205 38,000 304 454 0
2022-11-28 09:45:06 GMT 50.888718 9.274911 38,000 304 454 0
2022-11-28 09:45:04 GMT 50.886482 9.280319 38,000 304 450 0
2022-11-28 09:45:01 GMT 50.882996 9.288718 38,000 304 454 0
2022-11-28 09:44:59 GMT 50.880898 9.293671 38,000 304 452 0
2022-11-28 09:44:57 GMT 50.878601 9.299184 38,000 304 453 64
2022-11-28 09:44:55 GMT 50.874939 9.308014 38,000 304 452 0
2022-11-28 09:44:52 GMT 50.872330 9.314179 38,000 304 452 0
2022-11-28 09:44:49 GMT 50.869583 9.320831 38,000 304 453 0
2022-11-28 09:44:46 GMT 50.865814 9.329834 38,000 304 453 0
2022-11-28 09:44:44 GMT 50.860508 9.342651 38,000 304 453 0
2022-11-28 09:44:41 GMT 50.860508 9.342651 38,000 304 453 0
2022-11-28 09:44:39 GMT 50.857296 9.350357 38,000 304 452 0
2022-11-28 09:44:36 GMT 50.854202 9.357679 38,000 304 452 0
2022-11-28 09:44:34 GMT 50.851940 9.363174 38,000 304 452 0
2022-11-28 09:44:31 GMT 50.848984 9.370224 38,000 304 452 0
2022-11-28 09:44:29 GMT 50.846558 9.376089 38,000 304 452 0
2022-11-28 09:44:27 GMT 50.844223 9.381730 38,000 304 452 0
2022-11-28 09:44:25 GMT 50.842121 9.386673 38,000 304 452 0
2022-11-28 09:44:23 GMT 50.839699 9.392548 38,000 304 452 0
2022-11-28 09:44:20 GMT 50.835022 9.403777 38,000 304 451 0
2022-11-28 09:44:17 GMT 50.832531 9.409714 38,000 304 451 0
2022-11-28 09:44:15 GMT 50.825779 9.425812 38,000 304 451 0
2022-11-28 09:44:12 GMT 50.825779 9.425812 38,000 304 451 0
2022-11-28 09:44:10 GMT 50.823578 9.431095 38,000 304 451 0
2022-11-28 09:44:07 GMT 50.821335 9.436514 38,000 304 450 0
2022-11-28 09:44:04 GMT 50.816711 9.447500 38,000 304 451 0
2022-11-28 09:44:00 GMT 50.812088 9.458486 38,000 304 450 0
2022-11-28 09:43:57 GMT 50.809341 9.465093 38,000 304 450 0
2022-11-28 09:43:54 GMT 50.805763 9.473648 38,000 304 450 0
2022-11-28 09:43:51 GMT 50.802841 9.480533 38,000 304 450 0
2022-11-28 09:43:48 GMT 50.797989 9.492113 38,000 304 450 0
2022-11-28 09:43:45 GMT 50.793365 9.503100 38,000 304 450 0
2022-11-28 09:43:43 GMT 50.793365 9.503100 38,000 304 450 0
2022-11-28 09:43:40 GMT 50.789337 9.512676 38,000 304 450 0
2022-11-28 09:43:37 GMT 50.786041 9.520544 38,000 304 450 0
2022-11-28 09:43:34 GMT 50.783649 9.526291 38,000 304 450 0
2022-11-28 09:43:31 GMT 50.779358 9.536504 38,000 304 450 0
2022-11-28 09:43:29 GMT 50.777573 9.540735 38,000 304 450 0
2022-11-28 09:43:27 GMT 50.774525 9.547958 38,000 304 450 0
2022-11-28 09:43:25 GMT 50.772858 9.551944 38,000 304 450 0
2022-11-28 09:43:23 GMT 50.770477 9.557571 38,000 304 450 0
2022-11-28 09:43:20 GMT 50.762833 9.575698 38,000 304 450 0
2022-11-28 09:43:17 GMT 50.762833 9.575698 38,000 304 450 0
2022-11-28 09:43:14 GMT 50.759811 9.582899 38,000 304 450 0
2022-11-28 09:43:11 GMT 50.756744 9.590174 38,000 304 450 0
2022-11-28 09:43:08 GMT 50.753578 9.597702 38,000 304 448 0
2022-11-28 09:43:06 GMT 50.751480 9.602661 38,000 304 450 0
2022-11-28 09:43:04 GMT 50.747990 9.610901 38,000 304 449 0
2022-11-28 09:43:01 GMT 50.744823 9.618454 38,000 304 449 0
2022-11-28 09:42:58 GMT 50.741455 9.626399 38,000 304 449 0
2022-11-28 09:42:56 GMT 50.739658 9.630661 38,000 304 449 -64
2022-11-28 09:42:54 GMT 50.734165 9.643784 38,000 304 449 0
2022-11-28 09:42:52 GMT 50.734165 9.643784 38,000 304 449 0
2022-11-28 09:42:49 GMT 50.731464 9.650116 38,000 304 448 0
2022-11-28 09:42:47 GMT 50.729187 9.655498 38,000 304 448 0
2022-11-28 09:42:45 GMT 50.726349 9.662179 38,000 304 448 0
2022-11-28 09:42:43 GMT 50.724762 9.665985 38,000 304 448 0
2022-11-28 09:42:40 GMT 50.721268 9.674204 38,000 304 448 0
2022-11-28 09:42:38 GMT 50.718197 9.681549 38,000 304 447 0
2022-11-28 09:42:35 GMT 50.714996 9.689051 38,000 304 447 0
2022-11-28 09:42:32 GMT 50.709213 9.702682 38,000 304 447 0
2022-11-28 09:42:30 GMT 50.709213 9.702682 38,000 304 447 0
2022-11-28 09:42:27 GMT 50.704651 9.713399 38,000 304 447 0
2022-11-28 09:42:24 GMT 50.701767 9.720228 38,000 304 447 0
2022-11-28 09:42:21 GMT 50.698929 9.726909 38,000 304 447 0
2022-11-28 09:42:19 GMT 50.696823 9.731808 38,000 304 447 0
2022-11-28 09:42:17 GMT 50.693573 9.739454 38,000 304 447 0
2022-11-28 09:42:14 GMT 50.690453 9.746857 38,000 304 447 0
2022-11-28 09:42:11 GMT 50.686890 9.755266 38,000 304 447 0
2022-11-28 09:42:09 GMT 50.684601 9.760536 38,000 304 446 -64
2022-11-28 09:42:06 GMT 50.681702 9.767380 38,000 304 446 -64
2022-11-28 09:42:02 GMT 50.674026 9.785478 38,000 304 446 0
2022-11-28 09:41:57 GMT 50.670731 9.793227 38,000 304 446 0
2022-11-28 09:41:54 GMT 50.668201 9.799211 38,000 304 446 0
2022-11-28 09:41:52 GMT 50.662811 9.811803 38,000 304 446 0
2022-11-28 09:41:49 GMT 50.659866 9.818660 38,000 304 445 0
2022-11-28 09:41:47 GMT 50.659866 9.818660 38,000 304 446 0
2022-11-28 09:41:44 GMT 50.656265 9.827126 38,000 304 446 0
2022-11-28 09:41:42 GMT 50.653629 9.833432 38,000 304 445 0
2022-11-28 09:41:39 GMT 50.651489 9.838405 38,000 304 445 0
2022-11-28 09:41:36 GMT 50.646461 9.850357 38,000 304 445 0
2022-11-28 09:41:33 GMT 50.639420 9.866879 38,000 304 444 0
2022-11-28 09:41:29 GMT 50.639420 9.866879 38,000 304 445 0
2022-11-28 09:41:26 GMT 50.635147 9.877006 38,000 304 445 0
2022-11-28 09:41:23 GMT 50.631985 9.884578 38,000 304 445 0
2022-11-28 09:41:20 GMT 50.628754 9.892104 38,000 304 445 0
2022-11-28 09:41:17 GMT 50.626583 9.897345 38,000 304 444 0
2022-11-28 09:41:15 GMT 50.623627 9.904319 38,000 304 444 0
2022-11-28 09:41:12 GMT 50.620113 9.912637 38,000 304 444 0
2022-11-28 09:41:09 GMT 50.616760 9.920582 38,000 304 444 0
2022-11-28 09:41:07 GMT 50.614155 9.926816 38,000 304 444 0
2022-11-28 09:41:05 GMT 50.609207 9.938652 38,000 304 444 0
2022-11-28 09:41:02 GMT 50.609207 9.938652 38,000 304 444 0
2022-11-28 09:40:59 GMT 50.605774 9.946858 38,000 304 443 0
2022-11-28 09:40:56 GMT 50.602524 9.954625 38,000 304 443 0
2022-11-28 09:40:53 GMT 50.595520 9.971394 38,000 304 443 0
2022-11-28 09:40:50 GMT 50.595520 9.971394 38,000 304 443 0
2022-11-28 09:40:47 GMT 50.591621 9.980782 38,000 304 443 0
2022-11-28 09:40:45 GMT 50.587059 9.991694 38,000 304 443 0
2022-11-28 09:40:42 GMT 50.587059 9.991694 38,000 304 443 0
2022-11-28 09:40:40 GMT 50.580368 10.007822 38,000 304 443 0
2022-11-28 09:40:37 GMT 50.580368 10.007822 38,000 304 442 0
2022-11-28 09:40:34 GMT 50.576523 10.017002 38,000 304 443 0
2022-11-28 09:40:31 GMT 50.574234 10.022495 38,000 304 443 0
2022-11-28 09:40:28 GMT 50.571396 10.029361 38,000 304 443 64
2022-11-28 09:40:26 GMT 50.568970 10.035216 38,000 304 443 64
2022-11-28 09:40:23 GMT 50.565132 10.044399 38,000 304 444 0
2022-11-28 09:40:20 GMT 50.561096 10.054080 38,000 304 443 0
2022-11-28 09:40:17 GMT 50.559128 10.058726 38,000 304 443 0
2022-11-28 09:40:14 GMT 50.554321 10.070271 38,000 304 444 0
2022-11-28 09:40:11 GMT 50.550522 10.079233 38,000 304 444 0
2022-11-28 09:40:08 GMT 50.548794 10.083371 38,000 307 446 0
2022-11-28 09:40:05 GMT 50.544327 10.093689 38,000 305 444 0
2022-11-28 09:40:02 GMT 50.540787 10.101854 38,000 306 445 0
2022-11-28 09:39:59 GMT 50.537296 10.109649 38,000 307 445 0
2022-11-28 09:39:57 GMT 50.536240 10.111975 38,000 307 445 0
2022-11-28 09:39:55 GMT 50.533058 10.118854 38,000 307 445 0
2022-11-28 09:39:52 GMT 50.526077 10.133587 38,000 307 446 0
2022-11-28 09:39:49 GMT 50.526077 10.133587 38,000 307 446 0
2022-11-28 09:39:46 GMT 50.522350 10.141494 38,000 307 446 0
2022-11-28 09:39:43 GMT 50.517975 10.150717 38,000 307 446 0
2022-11-28 09:39:41 GMT 50.514904 10.157232 38,000 307 446 0
2022-11-28 09:39:38 GMT 50.512115 10.163149 38,000 307 446 0
2022-11-28 09:39:35 GMT 50.508015 10.171781 38,000 307 446 0
2022-11-28 09:39:33 GMT 50.506302 10.175436 38,000 307 446 0
2022-11-28 09:39:30 GMT 50.501678 10.185194 38,000 307 446 0
2022-11-28 09:39:27 GMT 50.498890 10.191007 38,000 307 446 0
2022-11-28 09:39:25 GMT 50.495590 10.197987 38,000 307 446 0
2022-11-28 09:39:22 GMT 50.489532 10.210827 38,000 307 446 0
2022-11-28 09:39:19 GMT 50.489532 10.210827 38,000 307 446 0
2022-11-28 09:39:17 GMT 50.486938 10.216273 38,000 307 446 0
2022-11-28 09:39:15 GMT 50.483295 10.223966 38,000 307 446 0
2022-11-28 09:39:12 GMT 50.480549 10.229830 38,000 307 446 0
2022-11-28 09:39:08 GMT 50.472679 10.246384 38,000 307 446 0
2022-11-28 09:39:06 GMT 50.472679 10.246384 38,000 307 446 0
2022-11-28 09:39:04 GMT 50.470276 10.251545 38,000 307 446 0
2022-11-28 09:39:01 GMT 50.467606 10.257148 38,000 307 446 0
2022-11-28 09:38:59 GMT 50.464024 10.264645 38,000 307 446 0
2022-11-28 09:38:56 GMT 50.455536 10.282553 38,000 307 446 0
2022-11-28 09:38:52 GMT 50.455536 10.282553 38,000 307 446 0
2022-11-28 09:38:49 GMT 50.452290 10.289439 38,000 307 446 0
2022-11-28 09:38:46 GMT 50.448101 10.298346 38,000 307 446 0
2022-11-28 09:38:42 GMT 50.443401 10.308219 38,000 307 446 0
2022-11-28 09:38:40 GMT 50.439487 10.316533 38,000 307 446 0
2022-11-28 09:38:37 GMT 50.437775 10.320065 38,000 307 446 0
2022-11-28 09:38:35 GMT 50.434753 10.326426 38,000 307 446 0
2022-11-28 09:38:32 GMT 50.431110 10.334200 38,000 307 445 0
2022-11-28 09:38:30 GMT 50.429108 10.338357 38,000 307 446 0
2022-11-28 09:38:27 GMT 50.424873 10.347265 38,000 307 445 0
2022-11-28 09:38:24 GMT 50.421055 10.355357 38,000 307 445 0
2022-11-28 09:38:21 GMT 50.417889 10.362037 38,000 307 445 0
2022-11-28 09:38:18 GMT 50.414017 10.370154 38,000 307 445 0
2022-11-28 09:38:15 GMT 50.410446 10.377599 38,000 307 445 0
2022-11-28 09:38:11 GMT 50.405823 10.387212 38,000 307 445 0
2022-11-28 09:38:09 GMT 50.402893 10.393283 38,000 307 445 0
2022-11-28 09:38:06 GMT 50.399780 10.399788 38,000 307 445 0
2022-11-28 09:38:04 GMT 50.397221 10.405240 38,000 307 445 0
2022-11-28 09:38:01 GMT 50.393097 10.413883 38,000 307 445 0
2022-11-28 09:37:58 GMT 50.389755 10.420894 38,000 307 445 0
2022-11-28 09:37:55 GMT 50.385815 10.429143 38,000 307 445 0
2022-11-28 09:37:53 GMT 50.383209 10.434562 38,000 307 445 0
2022-11-28 09:37:50 GMT 50.379227 10.442866 38,000 307 445 0
2022-11-28 09:37:47 GMT 50.375481 10.450745 38,000 307 445 0
2022-11-28 09:37:45 GMT 50.373459 10.455009 38,000 307 445 0
2022-11-28 09:37:42 GMT 50.368824 10.464700 38,000 307 445 0
2022-11-28 09:37:39 GMT 50.366123 10.470342 38,000 307 445 0
2022-11-28 09:37:35 GMT 50.360722 10.481699 38,000 307 444 0
2022-11-28 09:37:31 GMT 50.355789 10.491943 38,000 307 443 0
2022-11-28 09:37:28 GMT 50.352173 10.499533 38,000 307 445 0
2022-11-28 09:37:26 GMT 50.350250 10.503508 38,000 307 444 0
2022-11-28 09:37:24 GMT 50.347549 10.509165 38,000 307 444 0
2022-11-28 09:37:21 GMT 50.343731 10.517182 38,000 307 444 0
2022-11-28 09:37:18 GMT 50.339447 10.526059 38,000 307 442 0
2022-11-28 09:37:16 GMT 50.338329 10.528465 38,000 307 444 0
2022-11-28 09:37:14 GMT 50.334732 10.535961 38,000 307 444 0
2022-11-28 09:37:12 GMT 50.332836 10.539897 38,000 307 443 0
2022-11-28 09:37:09 GMT 50.328552 10.548827 38,000 307 444 0
2022-11-28 09:37:06 GMT 50.324692 10.556822 38,000 307 444 0
2022-11-28 09:37:03 GMT 50.320827 10.564913 38,000 307 444 0
2022-11-28 09:37:00 GMT 50.318314 10.570258 38,000 307 443 0
2022-11-28 09:36:57 GMT 50.314499 10.578052 38,000 307 443 0
2022-11-28 09:36:54 GMT 50.309887 10.587628 38,000 307 443 0
2022-11-28 09:36:52 GMT 50.308071 10.591414 38,000 307 442 0
2022-11-28 09:36:49 GMT 50.300903 10.606360 38,000 307 442 0
2022-11-28 09:36:46 GMT 50.300903 10.606360 38,000 307 443 0
2022-11-28 09:36:44 GMT 50.299072 10.610119 38,000 307 443 0
2022-11-28 09:36:42 GMT 50.295181 10.618214 38,000 307 442 0
2022-11-28 09:36:39 GMT 50.292107 10.624670 38,000 307 442 0
2022-11-28 09:36:36 GMT 50.288452 10.632236 38,000 307 442 0
2022-11-28 09:36:34 GMT 50.286427 10.636473 38,000 307 442 0
2022-11-28 09:36:30 GMT 50.279442 10.650948 38,000 307 442 0
2022-11-28 09:36:28 GMT 50.279442 10.650948 38,000 307 442 0
2022-11-28 09:36:26 GMT 50.275681 10.658834 38,000 307 442 0
2022-11-28 09:36:23 GMT 50.273392 10.663605 38,000 307 442 0
2022-11-28 09:36:20 GMT 50.269154 10.672327 38,000 307 442 0
2022-11-28 09:36:18 GMT 50.266129 10.678637 38,000 307 442 0
2022-11-28 09:36:15 GMT 50.263092 10.684999 38,000 307 442 0
2022-11-28 09:36:13 GMT 50.261353 10.688541 38,000 307 442 0
2022-11-28 09:36:11 GMT 50.258217 10.695042 38,000 307 442 0
2022-11-28 09:36:08 GMT 50.254532 10.702707 38,000 307 442 0
2022-11-28 09:36:05 GMT 50.250824 10.710369 38,000 307 442 0
2022-11-28 09:36:03 GMT 50.248993 10.714127 38,000 307 442 0
2022-11-28 09:36:01 GMT 50.246338 10.719693 38,000 307 442 0
2022-11-28 09:35:58 GMT 50.242481 10.727704 38,000 307 442 0
2022-11-28 09:35:55 GMT 50.237869 10.737184 38,000 308 441 0
2022-11-28 09:35:52 GMT 50.234707 10.743738 38,000 307 442 0
2022-11-28 09:35:48 GMT 50.229767 10.753953 38,000 308 441 0
2022-11-28 09:35:46 GMT 50.226746 10.760241 38,000 307 442 0
2022-11-28 09:35:43 GMT 50.223625 10.766602 38,000 307 442 0
2022-11-28 09:35:40 GMT 50.217342 10.779592 38,000 307 442 0
2022-11-28 09:35:37 GMT 50.217342 10.779592 38,000 307 442 0
2022-11-28 09:35:35 GMT 50.213387 10.787758 38,000 308 441 0
2022-11-28 09:35:33 GMT 50.210999 10.792694 38,000 308 441 0
2022-11-28 09:35:30 GMT 50.207424 10.800080 38,000 308 441 0
2022-11-28 09:35:28 GMT 50.203983 10.807206 38,000 308 441 0
2022-11-28 09:35:25 GMT 50.202168 10.810992 38,000 308 441 0
2022-11-28 09:35:23 GMT 50.198956 10.817525 38,000 308 441 0
2022-11-28 09:35:20 GMT 50.194859 10.825987 38,000 307 440 0
2022-11-28 09:35:17 GMT 50.191818 10.832303 38,000 307 440 0
2022-11-28 09:35:14 GMT 50.185688 10.844990 38,000 307 440 0
2022-11-28 09:35:12 GMT 50.181870 10.852859 38,000 307 440 0
2022-11-28 09:35:09 GMT 50.181870 10.852859 38,000 307 440 0
2022-11-28 09:35:06 GMT 50.176941 10.863093 38,000 307 440 0
2022-11-28 09:35:03 GMT 50.173965 10.869237 38,000 307 440 0
2022-11-28 09:35:00 GMT 50.168510 10.880473 38,000 307 440 0
2022-11-28 09:34:57 GMT 50.167160 10.883294 38,000 308 440 0
2022-11-28 09:34:54 GMT 50.159710 10.898660 38,000 308 439 0
2022-11-28 09:34:52 GMT 50.159710 10.898660 38,000 308 439 0
2022-11-28 09:34:49 GMT 50.157211 10.903786 38,000 308 440 0
2022-11-28 09:34:46 GMT 50.152267 10.913905 38,000 308 440 0
2022-11-28 09:34:43 GMT 50.148560 10.921567 38,000 308 440 0
2022-11-28 09:34:40 GMT 50.144897 10.929156 38,000 308 440 0
2022-11-28 09:34:37 GMT 50.142952 10.933104 38,000 308 440 0
2022-11-28 09:34:34 GMT 50.138901 10.941418 38,000 308 440 0
2022-11-28 09:34:31 GMT 50.135330 10.948816 38,000 308 440 0
2022-11-28 09:34:27 GMT 50.129311 10.961089 38,000 308 440 0
2022-11-28 09:34:24 GMT 50.126144 10.967547 38,000 308 440 0
2022-11-28 09:34:22 GMT 50.124344 10.971294 38,000 308 440 0
2022-11-28 09:34:19 GMT 50.120453 10.979245 38,000 308 440 0
2022-11-28 09:34:16 GMT 50.116741 10.986848 38,000 308 439 0
2022-11-28 09:34:13 GMT 50.112488 10.995580 38,000 308 439 0
2022-11-28 09:34:11 GMT 50.106354 11.008156 38,000 308 439 0
2022-11-28 09:34:08 GMT 50.106354 11.008156 38,000 308 440 0
2022-11-28 09:34:05 GMT 50.100681 11.019733 38,000 308 440 0
2022-11-28 09:34:03 GMT 50.100681 11.019733 38,000 308 440 0
2022-11-28 09:34:01 GMT 50.098526 11.024130 38,000 308 439 0
2022-11-28 09:33:58 GMT 50.094444 11.032426 38,000 308 439 0
2022-11-28 09:33:56 GMT 50.091930 11.037622 38,000 308 439 0
2022-11-28 09:33:52 GMT 50.087494 11.046681 38,000 308 439 0
2022-11-28 09:33:50 GMT 50.083878 11.054028 38,000 308 439 0
2022-11-28 09:33:46 GMT 50.080170 11.061570 38,000 308 439 0
2022-11-28 09:33:43 GMT 50.075912 11.070388 38,000 308 439 0
2022-11-28 09:33:40 GMT 50.071308 11.079712 38,000 308 439 0
2022-11-28 09:33:36 GMT 50.067993 11.086506 38,000 308 439 0
2022-11-28 09:33:33 GMT 50.063370 11.095975 38,000 308 439 0
2022-11-28 09:33:30 GMT 50.060974 11.100868 38,000 308 439 0
2022-11-28 09:33:26 GMT 50.051476 11.120317 38,000 308 439 0
2022-11-28 09:33:23 GMT 50.051476 11.120317 38,000 308 439 0
2022-11-28 09:33:20 GMT 50.048218 11.126849 38,000 308 439 0
2022-11-28 09:33:17 GMT 50.044262 11.134940 38,000 308 439 0
2022-11-28 09:33:15 GMT 50.041718 11.140137 38,000 308 438 0
2022-11-28 09:33:12 GMT 50.038696 11.146280 38,000 308 439 0
2022-11-28 09:33:10 GMT 50.036114 11.151568 38,000 308 438 0
2022-11-28 09:33:07 GMT 50.032471 11.159001 38,000 308 439 0
2022-11-28 09:33:05 GMT 50.026245 11.171650 38,000 308 438 0
2022-11-28 09:33:02 GMT 50.026245 11.171650 38,000 308 439 0
2022-11-28 09:32:59 GMT 50.021824 11.180667 38,000 308 439 0
2022-11-28 09:32:56 GMT 50.018799 11.186903 38,000 308 439 0
2022-11-28 09:32:53 GMT 50.013817 11.196998 38,000 308 438 0
2022-11-28 09:32:50 GMT 50.009674 11.205461 38,000 308 438 0
2022-11-28 09:32:47 GMT 50.003620 11.217709 38,000 308 438 0
2022-11-28 09:32:44 GMT 50.003620 11.217709 38,000 308 438 0
2022-11-28 09:32:41 GMT 50.000874 11.223351 38,000 308 438 0
2022-11-28 09:32:37 GMT 49.994247 11.236845 38,000 308 438 0
2022-11-28 09:32:34 GMT 49.991005 11.243393 38,000 308 438 0
2022-11-28 09:32:31 GMT 49.988071 11.249332 38,000 308 438 0
2022-11-28 09:32:28 GMT 49.983627 11.258384 38,000 308 438 0
2022-11-28 09:32:25 GMT 49.979179 11.267370 38,000 308 438 0
2022-11-28 09:32:22 GMT 49.976574 11.272715 38,000 308 438 0
2022-11-28 09:32:19 GMT 49.972942 11.280138 38,000 308 438 0
2022-11-28 09:32:15 GMT 49.967377 11.291343 38,000 308 438 0
2022-11-28 09:32:12 GMT 49.964401 11.297342 38,000 308 438 0
2022-11-28 09:32:10 GMT 49.962433 11.301390 38,000 308 438 0
2022-11-28 09:32:07 GMT 49.957993 11.310353 38,000 308 438 0
2022-11-28 09:32:03 GMT 49.953625 11.319184 38,000 308 438 0
2022-11-28 09:32:01 GMT 49.950272 11.326014 38,000 308 438 0
2022-11-28 09:31:57 GMT 49.945896 11.334773 38,000 308 438 0
2022-11-28 09:31:54 GMT 49.941708 11.343310 38,000 308 438 0
2022-11-28 09:31:51 GMT 49.938171 11.350467 38,000 308 438 0
2022-11-28 09:31:48 GMT 49.934769 11.357339 38,000 308 437 0
2022-11-28 09:31:45 GMT 49.927277 11.372440 38,000 308 438 0
2022-11-28 09:31:42 GMT 49.927277 11.372440 38,000 308 437 0
2022-11-28 09:31:40 GMT 49.924988 11.376993 38,000 308 437 0
2022-11-28 09:31:37 GMT 49.921371 11.384366 38,000 308 437 0
2022-11-28 09:31:34 GMT 49.914474 11.398241 38,000 308 437 0
2022-11-28 09:31:31 GMT 49.914474 11.398241 38,000 308 437 0
2022-11-28 09:31:29 GMT 49.911121 11.405071 38,000 308 437 0
2022-11-28 09:31:26 GMT 49.908001 11.411306 38,000 308 437 0
2022-11-28 09:31:23 GMT 49.903580 11.420214 38,000 308 437 0
2022-11-28 09:31:20 GMT 49.899483 11.428454 38,000 308 437 0
2022-11-28 09:31:17 GMT 49.896561 11.434382 38,000 308 437 0
2022-11-28 09:31:14 GMT 49.893448 11.440743 38,000 308 437 0
2022-11-28 09:31:11 GMT 49.889523 11.448570 38,000 308 437 0
2022-11-28 09:31:08 GMT 49.885712 11.456283 38,000 308 437 0
2022-11-28 09:31:05 GMT 49.881981 11.463788 38,000 308 437 0
2022-11-28 09:31:02 GMT 49.878117 11.471582 38,000 308 437 0
2022-11-28 09:30:59 GMT 49.872208 11.483459 38,000 308 437 0
2022-11-28 09:30:56 GMT 49.870880 11.486134 38,000 308 437 0
2022-11-28 09:30:53 GMT 49.866802 11.494372 38,000 308 437 0
2022-11-28 09:30:50 GMT 49.857422 11.513310 38,000 308 436 0
2022-11-28 09:30:46 GMT 49.857422 11.513310 38,000 308 436 0
2022-11-28 09:30:42 GMT 49.851673 11.524881 38,000 308 437 0
2022-11-28 09:30:39 GMT 49.849209 11.529706 38,000 308 437 0
2022-11-28 09:30:35 GMT 49.845291 11.537668 38,000 308 437 0
2022-11-28 09:30:32 GMT 49.841675 11.544968 38,000 308 437 0
2022-11-28 09:30:30 GMT 49.839058 11.550194 38,000 308 437 0
2022-11-28 09:30:28 GMT 49.835083 11.558123 38,000 308 437 0
2022-11-28 09:30:25 GMT 49.832748 11.562821 38,000 308 437 0
2022-11-28 09:30:22 GMT 49.825836 11.576695 38,000 308 437 0
2022-11-28 09:30:19 GMT 49.822392 11.583598 38,000 308 437 0
2022-11-28 09:30:17 GMT 49.822392 11.583598 38,000 308 437 0
2022-11-28 09:30:14 GMT 49.819931 11.588552 38,000 308 437 0
2022-11-28 09:30:11 GMT 49.814201 11.600004 38,000 308 437 0
2022-11-28 09:30:08 GMT 49.811638 11.605126 38,000 308 437 0
2022-11-28 09:30:05 GMT 49.804379 11.619675 38,000 308 437 0
2022-11-28 09:30:02 GMT 49.804379 11.619675 38,000 308 437 0
2022-11-28 09:29:59 GMT 49.799286 11.629823 38,000 308 437 0
2022-11-28 09:29:56 GMT 49.792645 11.643058 38,000 308 437 0
2022-11-28 09:29:53 GMT 49.789627 11.649122 38,000 308 437 0
2022-11-28 09:29:50 GMT 49.786606 11.655193 38,000 308 437 0
2022-11-28 09:29:48 GMT 49.786606 11.655193 38,000 308 436 0
2022-11-28 09:29:45 GMT 49.783218 11.661915 38,000 308 437 0
2022-11-28 09:29:42 GMT 49.779053 11.670299 38,000 308 437 0
2022-11-28 09:29:39 GMT 49.776215 11.675937 38,000 308 437 0
2022-11-28 09:29:36 GMT 49.771187 11.685964 38,000 308 437 0
2022-11-28 09:29:33 GMT 49.768486 11.691383 38,000 308 437 0
2022-11-28 09:29:29 GMT 49.759033 11.710238 38,000 308 436 0
2022-11-28 09:29:26 GMT 49.759033 11.710238 38,000 308 436 0
2022-11-28 09:29:23 GMT 49.756668 11.714967 38,000 308 436 0
2022-11-28 09:29:20 GMT 49.752319 11.723713 38,000 308 436 0
2022-11-28 09:29:18 GMT 49.750488 11.727255 38,000 308 436 0
2022-11-28 09:29:15 GMT 49.746746 11.734809 38,000 308 436 0
2022-11-28 09:29:12 GMT 49.741516 11.745252 38,000 308 436 0
2022-11-28 09:29:09 GMT 49.738926 11.750398 38,000 308 436 0
2022-11-28 09:29:07 GMT 49.737530 11.753144 38,000 308 435 0
2022-11-28 09:29:04 GMT 49.732361 11.763394 38,000 308 435 0
2022-11-28 09:29:01 GMT 49.729843 11.768381 38,000 308 435 0
2022-11-28 09:28:58 GMT 49.725563 11.776973 38,000 308 436 0
2022-11-28 09:28:54 GMT 49.720768 11.786474 38,000 308 436 0
2022-11-28 09:28:51 GMT 49.716255 11.795456 38,000 308 436 0
2022-11-28 09:28:48 GMT 49.713135 11.801629 38,000 308 435 0
2022-11-28 09:28:45 GMT 49.709564 11.808713 38,000 308 435 0
2022-11-28 09:28:42 GMT 49.706314 11.815145 38,000 308 435 0
2022-11-28 09:28:39 GMT 49.702103 11.823442 38,000 308 434 0
2022-11-28 09:28:35 GMT 49.697113 11.833432 38,000 308 435 0
2022-11-28 09:28:32 GMT 49.692902 11.841744 38,000 308 434 0
2022-11-28 09:28:29 GMT 49.689926 11.847671 38,000 308 434 0
2022-11-28 09:28:27 GMT 49.686459 11.854545 38,000 308 434 0
2022-11-28 09:28:23 GMT 49.682133 11.863156 38,000 308 434 0
2022-11-28 09:28:20 GMT 49.678871 11.869540 38,000 308 434 0
2022-11-28 09:28:18 GMT 49.675735 11.875859 38,000 308 434 0
2022-11-28 09:28:15 GMT 49.671158 11.884894 38,000 308 434 0
2022-11-28 09:28:12 GMT 49.668457 11.890243 38,000 308 434 0
2022-11-28 09:28:09 GMT 49.665279 11.896560 38,000 308 434 0
2022-11-28 09:28:07 GMT 49.659412 11.908215 38,000 308 434 0
2022-11-28 09:28:04 GMT 49.659412 11.908215 38,000 308 434 0
2022-11-28 09:28:00 GMT 49.653782 11.919349 38,000 308 434 0
2022-11-28 09:27:58 GMT 49.650661 11.925585 38,000 308 434 0
2022-11-28 09:27:55 GMT 49.647812 11.931152 38,000 308 434 0
2022-11-28 09:27:52 GMT 49.643829 11.939103 38,000 308 433 0
2022-11-28 09:27:49 GMT 49.640671 11.945319 38,000 308 434 0
2022-11-28 09:27:47 GMT 49.637768 11.951047 38,000 308 432 0
2022-11-28 09:27:44 GMT 49.634766 11.957028 38,000 308 433 0
2022-11-28 09:27:41 GMT 49.630646 11.965196 38,000 308 433 0
2022-11-28 09:27:39 GMT 49.628082 11.970198 38,000 308 433 0
2022-11-28 09:27:37 GMT 49.625519 11.975242 38,000 308 433 0
2022-11-28 09:27:34 GMT 49.621056 11.984080 38,000 308 433 0
2022-11-28 09:27:31 GMT 49.618214 11.989647 38,000 308 432 0
2022-11-28 09:27:28 GMT 49.615128 11.995697 38,000 308 433 0
2022-11-28 09:27:26 GMT 49.611557 12.002780 38,000 308 432 0
2022-11-28 09:27:23 GMT 49.608391 12.009022 38,000 308 432 0
2022-11-28 09:27:20 GMT 49.604233 12.017236 38,000 308 432 0
2022-11-28 09:27:17 GMT 49.600060 12.025501 38,000 308 432 0
2022-11-28 09:27:14 GMT 49.596222 12.033065 38,000 308 432 0
2022-11-28 09:27:10 GMT 49.592285 12.040799 38,000 308 431 0
2022-11-28 09:27:07 GMT 49.583679 12.057857 38,000 308 431 0
2022-11-28 09:27:04 GMT 49.583679 12.057857 38,000 308 431 0
2022-11-28 09:27:01 GMT 49.581158 12.062840 38,000 308 431 0
2022-11-28 09:26:58 GMT 49.578087 12.068853 38,000 308 431 0
2022-11-28 09:26:55 GMT 49.574314 12.076350 38,000 308 431 0
2022-11-28 09:26:52 GMT 49.569214 12.086407 38,000 308 431 0
2022-11-28 09:26:49 GMT 49.567333 12.090083 38,000 308 431 0
2022-11-28 09:26:47 GMT 49.564728 12.095353 38,000 308 431 0
2022-11-28 09:26:44 GMT 49.559513 12.105523 38,000 308 431 0
2022-11-28 09:26:41 GMT 49.557091 12.110348 38,000 308 431 0
2022-11-28 09:26:38 GMT 49.553375 12.117703 38,000 308 431 -64
2022-11-28 09:26:35 GMT 49.549896 12.124497 38,000 308 431 0
2022-11-28 09:26:31 GMT 49.544952 12.134327 38,000 308 431 0
2022-11-28 09:26:28 GMT 49.541218 12.141674 38,000 308 431 0
2022-11-28 09:26:26 GMT 49.537586 12.148875 38,000 308 431 0
2022-11-28 09:26:23 GMT 49.535259 12.153477 38,000 308 431 0
2022-11-28 09:26:20 GMT 49.526833 12.170031 38,000 308 431 0
2022-11-28 09:26:17 GMT 49.526833 12.170031 38,000 308 431 0
2022-11-28 09:26:14 GMT 49.524811 12.174008 38,000 308 431 0
2022-11-28 09:26:11 GMT 49.519615 12.184209 38,000 309 430 0
2022-11-28 09:26:08 GMT 49.515800 12.191781 38,000 309 430 0
2022-11-28 09:26:05 GMT 49.512260 12.198684 38,000 309 430 0
2022-11-28 09:26:01 GMT 49.507507 12.208051 38,000 309 430 0
2022-11-28 09:25:58 GMT 49.503983 12.214918 38,000 309 430 0
2022-11-28 09:25:55 GMT 49.500671 12.221473 38,000 309 430 0
2022-11-28 09:25:52 GMT 49.497253 12.228145 38,000 309 430 0
2022-11-28 09:25:48 GMT 49.492035 12.238408 38,000 309 430 0
2022-11-28 09:25:45 GMT 49.486378 12.249533 38,000 309 430 0
2022-11-28 09:25:42 GMT 49.485031 12.252141 38,000 309 430 0
2022-11-28 09:25:39 GMT 49.480652 12.260668 38,000 309 430 0
2022-11-28 09:25:36 GMT 49.476746 12.268331 38,000 309 430 0
2022-11-28 09:25:33 GMT 49.472855 12.275993 38,000 309 430 -64
2022-11-28 09:25:30 GMT 49.469284 12.282859 38,000 309 430 0
2022-11-28 09:25:28 GMT 49.467293 12.286872 38,000 309 430 0
2022-11-28 09:25:26 GMT 49.465290 12.290732 38,000 309 430 0
2022-11-28 09:25:23 GMT 49.457657 12.305555 38,000 309 429 0
2022-11-28 09:25:20 GMT 49.457657 12.305555 38,000 309 430 0
2022-11-28 09:25:18 GMT 49.454071 12.312556 38,000 309 429 0
2022-11-28 09:25:15 GMT 49.451477 12.317553 38,000 309 429 64
2022-11-28 09:25:12 GMT 49.446579 12.327094 38,000 307 423 0
2022-11-28 09:25:08 GMT 49.442852 12.334306 38,000 309 429 0
2022-11-28 09:25:06 GMT 49.440014 12.339799 38,000 309 429 0
2022-11-28 09:25:03 GMT 49.436989 12.345738 38,000 309 429 0
2022-11-28 09:25:00 GMT 49.429230 12.360559 38,000 309 429 0
2022-11-28 09:24:57 GMT 49.429230 12.360559 38,000 309 430 0
2022-11-28 09:24:54 GMT 49.425255 12.368220 38,000 309 430 0
2022-11-28 09:24:51 GMT 49.422184 12.374147 38,000 309 429 0
2022-11-28 09:24:47 GMT 49.416870 12.384268 38,000 309 429 64
2022-11-28 09:24:45 GMT 49.414444 12.388916 38,000 309 429 -64
2022-11-28 09:24:42 GMT 49.410828 12.395818 38,000 309 429 0
2022-11-28 09:24:39 GMT 49.406261 12.404576 38,000 309 429 0
2022-11-28 09:24:36 GMT 49.403824 12.409128 38,000 309 429 0
2022-11-28 09:24:33 GMT 49.397827 12.420607 38,000 309 428 0
2022-11-28 09:24:30 GMT 49.392334 12.431101 38,000 309 428 0
2022-11-28 09:24:27 GMT 49.389175 12.437087 38,000 309 428 0
2022-11-28 09:24:25 GMT 49.389175 12.437087 38,000 309 428 0
2022-11-28 09:24:22 GMT 49.385315 12.444474 38,000 309 428 0
2022-11-28 09:24:19 GMT 49.382217 12.450397 38,000 309 428 0
2022-11-28 09:24:16 GMT 49.377869 12.458637 38,000 309 428 64
2022-11-28 09:24:13 GMT 49.374756 12.464553 38,000 309 428 0
2022-11-28 09:24:10 GMT 49.371231 12.471243 38,000 309 428 0
2022-11-28 09:24:07 GMT 49.364132 12.484805 38,000 309 427 0
2022-11-28 09:24:04 GMT 49.364132 12.484805 38,000 309 427 0
2022-11-28 09:24:00 GMT 49.358917 12.494906 38,000 309 427 0
2022-11-28 09:23:57 GMT 49.354359 12.503670 38,000 308 426 0
2022-11-28 09:23:54 GMT 49.351147 12.510031 38,000 308 426 0
2022-11-28 09:23:51 GMT 49.348164 12.515957 38,000 307 426 64
2022-11-28 09:23:48 GMT 49.344315 12.523710 38,000 307 426 0
2022-11-28 09:23:46 GMT 49.342484 12.527513 38,000 307 425 0
2022-11-28 09:23:44 GMT 49.338867 12.535048 38,000 307 425 0
2022-11-28 09:23:41 GMT 49.336395 12.540119 38,000 307 426 -64
2022-11-28 09:23:38 GMT 49.332550 12.548218 38,000 307 426 -64
2022-11-28 09:23:35 GMT 49.329868 12.553759 38,000 307 426 -64
2022-11-28 09:23:32 GMT 49.325821 12.562162 38,000 307 426 0
2022-11-28 09:23:29 GMT 49.321724 12.570672 38,000 307 426 -64
2022-11-28 09:23:26 GMT 49.317535 12.579346 38,000 307 424 0
2022-11-28 09:23:22 GMT 49.314423 12.585895 38,000 307 424 64
2022-11-28 09:23:19 GMT 49.309711 12.595608 38,000 307 424 64
2022-11-28 09:23:16 GMT 49.306828 12.601607 38,000 307 424 0
2022-11-28 09:23:14 GMT 49.300869 12.613967 38,000 307 425 0
2022-11-28 09:23:11 GMT 49.300869 12.613967 38,000 307 424 0
2022-11-28 09:23:08 GMT 49.297890 12.620183 38,000 307 424 0
2022-11-28 09:23:05 GMT 49.292816 12.630736 38,000 307 424 -64
2022-11-28 09:23:02 GMT 49.290070 12.636518 38,000 307 424 0
2022-11-28 09:22:58 GMT 49.285786 12.645264 38,000 307 424 -64
2022-11-28 09:22:56 GMT 49.283936 12.649137 38,000 307 424 -64
2022-11-28 09:22:54 GMT 49.281223 12.654732 38,000 307 424 0
2022-11-28 09:22:51 GMT 49.277161 12.663222 38,000 307 424 -64
2022-11-28 09:22:48 GMT 49.273914 12.669911 38,000 307 424 0
2022-11-28 09:22:46 GMT 49.271713 12.674490 38,025 307 424 64
2022-11-28 09:22:43 GMT 49.268841 12.680391 38,000 307 423 0
2022-11-28 09:22:40 GMT 49.265259 12.687871 38,000 307 423 0
2022-11-28 09:22:37 GMT 49.262421 12.693787 38,000 307 423 0
2022-11-28 09:22:35 GMT 49.259670 12.699473 38,000 307 423 0
2022-11-28 09:22:32 GMT 49.255573 12.708001 38,000 307 423 0
2022-11-28 09:22:27 GMT 49.249893 12.719783 38,000 307 423 0
2022-11-28 09:22:24 GMT 49.243423 12.733084 38,000 307 423 64
2022-11-28 09:22:21 GMT 49.243423 12.733084 38,000 307 422 0
2022-11-28 09:22:18 GMT 49.238537 12.743201 38,000 307 422 0
2022-11-28 09:22:15 GMT 49.236256 12.747971 38,000 307 422 0
2022-11-28 09:22:13 GMT 49.232716 12.755272 38,000 307 422 0
2022-11-28 09:22:10 GMT 49.229691 12.761536 38,000 307 422 0
2022-11-28 09:22:07 GMT 49.226486 12.768085 38,000 307 422 0
2022-11-28 09:22:03 GMT 49.222641 12.776043 38,000 307 421 64
2022-11-28 09:22:00 GMT 49.218563 12.784472 38,000 307 421 0
2022-11-28 09:21:57 GMT 49.215912 12.789917 38,000 307 421 0
2022-11-28 09:21:54 GMT 49.211674 12.798639 38,000 307 420 0
2022-11-28 09:21:51 GMT 49.207077 12.808087 38,000 307 421 0
2022-11-28 09:21:47 GMT 49.204041 12.814395 38,000 307 421 0
2022-11-28 09:21:44 GMT 49.200165 12.822313 38,000 307 421 0
2022-11-28 09:21:41 GMT 49.196918 12.828996 38,000 307 421 0
2022-11-28 09:21:38 GMT 49.189316 12.844637 38,000 307 419 0
2022-11-28 09:21:35 GMT 49.189316 12.844637 38,000 307 420 -64
2022-11-28 09:21:33 GMT 49.187607 12.848222 38,000 307 419 0
2022-11-28 09:21:30 GMT 49.183960 12.855694 38,000 307 419 0
2022-11-28 09:21:27 GMT 49.179646 12.864557 38,000 307 419 0
2022-11-28 09:21:24 GMT 49.175644 12.872796 38,000 307 419 0
2022-11-28 09:21:20 GMT 49.171646 12.881047 38,000 307 419 0
2022-11-28 09:21:17 GMT 49.168213 12.888090 38,000 307 419 0
2022-11-28 09:21:14 GMT 49.165970 12.892738 38,000 307 419 0
2022-11-28 09:21:11 GMT 49.160934 12.903090 38,000 307 419 0
2022-11-28 09:21:08 GMT 49.157272 12.910626 38,000 307 419 0
2022-11-28 09:21:04 GMT 49.153530 12.918332 38,000 307 419 0
2022-11-28 09:21:01 GMT 49.150970 12.923536 38,000 307 418 0
2022-11-28 09:20:58 GMT 49.147060 12.931631 38,000 307 418 0
2022-11-28 09:20:54 GMT 49.141987 12.941967 38,000 307 418 0
2022-11-28 09:20:51 GMT 49.139751 12.946665 38,000 307 418 0
2022-11-28 09:20:48 GMT 49.135746 12.954760 38,000 307 418 0
2022-11-28 09:20:45 GMT 49.129074 12.968515 38,000 307 418 0
2022-11-28 09:20:42 GMT 49.129074 12.968515 38,000 307 418 0
2022-11-28 09:20:39 GMT 49.125549 12.975699 38,000 307 418 0
2022-11-28 09:20:36 GMT 49.120789 12.985417 38,000 307 418 0
2022-11-28 09:20:33 GMT 49.117447 12.992249 38,000 307 418 0
2022-11-28 09:20:30 GMT 49.115078 12.997188 38,000 307 418 0
2022-11-28 09:20:27 GMT 49.111076 13.005355 38,000 307 418 0
2022-11-28 09:20:24 GMT 49.107536 13.012583 38,000 307 418 0
2022-11-28 09:20:22 GMT 49.105583 13.016630 38,000 307 418 0
2022-11-28 09:20:19 GMT 49.102661 13.022531 38,000 307 418 0
2022-11-28 09:20:16 GMT 49.098816 13.030489 38,000 307 418 0
2022-11-28 09:20:14 GMT 49.096363 13.035567 38,000 307 418 0
2022-11-28 09:20:12 GMT 49.093872 13.040631 38,000 307 418 0
2022-11-28 09:20:09 GMT 49.090485 13.047603 38,000 307 419 0
2022-11-28 09:20:06 GMT 49.087234 13.054223 38,000 307 418 0
2022-11-28 09:20:03 GMT 49.083710 13.061406 38,000 307 418 0
2022-11-28 09:20:00 GMT 49.080139 13.068730 38,000 307 418 64
2022-11-28 09:19:57 GMT 49.076717 13.075682 38,000 307 418 0
2022-11-28 09:19:54 GMT 49.073738 13.081753 38,000 307 418 -64
2022-11-28 09:19:51 GMT 49.070621 13.088114 38,000 307 418 -64
2022-11-28 09:19:48 GMT 49.065872 13.097799 38,000 307 418 0
2022-11-28 09:19:45 GMT 49.063499 13.102714 38,000 307 419 0
2022-11-28 09:19:42 GMT 49.060089 13.109647 38,000 307 418 0
2022-11-28 09:19:39 GMT 49.055908 13.118182 38,000 307 418 0
2022-11-28 09:19:36 GMT 49.051998 13.126132 38,000 307 418 64
2022-11-28 09:19:33 GMT 49.049625 13.130975 38,000 307 418 0
2022-11-28 09:19:30 GMT 49.045204 13.139938 38,000 307 419 0
2022-11-28 09:19:26 GMT 49.041153 13.148177 38,000 307 419 0
2022-11-28 09:19:24 GMT 49.038757 13.153100 38,000 307 419 0
2022-11-28 09:19:21 GMT 49.034821 13.161115 38,000 307 419 0
2022-11-28 09:19:18 GMT 49.032635 13.165596 38,000 307 419 0
2022-11-28 09:19:15 GMT 49.029144 13.172678 38,000 307 419 0
2022-11-28 09:19:12 GMT 49.021507 13.188220 38,000 307 419 0
2022-11-28 09:19:09 GMT 49.021507 13.188220 38,000 307 419 0
2022-11-28 09:19:06 GMT 49.017334 13.196693 38,000 307 418 -64
2022-11-28 09:19:03 GMT 49.013920 13.203687 38,000 307 418 -64
2022-11-28 09:19:00 GMT 49.010330 13.210989 38,000 307 418 -64
2022-11-28 09:18:56 GMT 49.006378 13.219010 38,000 307 418 0
2022-11-28 09:18:53 GMT 49.002281 13.227322 38,000 307 418 0
2022-11-28 09:18:50 GMT 48.999489 13.232960 38,000 307 418 0
2022-11-28 09:18:47 GMT 48.996002 13.240075 38,000 307 418 0
2022-11-28 09:18:45 GMT 48.993759 13.244582 38,000 307 418 0
2022-11-28 09:18:42 GMT 48.989548 13.253174 38,000 307 418 0
2022-11-28 09:18:39 GMT 48.985477 13.261438 38,000 307 418 0
2022-11-28 09:18:36 GMT 48.979523 13.273527 38,000 307 418 0
2022-11-28 09:18:33 GMT 48.979523 13.273527 38,000 307 418 0
2022-11-28 09:18:31 GMT 48.977692 13.277189 38,000 307 418 0
2022-11-28 09:18:28 GMT 48.974167 13.284443 38,000 307 418 0
2022-11-28 09:18:25 GMT 48.969452 13.293880 38,000 307 418 0
2022-11-28 09:18:22 GMT 48.967667 13.297542 38,000 307 418 0
2022-11-28 09:18:20 GMT 48.964901 13.303142 38,000 307 418 0
2022-11-28 09:18:17 GMT 48.960991 13.311093 38,000 307 418 0
2022-11-28 09:18:14 GMT 48.957825 13.317526 38,000 307 418 0
2022-11-28 09:18:11 GMT 48.950890 13.331620 38,000 307 418 0
2022-11-28 09:18:08 GMT 48.950890 13.331620 38,000 307 418 0
2022-11-28 09:18:05 GMT 48.943359 13.346839 38,000 307 417 0
2022-11-28 09:18:02 GMT 48.943359 13.346839 38,000 307 417 0
2022-11-28 09:17:58 GMT 48.939148 13.355290 38,000 307 417 0
2022-11-28 09:17:54 GMT 48.934875 13.363929 38,000 307 417 0
2022-11-28 09:17:51 GMT 48.930725 13.372404 38,000 307 417 0
2022-11-28 09:17:48 GMT 48.927845 13.378167 38,000 307 417 -64
2022-11-28 09:17:45 GMT 48.923470 13.386985 38,000 307 417 0
2022-11-28 09:17:41 GMT 48.918777 13.396419 38,000 307 417 -64
2022-11-28 09:17:38 GMT 48.915024 13.404095 38,000 308 418 0
2022-11-28 09:17:34 GMT 48.911552 13.411054 38,000 308 418 0
2022-11-28 09:17:31 GMT 48.908112 13.418039 38,000 308 418 0
2022-11-28 09:17:28 GMT 48.904266 13.425786 38,000 308 418 0
2022-11-28 09:17:25 GMT 48.900051 13.434255 38,000 308 418 0
2022-11-28 09:17:22 GMT 48.894974 13.444378 38,000 308 418 0
2022-11-28 09:17:20 GMT 48.894974 13.444378 38,000 308 418 0
2022-11-28 09:17:17 GMT 48.891678 13.450998 38,000 308 418 0
2022-11-28 09:17:14 GMT 48.888290 13.457829 38,000 308 418 0
2022-11-28 09:17:11 GMT 48.884033 13.466421 38,000 308 418 0
2022-11-28 09:17:08 GMT 48.880417 13.473675 38,000 308 418 0
2022-11-28 09:17:05 GMT 48.873470 13.487525 38,000 308 418 0
2022-11-28 09:17:02 GMT 48.873470 13.487525 38,000 308 418 0
2022-11-28 09:16:59 GMT 48.870483 13.493535 38,000 308 419 0
2022-11-28 09:16:56 GMT 48.867233 13.500101 38,000 307 418 0
2022-11-28 09:16:53 GMT 48.864258 13.506000 38,000 308 419 0
2022-11-28 09:16:50 GMT 48.859180 13.516075 38,000 308 418 0
2022-11-28 09:16:47 GMT 48.855270 13.523953 38,000 308 418 0
2022-11-28 09:16:44 GMT 48.852428 13.529591 38,000 308 419 0
2022-11-28 09:16:41 GMT 48.849426 13.535579 38,000 308 418 0
2022-11-28 09:16:39 GMT 48.847733 13.539030 38,000 308 418 0
2022-11-28 09:16:36 GMT 48.842789 13.548819 38,000 308 419 0
2022-11-28 09:16:33 GMT 48.840607 13.553226 38,000 308 419 0
2022-11-28 09:16:30 GMT 48.837067 13.560237 38,000 308 419 0
2022-11-28 09:16:27 GMT 48.832169 13.570017 38,000 308 419 0
2022-11-28 09:16:24 GMT 48.826126 13.582137 38,000 308 419 0
2022-11-28 09:16:21 GMT 48.826126 13.582137 38,000 308 418 0
2022-11-28 09:16:19 GMT 48.823883 13.586567 38,000 308 418 0
2022-11-28 09:16:16 GMT 48.820358 13.593680 38,000 293 419 0
2022-11-28 09:16:13 GMT 48.816971 13.600440 38,000 308 418 0
2022-11-28 09:16:10 GMT 48.813141 13.608230 38,000 307 418 0
2022-11-28 09:16:07 GMT 48.808903 13.616686 38,000 307 418 0
2022-11-28 09:16:04 GMT 48.801922 13.630781 38,000 307 419 0
2022-11-28 09:16:01 GMT 48.801922 13.630781 38,000 307 419 0
2022-11-28 09:15:58 GMT 48.798340 13.637977 38,000 308 419 0
2022-11-28 09:15:55 GMT 48.793808 13.647132 38,000 301 419 0
2022-11-28 09:15:52 GMT 48.792755 13.649175 38,000 307 419 0
2022-11-28 09:15:49 GMT 48.789024 13.656656 38,000 306 419 0
2022-11-28 09:15:46 GMT 48.785156 13.664527 38,000 306 419 0
2022-11-28 09:15:43 GMT 48.781860 13.671499 38,000 305 419 0
2022-11-28 09:15:40 GMT 48.774902 13.687063 38,000 303 419 0
2022-11-28 09:15:37 GMT 48.774902 13.687063 38,000 303 419 0
2022-11-28 09:15:34 GMT 48.772312 13.693085 38,000 302 419 0
2022-11-28 09:15:32 GMT 48.770737 13.696923 38,000 293 419 0
2022-11-28 09:15:28 GMT 48.765656 13.709781 38,000 300 419 0
2022-11-28 09:15:24 GMT 48.759796 13.725727 38,000 298 419 0
2022-11-28 09:15:21 GMT 48.757187 13.733333 38,000 297 419 0
2022-11-28 09:15:18 GMT 48.757187 13.733333 38,000 296 419 0
2022-11-28 09:15:15 GMT 48.754852 13.740446 38,000 295 418 -64
2022-11-28 09:15:12 GMT 48.751923 13.749823 38,000 294 419 0
2022-11-28 09:15:09 GMT 48.750000 13.756432 38,000 293 419 0
2022-11-28 09:15:07 GMT 48.747780 13.764424 38,000 293 419 0
2022-11-28 09:15:04 GMT 48.745972 13.771081 38,000 293 419 64
2022-11-28 09:15:02 GMT 48.744507 13.776503 38,000 293 419 -128
2022-11-28 09:14:59 GMT 48.742538 13.783757 38,000 293 419 64
2022-11-28 09:14:57 GMT 48.740936 13.789721 38,000 293 419 64
2022-11-28 09:14:54 GMT 48.738472 13.798900 37,975 293 419 64
2022-11-28 09:14:51 GMT 48.736191 13.807285 38,000 293 419 -64
2022-11-28 09:14:47 GMT 48.732929 13.819283 38,000 293 419 64
2022-11-28 09:14:43 GMT 48.730324 13.828824 38,000 293 418 0
2022-11-28 09:14:40 GMT 48.728416 13.835835 38,000 293 419 0
2022-11-28 09:14:37 GMT 48.726601 13.842412 38,000 293 419 0
2022-11-28 09:14:34 GMT 48.723541 13.853619 38,000 293 419 0
2022-11-28 09:14:32 GMT 48.720314 13.865469 38,000 293 419 0
2022-11-28 09:14:29 GMT 48.720314 13.865469 38,000 293 419 0
2022-11-28 09:14:26 GMT 48.717361 13.876225 38,000 293 419 0
2022-11-28 09:14:23 GMT 48.715195 13.884189 38,000 293 419 0
2022-11-28 09:14:20 GMT 48.713608 13.889958 38,000 293 419 0
2022-11-28 09:14:17 GMT 48.711472 13.897777 38,000 293 419 0
2022-11-28 09:14:14 GMT 48.708725 13.907969 38,000 293 419 0
2022-11-28 09:14:11 GMT 48.706955 13.914401 38,000 293 419 0
2022-11-28 09:14:08 GMT 48.703995 13.925312 38,000 293 419 0
2022-11-28 09:14:05 GMT 48.702484 13.930805 38,000 293 419 0
2022-11-28 09:14:02 GMT 48.698017 13.947071 38,000 293 419 0
2022-11-28 09:13:59 GMT 48.698017 13.947071 38,000 293 419 0
2022-11-28 09:13:56 GMT 48.695663 13.955806 38,000 293 419 0
2022-11-28 09:13:53 GMT 48.693920 13.962177 38,000 293 419 0
2022-11-28 09:13:50 GMT 48.691544 13.970806 38,000 293 419 0
2022-11-28 09:13:47 GMT 48.688473 13.982126 38,000 293 419 0
2022-11-28 09:13:43 GMT 48.686657 13.988776 38,000 293 419 0
2022-11-28 09:13:41 GMT 48.682327 14.004533 38,000 293 419 0
2022-11-28 09:13:38 GMT 48.682327 14.004533 38,000 293 419 0
2022-11-28 09:13:35 GMT 48.679676 14.014290 38,000 293 420 0
2022-11-28 09:13:32 GMT 48.677307 14.022921 38,000 293 420 0
2022-11-28 09:13:29 GMT 48.676254 14.026794 38,000 293 420 0
2022-11-28 09:13:26 GMT 48.673717 14.035974 38,000 293 420 0
2022-11-28 09:13:23 GMT 48.671494 14.044049 38,000 293 420 0
2022-11-28 09:13:21 GMT 48.667709 14.057802 38,000 293 420 0
2022-11-28 09:13:18 GMT 48.667709 14.057802 38,000 293 420 0
2022-11-28 09:13:15 GMT 48.665085 14.067359 38,000 293 420 0
2022-11-28 09:13:12 GMT 48.661381 14.080714 38,000 293 420 0
2022-11-28 09:13:09 GMT 48.661381 14.080714 38,000 293 420 0
2022-11-28 09:13:06 GMT 48.658859 14.089895 38,000 293 420 0
2022-11-28 09:13:03 GMT 48.656479 14.098628 38,000 293 420 0
2022-11-28 09:13:01 GMT 48.654968 14.103980 38,000 293 420 0
2022-11-28 09:12:58 GMT 48.650066 14.121841 38,000 293 421 0
2022-11-28 09:12:55 GMT 48.650066 14.121841 38,000 293 421 0
2022-11-28 09:12:52 GMT 48.647552 14.130948 38,000 293 421 0
2022-11-28 09:12:49 GMT 48.646065 14.136441 38,000 293 421 0
2022-11-28 09:12:45 GMT 48.642944 14.147716 38,000 293 421 0
2022-11-28 09:12:42 GMT 48.641361 14.153426 38,000 293 421 0
2022-11-28 09:12:39 GMT 48.638809 14.162715 38,000 293 421 0
2022-11-28 09:12:36 GMT 48.635696 14.174053 38,000 293 421 0
2022-11-28 09:12:33 GMT 48.634094 14.179828 38,000 293 421 0
2022-11-28 09:12:31 GMT 48.632538 14.185533 38,000 293 421 0
2022-11-28 09:12:28 GMT 48.630329 14.193469 38,000 293 421 0
2022-11-28 09:12:25 GMT 48.628609 14.199757 38,000 293 421 0
2022-11-28 09:12:22 GMT 48.626175 14.208632 38,000 293 421 0
2022-11-28 09:12:19 GMT 48.623161 14.219489 38,000 293 424 0
2022-11-28 09:12:16 GMT 48.621368 14.225957 38,000 293 422 0
2022-11-28 09:12:13 GMT 48.618805 14.235183 38,000 293 422 0
2022-11-28 09:12:10 GMT 48.617020 14.241662 38,000 293 422 0
2022-11-28 09:12:07 GMT 48.612362 14.258519 38,000 293 422 0
2022-11-28 09:12:04 GMT 48.612362 14.258519 38,000 293 422 0
2022-11-28 09:12:01 GMT 48.610451 14.265313 38,000 293 422 0
2022-11-28 09:11:58 GMT 48.607891 14.274565 38,000 293 423 64
2022-11-28 09:11:54 GMT 48.602722 14.293285 38,000 293 423 0
2022-11-28 09:11:51 GMT 48.600349 14.301814 38,000 293 424 64
2022-11-28 09:11:48 GMT 48.600349 14.301814 38,000 293 424 64
2022-11-28 09:11:44 GMT 48.597290 14.312791 38,000 293 424 0
2022-11-28 09:11:41 GMT 48.594772 14.322017 38,000 293 424 0
2022-11-28 09:11:38 GMT 48.592670 14.329424 38,000 293 424 0
2022-11-28 09:11:35 GMT 48.590759 14.336508 38,000 293 424 0
2022-11-28 09:11:32 GMT 48.587952 14.346595 38,000 293 425 0
2022-11-28 09:11:28 GMT 48.585342 14.356032 38,000 293 425 0
2022-11-28 09:11:25 GMT 48.580704 14.372719 38,000 293 425 0
2022-11-28 09:11:22 GMT 48.580704 14.372719 38,000 293 426 0
2022-11-28 09:11:19 GMT 48.577515 14.384132 38,000 293 426 0
2022-11-28 09:11:16 GMT 48.575684 14.390752 38,000 293 427 0
2022-11-28 09:11:12 GMT 48.573395 14.398992 38,000 293 427 0
2022-11-28 09:11:10 GMT 48.570923 14.407865 38,000 293 427 0
2022-11-28 09:11:07 GMT 48.569347 14.413484 38,000 293 427 64
2022-11-28 09:11:04 GMT 48.566116 14.425119 38,000 293 427 0
2022-11-28 09:11:01 GMT 48.562317 14.438782 38,000 293 427 0
2022-11-28 09:10:58 GMT 48.562317 14.438782 38,000 293 427 0
2022-11-28 09:10:55 GMT 48.559341 14.449486 38,000 293 427 0
2022-11-28 09:10:52 GMT 48.557281 14.456811 38,000 293 427 0
2022-11-28 09:10:49 GMT 48.555313 14.463783 38,000 293 427 64
2022-11-28 09:10:46 GMT 48.553101 14.471813 38,000 293 427 64
2022-11-28 09:10:43 GMT 48.550774 14.480053 38,000 293 427 0
2022-11-28 09:10:39 GMT 48.547073 14.493220 38,000 293 427 0
2022-11-28 09:10:35 GMT 48.542534 14.509398 38,000 293 427 0
2022-11-28 09:10:32 GMT 48.542534 14.509398 38,000 293 427 0
2022-11-28 09:10:30 GMT 48.541416 14.513373 38,000 293 427 0
2022-11-28 09:10:27 GMT 48.539108 14.521461 38,000 293 427 0
2022-11-28 09:10:24 GMT 48.536041 14.532377 38,000 293 427 0
2022-11-28 09:10:21 GMT 48.533112 14.542870 38,000 293 428 0
2022-11-28 09:10:18 GMT 48.531593 14.548139 38,000 294 427 0
2022-11-28 09:10:15 GMT 48.529037 14.557237 38,000 293 427 0
2022-11-28 09:10:12 GMT 48.526291 14.567167 38,000 293 427 0
2022-11-28 09:10:08 GMT 48.523819 14.575894 38,000 293 427 -64
2022-11-28 09:10:05 GMT 48.521164 14.585290 38,000 293 427 0
2022-11-28 09:10:02 GMT 48.518875 14.593365 38,000 293 427 -64
2022-11-28 09:10:00 GMT 48.515076 14.606816 38,000 294 427 0
2022-11-28 09:09:57 GMT 48.515076 14.606816 38,000 294 427 64
2022-11-28 09:09:54 GMT 48.513111 14.613840 38,000 294 427 64
2022-11-28 09:09:51 GMT 48.510689 14.622441 38,000 294 427 0
2022-11-28 09:09:48 GMT 48.505569 14.640511 37,975 294 427 0
2022-11-28 09:09:44 GMT 48.505569 14.640511 38,000 293 427 64
2022-11-28 09:09:41 GMT 48.503128 14.649142 38,000 293 427 64
2022-11-28 09:09:38 GMT 48.500916 14.657135 38,025 293 428 0
2022-11-28 09:09:35 GMT 48.498596 14.665340 38,000 293 428 64
2022-11-28 09:09:32 GMT 48.496029 14.674626 38,000 293 427 64
2022-11-28 09:09:29 GMT 48.494019 14.681889 38,000 293 427 -128
2022-11-28 09:09:26 GMT 48.491047 14.692407 38,025 293 427 0
2022-11-28 09:09:23 GMT 48.488754 14.700623 37,975 294 427 -128
2022-11-28 09:09:20 GMT 48.486740 14.707665 38,025 294 427 -192
2022-11-28 09:09:17 GMT 48.485184 14.713229 38,000 294 427 0
2022-11-28 09:09:14 GMT 48.482525 14.722619 38,000 294 427 0
2022-11-28 09:09:11 GMT 48.479595 14.732955 37,975 294 427 -64
2022-11-28 09:09:08 GMT 48.477219 14.741258 38,000 294 427 -128
2022-11-28 09:09:04 GMT 48.474472 14.750952 38,000 294 427 0
2022-11-28 09:09:01 GMT 48.472549 14.757737 38,000 294 427 0
2022-11-28 09:08:58 GMT 48.469894 14.767245 38,000 294 427 -128
2022-11-28 09:08:55 GMT 48.467560 14.775414 38,000 294 427 0
2022-11-28 09:08:52 GMT 48.464905 14.784851 38,000 294 427 0
2022-11-28 09:08:49 GMT 48.462742 14.792440 38,000 294 427 0
2022-11-28 09:08:44 GMT 48.459156 14.805089 38,000 294 426 -64
2022-11-28 09:08:41 GMT 48.457108 14.812172 38,000 294 426 0
2022-11-28 09:08:39 GMT 48.453369 14.825275 37,975 294 426 0
2022-11-28 09:08:36 GMT 48.453369 14.825275 37,975 294 426 0
2022-11-28 09:08:33 GMT 48.449890 14.837529 38,000 294 426 -64
2022-11-28 09:08:30 GMT 48.448215 14.843252 38,025 294 427 64
2022-11-28 09:08:27 GMT 48.445679 14.852318 38,000 294 427 0
2022-11-28 09:08:24 GMT 48.442703 14.862671 38,025 294 427 64
2022-11-28 09:08:21 GMT 48.440815 14.869345 38,000 294 427 0
2022-11-28 09:08:17 GMT 48.438538 14.877460 38,000 294 427 64
2022-11-28 09:08:13 GMT 48.434647 14.891264 38,000 294 427 -128
2022-11-28 09:08:10 GMT 48.432953 14.897038 38,000 294 427 -64
2022-11-28 09:08:07 GMT 48.430298 14.906405 38,000 294 428 0
2022-11-28 09:08:03 GMT 48.426571 14.919578 38,000 294 427 -128
2022-11-28 09:08:00 GMT 48.425407 14.923698 38,000 294 427 -128
2022-11-28 09:07:58 GMT 48.423431 14.930490 38,000 294 428 192
2022-11-28 09:07:55 GMT 48.421417 14.937533 38,000 294 428 64
2022-11-28 09:07:52 GMT 48.418900 14.946477 38,000 294 429 0
2022-11-28 09:07:49 GMT 48.416519 14.954928 38,000 294 428 64
2022-11-28 09:07:46 GMT 48.413025 14.967137 38,000 294 428 64
2022-11-28 09:07:43 GMT 48.411114 14.973932 38,000 294 428 0
2022-11-28 09:07:40 GMT 48.409790 14.978591 38,000 294 428 -64
2022-11-28 09:07:37 GMT 48.403427 15.000845 38,000 294 429 64
2022-11-28 09:07:33 GMT 48.403427 15.000845 38,000 294 428 64
2022-11-28 09:07:30 GMT 48.401184 15.008521 38,000 294 428 -64
2022-11-28 09:07:26 GMT 48.398827 15.016720 38,000 294 428 -64
2022-11-28 09:07:23 GMT 48.395569 15.028068 38,000 294 428 -64
2022-11-28 09:07:20 GMT 48.393986 15.033706 38,000 294 428 0
2022-11-28 09:07:18 GMT 48.391563 15.042018 38,000 294 428 -64
2022-11-28 09:07:15 GMT 48.389969 15.047678 38,000 294 428 0
2022-11-28 09:07:12 GMT 48.387608 15.056040 38,000 294 428 -64
2022-11-28 09:07:09 GMT 48.385139 15.064713 38,000 294 428 0
2022-11-28 09:07:06 GMT 48.383011 15.072115 38,000 294 428 0
2022-11-28 09:07:03 GMT 48.380623 15.080470 38,000 294 428 0
2022-11-28 09:07:00 GMT 48.378250 15.088927 38,000 294 428 128
2022-11-28 09:06:58 GMT 48.376785 15.094018 38,000 294 429 0
2022-11-28 09:06:55 GMT 48.371567 15.112046 37,975 294 428 0
2022-11-28 09:06:52 GMT 48.371567 15.112046 38,000 294 428 0
2022-11-28 09:06:49 GMT 48.369217 15.120440 38,000 294 428 0
2022-11-28 09:06:46 GMT 48.367214 15.127306 37,975 294 429 -64
2022-11-28 09:06:41 GMT 48.363819 15.139305 38,000 294 429 -64
2022-11-28 09:06:38 GMT 48.360233 15.151809 38,025 294 429 64
2022-11-28 09:06:35 GMT 48.359070 15.155784 37,975 294 429 64
2022-11-28 09:06:32 GMT 48.355438 15.168505 38,000 294 430 64
2022-11-28 09:06:29 GMT 48.353989 15.173668 38,000 294 429 0
2022-11-28 09:06:26 GMT 48.351013 15.184021 38,000 294 429 0
2022-11-28 09:06:23 GMT 48.349457 15.189373 38,000 294 429 0
2022-11-28 09:06:20 GMT 48.346313 15.200235 38,000 294 430 -64
2022-11-28 09:06:17 GMT 48.344513 15.206346 38,000 294 430 0
2022-11-28 09:06:14 GMT 48.341675 15.216064 38,025 294 430 0
2022-11-28 09:06:11 GMT 48.339237 15.224449 37,975 294 430 192
2022-11-28 09:06:08 GMT 48.337238 15.231387 38,025 294 426 0
2022-11-28 09:06:05 GMT 48.335140 15.238688 38,000 294 430 0
2022-11-28 09:06:02 GMT 48.331928 15.249674 38,000 294 430 128
2022-11-28 09:05:59 GMT 48.328217 15.262686 38,025 294 430 0
2022-11-28 09:05:56 GMT 48.328217 15.262686 38,025 294 430 0
2022-11-28 09:05:53 GMT 48.325333 15.272757 38,000 294 429 64
2022-11-28 09:05:50 GMT 48.323132 15.280248 38,000 294 429 64
2022-11-28 09:05:47 GMT 48.320618 15.288993 38,000 294 429 64
2022-11-28 09:05:44 GMT 48.318893 15.294920 38,000 294 429 0
2022-11-28 09:05:41 GMT 48.315765 15.305716 38,000 294 429 0
2022-11-28 09:05:38 GMT 48.313122 15.314869 38,000 294 428 64
2022-11-28 09:05:35 GMT 48.311279 15.321280 38,000 294 428 64
2022-11-28 09:05:32 GMT 48.306000 15.339372 38,000 294 428 64
2022-11-28 09:05:29 GMT 48.306000 15.339372 38,000 294 428 -64
2022-11-28 09:05:26 GMT 48.304321 15.345224 38,000 294 427 -64
2022-11-28 09:05:23 GMT 48.301346 15.355417 38,000 294 427 0
2022-11-28 09:05:20 GMT 48.298832 15.363946 38,000 294 427 0
2022-11-28 09:05:17 GMT 48.296722 15.371352 38,000 294 427 0
2022-11-28 09:05:13 GMT 48.294250 15.379803 38,000 294 427 0
2022-11-28 09:05:10 GMT 48.291103 15.390762 38,000 294 426 0
2022-11-28 09:05:07 GMT 48.289196 15.397267 38,000 294 426 0
2022-11-28 09:05:04 GMT 48.286774 15.405579 38,000 294 425 64
2022-11-28 09:05:01 GMT 48.281525 15.423748 38,000 294 425 0
2022-11-28 09:04:58 GMT 48.281525 15.423748 38,000 294 425 0
2022-11-28 09:04:55 GMT 48.279236 15.431706 38,000 294 426 0
2022-11-28 09:04:51 GMT 48.276352 15.441636 38,000 294 425 0
2022-11-28 09:04:48 GMT 48.274475 15.448115 38,000 294 425 0
2022-11-28 09:04:45 GMT 48.271690 15.457691 38,000 294 425 0
2022-11-28 09:04:42 GMT 48.268944 15.467015 38,000 294 425 0
2022-11-28 09:04:39 GMT 48.266602 15.475088 38,000 294 425 0
2022-11-28 09:04:36 GMT 48.264999 15.480581 38,000 294 425 0
2022-11-28 09:04:33 GMT 48.262527 15.488892 38,000 294 425 64
2022-11-28 09:04:30 GMT 48.259460 15.499385 38,000 294 425 0
2022-11-28 09:04:27 GMT 48.257633 15.505684 38,000 294 425 0
2022-11-28 09:04:23 GMT 48.254562 15.516217 38,000 294 425 0
2022-11-28 09:04:20 GMT 48.252045 15.524694 38,000 294 425 0
2022-11-28 09:04:17 GMT 48.249756 15.532555 38,000 294 425 0
2022-11-28 09:04:14 GMT 48.247623 15.539872 38,000 294 425 0
2022-11-28 09:04:11 GMT 48.244785 15.549485 38,000 294 425 0
2022-11-28 09:04:08 GMT 48.242226 15.558303 38,000 294 425 0
2022-11-28 09:04:05 GMT 48.239822 15.566500 38,000 294 425 0
2022-11-28 09:04:02 GMT 48.237167 15.575585 38,000 294 425 0
2022-11-28 09:03:59 GMT 48.235474 15.581430 38,000 294 425 0
2022-11-28 09:03:56 GMT 48.233051 15.589744 38,000 294 425 0
2022-11-28 09:03:53 GMT 48.230621 15.598051 38,000 294 424 0
2022-11-28 09:03:50 GMT 48.228024 15.607019 38,000 294 424 0
2022-11-28 09:03:47 GMT 48.225906 15.614108 38,000 294 424 0
2022-11-28 09:03:44 GMT 48.223434 15.622629 38,000 294 424 0
2022-11-28 09:03:40 GMT 48.220230 15.633545 38,000 294 424 0
2022-11-28 09:03:37 GMT 48.218670 15.638821 38,000 294 424 64
2022-11-28 09:03:35 GMT 48.216854 15.645037 38,000 294 424 0
2022-11-28 09:03:32 GMT 48.214050 15.654532 38,000 294 424 0
2022-11-28 09:03:28 GMT 48.208706 15.672720 38,000 294 424 0
2022-11-28 09:03:25 GMT 48.208706 15.672720 38,000 294 424 -64
2022-11-28 09:03:22 GMT 48.205444 15.683829 38,000 294 424 0
2022-11-28 09:03:19 GMT 48.202980 15.692307 38,000 294 423 0
2022-11-28 09:03:16 GMT 48.201599 15.696857 38,000 294 424 0
2022-11-28 09:03:13 GMT 48.199162 15.705173 38,000 294 424 0
2022-11-28 09:03:10 GMT 48.196930 15.712914 38,000 294 424 0
2022-11-28 09:03:07 GMT 48.194595 15.720661 38,000 294 424 64
2022-11-28 09:03:04 GMT 48.192169 15.728971 38,000 294 424 0
2022-11-28 09:03:01 GMT 48.190018 15.736366 38,000 294 424 0
2022-11-28 09:02:57 GMT 48.186829 15.747167 38,000 294 424 0
2022-11-28 09:02:55 GMT 48.185150 15.752804 38,000 294 424 0
2022-11-28 09:02:52 GMT 48.183056 15.760032 38,000 294 424 0
2022-11-28 09:02:49 GMT 48.179443 15.772283 38,000 294 423 0
2022-11-28 09:02:46 GMT 48.177841 15.777564 38,000 294 423 0
2022-11-28 09:02:43 GMT 48.176353 15.782655 38,000 294 423 0
2022-11-28 09:02:40 GMT 48.172760 15.794889 38,000 294 423 0
2022-11-28 09:02:37 GMT 48.170952 15.801014 38,000 294 423 0
2022-11-28 09:02:34 GMT 48.168438 15.809471 38,000 294 423 0
2022-11-28 09:02:31 GMT 48.165894 15.818200 38,000 294 423 0
2022-11-28 09:02:28 GMT 48.163132 15.827468 38,000 294 423 0
2022-11-28 09:02:25 GMT 48.161041 15.834538 38,000 294 423 0
2022-11-28 09:02:22 GMT 48.156662 15.849469 38,000 294 423 0
2022-11-28 09:02:19 GMT 48.156662 15.849469 38,000 294 423 0
2022-11-28 09:02:16 GMT 48.154568 15.856511 38,000 294 423 0
2022-11-28 09:02:13 GMT 48.152145 15.864610 38,000 294 423 0
2022-11-28 09:02:10 GMT 48.149353 15.874117 38,000 294 423 0
2022-11-28 09:02:07 GMT 48.146896 15.882248 38,000 294 423 0
2022-11-28 09:02:02 GMT 48.143463 15.893852 38,000 294 423 0
2022-11-28 09:01:59 GMT 48.141174 15.901543 38,000 294 423 0
2022-11-28 09:01:56 GMT 48.137787 15.913010 38,000 294 423 0
2022-11-28 09:01:53 GMT 48.133663 15.926936 38,000 294 423 0
2022-11-28 09:01:50 GMT 48.133663 15.926936 38,000 294 423 0
2022-11-28 09:01:47 GMT 48.131290 15.934894 38,000 294 423 0
2022-11-28 09:01:44 GMT 48.126541 15.950810 38,000 294 423 0
2022-11-28 09:01:41 GMT 48.126541 15.950810 38,000 294 423 0
2022-11-28 09:01:38 GMT 48.124512 15.957642 38,000 294 423 0
2022-11-28 09:01:35 GMT 48.121994 15.966156 38,000 294 423 0
2022-11-28 09:01:32 GMT 48.119465 15.974614 38,000 294 423 0
2022-11-28 09:01:29 GMT 48.116730 15.983734 38,000 294 423 0
2022-11-28 09:01:26 GMT 48.115185 15.989051 38,000 294 423 0
2022-11-28 09:01:24 GMT 48.110779 16.003784 38,000 294 423 0
2022-11-28 09:01:21 GMT 48.110779 16.003784 38,000 294 423 0
2022-11-28 09:01:18 GMT 48.107574 16.014496 38,000 294 423 0
2022-11-28 09:01:15 GMT 48.105640 16.021025 38,000 294 423 0
2022-11-28 09:01:12 GMT 48.103500 16.028229 38,000 294 423 0
2022-11-28 09:01:08 GMT 48.100708 16.037567 38,000 295 422 0
2022-11-28 09:01:04 GMT 48.097492 16.048349 38,000 295 422 0
2022-11-28 09:01:01 GMT 48.094280 16.059195 38,000 295 422 0
2022-11-28 09:00:58 GMT 48.092651 16.064688 38,000 295 422 0
2022-11-28 09:00:55 GMT 48.090462 16.072012 38,000 295 422 0
2022-11-28 09:00:52 GMT 48.087902 16.080534 38,000 295 422 0
2022-11-28 09:00:49 GMT 48.084877 16.090605 38,000 295 422 0
2022-11-28 09:00:46 GMT 48.082409 16.098986 38,000 295 422 0
2022-11-28 09:00:43 GMT 48.081013 16.103493 38,000 295 422 0
2022-11-28 09:00:40 GMT 48.077290 16.115887 38,000 295 422 0
2022-11-28 09:00:37 GMT 48.076126 16.119759 38,000 295 422 0
2022-11-28 09:00:34 GMT 48.073563 16.128410 38,000 295 422 0
2022-11-28 09:00:31 GMT 48.071190 16.136240 38,000 295 422 0
2022-11-28 09:00:28 GMT 48.068584 16.144901 38,000 295 422 0
2022-11-28 09:00:25 GMT 48.065414 16.155533 38,000 295 422 0
2022-11-28 09:00:22 GMT 48.063354 16.162331 38,000 295 421 0
2022-11-28 09:00:19 GMT 48.061340 16.168991 38,000 295 422 0
2022-11-28 09:00:16 GMT 48.057678 16.181145 38,000 295 422 0
2022-11-28 09:00:14 GMT 48.057678 16.181145 38,000 295 422 0
2022-11-28 09:00:11 GMT 48.055298 16.189178 38,000 295 422 0
2022-11-28 09:00:08 GMT 48.052803 16.197510 38,000 295 422 0
2022-11-28 09:00:05 GMT 48.049728 16.207722 38,000 295 421 0
2022-11-28 09:00:02 GMT 48.048569 16.211563 38,000 295 421 0
2022-11-28 08:59:58 GMT 48.045216 16.222652 38,000 295 422 0
2022-11-28 08:59:55 GMT 48.040607 16.238146 38,000 295 419 0
2022-11-28 08:59:52 GMT 48.040607 16.238146 38,000 295 419 0
2022-11-28 08:59:49 GMT 48.037170 16.249603 38,000 295 421 0
2022-11-28 08:59:45 GMT 48.034649 16.257935 38,000 295 422 0
2022-11-28 08:59:43 GMT 48.032227 16.265963 38,000 295 422 0
2022-11-28 08:59:40 GMT 48.029854 16.273993 38,000 295 422 0
2022-11-28 08:59:37 GMT 48.027943 16.280331 38,000 295 422 0
2022-11-28 08:59:34 GMT 48.025269 16.289154 38,000 295 422 0
2022-11-28 08:59:31 GMT 48.023335 16.295612 38,000 295 422 0
2022-11-28 08:59:28 GMT 48.021149 16.302750 38,000 295 422 0
2022-11-28 08:59:25 GMT 48.016205 16.319092 38,000 295 421 0
2022-11-28 08:59:22 GMT 48.016205 16.319092 38,000 295 421 0
2022-11-28 08:59:18 GMT 48.012909 16.330078 38,000 295 421 0
2022-11-28 08:59:15 GMT 48.010532 16.338009 38,000 295 421 0
2022-11-28 08:59:12 GMT 48.008102 16.346008 38,000 295 421 0
2022-11-28 08:59:08 GMT 48.004990 16.356308 38,000 295 421 0
2022-11-28 08:59:05 GMT 47.999920 16.373150 38,000 295 420 0
2022-11-28 08:59:02 GMT 47.999920 16.373150 38,000 295 421 0
2022-11-28 08:58:58 GMT 47.996197 16.385475 38,000 295 420 0
2022-11-28 08:58:55 GMT 47.994461 16.391190 38,000 295 420 0
2022-11-28 08:58:52 GMT 47.992310 16.398331 38,000 295 420 0
2022-11-28 08:58:49 GMT 47.989445 16.407940 38,000 295 420 0
2022-11-28 08:58:46 GMT 47.987000 16.415977 38,000 295 420 0
2022-11-28 08:58:43 GMT 47.984837 16.423153 38,000 295 420 0
2022-11-28 08:58:40 GMT 47.981827 16.433006 38,000 295 420 0
2022-11-28 08:58:37 GMT 47.980408 16.437675 38,000 295 420 0
2022-11-28 08:58:33 GMT 47.976318 16.451323 38,000 295 420 0
2022-11-28 08:58:30 GMT 47.974129 16.458506 38,000 295 420 0
2022-11-28 08:58:27 GMT 47.972168 16.464935 38,000 295 420 0
2022-11-28 08:58:24 GMT 47.969833 16.472694 38,000 295 420 -64
2022-11-28 08:58:21 GMT 47.967590 16.480110 38,000 295 419 0
2022-11-28 08:58:18 GMT 47.965256 16.487732 38,000 295 419 0
2022-11-28 08:58:15 GMT 47.962784 16.495834 38,000 295 419 0
2022-11-28 08:58:12 GMT 47.959717 16.505997 38,000 295 419 0
2022-11-28 08:58:09 GMT 47.957977 16.511677 38,000 295 419 0
2022-11-28 08:58:06 GMT 47.955601 16.519564 38,000 295 419 0
2022-11-28 08:58:03 GMT 47.952438 16.529823 38,000 295 419 0
2022-11-28 08:58:00 GMT 47.950806 16.535339 38,000 295 419 0
2022-11-28 08:57:57 GMT 47.947548 16.545902 38,000 295 419 0
2022-11-28 08:57:54 GMT 47.944473 16.556053 38,000 295 419 0
2022-11-28 08:57:51 GMT 47.943558 16.559074 38,000 295 419 0
2022-11-28 08:57:48 GMT 47.941170 16.566750 38,000 295 419 0
2022-11-28 08:57:45 GMT 47.937836 16.577682 38,000 295 419 0
2022-11-28 08:57:42 GMT 47.936237 16.583088 38,000 295 419 0
2022-11-28 08:57:39 GMT 47.933491 16.592031 38,000 295 419 0
2022-11-28 08:57:36 GMT 47.931488 16.598511 38,000 295 419 0
2022-11-28 08:57:33 GMT 47.929344 16.605553 38,000 295 419 0
2022-11-28 08:57:30 GMT 47.926895 16.613731 38,000 295 419 0
2022-11-28 08:57:27 GMT 47.924503 16.621399 38,000 295 419 0
2022-11-28 08:57:24 GMT 47.921448 16.631447 38,000 295 419 0
2022-11-28 08:57:21 GMT 47.919060 16.639288 38,000 295 419 0
2022-11-28 08:57:18 GMT 47.917191 16.645523 38,000 295 419 0
2022-11-28 08:57:14 GMT 47.912704 16.660080 38,000 295 419 0
2022-11-28 08:57:12 GMT 47.912704 16.660080 38,000 295 419 0
2022-11-28 08:57:09 GMT 47.907074 16.678482 38,000 295 419 0
2022-11-28 08:57:06 GMT 47.907074 16.678482 38,000 295 420 0
2022-11-28 08:57:03 GMT 47.904968 16.685349 38,000 295 420 0
2022-11-28 08:57:00 GMT 47.902542 16.693176 38,000 295 420 0
2022-11-28 08:56:57 GMT 47.900208 16.700867 38,000 295 420 0
2022-11-28 08:56:54 GMT 47.895409 16.716402 38,000 295 420 0
2022-11-28 08:56:51 GMT 47.895409 16.716402 38,000 295 421 0
2022-11-28 08:56:48 GMT 47.892662 16.725416 38,000 295 421 0
2022-11-28 08:56:45 GMT 47.890594 16.732109 38,000 295 421 0
2022-11-28 08:56:42 GMT 47.887619 16.741722 38,000 295 421 0
2022-11-28 08:56:39 GMT 47.885166 16.749784 38,000 295 421 0
2022-11-28 08:56:36 GMT 47.882263 16.759232 38,000 295 421 0
2022-11-28 08:56:33 GMT 47.880047 16.766335 38,000 295 421 0
2022-11-28 08:56:30 GMT 47.877811 16.773588 38,000 295 421 0
2022-11-28 08:56:27 GMT 47.875992 16.779625 38,000 295 421 0
2022-11-28 08:56:24 GMT 47.873337 16.788277 38,000 295 421 0
2022-11-28 08:56:22 GMT 47.872086 16.792320 38,000 295 420 0
2022-11-28 08:56:19 GMT 47.869171 16.801804 38,000 295 420 0
2022-11-28 08:56:16 GMT 47.866638 16.809998 38,000 295 420 64
2022-11-28 08:56:13 GMT 47.864410 16.817322 38,000 295 420 64
2022-11-28 08:56:10 GMT 47.862171 16.824575 38,000 295 421 0
2022-11-28 08:56:07 GMT 47.859703 16.832603 38,000 295 421 0
2022-11-28 08:56:04 GMT 47.857189 16.840843 38,000 295 421 0
2022-11-28 08:56:00 GMT 47.853516 16.852753 38,000 295 421 0
2022-11-28 08:55:57 GMT 47.851231 16.860210 38,000 295 421 0
2022-11-28 08:55:54 GMT 47.848846 16.867928 38,000 295 421 0
2022-11-28 08:55:52 GMT 47.847244 16.873077 38,000 295 421 0
2022-11-28 08:55:49 GMT 47.844223 16.882896 38,000 295 420 0
2022-11-28 08:55:46 GMT 47.842438 16.888596 38,000 295 421 0
2022-11-28 08:55:43 GMT 47.837078 16.906057 38,000 295 420 0
2022-11-28 08:55:40 GMT 47.837078 16.906057 38,000 295 420 0
2022-11-28 08:55:37 GMT 47.832047 16.922310 38,000 295 420 0
2022-11-28 08:55:34 GMT 47.832047 16.922310 38,000 295 420 0
2022-11-28 08:55:31 GMT 47.829895 16.929176 38,000 295 420 0
2022-11-28 08:55:28 GMT 47.828156 16.934944 38,000 295 421 0
2022-11-28 08:55:25 GMT 47.825226 16.944351 38,000 295 421 0
2022-11-28 08:55:22 GMT 47.823257 16.950600 38,000 295 421 0
2022-11-28 08:55:19 GMT 47.820602 16.959320 38,000 295 421 0
2022-11-28 08:55:16 GMT 47.814972 16.977379 38,000 295 421 0
2022-11-28 08:55:12 GMT 47.814972 16.977379 38,000 295 421 0
2022-11-28 08:55:09 GMT 47.812592 16.985146 38,000 295 420 0
2022-11-28 08:55:06 GMT 47.810806 16.990837 38,000 295 420 0
2022-11-28 08:55:03 GMT 47.808266 16.999088 38,000 295 420 0
2022-11-28 08:55:01 GMT 47.806030 17.006203 38,000 295 420 0
2022-11-28 08:54:58 GMT 47.803097 17.015638 38,000 295 421 0
2022-11-28 08:54:55 GMT 47.801422 17.021118 38,000 295 421 0
2022-11-28 08:54:52 GMT 47.798302 17.030993 38,000 295 420 0
2022-11-28 08:54:49 GMT 47.795879 17.038809 38,000 295 420 0
2022-11-28 08:54:45 GMT 47.792950 17.048246 38,000 295 420 0
2022-11-28 08:54:42 GMT 47.790947 17.054655 38,000 295 420 0
2022-11-28 08:54:40 GMT 47.789017 17.060875 38,000 295 420 0
2022-11-28 08:54:37 GMT 47.786152 17.070219 38,000 295 420 0
2022-11-28 08:54:34 GMT 47.784393 17.075844 38,000 295 420 0
2022-11-28 08:54:31 GMT 47.782059 17.083328 38,000 295 420 0
2022-11-28 08:54:28 GMT 47.779449 17.091839 38,000 295 420 0
2022-11-28 08:54:25 GMT 47.776703 17.100573 38,000 295 420 0
2022-11-28 08:54:22 GMT 47.774231 17.108597 38,000 295 420 0
2022-11-28 08:54:19 GMT 47.772465 17.114235 38,000 295 420 0
2022-11-28 08:54:16 GMT 47.769627 17.123461 38,000 295 421 0
2022-11-28 08:54:13 GMT 47.766724 17.132767 38,000 295 421 0
2022-11-28 08:54:09 GMT 47.763748 17.142311 38,000 295 421 0
2022-11-28 08:54:06 GMT 47.761002 17.151169 38,000 295 420 0
2022-11-28 08:54:03 GMT 47.758942 17.157761 38,000 295 421 0
2022-11-28 08:54:00 GMT 47.756561 17.165451 38,000 295 421 0
2022-11-28 08:53:56 GMT 47.752396 17.178772 38,000 295 421 0
2022-11-28 08:53:53 GMT 47.750702 17.184196 38,000 295 421 0
2022-11-28 08:53:50 GMT 47.748276 17.191887 38,000 295 421 0
2022-11-28 08:53:47 GMT 47.745895 17.199440 38,000 295 421 0
2022-11-28 08:53:44 GMT 47.742737 17.209534 38,000 295 420 0
2022-11-28 08:53:41 GMT 47.740677 17.216125 38,000 295 420 0
2022-11-28 08:53:38 GMT 47.738995 17.221561 38,000 295 420 0
2022-11-28 08:53:35 GMT 47.736008 17.231026 38,000 295 420 0
2022-11-28 08:53:32 GMT 47.733315 17.239733 38,000 295 420 0
2022-11-28 08:53:29 GMT 47.730423 17.249016 38,000 295 420 0
2022-11-28 08:53:26 GMT 47.728798 17.254099 38,000 295 420 0
2022-11-28 08:53:23 GMT 47.724472 17.267899 38,000 295 420 0
2022-11-28 08:53:20 GMT 47.724472 17.267899 38,000 295 420 0
2022-11-28 08:53:17 GMT 47.721165 17.278395 38,000 295 420 0
2022-11-28 08:53:14 GMT 47.718651 17.286352 38,000 295 420 64
2022-11-28 08:53:11 GMT 47.716091 17.294594 38,000 295 420 0
2022-11-28 08:53:08 GMT 47.712181 17.306988 38,000 295 420 0
2022-11-28 08:53:05 GMT 47.712181 17.306988 38,000 295 420 0
2022-11-28 08:53:02 GMT 47.709015 17.317129 38,000 295 420 64
2022-11-28 08:53:00 GMT 47.707806 17.321003 38,000 295 420 0
2022-11-28 08:52:57 GMT 47.701996 17.339516 38,000 295 420 0
2022-11-28 08:52:54 GMT 47.701996 17.339516 38,000 295 420 0
2022-11-28 08:52:51 GMT 47.697517 17.353821 38,000 295 420 0
2022-11-28 08:52:48 GMT 47.697517 17.353821 38,000 296 420 0
2022-11-28 08:52:44 GMT 47.694946 17.362038 38,000 296 420 0
2022-11-28 08:52:41 GMT 47.691975 17.371357 38,000 296 420 0
2022-11-28 08:52:37 GMT 47.688309 17.383049 38,000 296 420 0
2022-11-28 08:52:34 GMT 47.685829 17.390863 38,000 296 420 0
2022-11-28 08:52:31 GMT 47.684189 17.396027 38,000 296 420 0
2022-11-28 08:52:29 GMT 47.682220 17.402275 38,000 296 420 0
2022-11-28 08:52:26 GMT 47.679359 17.411358 38,000 296 420 0
2022-11-28 08:52:23 GMT 47.676773 17.419510 38,000 296 420 0
2022-11-28 08:52:20 GMT 47.672333 17.433655 38,000 295 421 0
2022-11-28 08:52:17 GMT 47.672333 17.433655 38,000 295 421 0
2022-11-28 08:52:14 GMT 47.670181 17.440521 38,000 295 421 0
2022-11-28 08:52:11 GMT 47.665859 17.454178 38,000 295 421 0
2022-11-28 08:52:09 GMT 47.665859 17.454178 38,000 296 421 0
2022-11-28 08:52:05 GMT 47.662556 17.464600 38,000 296 421 -64
2022-11-28 08:52:02 GMT 47.659157 17.475445 38,000 296 421 -64
2022-11-28 08:51:58 GMT 47.656597 17.483543 38,000 296 422 0
2022-11-28 08:51:55 GMT 47.654022 17.491676 38,000 296 422 0
2022-11-28 08:51:52 GMT 47.651337 17.500093 38,000 296 422 0
2022-11-28 08:51:49 GMT 47.648960 17.507700 38,000 296 422 0
2022-11-28 08:51:46 GMT 47.646961 17.513968 38,000 296 422 0
2022-11-28 08:51:43 GMT 47.644073 17.523123 38,000 296 422 0
2022-11-28 08:51:40 GMT 47.639236 17.538437 38,000 296 422 0
2022-11-28 08:51:37 GMT 47.639236 17.538437 38,000 296 421 0
2022-11-28 08:51:34 GMT 47.636673 17.546576 38,000 296 422 0
2022-11-28 08:51:31 GMT 47.633694 17.555941 38,000 296 422 0
2022-11-28 08:51:28 GMT 47.632015 17.561153 38,000 296 422 0
2022-11-28 08:51:25 GMT 47.628662 17.571739 38,000 296 422 0
2022-11-28 08:51:22 GMT 47.626663 17.578125 38,000 296 423 0
2022-11-28 08:51:19 GMT 47.621124 17.595449 38,000 296 423 0
2022-11-28 08:51:16 GMT 47.621124 17.595449 38,000 296 423 0
2022-11-28 08:51:13 GMT 47.619736 17.599892 38,000 296 423 0
2022-11-28 08:51:10 GMT 47.616936 17.608690 38,000 296 423 0
2022-11-28 08:51:07 GMT 47.614513 17.616295 38,000 296 423 0
2022-11-28 08:51:04 GMT 47.612045 17.624113 38,000 296 423 0
2022-11-28 08:51:01 GMT 47.608383 17.635529 38,000 296 423 0
2022-11-28 08:50:58 GMT 47.606873 17.640335 38,000 296 423 0
2022-11-28 08:50:55 GMT 47.604549 17.647564 38,000 296 423 0
2022-11-28 08:50:52 GMT 47.601654 17.656746 38,000 296 423 0
2022-11-28 08:50:49 GMT 47.599991 17.661930 38,000 296 423 0
2022-11-28 08:50:46 GMT 47.597057 17.671085 38,000 296 423 0
2022-11-28 08:50:43 GMT 47.594376 17.679474 38,000 296 423 0
2022-11-28 08:50:40 GMT 47.591003 17.690031 38,000 296 423 0
2022-11-28 08:50:37 GMT 47.588242 17.698769 38,000 296 423 0
2022-11-28 08:50:34 GMT 47.586674 17.703623 38,000 296 423 0
2022-11-28 08:50:31 GMT 47.583847 17.712570 38,000 296 423 0
2022-11-28 08:50:28 GMT 47.582520 17.716621 38,000 296 423 0
2022-11-28 08:50:25 GMT 47.578491 17.729324 38,000 296 422 0
2022-11-28 08:50:22 GMT 47.576481 17.735596 38,000 296 423 0
2022-11-28 08:50:19 GMT 47.574802 17.740807 38,000 296 423 0
2022-11-28 08:50:16 GMT 47.572060 17.749399 38,000 296 423 0
2022-11-28 08:50:13 GMT 47.569405 17.757780 38,000 296 423 0
2022-11-28 08:50:10 GMT 47.566750 17.765879 38,000 296 423 0
2022-11-28 08:50:07 GMT 47.563446 17.776300 38,000 296 423 -64
2022-11-28 08:50:04 GMT 47.561630 17.782005 38,000 296 422 0
2022-11-28 08:50:01 GMT 47.558762 17.790848 38,000 296 423 0
2022-11-28 08:49:57 GMT 47.555786 17.800255 38,000 296 423 0
2022-11-28 08:49:53 GMT 47.552444 17.810555 38,000 296 423 0
2022-11-28 08:49:50 GMT 47.549107 17.821020 38,000 296 422 0
2022-11-28 08:49:47 GMT 47.547619 17.825670 38,000 296 422 0
2022-11-28 08:49:44 GMT 47.545441 17.832458 38,000 296 422 0
2022-11-28 08:49:41 GMT 47.542465 17.841866 38,000 296 422 0
2022-11-28 08:49:38 GMT 47.540634 17.847502 38,000 296 422 0
2022-11-28 08:49:34 GMT 47.536819 17.859404 38,000 296 421 0
2022-11-28 08:49:31 GMT 47.533932 17.868559 38,000 296 422 0
2022-11-28 08:49:28 GMT 47.531464 17.876163 38,000 296 422 0
2022-11-28 08:49:25 GMT 47.529099 17.883545 38,000 296 422 0
2022-11-28 08:49:22 GMT 47.526531 17.891586 38,000 296 422 0
2022-11-28 08:49:18 GMT 47.523468 17.901123 38,000 296 423 0
2022-11-28 08:49:15 GMT 47.520618 17.910040 38,000 296 423 0
2022-11-28 08:49:12 GMT 47.518753 17.915817 38,000 296 423 0
2022-11-28 08:49:09 GMT 47.515457 17.926048 38,000 296 423 0
2022-11-28 08:49:06 GMT 47.513260 17.932846 38,000 296 423 0
2022-11-28 08:49:03 GMT 47.508224 17.948502 38,000 296 422 0
2022-11-28 08:49:00 GMT 47.508224 17.948502 38,000 296 423 0
2022-11-28 08:48:56 GMT 47.504463 17.960253 38,000 296 423 0
2022-11-28 08:48:52 GMT 47.501625 17.969055 38,000 296 422 0
2022-11-28 08:48:49 GMT 47.498611 17.978371 38,000 296 423 0
2022-11-28 08:48:46 GMT 47.495865 17.986954 38,000 296 422 0
2022-11-28 08:48:43 GMT 47.494316 17.991802 38,000 296 423 0
2022-11-28 08:48:40 GMT 47.491009 18.002085 38,000 296 423 0
2022-11-28 08:48:37 GMT 47.486481 18.016136 38,000 296 423 0
2022-11-28 08:48:34 GMT 47.486481 18.016136 38,000 296 423 0
2022-11-28 08:48:31 GMT 47.484009 18.023827 38,000 296 423 0
2022-11-28 08:48:28 GMT 47.480907 18.033424 38,000 296 423 0
2022-11-28 08:48:23 GMT 47.477417 18.044270 38,000 296 423 0
2022-11-28 08:48:20 GMT 47.475368 18.050467 38,000 296 423 0
2022-11-28 08:48:17 GMT 47.468948 18.070381 38,000 296 423 0
2022-11-28 08:48:13 GMT 47.468948 18.070381 38,000 296 423 0
2022-11-28 08:48:10 GMT 47.463684 18.086664 38,000 296 423 0
2022-11-28 08:48:07 GMT 47.463684 18.086664 38,000 296 423 0
2022-11-28 08:48:03 GMT 47.460159 18.097435 38,000 296 423 0
2022-11-28 08:48:00 GMT 47.455444 18.112061 38,000 296 423 0
2022-11-28 08:47:57 GMT 47.455444 18.112061 38,000 296 423 0
2022-11-28 08:47:54 GMT 47.453018 18.119476 38,000 296 423 0
2022-11-28 08:47:51 GMT 47.450455 18.127373 38,000 296 423 0
2022-11-28 08:47:48 GMT 47.444870 18.144539 38,000 296 423 0
2022-11-28 08:47:45 GMT 47.444870 18.144539 38,000 296 423 0
2022-11-28 08:47:42 GMT 47.442875 18.150682 38,000 296 423 0
2022-11-28 08:47:39 GMT 47.439835 18.160057 38,000 296 423 0
2022-11-28 08:47:37 GMT 47.437428 18.167442 38,000 296 423 0
2022-11-28 08:47:34 GMT 47.435715 18.172760 38,000 296 423 0
2022-11-28 08:47:31 GMT 47.433838 18.178596 38,000 296 423 0
2022-11-28 08:47:28 GMT 47.431274 18.186424 38,000 296 423 0
2022-11-28 08:47:25 GMT 47.428802 18.193977 38,000 296 423 0
2022-11-28 08:47:22 GMT 47.425743 18.203501 38,000 296 422 0
2022-11-28 08:47:19 GMT 47.421181 18.217375 38,000 296 422 0
2022-11-28 08:47:16 GMT 47.421181 18.217375 38,000 296 422 0
2022-11-28 08:47:13 GMT 47.417862 18.227554 38,000 296 422 0
2022-11-28 08:47:10 GMT 47.414757 18.237164 38,000 296 422 0
2022-11-28 08:47:06 GMT 47.411362 18.247536 38,000 296 423 0
2022-11-28 08:47:02 GMT 47.409119 18.254402 38,000 296 423 0
2022-11-28 08:46:59 GMT 47.405865 18.264347 38,000 296 423 0
2022-11-28 08:46:56 GMT 47.403809 18.270607 38,000 296 422 0
2022-11-28 08:46:52 GMT 47.399780 18.283035 38,000 296 422 0
2022-11-28 08:46:49 GMT 47.397533 18.289843 38,000 296 422 0
2022-11-28 08:46:46 GMT 47.395157 18.297112 38,000 296 422 0
2022-11-28 08:46:43 GMT 47.392639 18.304802 38,000 296 422 0
2022-11-28 08:46:40 GMT 47.389572 18.314209 38,000 296 422 0
2022-11-28 08:46:37 GMT 47.387787 18.319633 38,000 296 423 0
2022-11-28 08:46:34 GMT 47.385242 18.327450 38,000 296 423 0
2022-11-28 08:46:31 GMT 47.382637 18.335478 38,000 296 423 0
2022-11-28 08:46:28 GMT 47.379547 18.344765 38,000 296 423 0
2022-11-28 08:46:25 GMT 47.376938 18.352730 38,000 296 423 0
2022-11-28 08:46:21 GMT 47.374023 18.361675 38,000 296 424 0
2022-11-28 08:46:18 GMT 47.370907 18.371252 38,000 296 424 0
2022-11-28 08:46:15 GMT 47.368298 18.379211 37,775 296 427 512
2022-11-28 08:46:10 GMT 47.364029 18.392281 38,000 296 424 0
2022-11-28 08:46:06 GMT 47.361362 18.400339 38,000 296 424 0
2022-11-28 08:46:02 GMT 47.357941 18.410889 38,000 296 424 0
2022-11-28 08:45:59 GMT 47.355194 18.419197 38,000 296 424 0
2022-11-28 08:45:56 GMT 47.352448 18.427574 38,000 296 426 -64
2022-11-28 08:45:53 GMT 47.350235 18.434425 38,000 296 426 -64
2022-11-28 08:45:50 GMT 47.348095 18.440973 38,000 296 426 -64
2022-11-28 08:45:47 GMT 47.345627 18.448580 38,000 296 426 0
2022-11-28 08:45:44 GMT 47.342514 18.458061 37,800 296 427 512
2022-11-28 08:45:41 GMT 47.337482 18.473440 38,000 296 426 384
2022-11-28 08:45:38 GMT 47.337482 18.473440 37,950 296 426 512
2022-11-28 08:45:35 GMT 47.334915 18.481201 37,900 296 427 512
2022-11-28 08:45:30 GMT 47.330841 18.493698 37,900 296 427 512
2022-11-28 08:45:27 GMT 47.327705 18.503229 37,900 296 427 512
2022-11-28 08:45:24 GMT 47.325794 18.509005 37,850 296 427 512
2022-11-28 08:45:19 GMT 47.320770 18.524323 37,800 296 427 512
2022-11-28 08:45:15 GMT 47.315735 18.539635 37,775 296 427 512
2022-11-28 08:45:12 GMT 47.315735 18.539635 37,725 296 427 512
2022-11-28 08:45:09 GMT 47.312531 18.549385 37,725 296 426 512
2022-11-28 08:45:05 GMT 47.305592 18.570345 37,650 296 427 576
2022-11-28 08:45:02 GMT 47.305592 18.570345 37,650 296 427 576
2022-11-28 08:44:59 GMT 47.303101 18.578018 37,600 296 427 576
2022-11-28 08:44:56 GMT 47.301453 18.582962 37,575 296 426 576
2022-11-28 08:44:53 GMT 47.298752 18.591190 37,575 296 426 640
2022-11-28 08:44:50 GMT 47.296829 18.596970 37,550 296 426 640
2022-11-28 08:44:47 GMT 47.293396 18.607319 37,475 296 427 768
2022-11-28 08:44:44 GMT 47.290970 18.614685 37,300 297 426 768
2022-11-28 08:44:41 GMT 47.287811 18.624222 37,425 296 427 768
2022-11-28 08:44:38 GMT 47.285522 18.631233 37,400 296 427 768
2022-11-28 08:44:35 GMT 47.283619 18.636827 37,375 296 427 768
2022-11-28 08:44:32 GMT 47.281311 18.643799 37,325 296 427 768
2022-11-28 08:44:28 GMT 47.276638 18.657885 37,275 297 426 832
2022-11-28 08:44:25 GMT 47.275040 18.662682 37,250 297 426 832
2022-11-28 08:44:22 GMT 47.272339 18.670784 37,100 296 424 896
2022-11-28 08:44:19 GMT 47.269653 18.678871 37,125 297 426 896
2022-11-28 08:44:16 GMT 47.266724 18.687815 37,050 296 424 896
2022-11-28 08:44:12 GMT 47.262299 18.701124 37,050 296 424 896
2022-11-28 08:44:09 GMT 47.258064 18.713800 36,975 296 424 896
2022-11-28 08:44:06 GMT 47.258064 18.713800 36,950 297 423 896
2022-11-28 08:44:02 GMT 47.255173 18.722557 36,875 297 425 1024
2022-11-28 08:43:59 GMT 47.252151 18.731619 36,850 297 425 1024
2022-11-28 08:43:55 GMT 47.245605 18.751190 36,775 297 426 1024
2022-11-28 08:43:51 GMT 47.245605 18.751190 36,725 297 425 1024
2022-11-28 08:43:48 GMT 47.243351 18.757957 36,650 297 427 960
2022-11-28 08:43:44 GMT 47.238739 18.771790 36,575 297 427 1024
2022-11-28 08:43:41 GMT 47.236954 18.777283 36,500 297 427 960
2022-11-28 08:43:38 GMT 47.234322 18.785072 36,425 297 428 960
2022-11-28 08:43:34 GMT 47.230644 18.796127 36,400 297 429 896
2022-11-28 08:43:31 GMT 47.228455 18.802748 36,075 297 440 192
2022-11-28 08:43:28 GMT 47.225758 18.810846 36,325 297 432 832
2022-11-28 08:43:25 GMT 47.222309 18.821129 36,275 297 432 832
2022-11-28 08:43:21 GMT 47.219330 18.830086 36,175 296 434 768
2022-11-28 08:43:17 GMT 47.216400 18.839081 36,200 296 436 768
2022-11-28 08:43:14 GMT 47.213654 18.847321 36,125 296 436 704
2022-11-28 08:43:11 GMT 47.210579 18.856625 36,100 297 439 64
2022-11-28 08:43:08 GMT 47.207462 18.865919 36,075 296 439 640
2022-11-28 08:43:05 GMT 47.204853 18.873737 36,050 296 440 512
2022-11-28 08:43:02 GMT 47.202347 18.881310 36,025 296 440 384
2022-11-28 08:42:58 GMT 47.198524 18.892752 36,025 297 440 192
2022-11-28 08:42:54 GMT 47.195824 18.900921 36,025 297 439 64
2022-11-28 08:42:51 GMT 47.192612 18.910500 36,000 297 439 0
2022-11-28 08:42:48 GMT 47.186325 18.929302 36,000 297 439 0
2022-11-28 08:42:45 GMT 47.186325 18.929302 36,000 297 439 0
2022-11-28 08:42:40 GMT 47.183212 18.938576 36,000 297 439 0
2022-11-28 08:42:37 GMT 47.179916 18.948326 36,000 297 439 0
2022-11-28 08:42:33 GMT 47.175705 18.960823 36,000 297 439 0
2022-11-28 08:42:30 GMT 47.173691 18.966866 36,000 297 439 0
2022-11-28 08:42:27 GMT 47.170441 18.976479 36,000 297 439 0
2022-11-28 08:42:23 GMT 47.165085 18.992546 36,000 297 439 0
2022-11-28 08:42:20 GMT 47.165085 18.992546 36,000 297 439 0
2022-11-28 08:42:16 GMT 47.161236 19.004025 36,000 297 439 0
2022-11-28 08:42:13 GMT 47.157883 19.013954 36,000 297 439 0
2022-11-28 08:42:10 GMT 47.155880 19.019869 36,000 297 439 0
2022-11-28 08:42:06 GMT 47.151459 19.033039 36,000 297 439 0
2022-11-28 08:42:02 GMT 47.148899 19.040787 36,000 297 439 0
2022-11-28 08:41:59 GMT 47.146317 19.048439 36,000 297 440 0
2022-11-28 08:41:55 GMT 47.141647 19.062309 36,000 297 439 0
2022-11-28 08:41:52 GMT 47.139999 19.067322 36,000 297 439 0
2022-11-28 08:41:49 GMT 47.137215 19.075504 36,000 297 440 0
2022-11-28 08:41:46 GMT 47.134514 19.083605 36,000 297 439 0
2022-11-28 08:41:43 GMT 47.131760 19.091835 36,000 297 439 0
2022-11-28 08:41:40 GMT 47.129013 19.100006 36,000 297 438 0
2022-11-28 08:41:37 GMT 47.126274 19.108183 36,000 297 438 0
2022-11-28 08:41:34 GMT 47.123703 19.115730 36,000 297 438 0
2022-11-28 08:41:31 GMT 47.121338 19.122690 36,000 297 438 0
2022-11-28 08:41:28 GMT 47.118988 19.129807 36,000 297 438 0
2022-11-28 08:41:25 GMT 47.115417 19.140312 36,000 297 438 0
2022-11-28 08:41:22 GMT 47.112579 19.148758 36,000 297 438 0
2022-11-28 08:41:18 GMT 47.109879 19.156723 36,000 297 438 0
2022-11-28 08:41:15 GMT 47.106583 19.166494 36,000 297 438 0
2022-11-28 08:41:11 GMT 47.103104 19.176842 36,000 297 438 0
2022-11-28 08:41:08 GMT 47.100857 19.183397 36,000 297 438 0
2022-11-28 08:41:05 GMT 47.094246 19.202974 36,000 297 438 0
2022-11-28 08:41:02 GMT 47.094246 19.202974 36,000 297 438 0
2022-11-28 08:40:59 GMT 47.092430 19.208397 36,000 297 438 0
2022-11-28 08:40:56 GMT 47.089508 19.217079 36,000 297 438 0
2022-11-28 08:40:53 GMT 47.086563 19.225794 36,000 297 438 0
2022-11-28 08:40:50 GMT 47.084793 19.230949 36,000 297 438 0
2022-11-28 08:40:46 GMT 47.080837 19.242765 36,000 297 438 0
2022-11-28 08:40:43 GMT 47.077560 19.252373 36,000 297 438 0
2022-11-28 08:40:39 GMT 47.074181 19.262484 36,000 297 438 0
2022-11-28 08:40:36 GMT 47.071609 19.270020 36,000 297 438 0
2022-11-28 08:40:33 GMT 47.069000 19.277710 36,000 297 439 0
2022-11-28 08:40:29 GMT 47.064423 19.291168 36,000 297 440 0
2022-11-28 08:40:24 GMT 47.059982 19.304214 36,000 297 440 0
2022-11-28 08:40:20 GMT 47.057796 19.310724 36,000 297 440 0
2022-11-28 08:40:17 GMT 47.054581 19.320145 36,000 297 439 0
2022-11-28 08:40:14 GMT 47.052155 19.327286 36,000 297 439 0
2022-11-28 08:40:11 GMT 47.048813 19.337173 36,000 297 440 0
2022-11-28 08:40:06 GMT 47.041672 19.358185 36,000 297 440 0
2022-11-28 08:40:03 GMT 47.041672 19.358185 36,000 297 440 0
2022-11-28 08:40:00 GMT 47.038925 19.366287 36,000 297 440 0
2022-11-28 08:39:56 GMT 47.035629 19.375969 36,000 297 440 0
2022-11-28 08:39:53 GMT 47.032799 19.384319 36,000 297 440 0
2022-11-28 08:39:50 GMT 47.029957 19.392559 36,000 297 440 0
2022-11-28 08:39:46 GMT 47.026836 19.401785 36,000 297 440 0
2022-11-28 08:39:43 GMT 47.023113 19.412701 36,000 297 440 0
2022-11-28 08:39:38 GMT 47.018875 19.425097 36,000 297 440 0
2022-11-28 08:39:34 GMT 47.014984 19.436462 36,000 297 439 0
2022-11-28 08:39:30 GMT 47.011707 19.445942 36,000 297 440 0
2022-11-28 08:39:27 GMT 47.009335 19.452843 36,000 297 440 0
2022-11-28 08:39:22 GMT 47.001793 19.474815 36,000 297 440 0
2022-11-28 08:39:19 GMT 47.001793 19.474815 36,000 297 439 0
2022-11-28 08:39:16 GMT 46.998962 19.483017 36,000 297 439 0
2022-11-28 08:39:12 GMT 46.994614 19.495651 36,000 297 439 0
2022-11-28 08:39:07 GMT 46.990898 19.506647 36,000 297 439 0
2022-11-28 08:39:04 GMT 46.988113 19.514740 36,000 297 440 0
2022-11-28 08:39:00 GMT 46.984196 19.526226 36,000 297 440 0
2022-11-28 08:38:57 GMT 46.981590 19.533974 36,000 297 439 0
2022-11-28 08:38:54 GMT 46.979214 19.540804 36,000 297 439 0
2022-11-28 08:38:51 GMT 46.976349 19.549210 36,000 297 439 0
2022-11-28 08:38:48 GMT 46.973969 19.556145 36,000 297 439 0
2022-11-28 08:38:45 GMT 46.971130 19.564453 36,000 297 439 0
2022-11-28 08:38:42 GMT 46.968384 19.572418 36,000 297 439 0
2022-11-28 08:38:39 GMT 46.962708 19.589035 36,000 297 439 0
2022-11-28 08:38:36 GMT 46.962708 19.589035 36,000 297 439 0
2022-11-28 08:38:33 GMT 46.960640 19.595102 36,000 297 439 0
2022-11-28 08:38:29 GMT 46.956451 19.607286 36,000 297 439 0
2022-11-28 08:38:26 GMT 46.953564 19.615597 36,000 297 439 0
2022-11-28 08:38:23 GMT 46.951469 19.621794 36,000 297 439 0
2022-11-28 08:38:19 GMT 46.946396 19.636513 36,000 297 438 0
2022-11-28 08:38:15 GMT 46.943710 19.644447 36,000 297 438 0
2022-11-28 08:38:12 GMT 46.940735 19.652962 36,000 297 438 0
2022-11-28 08:38:08 GMT 46.937119 19.663605 36,000 297 438 0
2022-11-28 08:38:04 GMT 46.933735 19.673346 36,000 297 438 0
2022-11-28 08:38:01 GMT 46.930893 19.681583 36,000 297 438 0
2022-11-28 08:37:58 GMT 46.928101 19.689766 36,000 297 438 0
2022-11-28 08:37:55 GMT 46.925674 19.696701 36,000 297 438 0
2022-11-28 08:37:52 GMT 46.921234 19.709679 36,000 297 438 0
2022-11-28 08:37:47 GMT 46.918419 19.717783 36,000 297 438 0
2022-11-28 08:37:43 GMT 46.914555 19.728979 36,000 297 438 0
2022-11-28 08:37:38 GMT 46.910362 19.741234 36,000 297 439 0
2022-11-28 08:37:35 GMT 46.907089 19.750603 36,000 297 439 0
2022-11-28 08:37:32 GMT 46.905197 19.756094 36,000 297 439 0
2022-11-28 08:37:28 GMT 46.899857 19.771545 36,000 297 439 0
2022-11-28 08:37:25 GMT 46.898121 19.776588 36,000 297 440 0
2022-11-28 08:37:22 GMT 46.895840 19.783278 36,000 297 440 0
2022-11-28 08:37:19 GMT 46.892673 19.792362 36,000 297 440 0
2022-11-28 08:37:15 GMT 46.888504 19.804504 36,000 297 440 0
2022-11-28 08:37:12 GMT 46.886398 19.810547 36,000 297 439 0
2022-11-28 08:37:06 GMT 46.877106 19.837326 36,000 297 439 0
2022-11-28 08:37:02 GMT 46.877106 19.837326 36,000 297 439 0
2022-11-28 08:36:58 GMT 46.872608 19.850393 36,000 297 439 0
2022-11-28 08:36:55 GMT 46.867954 19.863773 36,000 297 439 0
2022-11-28 08:36:52 GMT 46.867954 19.863773 36,000 297 438 0
2022-11-28 08:36:48 GMT 46.863579 19.876396 36,000 297 439 0
2022-11-28 08:36:45 GMT 46.860695 19.884773 36,000 297 439 0
2022-11-28 08:36:41 GMT 46.858337 19.891483 36,000 297 438 0
2022-11-28 08:36:37 GMT 46.853714 19.904882 36,000 297 438 0
2022-11-28 08:36:34 GMT 46.851471 19.911381 36,000 297 438 0
2022-11-28 08:36:31 GMT 46.849136 19.918079 36,000 297 438 0
2022-11-28 08:36:27 GMT 46.844120 19.932495 36,000 297 438 0
2022-11-28 08:36:24 GMT 46.842258 19.937782 36,000 297 437 0
2022-11-28 08:36:21 GMT 46.839569 19.945612 36,000 297 437 0
2022-11-28 08:36:17 GMT 46.835415 19.957558 36,000 297 437 0
2022-11-28 08:36:14 GMT 46.832794 19.965038 36,000 297 436 0
2022-11-28 08:36:11 GMT 46.830551 19.971537 36,000 297 436 0
2022-11-28 08:36:08 GMT 46.828171 19.978235 36,000 297 436 0
2022-11-28 08:36:05 GMT 46.824738 19.988083 36,000 297 436 0
2022-11-28 08:36:02 GMT 46.822006 19.995872 36,000 297 435 0
2022-11-28 08:35:59 GMT 46.819107 20.004229 36,000 297 435 0
2022-11-28 08:35:54 GMT 46.814095 20.018669 36,000 297 435 0
2022-11-28 08:35:51 GMT 46.812420 20.023476 36,000 297 435 0
2022-11-28 08:35:48 GMT 46.809586 20.031628 36,000 297 435 0
2022-11-28 08:35:44 GMT 46.805511 20.043283 36,000 297 434 0
2022-11-28 08:35:41 GMT 46.803154 20.050049 36,000 297 434 0
2022-11-28 08:35:38 GMT 46.800201 20.058422 36,000 297 434 0
2022-11-28 08:35:33 GMT 46.795612 20.071678 36,000 297 434 0
2022-11-28 08:35:30 GMT 46.793198 20.078587 36,000 297 434 0
2022-11-28 08:35:26 GMT 46.788574 20.091717 36,000 297 434 0
2022-11-28 08:35:23 GMT 46.786442 20.097977 36,000 297 434 0
2022-11-28 08:35:20 GMT 46.784042 20.104713 36,000 298 433 0
2022-11-28 08:35:17 GMT 46.781479 20.112015 36,000 298 433 0
2022-11-28 08:35:14 GMT 46.778412 20.120790 36,000 298 433 0
2022-11-28 08:35:10 GMT 46.774979 20.130505 36,000 298 432 0
2022-11-28 08:35:07 GMT 46.771820 20.139414 36,000 298 432 0
2022-11-28 08:35:04 GMT 46.769173 20.146935 36,000 298 432 0
2022-11-28 08:35:01 GMT 46.766647 20.154219 36,000 298 432 0
2022-11-28 08:34:58 GMT 46.764332 20.160736 36,000 298 432 0
2022-11-28 08:34:55 GMT 46.760792 20.170761 36,000 298 431 0
2022-11-28 08:34:52 GMT 46.758041 20.178535 36,000 298 431 0
2022-11-28 08:34:49 GMT 46.755344 20.186279 36,000 298 431 0
2022-11-28 08:34:46 GMT 46.752785 20.193489 36,000 298 431 0
2022-11-28 08:34:42 GMT 46.749199 20.203651 36,000 298 431 0
2022-11-28 08:34:39 GMT 46.744400 20.217388 36,000 298 431 0
2022-11-28 08:34:36 GMT 46.744400 20.217388 36,000 298 431 0
2022-11-28 08:34:32 GMT 46.740170 20.229332 36,000 298 431 0
2022-11-28 08:34:29 GMT 46.738129 20.235142 36,000 298 431 0
2022-11-28 08:34:26 GMT 46.735420 20.242928 36,000 297 432 0
2022-11-28 08:34:23 GMT 46.731995 20.252626 36,000 298 431 0
2022-11-28 08:34:20 GMT 46.729324 20.260231 36,000 298 431 0
2022-11-28 08:34:17 GMT 46.725952 20.269842 36,000 297 432 0
2022-11-28 08:34:13 GMT 46.722340 20.280144 36,000 297 432 0
2022-11-28 08:34:09 GMT 46.719910 20.287127 36,000 297 432 0
2022-11-28 08:34:06 GMT 46.716846 20.295868 36,000 297 432 0
2022-11-28 08:34:03 GMT 46.714054 20.303764 36,000 298 432 0
2022-11-28 08:34:00 GMT 46.711395 20.311443 36,000 298 432 0
2022-11-28 08:33:57 GMT 46.709026 20.318047 36,000 298 432 0
2022-11-28 08:33:53 GMT 46.702087 20.337753 36,000 298 432 0
2022-11-28 08:33:50 GMT 46.702087 20.337753 36,000 298 432 0
2022-11-28 08:33:47 GMT 46.700180 20.343246 36,000 298 432 0
2022-11-28 08:33:41 GMT 46.693756 20.361374 36,000 298 432 0
2022-11-28 08:33:38 GMT 46.691483 20.367847 36,000 298 432 0
2022-11-28 08:33:32 GMT 46.685612 20.384445 36,000 298 432 0
2022-11-28 08:33:29 GMT 46.683289 20.390961 36,000 298 433 0
2022-11-28 08:33:26 GMT 46.679188 20.402641 36,000 298 433 0
2022-11-28 08:33:20 GMT 46.674065 20.417198 36,000 298 434 0
2022-11-28 08:33:16 GMT 46.671551 20.424133 36,000 298 434 0
2022-11-28 08:33:11 GMT 46.665966 20.439995 36,000 298 435 0
2022-11-28 08:33:08 GMT 46.664242 20.444870 36,000 298 435 0
2022-11-28 08:33:05 GMT 46.661545 20.452391 36,000 298 435 0
2022-11-28 08:33:02 GMT 46.657494 20.463821 36,000 298 435 0
2022-11-28 08:32:59 GMT 46.655491 20.469452 36,000 298 435 0
2022-11-28 08:32:56 GMT 46.653210 20.475838 36,000 298 436 0
2022-11-28 08:32:53 GMT 46.650238 20.484209 36,000 298 436 0
2022-11-28 08:32:50 GMT 46.644363 20.500763 36,000 298 436 0
2022-11-28 08:32:47 GMT 46.644363 20.500763 36,000 298 437 0
2022-11-28 08:32:44 GMT 46.642044 20.507320 36,000 298 437 0
2022-11-28 08:32:41 GMT 46.636688 20.522327 36,000 298 437 0
2022-11-28 08:32:38 GMT 46.636688 20.522327 36,000 298 437 0
2022-11-28 08:32:35 GMT 46.632679 20.533585 36,000 298 437 0
2022-11-28 08:32:29 GMT 46.627792 20.547455 36,000 298 437 0
2022-11-28 08:32:26 GMT 46.625370 20.554184 36,000 298 439 0
2022-11-28 08:32:23 GMT 46.622681 20.561785 36,000 298 439 0
2022-11-28 08:32:20 GMT 46.618759 20.572723 36,000 298 439 0
2022-11-28 08:32:17 GMT 46.615448 20.582083 36,000 298 440 0
2022-11-28 08:32:14 GMT 46.613503 20.587486 36,000 298 440 0
2022-11-28 08:32:08 GMT 46.607986 20.602983 36,000 298 440 0
2022-11-28 08:32:04 GMT 46.604324 20.613165 36,000 298 440 0
2022-11-28 08:32:00 GMT 46.600983 20.622477 36,000 298 440 0
2022-11-28 08:31:56 GMT 46.596313 20.635540 36,000 298 441 0
2022-11-28 08:31:50 GMT 46.591415 20.649206 36,000 298 441 0
2022-11-28 08:31:47 GMT 46.588268 20.657936 36,000 298 443 0
2022-11-28 08:31:44 GMT 46.584961 20.667091 36,000 298 444 0
2022-11-28 08:31:39 GMT 46.581161 20.677744 36,000 298 444 -64
2022-11-28 08:31:36 GMT 46.577190 20.688766 36,000 298 445 0
2022-11-28 08:31:29 GMT 46.571777 20.703869 36,000 298 445 0
2022-11-28 08:31:26 GMT 46.568298 20.713486 36,000 298 446 0
2022-11-28 08:31:23 GMT 46.564957 20.722895 36,000 298 446 0
2022-11-28 08:31:19 GMT 46.560944 20.734016 36,000 298 445 64
2022-11-28 08:31:16 GMT 46.559032 20.739441 36,000 298 445 0
2022-11-28 08:31:13 GMT 46.556396 20.746811 36,000 298 446 0
2022-11-28 08:31:09 GMT 46.552563 20.757500 36,000 298 445 0
2022-11-28 08:31:06 GMT 46.549896 20.765099 36,000 298 446 0
2022-11-28 08:31:03 GMT 46.542881 20.784554 36,000 298 446 0
2022-11-28 08:30:59 GMT 46.542881 20.784554 36,000 298 445 0
2022-11-28 08:30:56 GMT 46.540691 20.790596 36,000 298 446 0
2022-11-28 08:30:52 GMT 46.536083 20.803436 36,000 298 446 0
2022-11-28 08:30:49 GMT 46.532364 20.813732 36,000 298 446 0
2022-11-28 08:30:46 GMT 46.530624 20.818623 36,000 298 447 0
2022-11-28 08:30:43 GMT 46.527649 20.826862 36,000 298 448 0
2022-11-28 08:30:40 GMT 46.524864 20.834610 36,000 298 448 0
2022-11-28 08:30:36 GMT 46.521011 20.845219 36,000 298 448 0
2022-11-28 08:30:33 GMT 46.516907 20.856514 36,000 298 448 0
2022-11-28 08:30:28 GMT 46.512203 20.869560 36,000 298 449 0
2022-11-28 08:30:25 GMT 46.510712 20.873821 36,000 298 449 0
2022-11-28 08:30:22 GMT 46.507687 20.882195 36,000 298 449 0
2022-11-28 08:30:19 GMT 46.503616 20.893450 36,000 298 449 0
2022-11-28 08:30:16 GMT 46.498749 20.906914 36,000 298 449 0
2022-11-28 08:30:13 GMT 46.498749 20.906914 36,000 298 450 0
2022-11-28 08:30:07 GMT 46.492493 20.924267 36,000 298 450 0
2022-11-28 08:30:04 GMT 46.490509 20.929710 36,000 298 450 0
2022-11-28 08:30:01 GMT 46.487064 20.939117 36,000 298 452 0
2022-11-28 08:29:57 GMT 46.480774 20.956554 36,000 298 452 0
2022-11-28 08:29:54 GMT 46.480774 20.956554 36,000 298 452 0
2022-11-28 08:29:47 GMT 46.471191 20.983200 36,000 298 453 0
2022-11-28 08:29:44 GMT 46.471191 20.983200 36,000 298 453 -64
2022-11-28 08:29:40 GMT 46.466812 20.995354 36,000 298 453 0
2022-11-28 08:29:37 GMT 46.463371 21.004761 36,000 298 454 0
2022-11-28 08:29:34 GMT 46.461502 21.009947 36,000 298 454 0
2022-11-28 08:29:26 GMT 46.453362 21.032570 36,000 298 455 0
2022-11-28 08:29:23 GMT 46.450287 21.041096 36,000 298 456 0
2022-11-28 08:29:19 GMT 46.445724 21.053787 36,000 298 456 0
2022-11-28 08:29:15 GMT 46.442795 21.061958 36,000 298 457 0
2022-11-28 08:29:12 GMT 46.440048 21.069511 36,000 298 457 0
2022-11-28 08:29:06 GMT 46.434227 21.085785 36,000 298 458 0
2022-11-28 08:29:03 GMT 46.431519 21.093281 36,000 298 458 0
2022-11-28 08:28:59 GMT 46.427078 21.105539 36,000 298 458 0
2022-11-28 08:28:56 GMT 46.423519 21.115379 36,000 298 457 0
2022-11-28 08:28:53 GMT 46.421612 21.120667 36,000 298 458 0
2022-11-28 08:28:44 GMT 46.413025 21.144663 36,000 298 458 0
2022-11-28 08:28:41 GMT 46.409775 21.153639 36,000 298 458 0
2022-11-28 08:28:35 GMT 46.403549 21.170998 36,000 298 458 0
2022-11-28 08:28:32 GMT 46.401131 21.177589 36,000 298 458 0
2022-11-28 08:28:25 GMT 46.393402 21.198944 36,000 298 458 0
2022-11-28 08:28:22 GMT 46.391190 21.205021 36,000 298 458 0
2022-11-28 08:28:19 GMT 46.387711 21.214600 36,000 299 459 0
2022-11-28 08:28:15 GMT 46.383682 21.225452 36,000 299 459 0
2022-11-28 08:28:12 GMT 46.380707 21.233356 36,000 299 459 0
2022-11-28 08:28:09 GMT 46.377388 21.242203 36,000 299 459 0
2022-11-28 08:28:05 GMT 46.373199 21.253189 36,000 299 459 0
2022-11-28 08:28:02 GMT 46.371094 21.258745 36,000 299 459 0
2022-11-28 08:27:55 GMT 46.362946 21.280115 36,000 299 460 0
2022-11-28 08:27:52 GMT 46.360199 21.287352 36,000 299 460 0
2022-11-28 08:27:48 GMT 46.356487 21.297134 36,000 299 460 0
2022-11-28 08:27:42 GMT 46.349831 21.314507 36,000 299 460 0
2022-11-28 08:27:38 GMT 46.344818 21.327679 36,000 299 461 -64
2022-11-28 08:27:33 GMT 46.340099 21.340050 36,000 299 461 0
2022-11-28 08:27:24 GMT 46.331348 21.362915 36,000 299 461 0
2022-11-28 08:27:20 GMT 46.327206 21.373764 36,000 299 460 0
2022-11-28 08:27:17 GMT 46.323761 21.382811 36,000 299 460 0
2022-11-28 08:27:14 GMT 46.320965 21.390175 36,000 299 460 0
2022-11-28 08:27:11 GMT 46.318825 21.395805 36,000 299 460 0
2022-11-28 08:27:04 GMT 46.310398 21.417915 36,000 299 462 0
2022-11-28 08:27:01 GMT 46.308071 21.424026 36,000 299 462 0
2022-11-28 08:26:57 GMT 46.303837 21.435013 36,000 299 462 0
2022-11-28 08:26:54 GMT 46.299458 21.446480 36,000 299 462 0
2022-11-28 08:26:51 GMT 46.297989 21.450403 36,000 299 462 0
2022-11-28 08:26:48 GMT 46.290436 21.470098 36,000 299 462 0
2022-11-28 08:26:45 GMT 46.290436 21.470098 36,000 300 463 0
2022-11-28 08:26:42 GMT 46.287506 21.477669 36,000 300 463 0
2022-11-28 08:26:33 GMT 46.278698 21.500587 36,000 300 463 0
2022-11-28 08:26:30 GMT 46.276367 21.506699 36,000 300 463 0
2022-11-28 08:26:23 GMT 46.268280 21.527576 36,000 300 463 0
2022-11-28 08:26:20 GMT 46.265900 21.533806 36,000 300 463 0
2022-11-28 08:26:11 GMT 46.255749 21.560188 36,000 300 462 0
2022-11-28 08:26:03 GMT 46.246902 21.583054 36,000 300 462 -64
2022-11-28 08:26:00 GMT 46.245300 21.587196 36,000 300 461 64
2022-11-28 08:25:53 GMT 46.237061 21.608500 36,000 299 462 0
2022-11-28 08:25:50 GMT 46.234406 21.615534 36,000 299 462 0
2022-11-28 08:25:42 GMT 46.225441 21.638878 36,000 300 461 0
2022-11-28 08:25:39 GMT 46.222836 21.645607 36,000 300 462 0
2022-11-28 08:25:33 GMT 46.216873 21.661020 36,000 300 462 0
2022-11-28 08:25:31 GMT 46.214218 21.667988 36,000 300 462 0
2022-11-28 08:25:28 GMT 46.211929 21.673882 36,000 300 462 0
2022-11-28 08:25:24 GMT 46.206940 21.686745 36,000 300 462 0
2022-11-28 08:25:22 GMT 46.204819 21.692299 36,000 300 463 0
2022-11-28 08:25:19 GMT 46.202026 21.699509 36,000 300 462 0
2022-11-28 08:25:13 GMT 46.192795 21.723320 36,000 300 463 0
2022-11-28 08:25:11 GMT 46.192795 21.723320 36,000 300 463 0
2022-11-28 08:25:08 GMT 46.191101 21.727674 36,000 300 463 0
2022-11-28 08:25:04 GMT 46.185928 21.741072 36,000 300 463 0
2022-11-28 08:25:02 GMT 46.184849 21.743866 36,000 300 463 0
2022-11-28 08:24:59 GMT 46.181305 21.753063 36,000 300 463 0
2022-11-28 08:24:52 GMT 46.173431 21.773361 36,000 300 463 0
2022-11-28 08:24:49 GMT 46.170593 21.780729 36,000 300 465 0
2022-11-28 08:24:42 GMT 46.164139 21.797277 36,000 300 465 0
2022-11-28 08:24:39 GMT 46.159378 21.809536 36,000 300 465 0
2022-11-28 08:24:31 GMT 46.151890 21.828804 36,000 300 465 0
2022-11-28 08:24:28 GMT 46.149033 21.836199 36,000 300 465 0
2022-11-28 08:24:21 GMT 46.141273 21.856133 36,000 300 465 0
2022-11-28 08:24:18 GMT 46.138157 21.864098 36,000 300 466 0
2022-11-28 08:24:13 GMT 46.133011 21.877398 36,000 300 466 0
2022-11-28 08:24:08 GMT 46.126842 21.893280 36,000 300 466 0
2022-11-28 08:24:02 GMT 46.121201 21.907743 36,000 300 466 0
2022-11-28 08:24:00 GMT 46.119068 21.913330 36,000 300 465 0
2022-11-28 08:23:57 GMT 46.116184 21.920746 36,000 300 466 0
2022-11-28 08:23:53 GMT 46.112045 21.931257 36,000 300 465 0
2022-11-28 08:23:50 GMT 46.108315 21.940865 36,000 300 465 0
2022-11-28 08:23:47 GMT 46.105362 21.948540 36,000 300 466 0
2022-11-28 08:23:40 GMT 46.097889 21.967644 36,000 300 465 0
2022-11-28 08:23:36 GMT 46.094490 21.976364 36,000 300 465 0
2022-11-28 08:23:32 GMT 46.089508 21.989067 36,000 300 465 0
2022-11-28 08:23:29 GMT 46.086903 21.995659 36,000 300 463 0
2022-11-28 08:23:26 GMT 46.083782 22.003693 36,000 300 464 0
2022-11-28 08:23:20 GMT 46.075821 22.023949 36,000 300 463 0
2022-11-28 08:23:15 GMT 46.072609 22.032188 36,000 300 463 0
2022-11-28 08:23:12 GMT 46.068924 22.041590 36,000 300 463 0
2022-11-28 08:23:09 GMT 46.065582 22.050041 36,000 300 462 0
2022-11-28 08:23:05 GMT 46.061829 22.059608 36,000 300 463 0
2022-11-28 08:23:01 GMT 46.057621 22.070297 36,000 300 463 0
2022-11-28 08:22:59 GMT 46.055386 22.075928 36,000 300 463 0
2022-11-28 08:22:56 GMT 46.050732 22.087738 36,000 300 463 0
2022-11-28 08:22:52 GMT 46.047100 22.096939 36,000 300 463 0
2022-11-28 08:22:47 GMT 46.041512 22.111153 36,000 300 464 0
2022-11-28 08:22:43 GMT 46.037704 22.120905 36,000 300 465 0
2022-11-28 08:22:39 GMT 46.034111 22.130104 36,000 300 465 0
2022-11-28 08:22:36 GMT 46.030884 22.138390 36,000 300 466 0
2022-11-28 08:22:33 GMT 46.027222 22.147835 36,000 300 465 0
2022-11-28 08:22:29 GMT 46.023468 22.157347 36,000 300 466 0
2022-11-28 08:22:25 GMT 46.018295 22.170610 36,000 300 466 0
2022-11-28 08:22:21 GMT 46.015724 22.177139 36,000 300 465 0
2022-11-28 08:22:18 GMT 46.012512 22.185242 36,000 300 466 0
2022-11-28 08:22:12 GMT 46.005066 22.204039 36,000 300 466 0
2022-11-28 08:22:06 GMT 45.999023 22.219379 36,000 300 466 0
2022-11-28 08:22:02 GMT 45.994492 22.230902 36,000 300 467 0
2022-11-28 08:21:58 GMT 45.990921 22.240013 36,000 300 467 0
2022-11-28 08:21:54 GMT 45.985016 22.255085 36,000 300 467 0
2022-11-28 08:21:51 GMT 45.983418 22.259125 36,000 300 467 0
2022-11-28 08:21:49 GMT 45.980389 22.266747 36,000 300 466 0
2022-11-28 08:21:44 GMT 45.975998 22.277996 36,000 300 467 0
2022-11-28 08:21:41 GMT 45.972988 22.285561 36,000 300 467 0
2022-11-28 08:21:38 GMT 45.969685 22.293938 36,000 300 467 0
2022-11-28 08:21:32 GMT 45.963074 22.310692 36,000 300 467 0
2022-11-28 08:21:28 GMT 45.958466 22.322296 36,000 300 467 -64
2022-11-28 08:21:24 GMT 45.954758 22.331656 36,000 300 467 0
2022-11-28 08:21:21 GMT 45.951462 22.340029 36,000 300 467 0
2022-11-28 08:21:17 GMT 45.944412 22.357780 36,000 300 467 0
2022-11-28 08:21:14 GMT 45.944412 22.357780 36,000 300 466 0
2022-11-28 08:21:11 GMT 45.941238 22.365761 36,000 300 466 0
2022-11-28 08:21:05 GMT 45.933517 22.385180 36,000 300 465 0
2022-11-28 08:21:02 GMT 45.930393 22.393158 36,000 300 466 0
2022-11-28 08:20:56 GMT 45.925186 22.406281 36,000 300 466 0
2022-11-28 08:20:52 GMT 45.918915 22.421957 36,000 300 465 0
2022-11-28 08:20:47 GMT 45.914425 22.433258 36,000 300 465 0
2022-11-28 08:20:41 GMT 45.908936 22.446943 36,000 300 465 0
2022-11-28 08:20:39 GMT 45.907150 22.451500 36,000 300 465 0
2022-11-28 08:20:36 GMT 45.903671 22.460243 36,000 300 465 0
2022-11-28 08:20:33 GMT 45.900513 22.468246 36,000 300 465 0
2022-11-28 08:20:30 GMT 45.896667 22.477825 36,000 300 464 0
2022-11-28 08:20:27 GMT 45.892918 22.487160 36,000 300 465 0
2022-11-28 08:20:24 GMT 45.889938 22.494644 36,000 300 464 0
2022-11-28 08:20:21 GMT 45.881886 22.514832 36,000 300 464 0
2022-11-28 08:20:16 GMT 45.881886 22.514832 36,000 300 464 0
2022-11-28 08:20:13 GMT 45.879135 22.521839 36,000 300 464 0
2022-11-28 08:20:10 GMT 45.874577 22.533234 36,000 300 464 0
2022-11-28 08:20:06 GMT 45.871456 22.541061 36,000 300 464 0
2022-11-28 08:20:02 GMT 45.866638 22.553190 36,000 300 465 0
2022-11-28 08:19:58 GMT 45.863125 22.562004 36,000 300 465 0
2022-11-28 08:19:52 GMT 45.856327 22.579102 36,000 300 466 0
2022-11-28 08:19:49 GMT 45.853683 22.585747 36,000 300 466 0
2022-11-28 08:19:46 GMT 45.849655 22.595795 36,000 300 466 0
2022-11-28 08:19:40 GMT 45.843014 22.612404 36,000 300 466 0
2022-11-28 08:19:35 GMT 45.838577 22.623596 36,000 300 466 0
2022-11-28 08:19:31 GMT 45.833725 22.635654 36,000 300 466 0
2022-11-28 08:19:29 GMT 45.831848 22.640411 36,000 300 466 0
2022-11-28 08:19:25 GMT 45.827362 22.651665 36,000 300 465 0
2022-11-28 08:19:21 GMT 45.823231 22.661980 36,000 300 466 0
2022-11-28 08:19:18 GMT 45.820808 22.668022 36,000 300 466 0
2022-11-28 08:19:15 GMT 45.816666 22.678322 36,000 300 465 0
2022-11-28 08:19:12 GMT 45.813446 22.686298 36,000 300 466 0
2022-11-28 08:19:09 GMT 45.809498 22.696243 36,000 300 466 0
2022-11-28 08:19:02 GMT 45.802505 22.713631 36,000 300 466 0
2022-11-28 08:18:58 GMT 45.798416 22.723846 36,000 300 465 0
2022-11-28 08:18:54 GMT 45.795113 22.732086 36,000 300 465 0
2022-11-28 08:18:51 GMT 45.791702 22.740494 36,000 300 465 0
2022-11-28 08:18:48 GMT 45.787857 22.750072 36,000 300 465 0
2022-11-28 08:18:44 GMT 45.780853 22.767490 36,000 300 466 0
2022-11-28 08:18:41 GMT 45.780853 22.767490 36,000 300 465 0
2022-11-28 08:18:38 GMT 45.776489 22.778366 36,000 300 465 0
2022-11-28 08:18:33 GMT 45.767136 22.801643 36,000 300 465 0
2022-11-28 08:18:29 GMT 45.767136 22.801643 36,000 300 465 0
2022-11-28 08:18:27 GMT 45.765270 22.806313 36,000 300 465 0
2022-11-28 08:18:21 GMT 45.758698 22.822556 36,000 300 465 0
2022-11-28 08:18:17 GMT 45.754532 22.833006 36,000 300 465 0
2022-11-28 08:18:14 GMT 45.751740 22.839907 36,000 300 465 0
2022-11-28 08:18:10 GMT 45.747723 22.849915 36,000 300 465 0
2022-11-28 08:18:07 GMT 45.743301 22.860832 36,000 300 465 0
2022-11-28 08:18:04 GMT 45.740601 22.867630 36,000 300 465 0
2022-11-28 08:18:01 GMT 45.736954 22.876684 36,000 300 465 0
2022-11-28 08:17:56 GMT 45.732265 22.888229 36,000 300 466 0
2022-11-28 08:17:53 GMT 45.729309 22.895641 36,000 300 466 0
2022-11-28 08:17:50 GMT 45.725376 22.905258 36,000 300 466 0
2022-11-28 08:17:44 GMT 45.719048 22.921051 36,000 300 466 0
2022-11-28 08:17:40 GMT 45.715073 22.930811 36,000 300 466 0
2022-11-28 08:17:35 GMT 45.709259 22.945280 36,000 300 466 0
2022-11-28 08:17:30 GMT 45.704056 22.958061 36,000 301 466 0
2022-11-28 08:17:24 GMT 45.698273 22.972345 36,000 301 466 0
2022-11-28 08:17:21 GMT 45.694607 22.981407 36,000 301 466 0
2022-11-28 08:17:17 GMT 45.690464 22.991638 36,000 301 466 0
2022-11-28 08:17:15 GMT 45.687836 22.998070 36,000 301 466 0
2022-11-28 08:17:10 GMT 45.681385 23.013954 36,000 301 467 0
2022-11-28 08:17:06 GMT 45.678173 23.021851 36,000 301 467 0
2022-11-28 08:17:04 GMT 45.676529 23.025803 36,000 301 468 0
2022-11-28 08:17:01 GMT 45.672913 23.034828 36,000 301 468 0
2022-11-28 08:16:59 GMT 45.670761 23.040071 36,000 301 467 0
2022-11-28 08:16:55 GMT 45.665726 23.052532 36,000 300 468 0
2022-11-28 08:16:50 GMT 45.660950 23.064285 36,000 300 468 0
2022-11-28 08:16:46 GMT 45.656620 23.074997 36,000 301 469 0
2022-11-28 08:16:44 GMT 45.654053 23.081270 36,000 301 469 0
2022-11-28 08:16:39 GMT 45.648750 23.094360 36,000 301 469 0
2022-11-28 08:16:37 GMT 45.647167 23.098274 36,000 301 469 0
2022-11-28 08:16:33 GMT 45.642883 23.108736 36,000 301 468 0
2022-11-28 08:16:30 GMT 45.639130 23.117981 36,000 301 469 0
2022-11-28 08:16:26 GMT 45.635330 23.127293 36,000 301 469 0
2022-11-28 08:16:23 GMT 45.630936 23.138079 36,000 301 469 0
2022-11-28 08:16:20 GMT 45.628735 23.143387 36,000 301 469 0
2022-11-28 08:16:17 GMT 45.623657 23.155897 36,000 301 469 0
2022-11-28 08:16:11 GMT 45.618122 23.169479 36,000 301 469 0
2022-11-28 08:16:08 GMT 45.615051 23.176998 36,000 301 469 0
2022-11-28 08:16:03 GMT 45.609604 23.190353 36,000 301 469 0
2022-11-28 08:16:00 GMT 45.606201 23.198730 36,000 301 469 0
2022-11-28 08:15:56 GMT 45.596054 23.223423 36,000 301 469 0
2022-11-28 08:15:51 GMT 45.596054 23.223423 36,000 301 469 0
2022-11-28 08:15:48 GMT 45.593170 23.230524 36,000 301 469 0
2022-11-28 08:15:45 GMT 45.590790 23.236420 36,000 301 470 0
2022-11-28 08:15:40 GMT 45.584702 23.251291 36,000 301 470 0
2022-11-28 08:15:36 GMT 45.580040 23.262726 36,000 301 470 0
2022-11-28 08:15:31 GMT 45.574356 23.276613 36,000 301 470 0
2022-11-28 08:15:25 GMT 45.568771 23.290279 36,000 301 470 0
2022-11-28 08:15:21 GMT 45.563095 23.304062 36,000 301 470 0
2022-11-28 08:15:14 GMT 45.556961 23.319017 36,000 301 470 0
2022-11-28 08:15:11 GMT 45.552155 23.330704 36,000 301 470 0
2022-11-28 08:15:05 GMT 45.546158 23.345360 36,000 301 471 0
2022-11-28 08:14:59 GMT 45.540470 23.359144 36,000 301 471 0
2022-11-28 08:14:54 GMT 45.534607 23.373480 36,000 301 471 0
2022-11-28 08:14:50 GMT 45.530182 23.384203 36,000 301 471 0
2022-11-28 08:14:44 GMT 45.523853 23.399540 36,000 301 472 0
2022-11-28 08:14:40 GMT 45.518826 23.411798 36,000 301 472 0
2022-11-28 08:14:34 GMT 45.512913 23.426134 36,000 301 473 0
2022-11-28 08:14:29 GMT 45.506149 23.442665 36,000 301 472 0
2022-11-28 08:14:24 GMT 45.501526 23.453915 36,000 301 475 0
2022-11-28 08:14:20 GMT 45.496262 23.466730 36,000 301 475 0
2022-11-28 08:14:13 GMT 45.489311 23.483543 36,000 301 476 0
2022-11-28 08:14:10 GMT 45.484497 23.495243 36,000 301 476 0
2022-11-28 08:14:04 GMT 45.478603 23.509537 36,000 301 476 0
2022-11-28 08:13:58 GMT 45.472961 23.523167 36,000 301 476 0
2022-11-28 08:13:53 GMT 45.467148 23.537163 36,000 301 476 0
2022-11-28 08:13:49 GMT 45.462524 23.548410 36,000 301 476 0
2022-11-28 08:13:45 GMT 45.456490 23.562927 36,000 301 476 0
2022-11-28 08:13:41 GMT 45.452812 23.571836 36,000 301 476 0
2022-11-28 08:13:39 GMT 45.451370 23.575319 36,000 301 476 0
2022-11-28 08:13:34 GMT 45.444618 23.591599 36,000 301 476 0
2022-11-28 08:13:29 GMT 45.440105 23.602585 36,000 301 476 0
2022-11-28 08:13:23 GMT 45.433495 23.618528 36,000 301 476 0
2022-11-28 08:13:19 GMT 45.428886 23.629648 36,000 301 476 0
2022-11-28 08:13:13 GMT 45.422104 23.645912 36,000 301 476 0
2022-11-28 08:13:10 GMT 45.415993 23.660666 36,000 301 476 0
2022-11-28 08:13:07 GMT 45.415993 23.660666 36,000 301 476 0
2022-11-28 08:13:03 GMT 45.410614 23.673574 36,000 301 477 0
2022-11-28 08:12:58 GMT 45.405533 23.685804 36,000 301 477 0
2022-11-28 08:12:52 GMT 45.399033 23.701500 36,000 301 478 0
2022-11-28 08:12:49 GMT 45.394951 23.711309 36,000 301 478 0
2022-11-28 08:12:43 GMT 45.387726 23.728638 36,000 301 478 0
2022-11-28 08:12:39 GMT 45.384247 23.737007 36,000 301 478 0
2022-11-28 08:12:33 GMT 45.376141 23.756529 36,000 301 478 0
2022-11-28 08:12:29 GMT 45.369625 23.772137 36,000 301 478 0
2022-11-28 08:12:24 GMT 45.365528 23.781984 36,000 301 478 0
2022-11-28 08:12:20 GMT 45.362228 23.789913 36,000 301 478 0
2022-11-28 08:12:12 GMT 45.353073 23.811819 36,000 301 478 0
2022-11-28 08:12:07 GMT 45.348255 23.823383 36,000 301 477 0
2022-11-28 08:12:03 GMT 45.342857 23.836246 36,000 301 477 0
2022-11-28 08:11:59 GMT 45.337738 23.848507 36,000 301 477 0
2022-11-28 08:11:52 GMT 45.330475 23.865854 36,000 301 477 0
2022-11-28 08:11:48 GMT 45.326424 23.875502 36,000 301 477 0
2022-11-28 08:11:41 GMT 45.314785 23.903301 36,000 301 477 0
2022-11-28 08:11:38 GMT 45.314785 23.903301 36,000 301 477 0
2022-11-28 08:11:31 GMT 45.307709 23.920116 36,000 301 477 0
2022-11-28 08:11:28 GMT 45.303242 23.930700 36,000 301 477 0
2022-11-28 08:11:19 GMT 45.293373 23.954147 36,000 301 477 0
2022-11-28 08:11:17 GMT 45.291183 23.959373 36,000 301 477 0
2022-11-28 08:11:10 GMT 45.282478 23.980207 36,000 301 477 0
2022-11-28 08:11:06 GMT 45.279408 23.987509 36,000 301 477 0
2022-11-28 08:11:00 GMT 45.272099 24.004860 36,000 301 477 0
2022-11-28 08:10:57 GMT 45.268047 24.014505 36,000 301 476 0
2022-11-28 08:10:48 GMT 45.258911 24.036386 36,000 301 477 0
2022-11-28 08:10:46 GMT 45.256596 24.041904 36,000 301 477 0
2022-11-28 08:10:39 GMT 45.247936 24.062469 36,000 301 477 0
2022-11-28 08:10:36 GMT 45.244724 24.070173 36,000 301 477 0
2022-11-28 08:10:29 GMT 45.236481 24.089813 36,000 301 478 0
2022-11-28 08:10:26 GMT 45.233047 24.097921 36,000 301 478 0
2022-11-28 08:10:18 GMT 45.225128 24.116665 36,000 301 477 0
2022-11-28 08:10:15 GMT 45.221401 24.125574 36,000 301 477 0
2022-11-28 08:10:10 GMT 45.215771 24.138906 36,000 301 477 0
2022-11-28 08:10:07 GMT 45.212463 24.146675 36,000 301 477 0
2022-11-28 08:10:05 GMT 45.209747 24.153181 36,000 301 477 0
2022-11-28 08:09:58 GMT 45.202515 24.170250 36,000 301 477 0
2022-11-28 08:09:55 GMT 45.197941 24.181042 36,000 301 477 0
2022-11-28 08:09:50 GMT 45.192867 24.193033 36,000 301 478 0
2022-11-28 08:09:47 GMT 45.189934 24.200001 36,000 301 478 0
2022-11-28 08:09:44 GMT 45.186722 24.207569 36,000 301 478 0
2022-11-28 08:09:38 GMT 45.177933 24.228254 36,000 301 478 0
2022-11-28 08:09:32 GMT 45.173363 24.239056 36,000 301 478 64
2022-11-28 08:09:27 GMT 45.166145 24.256071 36,000 301 478 0
2022-11-28 08:09:23 GMT 45.163055 24.263306 36,000 301 478 0
2022-11-28 08:09:17 GMT 45.156189 24.279589 36,000 302 479 0
2022-11-28 08:09:14 GMT 45.151382 24.290836 36,000 302 479 0
2022-11-28 08:09:09 GMT 45.144032 24.308123 36,000 302 480 0
2022-11-28 08:09:06 GMT 45.144032 24.308123 36,000 302 480 0
2022-11-28 08:09:03 GMT 45.139481 24.318827 36,000 302 480 0
2022-11-28 08:08:59 GMT 45.134026 24.331701 36,000 301 481 0
2022-11-28 08:08:56 GMT 45.132294 24.335764 36,000 301 481 0
2022-11-28 08:08:53 GMT 45.127899 24.346094 36,000 301 481 0
2022-11-28 08:08:48 GMT 45.119125 24.366737 36,000 302 483 0
2022-11-28 08:08:43 GMT 45.115635 24.374977 36,000 302 483 0
2022-11-28 08:08:37 GMT 45.109772 24.388733 36,000 302 483 0
2022-11-28 08:08:32 GMT 45.104324 24.401506 36,000 302 483 0
2022-11-28 08:08:27 GMT 45.098785 24.414434 36,000 302 483 0
2022-11-28 08:08:25 GMT 45.095291 24.422674 36,000 302 483 0
2022-11-28 08:08:22 GMT 45.092312 24.429642 36,000 302 483 0
2022-11-28 08:08:16 GMT 45.086060 24.444384 36,000 302 483 0
2022-11-28 08:08:12 GMT 45.080582 24.457174 36,000 302 483 0
2022-11-28 08:08:07 GMT 45.075165 24.469889 36,000 302 483 0
2022-11-28 08:08:04 GMT 45.071644 24.478075 36,000 301 483 0
2022-11-28 08:08:01 GMT 45.068756 24.484907 36,000 301 483 0
2022-11-28 08:07:58 GMT 45.064499 24.494869 36,000 301 483 0
2022-11-28 08:07:56 GMT 45.062752 24.498976 36,000 302 484 0
2022-11-28 08:07:54 GMT 45.059509 24.506575 36,000 302 485 0
2022-11-28 08:07:51 GMT 45.056702 24.513245 36,000 302 484 0
2022-11-28 08:07:48 GMT 45.052826 24.522268 36,000 302 485 0
2022-11-28 08:07:46 GMT 45.051086 24.526323 36,000 302 485 0
2022-11-28 08:07:43 GMT 45.047516 24.534630 36,000 302 485 0
2022-11-28 08:07:40 GMT 45.044678 24.541300 36,000 302 485 0
2022-11-28 08:07:37 GMT 45.040035 24.552032 36,000 302 485 0
2022-11-28 08:07:33 GMT 45.035934 24.561638 36,000 302 485 0
2022-11-28 08:07:30 GMT 45.032227 24.570204 36,000 302 485 0
2022-11-28 08:07:27 GMT 45.028519 24.578770 36,000 302 485 0
2022-11-28 08:07:23 GMT 45.023834 24.589746 36,000 302 485 0
2022-11-28 08:07:18 GMT 45.018063 24.603079 36,000 302 484 0
2022-11-28 08:07:16 GMT 45.016853 24.605892 36,000 302 484 0
2022-11-28 08:07:12 GMT 45.011452 24.618420 36,000 302 484 0
2022-11-28 08:07:09 GMT 45.008705 24.624849 36,000 302 484 0
2022-11-28 08:07:06 GMT 45.004898 24.633701 36,000 302 484 0
2022-11-28 08:07:00 GMT 44.996696 24.652784 36,000 302 484 0
2022-11-28 08:06:56 GMT 44.993298 24.660688 36,000 302 484 0
2022-11-28 08:06:52 GMT 44.987503 24.674116 36,000 302 484 0
2022-11-28 08:06:49 GMT 44.984756 24.680458 36,000 302 484 0
2022-11-28 08:06:45 GMT 44.980213 24.691036 36,000 302 484 0
2022-11-28 08:06:41 GMT 44.975979 24.700884 36,000 302 483 0
2022-11-28 08:06:37 GMT 44.970577 24.713343 36,000 302 483 0
2022-11-28 08:06:34 GMT 44.967133 24.721249 36,000 302 483 0
2022-11-28 08:06:29 GMT 44.960907 24.735783 36,000 302 483 0
2022-11-28 08:06:26 GMT 44.958572 24.741211 36,000 302 483 0
2022-11-28 08:06:24 GMT 44.955124 24.749184 36,000 302 482 0
2022-11-28 08:06:20 GMT 44.951843 24.756775 36,000 302 482 0
2022-11-28 08:06:17 GMT 44.948273 24.765079 36,000 302 483 0
2022-11-28 08:06:15 GMT 44.945534 24.771423 36,000 302 482 0
2022-11-28 08:06:10 GMT 44.939621 24.785156 36,000 302 482 0
2022-11-28 08:06:07 GMT 44.936966 24.791304 36,000 302 482 0
2022-11-28 08:06:04 GMT 44.933487 24.799282 36,000 302 482 0
2022-11-28 08:06:02 GMT 44.930309 24.806660 36,000 302 482 0
2022-11-28 08:05:58 GMT 44.921841 24.826221 36,000 302 481 0
2022-11-28 08:05:54 GMT 44.921841 24.826221 36,000 302 481 0
2022-11-28 08:05:52 GMT 44.918427 24.834072 36,000 302 481 0
2022-11-28 08:05:49 GMT 44.916019 24.839619 36,000 302 481 0
2022-11-28 08:05:45 GMT 44.910599 24.852121 36,000 302 481 0
2022-11-28 08:05:40 GMT 44.903870 24.867620 36,000 302 482 0
2022-11-28 08:05:35 GMT 44.898190 24.880751 36,000 302 482 0
2022-11-28 08:05:32 GMT 44.895489 24.887049 36,000 302 482 0
2022-11-28 08:05:29 GMT 44.892185 24.894686 36,000 302 482 0
2022-11-28 08:05:25 GMT 44.887066 24.906475 36,000 302 481 -64
2022-11-28 08:05:21 GMT 44.882996 24.915815 36,000 302 481 0
2022-11-28 08:05:17 GMT 44.878174 24.926973 36,000 302 480 0
2022-11-28 08:05:15 GMT 44.875626 24.932882 36,000 302 480 64
2022-11-28 08:05:12 GMT 44.872868 24.939165 36,000 302 480 64
2022-11-28 08:05:09 GMT 44.867981 24.950344 36,000 302 480 0
2022-11-28 08:05:05 GMT 44.863861 24.959890 36,000 302 480 0
2022-11-28 08:05:00 GMT 44.859283 24.970354 36,000 302 480 0
2022-11-28 08:04:56 GMT 44.854477 24.981405 36,000 302 480 0
2022-11-28 08:04:54 GMT 44.852196 24.986595 36,000 302 480 0
2022-11-28 08:04:50 GMT 44.847519 24.997362 36,000 302 480 0
2022-11-28 08:04:47 GMT 44.843033 25.007694 36,000 302 480 0
2022-11-28 08:04:44 GMT 44.840515 25.013451 36,000 302 480 0
2022-11-28 08:04:41 GMT 44.835716 25.024445 36,000 302 480 0
2022-11-28 08:04:36 GMT 44.830811 25.035749 36,000 302 479 0
2022-11-28 08:04:33 GMT 44.827103 25.044315 36,000 302 479 0
2022-11-28 08:04:30 GMT 44.823708 25.052111 36,000 302 479 0
2022-11-28 08:04:23 GMT 44.815655 25.070601 36,000 302 478 0
2022-11-28 08:04:20 GMT 44.812302 25.078238 36,000 302 478 0
2022-11-28 08:04:16 GMT 44.807877 25.088392 36,000 302 477 0
2022-11-28 08:04:13 GMT 44.803482 25.098463 36,000 302 477 0
2022-11-28 08:04:10 GMT 44.800617 25.104965 36,000 302 477 0
2022-11-28 08:04:07 GMT 44.796474 25.114410 36,000 302 477 0
2022-11-28 08:04:01 GMT 44.790237 25.128748 36,000 302 477 0
2022-11-28 08:03:57 GMT 44.784897 25.140903 36,000 302 477 0
2022-11-28 08:03:54 GMT 44.782043 25.147505 36,000 302 477 0
2022-11-28 08:03:51 GMT 44.778366 25.155945 36,000 302 477 0
2022-11-28 08:03:47 GMT 44.773590 25.166800 36,000 302 477 0
2022-11-28 08:03:43 GMT 44.769985 25.175037 36,000 302 477 0
2022-11-28 08:03:40 GMT 44.765514 25.185286 36,000 302 477 0
2022-11-28 08:03:37 GMT 44.762146 25.192892 36,000 302 477 0
2022-11-28 08:03:35 GMT 44.761002 25.195509 36,000 302 477 0
2022-11-28 08:03:32 GMT 44.758072 25.202244 36,000 302 477 0
2022-11-28 08:03:29 GMT 44.753677 25.212250 36,000 302 478 0
2022-11-28 08:03:26 GMT 44.748871 25.223301 36,000 302 478 0
2022-11-28 08:03:22 GMT 44.745220 25.231577 36,000 302 479 0
2022-11-28 08:03:19 GMT 44.741589 25.239950 36,000 302 479 0
2022-11-28 08:03:15 GMT 44.736935 25.250534 36,000 302 479 0
2022-11-28 08:03:12 GMT 44.732044 25.261587 36,000 302 479 0
2022-11-28 08:03:09 GMT 44.729782 25.266788 36,000 302 479 0
2022-11-28 08:03:04 GMT 44.725021 25.277514 36,000 302 479 0
2022-11-28 08:03:02 GMT 44.721573 25.285437 36,000 302 479 0
2022-11-28 08:02:58 GMT 44.717972 25.293535 36,000 302 479 0
2022-11-28 08:02:55 GMT 44.712799 25.305307 36,000 302 479 0
2022-11-28 08:02:52 GMT 44.709980 25.311628 36,000 302 479 0
2022-11-28 08:02:49 GMT 44.706444 25.319668 36,000 302 480 0
2022-11-28 08:02:43 GMT 44.699551 25.335278 36,000 302 480 0
2022-11-28 08:02:40 GMT 44.695724 25.343954 36,000 302 480 0
2022-11-28 08:02:36 GMT 44.692017 25.352390 36,000 302 480 0
2022-11-28 08:02:31 GMT 44.686798 25.364216 36,000 302 480 0
2022-11-28 08:02:29 GMT 44.684189 25.370111 36,000 302 480 0
2022-11-28 08:02:26 GMT 44.680325 25.378887 36,000 302 480 0
2022-11-28 08:02:22 GMT 44.675262 25.390320 36,000 302 481 0
2022-11-28 08:02:18 GMT 44.670456 25.401373 36,000 302 481 0
2022-11-28 08:02:15 GMT 44.667618 25.407761 36,000 302 481 0
2022-11-28 08:02:12 GMT 44.663361 25.417393 36,000 302 481 0
2022-11-28 08:02:09 GMT 44.656128 25.433872 36,000 302 481 0
2022-11-28 08:02:05 GMT 44.656128 25.433872 36,000 302 481 0
2022-11-28 08:02:01 GMT 44.651413 25.444468 36,000 302 482 0
2022-11-28 08:01:58 GMT 44.646950 25.454653 36,000 302 482 0
2022-11-28 08:01:55 GMT 44.644409 25.460358 36,000 302 482 0
2022-11-28 08:01:52 GMT 44.639732 25.470930 36,000 302 482 0
2022-11-28 08:01:49 GMT 44.636520 25.478233 36,000 302 482 0
2022-11-28 08:01:46 GMT 44.633030 25.486071 36,000 302 482 0
2022-11-28 08:01:39 GMT 44.624557 25.505297 36,000 302 482 0
2022-11-28 08:01:35 GMT 44.620087 25.515411 36,000 302 482 0
2022-11-28 08:01:31 GMT 44.615570 25.525621 36,000 302 482 0
2022-11-28 08:01:29 GMT 44.612873 25.531624 36,000 302 483 0
2022-11-28 08:01:25 GMT 44.608635 25.541269 36,000 302 483 0
2022-11-28 08:01:21 GMT 44.603439 25.552826 36,000 302 484 0
2022-11-28 08:01:19 GMT 44.600628 25.559156 36,000 302 484 0
2022-11-28 08:01:15 GMT 44.596710 25.567999 36,000 302 484 0
2022-11-28 08:01:10 GMT 44.591080 25.580814 36,000 302 485 0
2022-11-28 08:01:08 GMT 44.588699 25.586111 36,000 302 485 0
2022-11-28 08:01:05 GMT 44.585125 25.594193 36,000 302 485 0
2022-11-28 08:00:59 GMT 44.577957 25.610270 36,000 303 484 0
2022-11-28 08:00:56 GMT 44.573769 25.619648 36,000 303 484 0
2022-11-28 08:00:54 GMT 44.572083 25.623451 36,000 302 485 0
2022-11-28 08:00:50 GMT 44.566181 25.636663 36,000 302 485 0
2022-11-28 08:00:46 GMT 44.561554 25.646994 36,000 302 485 0
2022-11-28 08:00:40 GMT 44.555382 25.660913 36,000 302 485 0
2022-11-28 08:00:38 GMT 44.552399 25.667545 36,000 302 485 0
2022-11-28 08:00:34 GMT 44.548462 25.676489 36,000 302 485 0
2022-11-28 08:00:29 GMT 44.541878 25.691193 36,000 302 485 0
2022-11-28 08:00:25 GMT 44.536526 25.703253 36,000 302 485 0
2022-11-28 08:00:19 GMT 44.529877 25.718079 36,000 303 486 0
2022-11-28 08:00:16 GMT 44.526237 25.726229 36,000 303 486 0
2022-11-28 08:00:14 GMT 44.524933 25.729177 36,000 303 486 0
2022-11-28 08:00:09 GMT 44.517334 25.746199 36,000 303 486 0
2022-11-28 08:00:06 GMT 44.513992 25.753653 36,000 303 486 0
2022-11-28 08:00:00 GMT 44.507263 25.768629 36,000 303 486 0
2022-11-28 07:59:55 GMT 44.501751 25.780827 36,000 303 486 0
2022-11-28 07:59:53 GMT 44.499889 25.784979 36,000 303 486 0
2022-11-28 07:59:48 GMT 44.492889 25.800608 36,000 303 486 0
2022-11-28 07:59:45 GMT 44.489601 25.807957 36,000 303 486 0
2022-11-28 07:59:41 GMT 44.484329 25.819637 36,000 303 486 0
2022-11-28 07:59:38 GMT 44.482014 25.824839 36,000 303 485 0
2022-11-28 07:59:36 GMT 44.478943 25.831738 36,000 303 485 0
2022-11-28 07:59:33 GMT 44.475998 25.838209 36,000 303 486 0
2022-11-28 07:59:28 GMT 44.469040 25.853706 36,000 303 486 0
2022-11-28 07:59:24 GMT 44.463135 25.866917 36,000 303 486 0
2022-11-28 07:59:18 GMT 44.457294 25.879971 36,000 303 486 0
2022-11-28 07:59:15 GMT 44.451233 25.893534 36,000 303 486 0
2022-11-28 07:59:13 GMT 44.451233 25.893534 36,000 303 486 0
2022-11-28 07:59:09 GMT 44.447052 25.902815 36,000 303 486 0
2022-11-28 07:59:05 GMT 44.441189 25.915876 36,000 303 487 0
2022-11-28 07:59:02 GMT 44.438278 25.922373 36,000 303 487 0
2022-11-28 07:58:59 GMT 44.434799 25.930023 36,000 303 487 0
2022-11-28 07:58:55 GMT 44.429077 25.942776 36,000 303 488 0
2022-11-28 07:58:53 GMT 44.426056 25.949511 36,000 303 488 0
2022-11-28 07:58:49 GMT 44.422287 25.957880 36,000 303 488 0
2022-11-28 07:58:45 GMT 44.417305 25.968866 36,000 303 488 0
2022-11-28 07:58:41 GMT 44.413719 25.976770 36,000 303 488 0
2022-11-28 07:58:38 GMT 44.410172 25.984694 36,000 303 488 0
2022-11-28 07:58:36 GMT 44.406971 25.991777 36,000 303 488 0
2022-11-28 07:58:33 GMT 44.403481 25.999479 36,000 303 488 0
2022-11-28 07:58:31 GMT 44.401749 26.003330 36,000 303 488 0
2022-11-28 07:58:28 GMT 44.398266 26.011070 36,000 303 488 0
2022-11-28 07:58:24 GMT 44.392773 26.023129 36,000 303 488 0
2022-11-28 07:58:22 GMT 44.389652 26.030027 36,000 303 488 0
2022-11-28 07:58:18 GMT 44.385883 26.038403 36,000 303 488 0
2022-11-28 07:58:16 GMT 44.382248 26.046427 36,000 303 488 0
2022-11-28 07:58:13 GMT 44.380325 26.050741 36,000 303 488 0
2022-11-28 07:58:11 GMT 44.376938 26.058262 36,000 303 488 0
2022-11-28 07:58:07 GMT 44.373127 26.066605 36,000 303 488 0
2022-11-28 07:58:04 GMT 44.364716 26.085337 36,000 303 488 0
2022-11-28 07:58:01 GMT 44.364716 26.085337 36,000 303 486 0
2022-11-28 07:57:57 GMT 44.356415 26.103649 36,000 303 486 0
2022-11-28 07:57:54 GMT 44.356415 26.103649 36,000 303 486 0
2022-11-28 07:57:48 GMT 44.349289 26.119473 36,000 303 486 0
2022-11-28 07:57:46 GMT 44.345802 26.127163 36,000 303 486 0
2022-11-28 07:57:43 GMT 44.343987 26.131315 36,000 303 486 0
2022-11-28 07:57:38 GMT 44.337296 26.146088 36,000 303 485 0
2022-11-28 07:57:34 GMT 44.331985 26.157860 36,000 303 486 0
2022-11-28 07:57:28 GMT 44.325302 26.172506 36,000 303 486 0
2022-11-28 07:57:26 GMT 44.322830 26.177999 36,000 303 486 0
2022-11-28 07:57:23 GMT 44.319443 26.185390 36,000 303 486 0
2022-11-28 07:57:16 GMT 44.310516 26.205074 36,000 303 486 0
2022-11-28 07:57:13 GMT 44.307487 26.211771 36,000 303 486 0
2022-11-28 07:57:07 GMT 44.300400 26.227308 36,000 303 486 0
2022-11-28 07:57:03 GMT 44.295479 26.238098 36,000 303 486 0
2022-11-28 07:56:57 GMT 44.287937 26.254578 36,000 303 488 0
2022-11-28 07:56:53 GMT 44.283096 26.265162 36,000 303 488 0
2022-11-28 07:56:47 GMT 44.275787 26.281240 36,000 303 488 0
2022-11-28 07:56:44 GMT 44.272018 26.289497 36,000 303 488 0
2022-11-28 07:56:36 GMT 44.262939 26.309443 36,000 303 488 0
2022-11-28 07:56:33 GMT 44.258423 26.319384 36,000 303 489 0
2022-11-28 07:56:26 GMT 44.250881 26.335903 36,000 303 489 0
2022-11-28 07:56:24 GMT 44.247715 26.342802 36,000 303 489 0
2022-11-28 07:56:22 GMT 44.245949 26.346756 36,000 303 489 0
2022-11-28 07:56:17 GMT 44.239426 26.361107 36,000 303 489 0
2022-11-28 07:56:14 GMT 44.235489 26.369673 36,000 303 489 0
2022-11-28 07:56:12 GMT 44.233658 26.373686 36,000 303 489 0
2022-11-28 07:56:06 GMT 44.227020 26.388115 36,000 303 488 0
2022-11-28 07:56:02 GMT 44.221527 26.400082 36,000 303 488 0
2022-11-28 07:55:56 GMT 44.214294 26.415840 36,000 303 488 0
2022-11-28 07:55:54 GMT 44.210953 26.423164 36,000 303 488 0
2022-11-28 07:55:52 GMT 44.209171 26.427010 36,000 303 488 0
2022-11-28 07:55:46 GMT 44.201908 26.442753 36,000 303 487 64
2022-11-28 07:55:44 GMT 44.196507 26.454542 36,000 303 487 0
2022-11-28 07:55:41 GMT 44.196507 26.454542 36,000 303 487 0
2022-11-28 07:55:36 GMT 44.189804 26.469137 36,000 303 487 0
2022-11-28 07:55:31 GMT 44.183304 26.483311 36,000 303 487 0
2022-11-28 07:55:26 GMT 44.177608 26.495687 36,000 303 487 0
2022-11-28 07:55:24 GMT 44.175095 26.501116 36,000 303 487 0
2022-11-28 07:55:21 GMT 44.172455 26.506945 36,000 303 487 0
2022-11-28 07:55:15 GMT 44.165039 26.523024 36,000 303 487 0
2022-11-28 07:55:13 GMT 44.162476 26.528662 36,000 303 487 0
2022-11-28 07:55:11 GMT 44.159920 26.534140 36,000 303 487 0
2022-11-28 07:55:06 GMT 44.152981 26.549248 36,000 303 486 0
2022-11-28 07:55:03 GMT 44.150234 26.555264 36,000 303 486 0
2022-11-28 07:55:01 GMT 44.147907 26.560299 36,000 303 486 0
2022-11-28 07:54:55 GMT 44.140640 26.576056 36,000 303 485 0
2022-11-28 07:54:52 GMT 44.135990 26.586195 36,000 303 485 0
2022-11-28 07:54:43 GMT 44.126083 26.607609 36,000 303 485 0
2022-11-28 07:54:41 GMT 44.123051 26.614183 36,000 303 485 0
2022-11-28 07:54:35 GMT 44.115967 26.629581 36,000 303 485 0
2022-11-28 07:54:33 GMT 44.113907 26.634052 36,000 303 485 0
2022-11-28 07:54:31 GMT 44.110931 26.640505 36,000 303 485 0
2022-11-28 07:54:23 GMT 44.101311 26.661465 36,000 303 485 0
2022-11-28 07:54:20 GMT 44.097630 26.669441 36,000 303 485 0
2022-11-28 07:54:13 GMT 44.089828 26.686495 36,000 303 485 0
2022-11-28 07:54:11 GMT 44.086533 26.693710 36,000 303 485 0
2022-11-28 07:54:03 GMT 44.077660 26.713060 36,000 303 485 0
2022-11-28 07:54:00 GMT 44.074036 26.721048 36,000 303 485 0
2022-11-28 07:53:55 GMT 44.067856 26.734591 36,000 303 485 0
2022-11-28 07:53:53 GMT 44.065464 26.739807 36,000 303 485 0
2022-11-28 07:53:49 GMT 44.061218 26.749090 36,000 303 485 0
2022-11-28 07:53:45 GMT 44.055359 26.761929 36,000 303 485 0
2022-11-28 07:53:42 GMT 44.053036 26.767012 36,000 303 485 0
2022-11-28 07:53:39 GMT 44.049271 26.775215 36,000 303 485 0
2022-11-28 07:53:33 GMT 44.041260 26.792715 36,000 303 485 0
2022-11-28 07:53:30 GMT 44.037003 26.802042 36,000 303 485 0
2022-11-28 07:53:23 GMT 44.028580 26.820501 36,000 303 485 0
2022-11-28 07:53:19 GMT 44.024776 26.828745 36,000 303 485 0
2022-11-28 07:53:14 GMT 44.018864 26.841627 36,000 303 486 0
2022-11-28 07:53:12 GMT 44.015350 26.849308 36,000 303 485 0
2022-11-28 07:53:09 GMT 44.012466 26.855568 36,000 303 485 0
2022-11-28 07:53:04 GMT 44.006390 26.868700 36,000 303 485 0
2022-11-28 07:53:01 GMT 44.003311 26.875305 36,000 304 485 0
2022-11-28 07:52:58 GMT 44.000107 26.882139 36,000 304 485 0
2022-11-28 07:52:54 GMT 43.994247 26.894531 36,000 304 485 0
2022-11-28 07:52:51 GMT 43.990768 26.901814 36,000 305 486 0
2022-11-28 07:52:48 GMT 43.987152 26.909222 36,000 305 485 0
2022-11-28 07:52:43 GMT 43.979996 26.923828 36,000 305 485 0
2022-11-28 07:52:39 GMT 43.973969 26.936049 36,000 305 485 0
2022-11-28 07:52:33 GMT 43.967285 26.949718 36,000 305 485 0
2022-11-28 07:52:30 GMT 43.964119 26.956200 36,000 305 485 0
2022-11-28 07:52:28 GMT 43.961426 26.961662 36,000 305 485 0
2022-11-28 07:52:22 GMT 43.953278 26.978334 36,000 305 485 0
2022-11-28 07:52:20 GMT 43.951225 26.982487 36,000 305 485 0
2022-11-28 07:52:18 GMT 43.948975 26.987020 36,000 305 485 0
2022-11-28 07:52:13 GMT 43.943127 26.999031 36,000 305 485 0
2022-11-28 07:52:11 GMT 43.936096 27.013353 36,000 305 486 0
2022-11-28 07:52:08 GMT 43.936096 27.013353 36,000 305 486 0
2022-11-28 07:52:03 GMT 43.929703 27.026302 36,000 305 486 0
2022-11-28 07:51:58 GMT 43.922195 27.041506 36,000 305 486 0
2022-11-28 07:51:53 GMT 43.916702 27.052748 36,000 305 486 0
2022-11-28 07:51:49 GMT 43.910065 27.066097 36,000 305 486 0
2022-11-28 07:51:47 GMT 43.910065 27.066097 36,000 305 487 0
2022-11-28 07:51:43 GMT 43.903839 27.078808 36,000 305 487 0
2022-11-28 07:51:37 GMT 43.897110 27.092541 36,000 305 487 0
2022-11-28 07:51:31 GMT 43.890614 27.105692 36,000 305 487 0
2022-11-28 07:51:29 GMT 43.886749 27.113474 36,000 305 488 0
2022-11-28 07:51:26 GMT 43.883606 27.119944 36,000 305 488 0
2022-11-28 07:51:22 GMT 43.877857 27.131586 36,000 305 488 0
2022-11-28 07:51:19 GMT 43.874786 27.137800 36,000 305 488 0
2022-11-28 07:51:16 GMT 43.870922 27.145647 36,000 305 488 0
2022-11-28 07:51:12 GMT 43.865204 27.157309 36,000 305 489 0
2022-11-28 07:51:09 GMT 43.860355 27.167030 36,000 305 489 0
2022-11-28 07:51:06 GMT 43.857746 27.172329 36,000 305 489 0
2022-11-28 07:51:01 GMT 43.851059 27.185797 36,000 305 489 0
2022-11-28 07:50:59 GMT 43.849182 27.189693 36,000 305 489 0
2022-11-28 07:50:56 GMT 43.844574 27.198944 36,000 305 489 0
2022-11-28 07:50:51 GMT 43.839386 27.209431 36,000 305 489 0
2022-11-28 07:50:49 GMT 43.836243 27.215816 36,000 305 489 0
2022-11-28 07:50:46 GMT 43.831924 27.224504 36,000 305 489 0
2022-11-28 07:50:41 GMT 43.826233 27.236023 36,000 305 489 0
2022-11-28 07:50:38 GMT 43.821716 27.245113 36,000 305 488 0
2022-11-28 07:50:35 GMT 43.818504 27.251652 36,000 305 488 0
2022-11-28 07:50:31 GMT 43.813614 27.261486 36,000 305 488 0
2022-11-28 07:50:29 GMT 43.810410 27.267939 36,000 305 488 0
2022-11-28 07:50:26 GMT 43.806026 27.276764 36,000 305 488 0
2022-11-28 07:50:21 GMT 43.800430 27.288059 36,000 305 488 0
2022-11-28 07:50:18 GMT 43.797321 27.294291 36,000 305 488 0
2022-11-28 07:50:15 GMT 43.792923 27.303133 36,000 305 488 0
2022-11-28 07:50:11 GMT 43.787476 27.314182 36,000 305 487 0
2022-11-28 07:50:08 GMT 43.783173 27.322805 36,000 305 487 0
2022-11-28 07:50:05 GMT 43.779724 27.329800 36,000 305 487 0
2022-11-28 07:50:01 GMT 43.774185 27.340982 36,000 305 488 0
2022-11-28 07:49:58 GMT 43.770996 27.347399 36,000 305 488 0
2022-11-28 07:49:54 GMT 43.766693 27.356022 36,000 305 487 0
2022-11-28 07:49:50 GMT 43.760971 27.367582 36,000 305 487 0
2022-11-28 07:49:48 GMT 43.758545 27.372501 36,000 305 487 0
2022-11-28 07:49:45 GMT 43.752823 27.383999 36,000 305 487 0
2022-11-28 07:49:41 GMT 43.748932 27.391790 36,000 305 487 0
2022-11-28 07:49:38 GMT 43.745224 27.399200 36,000 305 488 0
2022-11-28 07:49:34 GMT 43.740280 27.409100 36,000 305 488 0
2022-11-28 07:49:31 GMT 43.735455 27.418800 36,000 305 487 0
2022-11-28 07:49:28 GMT 43.732986 27.423771 36,000 305 487 0
2022-11-28 07:49:25 GMT 43.728844 27.432077 36,000 305 487 0
2022-11-28 07:49:22 GMT 43.724888 27.439924 36,000 305 487 0
2022-11-28 07:49:20 GMT 43.722931 27.443848 36,000 305 486 0
2022-11-28 07:49:17 GMT 43.718975 27.451759 36,000 305 486 0
2022-11-28 07:49:15 GMT 43.716019 27.457708 36,000 305 487 0
2022-11-28 07:49:12 GMT 43.711666 27.466410 36,000 305 486 0
2022-11-28 07:49:10 GMT 43.709702 27.470354 36,000 305 486 0
2022-11-28 07:49:07 GMT 43.704544 27.480665 36,000 305 486 0
2022-11-28 07:49:02 GMT 43.698444 27.492893 36,000 305 486 0
2022-11-28 07:49:00 GMT 43.696426 27.496927 36,000 305 486 0
2022-11-28 07:48:57 GMT 43.693542 27.502676 36,000 305 486 0
2022-11-28 07:48:53 GMT 43.688553 27.512705 36,000 305 486 0
2022-11-28 07:48:50 GMT 43.683884 27.521967 36,000 305 486 0
2022-11-28 07:48:47 GMT 43.680267 27.529182 36,000 305 485 0
2022-11-28 07:48:44 GMT 43.676052 27.537558 36,000 305 485 0
2022-11-28 07:48:41 GMT 43.673172 27.543364 36,000 305 485 0
2022-11-28 07:48:38 GMT 43.668419 27.552860 36,000 305 485 0
2022-11-28 07:48:34 GMT 43.664017 27.561630 36,000 305 485 0
2022-11-28 07:48:31 GMT 43.660126 27.569424 36,000 305 485 0
2022-11-28 07:48:28 GMT 43.655293 27.579149 36,000 305 485 0
2022-11-28 07:48:26 GMT 43.653198 27.583269 36,000 305 484 0
2022-11-28 07:48:23 GMT 43.649414 27.590822 36,000 305 484 0
2022-11-28 07:48:20 GMT 43.646942 27.595804 36,000 305 484 0
2022-11-28 07:48:18 GMT 43.643143 27.603411 36,000 305 484 0
2022-11-28 07:48:15 GMT 43.640305 27.609091 36,000 305 483 0
2022-11-28 07:48:11 GMT 43.634491 27.620651 36,000 305 483 0
2022-11-28 07:48:07 GMT 43.628540 27.632595 36,000 305 483 0
2022-11-28 07:48:04 GMT 43.624287 27.641012 36,000 305 482 0
2022-11-28 07:48:01 GMT 43.621674 27.646263 36,000 305 482 0
2022-11-28 07:47:57 GMT 43.616886 27.655792 36,000 305 482 0
2022-11-28 07:47:55 GMT 43.614578 27.660316 36,000 305 482 0
2022-11-28 07:47:51 GMT 43.608948 27.671558 36,000 305 482 0
2022-11-28 07:47:47 GMT 43.603683 27.681971 36,000 305 482 0
2022-11-28 07:47:45 GMT 43.601303 27.686697 36,000 305 482 0
2022-11-28 07:47:42 GMT 43.597382 27.694506 36,000 305 482 0
2022-11-28 07:47:39 GMT 43.593384 27.702473 36,000 305 482 0
2022-11-28 07:47:36 GMT 43.590271 27.708670 36,000 305 482 0
2022-11-28 07:47:34 GMT 43.588348 27.712490 36,000 305 482 0
2022-11-28 07:47:31 GMT 43.583359 27.722403 36,000 305 482 0
2022-11-28 07:47:27 GMT 43.578918 27.731281 36,000 305 482 0
2022-11-28 07:47:24 GMT 43.575531 27.737988 36,000 305 482 0
2022-11-28 07:47:20 GMT 43.569901 27.749165 36,000 305 482 0
2022-11-28 07:47:16 GMT 43.564655 27.759575 36,000 305 482 0
2022-11-28 07:47:13 GMT 43.559326 27.770180 36,000 305 482 0
2022-11-28 07:47:10 GMT 43.556740 27.775204 36,000 305 482 0
2022-11-28 07:47:07 GMT 43.553238 27.782251 36,000 305 482 0
2022-11-28 07:47:05 GMT 43.549946 27.788740 36,000 305 482 0
2022-11-28 07:47:01 GMT 43.545090 27.798412 36,000 305 482 0
2022-11-28 07:46:57 GMT 43.540028 27.808424 36,000 305 483 0
2022-11-28 07:46:54 GMT 43.536438 27.815531 36,000 305 483 0
2022-11-28 07:46:51 GMT 43.531929 27.824446 36,000 305 483 0
2022-11-28 07:46:46 GMT 43.526459 27.835268 36,000 305 483 0
2022-11-28 07:46:44 GMT 43.523712 27.840696 36,000 305 483 0
2022-11-28 07:46:40 GMT 43.518906 27.850149 36,000 305 483 0
2022-11-28 07:46:36 GMT 43.513123 27.861589 36,000 305 484 0
2022-11-28 07:46:33 GMT 43.509018 27.869696 36,000 305 484 -64
2022-11-28 07:46:30 GMT 43.505951 27.875765 36,000 305 484 0
2022-11-28 07:46:26 GMT 43.500412 27.886749 36,000 305 484 0
2022-11-28 07:46:23 GMT 43.493774 27.899780 36,000 305 484 0
2022-11-28 07:46:20 GMT 43.493774 27.899780 36,000 305 484 0
2022-11-28 07:46:17 GMT 43.488739 27.909744 36,000 305 484 0
2022-11-28 07:46:15 GMT 43.486401 27.914364 36,000 305 484 0
2022-11-28 07:46:13 GMT 43.484493 27.918156 36,000 305 484 0
2022-11-28 07:46:10 GMT 43.480255 27.926527 36,000 305 485 0
2022-11-28 07:46:07 GMT 43.475834 27.935225 36,000 305 486 0
2022-11-28 07:46:04 GMT 43.471893 27.943024 36,000 305 486 0
2022-11-28 07:46:00 GMT 43.466583 27.953499 36,000 305 486 0
2022-11-28 07:45:55 GMT 43.458984 27.968510 36,000 305 487 0
2022-11-28 07:45:53 GMT 43.458984 27.968510 36,000 305 487 0
2022-11-28 07:45:49 GMT 43.453537 27.979176 36,000 305 487 0
2022-11-28 07:45:45 GMT 43.448788 27.988586 36,000 305 487 0
2022-11-28 07:45:43 GMT 43.445713 27.994602 36,000 305 486 0
2022-11-28 07:45:39 GMT 43.440674 28.004471 36,000 305 486 0
2022-11-28 07:45:36 GMT 43.436638 28.012390 36,000 306 487 0
2022-11-28 07:45:34 GMT 43.431004 28.023506 36,000 305 486 0
2022-11-28 07:45:32 GMT 43.431004 28.023506 36,000 305 486 0
2022-11-28 07:45:28 GMT 43.426941 28.031361 36,000 305 486 0
2022-11-28 07:45:25 GMT 43.422501 28.040174 36,000 305 486 0
2022-11-28 07:45:23 GMT 43.419411 28.046265 36,000 305 486 0
2022-11-28 07:45:20 GMT 43.415497 28.053907 36,000 305 487 0
2022-11-28 07:45:16 GMT 43.410660 28.063334 36,000 305 486 0
2022-11-28 07:45:14 GMT 43.407261 28.070068 36,000 305 486 0
2022-11-28 07:45:11 GMT 43.404564 28.075365 36,000 305 486 0
2022-11-28 07:45:08 GMT 43.400848 28.082714 36,000 305 486 0
2022-11-28 07:45:05 GMT 43.395950 28.092297 36,000 305 486 0
2022-11-28 07:45:03 GMT 43.393345 28.097338 36,000 305 486 0
2022-11-28 07:44:59 GMT 43.389542 28.104816 36,000 305 486 0
2022-11-28 07:44:56 GMT 43.384918 28.113886 36,000 305 486 0
2022-11-28 07:44:52 GMT 43.380112 28.123339 36,000 305 486 0
2022-11-28 07:44:48 GMT 43.374710 28.133942 36,000 305 486 0
2022-11-28 07:44:44 GMT 43.370392 28.142395 36,000 306 487 0
2022-11-28 07:44:42 GMT 43.366425 28.150166 36,000 306 487 0
2022-11-28 07:44:39 GMT 43.362896 28.157043 36,000 306 487 0
2022-11-28 07:44:36 GMT 43.358753 28.165152 36,000 305 488 0
2022-11-28 07:44:34 GMT 43.356892 28.168816 36,000 305 488 0
2022-11-28 07:44:31 GMT 43.351868 28.178654 36,000 305 488 0
2022-11-28 07:44:28 GMT 43.348095 28.186012 36,000 305 488 0
2022-11-28 07:44:25 GMT 43.344509 28.193010 36,000 305 489 0
2022-11-28 07:44:22 GMT 43.340149 28.201586 36,000 306 489 0
2022-11-28 07:44:19 GMT 43.336899 28.207972 36,000 306 489 0
2022-11-28 07:44:15 GMT 43.331940 28.217665 36,000 306 489 0
2022-11-28 07:44:13 GMT 43.328522 28.224323 36,000 306 489 64
2022-11-28 07:44:09 GMT 43.323120 28.234926 36,000 306 491 64
2022-11-28 07:44:05 GMT 43.319366 28.242208 36,000 306 491 0
2022-11-28 07:44:03 GMT 43.317230 28.246372 36,000 306 491 0
2022-11-28 07:44:00 GMT 43.311504 28.257555 36,000 306 492 0
2022-11-28 07:43:56 GMT 43.306686 28.266928 36,000 306 492 0
2022-11-28 07:43:53 GMT 43.299168 28.281555 36,000 306 492 0
2022-11-28 07:43:50 GMT 43.299168 28.281555 36,000 306 493 0
2022-11-28 07:43:47 GMT 43.294327 28.291037 36,000 306 493 0
2022-11-28 07:43:44 GMT 43.291031 28.297461 36,000 306 493 0
2022-11-28 07:43:39 GMT 43.285248 28.308695 36,000 306 493 0
2022-11-28 07:43:35 GMT 43.280045 28.318794 36,000 306 492 0
2022-11-28 07:43:33 GMT 43.277519 28.323734 36,000 306 492 0
2022-11-28 07:43:30 GMT 43.272678 28.333086 36,000 306 492 0
2022-11-28 07:43:27 GMT 43.270020 28.338276 36,000 306 492 0
2022-11-28 07:43:23 GMT 43.264847 28.348368 36,000 306 492 0
2022-11-28 07:43:21 GMT 43.262112 28.353685 36,000 306 492 0
2022-11-28 07:43:18 GMT 43.256470 28.364719 36,000 306 492 0
2022-11-28 07:43:15 GMT 43.253780 28.370033 36,000 306 492 0
2022-11-28 07:43:12 GMT 43.248138 28.380943 36,000 306 493 0
2022-11-28 07:43:08 GMT 43.244705 28.387587 36,000 306 493 0
2022-11-28 07:43:05 GMT 43.241043 28.394739 36,000 306 493 0
2022-11-28 07:43:02 GMT 43.237701 28.401192 36,000 306 493 0
2022-11-28 07:42:59 GMT 43.232437 28.411474 36,000 306 493 0
2022-11-28 07:42:55 GMT 43.227264 28.421438 36,000 306 493 0
2022-11-28 07:42:51 GMT 43.221798 28.432030 36,000 306 493 0
2022-11-28 07:42:49 GMT 43.219070 28.437281 36,000 306 493 0
2022-11-28 07:42:44 GMT 43.213604 28.447920 36,000 306 493 0
2022-11-28 07:42:42 GMT 43.210159 28.454523 36,000 306 494 0
2022-11-28 07:42:39 GMT 43.205227 28.464071 36,000 306 494 0
2022-11-28 07:42:35 GMT 43.200668 28.472921 36,000 306 494 0
2022-11-28 07:42:33 GMT 43.198059 28.478031 36,000 306 493 0
2022-11-28 07:42:29 GMT 43.192516 28.488661 36,000 306 493 0
2022-11-28 07:42:25 GMT 43.187721 28.498013 36,000 306 493 0
2022-11-28 07:42:23 GMT 43.184326 28.504539 36,000 306 493 0
2022-11-28 07:42:18 GMT 43.177341 28.518023 36,000 306 493 0
2022-11-28 07:42:15 GMT 43.173988 28.524496 36,000 306 493 0
2022-11-28 07:42:11 GMT 43.167984 28.536158 36,000 306 493 0
2022-11-28 07:42:08 GMT 43.165329 28.541239 36,000 306 493 0
2022-11-28 07:42:04 GMT 43.160568 28.550402 36,000 306 493 0
2022-11-28 07:42:00 GMT 43.155579 28.560045 36,000 306 492 0
2022-11-28 07:41:58 GMT 43.148197 28.574263 36,000 306 492 0
2022-11-28 07:41:55 GMT 43.148197 28.574263 36,000 306 492 0
2022-11-28 07:41:49 GMT 43.134659 28.600349 36,000 306 493 0
2022-11-28 07:41:45 GMT 43.134659 28.600349 36,000 306 493 0
2022-11-28 07:41:41 GMT 43.130127 28.609037 36,000 306 493 0
2022-11-28 07:41:39 GMT 43.126740 28.615658 36,000 306 493 0
2022-11-28 07:41:37 GMT 43.123341 28.622131 36,000 306 492 0
2022-11-28 07:41:34 GMT 43.120827 28.626970 36,000 306 493 0
2022-11-28 07:41:32 GMT 43.117519 28.633379 36,000 306 493 0
2022-11-28 07:41:29 GMT 43.114170 28.639853 36,000 306 493 0
2022-11-28 07:41:24 GMT 43.106628 28.654306 36,000 306 493 0
2022-11-28 07:41:21 GMT 43.103165 28.660967 36,000 306 493 0
2022-11-28 07:41:19 GMT 43.100483 28.666077 36,000 306 493 0
2022-11-28 07:41:16 GMT 43.097672 28.671570 36,000 306 493 0
2022-11-28 07:41:13 GMT 43.092957 28.680639 36,000 306 494 0
2022-11-28 07:41:10 GMT 43.089615 28.687092 36,000 306 494 0
2022-11-28 07:41:08 GMT 43.086704 28.692692 36,000 306 494 0
2022-11-28 07:41:06 GMT 43.082794 28.700212 36,000 306 494 0
2022-11-28 07:41:03 GMT 43.079487 28.706556 36,000 306 494 0
2022-11-28 07:40:59 GMT 43.073807 28.717413 36,000 306 495 0
2022-11-28 07:40:53 GMT 43.066772 28.730972 36,000 306 495 0
2022-11-28 07:40:51 GMT 43.064217 28.735853 36,000 306 495 0
2022-11-28 07:40:49 GMT 43.061424 28.741215 36,000 306 495 0
2022-11-28 07:40:46 GMT 43.057140 28.749454 36,000 306 495 0
2022-11-28 07:40:43 GMT 43.052441 28.758480 36,000 306 495 0
2022-11-28 07:40:38 GMT 43.047134 28.768723 36,000 306 495 0
2022-11-28 07:40:36 GMT 43.043640 28.775417 36,000 306 494 0
2022-11-28 07:40:33 GMT 43.039593 28.783133 36,000 306 494 0
2022-11-28 07:40:31 GMT 43.036800 28.788496 36,000 306 494 0
2022-11-28 07:40:28 GMT 43.033585 28.794655 36,000 306 494 0
2022-11-28 07:40:26 GMT 43.030235 28.800985 36,000 306 494 0
2022-11-28 07:40:23 GMT 43.026512 28.808113 36,000 306 494 0
2022-11-28 07:40:20 GMT 43.022461 28.815830 36,000 306 494 0
2022-11-28 07:40:16 GMT 43.018227 28.824005 36,000 306 494 0
2022-11-28 07:40:13 GMT 43.012848 28.834320 36,000 306 494 0
2022-11-28 07:40:11 GMT 43.010357 28.838982 36,000 306 494 0
2022-11-28 07:40:07 GMT 43.006439 28.846457 36,000 306 494 0
2022-11-28 07:40:03 GMT 42.999325 28.860104 36,000 306 494 0
2022-11-28 07:40:00 GMT 42.996414 28.865683 36,000 306 493 0
2022-11-28 07:39:57 GMT 42.992481 28.873247 36,000 306 493 0
2022-11-28 07:39:52 GMT 42.985474 28.886570 36,000 306 493 0
2022-11-28 07:39:50 GMT 42.983589 28.890184 36,000 306 493 0
2022-11-28 07:39:47 GMT 42.979588 28.897770 36,000 306 493 0
2022-11-28 07:39:43 GMT 42.973526 28.909372 36,000 306 493 0
2022-11-28 07:39:40 GMT 42.970047 28.916016 36,000 306 493 0
2022-11-28 07:39:37 GMT 42.965973 28.923807 36,000 306 494 0
2022-11-28 07:39:34 GMT 42.961304 28.932688 36,000 306 494 0
2022-11-28 07:39:30 GMT 42.956451 28.941948 36,000 306 494 0
2022-11-28 07:39:28 GMT 42.953751 28.947144 36,000 306 494 0
2022-11-28 07:39:25 GMT 42.949905 28.954468 36,000 306 495 0
2022-11-28 07:39:21 GMT 42.944065 28.965586 36,000 306 495 0
2022-11-28 07:39:18 GMT 42.939972 28.973373 36,000 306 495 0
2022-11-28 07:39:14 GMT 42.935852 28.981232 36,000 306 495 0
2022-11-28 07:39:11 GMT 42.930542 28.991323 36,000 306 495 0
2022-11-28 07:39:08 GMT 42.926750 28.998545 36,000 306 495 0
2022-11-28 07:39:05 GMT 42.922943 29.005821 36,000 306 495 0
2022-11-28 07:39:00 GMT 42.916183 29.018684 36,000 306 495 0
2022-11-28 07:38:57 GMT 42.912369 29.025879 36,000 306 495 0
2022-11-28 07:38:54 GMT 42.908546 29.033203 36,000 306 495 0
2022-11-28 07:38:50 GMT 42.902939 29.043827 36,000 306 495 0
2022-11-28 07:38:47 GMT 42.899002 29.051300 36,000 306 495 0
2022-11-28 07:38:42 GMT 42.891769 29.064970 36,000 306 495 0
2022-11-28 07:38:39 GMT 42.889183 29.069889 36,000 306 496 0
2022-11-28 07:38:35 GMT 42.881470 29.084452 36,000 306 496 0
2022-11-28 07:38:31 GMT 42.877487 29.092052 36,000 306 496 0
2022-11-28 07:38:27 GMT 42.872284 29.101933 36,000 306 496 0
2022-11-28 07:38:24 GMT 42.868744 29.108660 36,000 306 496 0
2022-11-28 07:38:19 GMT 42.861576 29.122206 36,000 306 497 0
2022-11-28 07:38:15 GMT 42.856224 29.132341 36,000 306 496 0
2022-11-28 07:38:13 GMT 42.853729 29.137083 36,000 306 496 0
2022-11-28 07:38:10 GMT 42.849751 29.144636 36,000 306 496 0
2022-11-28 07:38:07 GMT 42.845703 29.152287 36,000 306 496 0
2022-11-28 07:38:04 GMT 42.841370 29.160524 36,000 306 495 0
2022-11-28 07:37:58 GMT 42.833359 29.175728 36,000 306 495 0
2022-11-28 07:37:51 GMT 42.823196 29.194954 36,000 306 495 0
2022-11-28 07:37:48 GMT 42.820129 29.200766 36,000 306 495 0
2022-11-28 07:37:39 GMT 42.807495 29.224632 36,000 306 494 0
2022-11-28 07:37:33 GMT 42.799057 29.240496 36,000 306 494 0
2022-11-28 07:37:28 GMT 42.793842 29.250332 36,000 306 494 0
2022-11-28 07:37:20 GMT 42.782810 29.271154 36,000 306 494 0
2022-11-28 07:37:17 GMT 42.779598 29.277224 36,000 306 493 0
2022-11-28 07:37:10 GMT 42.767990 29.299040 36,000 306 493 0
2022-11-28 07:37:07 GMT 42.765911 29.302900 36,000 306 493 0
2022-11-28 07:37:03 GMT 42.760208 29.313646 36,000 306 493 0
2022-11-28 07:37:00 GMT 42.756363 29.320887 36,000 306 492 0
2022-11-28 07:36:58 GMT 42.750782 29.331388 36,000 306 492 0
2022-11-28 07:36:56 GMT 42.750782 29.331388 36,000 306 492 0
2022-11-28 07:36:51 GMT 42.743847 29.344355 36,000 306 492 0
2022-11-28 07:36:48 GMT 42.739838 29.351912 36,000 306 492 0
2022-11-28 07:36:46 GMT 42.737282 29.356747 36,000 306 492 0
2022-11-28 07:36:40 GMT 42.729042 29.372332 36,000 306 493 0
2022-11-28 07:36:38 GMT 42.725178 29.379549 36,000 306 493 0
2022-11-28 07:36:31 GMT 42.716660 29.395582 36,000 306 493 0
2022-11-28 07:36:27 GMT 42.711731 29.404844 36,000 306 494 0
2022-11-28 07:36:23 GMT 42.707581 29.412636 36,000 306 494 0
2022-11-28 07:36:19 GMT 42.702209 29.422697 36,000 306 494 0
2022-11-28 07:36:16 GMT 42.696945 29.432560 36,000 306 494 0
2022-11-28 07:36:09 GMT 42.689381 29.446810 36,000 306 494 0
2022-11-28 07:36:06 GMT 42.683048 29.458626 36,000 306 494 0
2022-11-28 07:36:00 GMT 42.676437 29.471012 36,000 306 494 0
2022-11-28 07:35:55 GMT 42.669689 29.483664 36,000 306 494 0
2022-11-28 07:35:52 GMT 42.664581 29.493235 36,000 306 494 0
2022-11-28 07:35:48 GMT 42.660473 29.500910 36,000 306 494 0
2022-11-28 07:35:46 GMT 42.656654 29.507999 36,000 306 494 0
2022-11-28 07:35:38 GMT 42.645950 29.527943 36,000 307 493 0
2022-11-28 07:35:35 GMT 42.643158 29.533249 36,000 307 493 0
2022-11-28 07:35:29 GMT 42.627960 29.561525 36,000 307 493 0
2022-11-28 07:35:24 GMT 42.627960 29.561525 36,000 307 493 0
2022-11-28 07:35:20 GMT 42.622765 29.571171 36,000 307 493 0
2022-11-28 07:35:16 GMT 42.616943 29.582029 36,000 307 493 0
2022-11-28 07:35:12 GMT 42.611664 29.591801 36,000 307 493 0
2022-11-28 07:35:08 GMT 42.606079 29.602161 36,000 307 493 0
2022-11-28 07:35:06 GMT 42.604111 29.605782 36,000 307 493 0
2022-11-28 07:35:03 GMT 42.599625 29.614147 36,000 307 493 0
2022-11-28 07:35:00 GMT 42.595230 29.622324 36,000 307 493 0
2022-11-28 07:34:56 GMT 42.590363 29.631405 36,000 307 493 0
2022-11-28 07:34:53 GMT 42.585896 29.639645 36,000 307 493 0
2022-11-28 07:34:46 GMT 42.576351 29.657400 36,000 307 493 0
2022-11-28 07:34:40 GMT 42.560211 29.687305 36,000 307 493 0
2022-11-28 07:34:34 GMT 42.560211 29.687305 36,000 307 493 0
2022-11-28 07:34:29 GMT 42.553116 29.700539 36,000 307 494 0
2022-11-28 07:34:23 GMT 42.544830 29.715895 36,000 306 494 0
2022-11-28 07:34:18 GMT 42.539337 29.726194 36,000 306 494 0
2022-11-28 07:34:15 GMT 42.534805 29.734558 36,000 306 494 0
2022-11-28 07:34:08 GMT 42.526154 29.750727 36,000 306 493 0
2022-11-28 07:34:06 GMT 42.515900 29.769953 36,000 306 493 0
2022-11-28 07:34:01 GMT 42.515900 29.769953 36,000 307 493 0
2022-11-28 07:33:57 GMT 42.511688 29.777803 36,000 307 493 0
2022-11-28 07:33:54 GMT 42.507687 29.785149 36,000 307 494 0
2022-11-28 07:33:48 GMT 42.498596 29.801851 36,000 306 494 0
2022-11-28 07:33:42 GMT 42.490631 29.816957 36,000 305 493 0
2022-11-28 07:33:33 GMT 42.479568 29.840080 36,000 301 492 0
2022-11-28 07:33:28 GMT 42.473843 29.853558 36,000 299 491 0
2022-11-28 07:33:22 GMT 42.468117 29.867994 36,000 294 488 0
2022-11-28 07:33:18 GMT 42.463322 29.881216 36,000 294 488 0
2022-11-28 07:33:13 GMT 42.459038 29.894054 36,000 293 489 0
2022-11-28 07:33:07 GMT 42.453545 29.912386 36,000 291 487 0
2022-11-28 07:33:03 GMT 42.450897 29.922512 36,000 288 486 0
2022-11-28 07:32:55 GMT 42.445450 29.946171 36,000 287 486 0
2022-11-28 07:32:53 GMT 42.444214 29.951914 36,000 287 486 0
2022-11-28 07:32:47 GMT 42.437672 29.982073 36,000 287 486 0
2022-11-28 07:32:42 GMT 42.437672 29.982073 36,000 287 486 0
2022-11-28 07:32:34 GMT 42.431992 30.008389 36,000 287 485 0
2022-11-28 07:32:32 GMT 42.431339 30.011391 36,000 287 485 0
2022-11-28 07:32:26 GMT 42.427734 30.028131 36,000 287 485 0
2022-11-28 07:32:21 GMT 42.424393 30.043674 36,000 287 485 0
2022-11-28 07:32:15 GMT 42.420261 30.062618 36,000 287 484 0
2022-11-28 07:32:12 GMT 42.418354 30.071625 36,000 287 484 0
2022-11-28 07:32:06 GMT 42.414780 30.088057 36,000 287 484 0
2022-11-28 07:32:01 GMT 42.411880 30.101389 36,000 287 484 0
2022-11-28 07:31:58 GMT 42.409515 30.112339 36,000 287 484 0
2022-11-28 07:31:50 GMT 42.404938 30.133375 36,000 287 483 0
2022-11-28 07:31:41 GMT 42.398895 30.161217 36,000 287 483 0
2022-11-28 07:31:30 GMT 42.392349 30.191490 36,000 287 482 0
2022-11-28 07:31:22 GMT 42.386627 30.217958 36,000 287 481 0
2022-11-28 07:31:20 GMT 42.385906 30.221153 36,000 287 481 0
2022-11-28 07:31:11 GMT 42.380413 30.246384 36,000 287 480 0
2022-11-28 07:31:09 GMT 42.379250 30.251814 36,000 287 480 0
2022-11-28 07:31:02 GMT 42.374222 30.274935 36,000 287 480 0
2022-11-28 07:30:59 GMT 42.372940 30.280943 36,000 287 480 0
2022-11-28 07:30:53 GMT 42.369003 30.298920 36,000 287 480 0
2022-11-28 07:30:49 GMT 42.366440 30.310656 36,000 287 480 0
2022-11-28 07:30:39 GMT 42.360214 30.339308 36,000 287 479 0
2022-11-28 07:30:29 GMT 42.353989 30.367647 36,000 287 479 0
2022-11-28 07:30:25 GMT 42.351505 30.378986 36,000 287 479 0
2022-11-28 07:30:18 GMT 42.347267 30.398275 36,000 287 478 0
2022-11-28 07:30:08 GMT 42.340702 30.428169 36,000 287 477 0
2022-11-28 07:30:03 GMT 42.338150 30.439619 36,000 287 477 0
2022-11-28 07:29:58 GMT 42.334351 30.456848 36,000 287 477 0
2022-11-28 07:29:55 GMT 42.332512 30.465216 36,000 287 476 0
2022-11-28 07:29:50 GMT 42.329361 30.479383 36,000 287 476 0
2022-11-28 07:29:47 GMT 42.327530 30.487700 36,000 287 476 0
2022-11-28 07:29:37 GMT 42.321293 30.515932 36,000 287 476 0
2022-11-28 07:29:26 GMT 42.314621 30.546112 36,000 287 477 0
2022-11-28 07:29:16 GMT 42.308029 30.575951 36,000 287 476 0
2022-11-28 07:29:09 GMT 42.302994 30.598484 36,000 287 476 0
2022-11-28 07:29:06 GMT 42.301758 30.604101 36,000 287 476 0
2022-11-28 07:28:55 GMT 42.294849 30.635248 36,000 287 475 0
2022-11-28 07:28:49 GMT 42.290634 30.654165 36,000 287 476 0
2022-11-28 07:28:46 GMT 42.288891 30.662010 36,000 287 476 0
2022-11-28 07:28:42 GMT 42.286148 30.674452 36,000 287 476 0
2022-11-28 07:28:35 GMT 42.282120 30.692741 36,000 287 476 0
2022-11-28 07:28:25 GMT 42.275856 30.720776 36,000 287 476 0
2022-11-28 07:28:15 GMT 42.269199 30.750349 36,000 287 476 0
2022-11-28 07:28:02 GMT 42.261475 30.785002 36,000 287 476 0
2022-11-28 07:27:54 GMT 42.255936 30.809723 36,000 287 476 0
2022-11-28 07:27:44 GMT 42.249664 30.837749 36,000 287 477 0
2022-11-28 07:27:39 GMT 42.246620 30.851398 36,000 287 477 0
2022-11-28 07:27:33 GMT 42.243118 30.867212 36,000 287 477 0
2022-11-28 07:27:22 GMT 42.235977 30.899174 36,000 287 477 0
2022-11-28 07:27:12 GMT 42.229630 30.927280 36,000 287 477 0
2022-11-28 07:27:09 GMT 42.227676 30.936094 36,000 287 477 0
2022-11-28 07:27:02 GMT 42.223297 30.955603 36,000 287 477 0
2022-11-28 07:26:52 GMT 42.216503 30.985788 36,000 287 477 0
2022-11-28 07:26:42 GMT 42.210342 31.013031 36,000 288 477 0
2022-11-28 07:26:36 GMT 42.206402 31.030310 36,000 288 477 0
2022-11-28 07:26:32 GMT 42.203568 31.042744 36,000 288 477 0
2022-11-28 07:26:22 GMT 42.197113 31.071272 36,000 287 476 0
2022-11-28 07:26:13 GMT 42.191551 31.095779 36,000 287 476 0
2022-11-28 07:26:11 GMT 42.190201 31.101671 36,000 288 476 0
2022-11-28 07:26:08 GMT 42.188278 31.110035 36,000 288 476 0
2022-11-28 07:26:01 GMT 42.183701 31.130135 36,000 287 475 0
2022-11-28 07:25:54 GMT 42.179169 31.150072 36,000 287 475 0
2022-11-28 07:25:47 GMT 42.174957 31.168526 36,000 287 475 0
2022-11-28 07:25:42 GMT 42.171162 31.185266 36,000 287 475 0
2022-11-28 07:25:40 GMT 42.169876 31.190996 36,000 287 475 0
2022-11-28 07:25:37 GMT 42.168549 31.196739 36,000 287 475 0
2022-11-28 07:25:27 GMT 42.161663 31.227104 36,000 287 475 0
2022-11-28 07:25:17 GMT 42.155285 31.255081 36,000 287 475 0
2022-11-28 07:25:06 GMT 42.148209 31.286251 36,000 287 475 0
2022-11-28 07:24:58 GMT 42.143784 31.305605 36,000 288 475 0
2022-11-28 07:24:56 GMT 42.142159 31.312696 36,000 288 475 0
2022-11-28 07:24:46 GMT 42.135406 31.342121 36,000 288 475 0
2022-11-28 07:24:35 GMT 42.128517 31.372164 36,000 288 475 0
2022-11-28 07:24:25 GMT 42.122131 31.399925 36,000 288 475 0
2022-11-28 07:24:13 GMT 42.114365 31.433609 36,000 288 475 0
2022-11-28 07:24:05 GMT 42.108688 31.458391 36,000 288 475 0
2022-11-28 07:23:56 GMT 42.102676 31.484570 36,000 288 475 0
2022-11-28 07:23:54 GMT 42.102081 31.487129 36,000 288 475 0
2022-11-28 07:23:49 GMT 42.098724 31.501762 36,000 288 474 0
2022-11-28 07:23:44 GMT 42.095093 31.517412 36,000 288 474 0
2022-11-28 07:23:40 GMT 42.092812 31.527313 36,000 288 474 0
2022-11-28 07:23:34 GMT 42.088856 31.544304 36,000 288 474 0
2022-11-28 07:23:29 GMT 42.085831 31.557354 36,000 288 473 0
2022-11-28 07:23:27 GMT 42.084595 31.562784 36,000 288 473 0
2022-11-28 07:23:24 GMT 42.082123 31.573397 36,000 288 473 0
2022-11-28 07:23:13 GMT 42.075485 31.601986 36,000 288 473 0
2022-11-28 07:23:03 GMT 42.068375 31.632513 36,000 288 474 0
2022-11-28 07:22:53 GMT 42.061855 31.660746 36,000 288 474 0
2022-11-28 07:22:46 GMT 42.057220 31.680700 36,000 288 474 0
2022-11-28 07:22:42 GMT 42.054703 31.691437 36,000 288 474 0
2022-11-28 07:22:36 GMT 42.050591 31.709034 36,000 288 474 0
2022-11-28 07:22:32 GMT 42.048588 31.717529 36,000 288 474 0
2022-11-28 07:22:22 GMT 42.041931 31.745869 36,000 288 474 0
2022-11-28 07:22:11 GMT 42.034836 31.776205 36,000 288 474 0
2022-11-28 07:22:01 GMT 42.028061 31.805233 36,000 288 474 0
2022-11-28 07:21:51 GMT 42.021542 31.833204 36,000 288 473 0
2022-11-28 07:21:41 GMT 42.014740 31.862288 36,000 288 473 0
2022-11-28 07:21:30 GMT 42.007668 31.892416 36,000 288 473 0
2022-11-28 07:21:21 GMT 42.001968 31.916656 36,000 288 472 0
2022-11-28 07:21:19 GMT 42.000641 31.922310 36,000 288 472 0
2022-11-28 07:21:15 GMT 41.998032 31.933386 36,000 288 472 0
2022-11-28 07:21:10 GMT 41.994587 31.948051 36,000 288 472 0
2022-11-28 07:20:59 GMT 41.987465 31.978327 36,000 288 471 0
2022-11-28 07:20:50 GMT 41.981094 32.005234 36,000 288 471 0
2022-11-28 07:20:43 GMT 41.976837 32.023335 36,000 288 469 0
2022-11-28 07:20:39 GMT 41.974411 32.033634 36,000 288 469 0
2022-11-28 07:20:35 GMT 41.971218 32.047054 36,000 288 468 0
2022-11-28 07:20:29 GMT 41.967316 32.063660 36,000 288 467 0
2022-11-28 07:20:19 GMT 41.960907 32.090752 36,000 288 464 0
2022-11-28 07:20:08 GMT 41.954273 32.118977 36,000 288 462 0
2022-11-28 07:19:58 GMT 41.947678 32.147057 36,000 288 460 0
2022-11-28 07:19:48 GMT 41.941177 32.174461 36,000 288 460 0
2022-11-28 07:19:40 GMT 41.935791 32.196968 36,000 288 461 0
2022-11-28 07:19:37 GMT 41.934174 32.203735 36,000 288 461 0
2022-11-28 07:19:29 GMT 41.928955 32.225460 36,000 288 461 0
2022-11-28 07:19:27 GMT 41.927647 32.230885 36,000 288 461 0
2022-11-28 07:19:16 GMT 41.920242 32.261543 36,000 288 461 0
2022-11-28 07:19:06 GMT 41.913528 32.289192 36,000 288 461 0
2022-11-28 07:18:53 GMT 41.905022 32.324780 36,000 288 461 0
2022-11-28 07:18:46 GMT 41.900665 32.343063 36,000 288 460 0
2022-11-28 07:18:36 GMT 41.894257 32.370029 36,000 288 461 0
2022-11-28 07:18:25 GMT 41.887096 32.400150 36,000 288 460 0
2022-11-28 07:18:15 GMT 41.880661 32.427086 36,000 288 461 0
2022-11-28 07:18:04 GMT 41.873413 32.457127 36,000 288 461 0
2022-11-28 07:17:53 GMT 41.866425 32.486073 36,000 288 461 0
2022-11-28 07:17:44 GMT 41.860378 32.511036 36,000 288 461 0
2022-11-28 07:17:31 GMT 41.851868 32.546497 36,000 288 461 0
2022-11-28 07:17:22 GMT 41.845715 32.571972 36,000 288 461 0
2022-11-28 07:17:14 GMT 41.840469 32.593876 36,000 288 461 0
2022-11-28 07:17:03 GMT 41.833557 32.622402 36,000 288 461 0
2022-11-28 07:16:53 GMT 41.826828 32.650307 36,000 288 460 0
2022-11-28 07:16:42 GMT 41.819923 32.678577 36,000 288 460 0
2022-11-28 07:16:33 GMT 41.813454 32.705276 36,000 289 459 0
2022-11-28 07:16:25 GMT 41.808704 32.724823 36,000 289 459 0
2022-11-28 07:16:23 GMT 41.806934 32.732105 36,000 289 459 0
2022-11-28 07:16:12 GMT 41.799721 32.761677 36,000 289 459 0
2022-11-28 07:16:00 GMT 41.791946 32.793804 36,000 289 459 0
2022-11-28 07:15:51 GMT 41.786407 32.816536 36,000 289 459 0
2022-11-28 07:15:41 GMT 41.779312 32.845436 36,000 289 459 0
2022-11-28 07:15:30 GMT 41.772160 32.874607 36,000 289 460 0
2022-11-28 07:15:27 GMT 41.770340 32.882019 36,000 289 460 0
2022-11-28 07:15:24 GMT 41.767776 32.892319 36,000 289 460 0
2022-11-28 07:15:20 GMT 41.765736 32.900604 36,000 289 460 0
2022-11-28 07:15:14 GMT 41.761036 32.919765 36,000 289 460 0
2022-11-28 07:15:09 GMT 41.758427 32.930176 36,000 289 460 0
2022-11-28 07:14:59 GMT 41.751911 32.956814 36,000 289 461 0
2022-11-28 07:14:47 GMT 41.743813 32.989643 36,000 289 461 0
2022-11-28 07:14:36 GMT 41.736557 33.019283 36,000 289 461 0
2022-11-28 07:14:29 GMT 41.731522 33.039635 36,000 289 462 0
2022-11-28 07:14:19 GMT 41.725002 33.066036 36,000 289 462 0
2022-11-28 07:14:08 GMT 41.717651 33.095814 36,000 289 462 0
2022-11-28 07:13:58 GMT 41.710785 33.123531 36,000 289 462 0
2022-11-28 07:13:47 GMT 41.703403 33.153095 36,000 289 462 0
2022-11-28 07:13:38 GMT 41.697212 33.177944 36,000 289 462 0
2022-11-28 07:13:27 GMT 41.689774 33.207924 36,000 289 462 0
2022-11-28 07:13:16 GMT 41.682453 33.237221 36,000 289 463 0
2022-11-28 07:13:06 GMT 41.676079 33.263153 36,000 289 463 0
2022-11-28 07:12:57 GMT 41.669632 33.289009 36,000 289 463 0
2022-11-28 07:12:47 GMT 41.662811 33.316601 36,000 289 463 0
2022-11-28 07:12:36 GMT 41.655502 33.345867 36,000 289 463 0
2022-11-28 07:12:25 GMT 41.648163 33.375217 36,000 289 463 0
2022-11-28 07:12:16 GMT 41.641815 33.400543 36,000 289 463 0
2022-11-28 07:11:33 GMT 41.612732 33.516415 36,000 289 463 0
We lost coverage of the aircraft here for a total of 124 minutes
2022-11-28 05:07:28 GMT 31.101013 46.685863 34,000 321 458 0
2022-11-28 05:06:56 GMT 31.047409 46.736431 34,000 321 458 0
2022-11-28 05:06:29 GMT 31.002914 46.778439 34,000 321 460 0
2022-11-28 05:06:26 GMT 30.998064 46.783028 34,000 321 461 0
2022-11-28 05:05:30 GMT 30.905960 46.869720 34,000 321 463 0
2022-11-28 05:05:17 GMT 30.884569 46.889812 34,000 321 463 0
2022-11-28 05:05:04 GMT 30.861603 46.911461 34,000 321 463 0
2022-11-28 05:04:50 GMT 30.837250 46.934349 34,000 321 463 0
2022-11-28 05:04:30 GMT 30.812973 46.957157 34,000 322 464 0
2022-11-28 05:03:49 GMT 30.744003 47.021645 34,000 322 463 0
2022-11-28 05:03:35 GMT 30.713470 47.050137 34,000 322 463 0
2022-11-28 05:03:25 GMT 30.697266 47.065269 34,000 322 463 0
2022-11-28 05:03:11 GMT 30.672619 47.088280 34,000 322 462 0
2022-11-28 05:02:56 GMT 30.649567 47.109859 34,000 321 463 0
2022-11-28 05:02:28 GMT 30.609238 47.147614 34,000 322 462 0
2022-11-28 05:02:24 GMT 30.600906 47.155422 34,000 320 462 0
2022-11-28 05:02:07 GMT 30.574764 47.182159 34,000 317 461 0
2022-11-28 05:01:53 GMT 30.553537 47.206329 34,000 314 461 0
2022-11-28 05:00:14 GMT 30.415741 47.391033 34,000 311 461 0
2022-11-28 05:00:03 GMT 30.399490 47.412952 34,000 311 461 0
2022-11-28 04:58:49 GMT 30.297453 47.550201 34,000 311 462 0
2022-11-28 04:58:39 GMT 30.282602 47.570087 34,000 311 462 0
2022-11-28 04:58:25 GMT 30.263306 47.596004 34,000 311 462 0
2022-11-28 04:58:12 GMT 30.244858 47.620724 34,000 311 462 0
2022-11-28 04:57:58 GMT 30.226089 47.645893 34,000 311 462 0
2022-11-28 04:57:43 GMT 30.205465 47.673523 34,000 311 461 0
2022-11-28 04:57:30 GMT 30.186611 47.698681 34,000 311 461 0
2022-11-28 04:57:14 GMT 30.164036 47.728893 34,000 311 461 0
2022-11-28 04:57:01 GMT 30.146027 47.752991 34,000 311 460 0
2022-11-28 04:56:48 GMT 30.127853 47.777332 34,000 311 461 0
2022-11-28 04:56:32 GMT 30.105984 47.806568 34,000 311 461 0
2022-11-28 04:56:16 GMT 30.082993 47.836948 34,000 312 460 0
2022-11-28 04:56:02 GMT 30.064039 47.862103 34,000 311 458 0
2022-11-28 04:55:52 GMT 30.050167 47.880398 34,000 314 460 0
2022-11-28 04:55:38 GMT 30.028988 47.904510 34,000 319 461 0
2022-11-28 04:55:24 GMT 30.005617 47.926594 34,000 325 463 0
2022-11-28 04:55:06 GMT 29.973724 47.950314 34,000 331 464 0
2022-11-28 04:54:56 GMT 29.954269 47.963177 34,000 331 464 0
2022-11-28 04:54:41 GMT 29.926895 47.981388 34,000 331 464 0
2022-11-28 04:54:27 GMT 29.901014 47.998566 34,000 330 464 0
2022-11-28 04:54:14 GMT 29.876621 48.014778 34,000 330 464 0
2022-11-28 04:54:00 GMT 29.850645 48.032009 34,000 330 464 0
2022-11-28 04:53:46 GMT 29.824856 48.049137 34,000 331 464 0
2022-11-28 04:53:32 GMT 29.797575 48.067177 34,000 331 464 0
2022-11-28 04:53:18 GMT 29.772018 48.084087 34,000 331 465 0
2022-11-28 04:53:04 GMT 29.745850 48.101364 34,000 331 465 0
2022-11-28 04:52:49 GMT 29.718903 48.119148 34,000 330 465 0
2022-11-28 04:52:36 GMT 29.694305 48.135384 34,000 330 465 0
2022-11-28 04:52:21 GMT 29.665466 48.154449 34,000 331 465 0
2022-11-28 04:52:08 GMT 29.641485 48.170258 34,000 331 465 0
2022-11-28 04:51:53 GMT 29.613276 48.188835 34,000 331 465 0
2022-11-28 04:51:40 GMT 29.589294 48.204628 34,000 331 464 0
2022-11-28 04:51:25 GMT 29.561783 48.222691 34,000 331 465 0
2022-11-28 04:51:12 GMT 29.536835 48.239117 34,000 331 464 0
2022-11-28 04:50:57 GMT 29.508438 48.257877 34,000 330 464 0
2022-11-28 04:50:43 GMT 29.482819 48.274822 34,000 330 464 0
2022-11-28 04:50:30 GMT 29.458488 48.291214 34,000 329 463 0
2022-11-28 04:50:16 GMT 29.433582 48.308716 34,000 328 464 0
2022-11-28 04:50:02 GMT 29.407974 48.327431 34,000 327 463 0
2022-11-28 04:49:48 GMT 29.382568 48.347027 34,000 326 464 0
2022-11-28 04:49:30 GMT 29.350534 48.371887 34,000 326 462 0
2022-11-28 04:49:20 GMT 29.333588 48.385002 34,000 326 462 0
2022-11-28 04:49:04 GMT 29.304214 48.407753 34,000 326 462 0
2022-11-28 04:48:52 GMT 29.283691 48.423615 34,000 326 462 0
2022-11-28 04:48:38 GMT 29.259106 48.442654 34,000 326 461 0
2022-11-28 04:48:24 GMT 29.233547 48.462364 34,000 326 461 0
2022-11-28 04:48:10 GMT 29.209108 48.481266 34,000 326 461 0
2022-11-28 04:47:56 GMT 29.184343 48.500385 34,000 326 461 0
2022-11-28 04:47:42 GMT 29.159391 48.519665 34,000 326 461 0
2022-11-28 04:47:19 GMT 29.119720 48.550274 34,000 326 460 0
2022-11-28 04:47:05 GMT 29.093765 48.570240 34,000 326 460 0
2022-11-28 04:46:51 GMT 29.068634 48.589622 34,000 326 460 0
2022-11-28 04:46:35 GMT 29.041334 48.610622 34,000 326 461 0
2022-11-28 04:46:19 GMT 29.013124 48.632328 34,000 326 462 0
2022-11-28 04:46:06 GMT 28.989056 48.650852 34,000 326 462 0
2022-11-28 04:45:50 GMT 28.960922 48.672497 34,000 326 462 0
2022-11-28 04:45:35 GMT 28.935196 48.692215 34,000 327 463 0
2022-11-28 04:45:21 GMT 28.910294 48.711266 34,000 327 463 0
2022-11-28 04:45:06 GMT 28.883755 48.731583 34,000 327 463 0
2022-11-28 04:44:51 GMT 28.857056 48.751991 34,000 327 464 0
2022-11-28 04:44:37 GMT 28.830639 48.772133 34,000 327 463 0
2022-11-28 04:44:21 GMT 28.802382 48.793892 34,000 326 462 0
2022-11-28 04:44:07 GMT 28.778870 48.812046 34,000 326 463 0
2022-11-28 04:43:54 GMT 28.754654 48.830795 34,000 326 463 0
2022-11-28 04:43:39 GMT 28.728502 48.850979 34,000 326 463 0
2022-11-28 04:43:22 GMT 28.698166 48.874371 34,000 326 463 0
2022-11-28 04:43:07 GMT 28.671663 48.894707 34,000 326 463 0
2022-11-28 04:42:53 GMT 28.646027 48.914410 34,000 326 463 0
2022-11-28 04:42:37 GMT 28.617874 48.936062 34,000 326 463 0
2022-11-28 04:42:23 GMT 28.594116 48.954285 34,000 326 463 0
2022-11-28 04:42:08 GMT 28.567245 48.974937 34,000 326 463 0
2022-11-28 04:41:53 GMT 28.540245 48.995686 34,000 326 463 0
2022-11-28 04:41:39 GMT 28.515015 49.015030 34,000 326 464 0
2022-11-28 04:41:25 GMT 28.489782 49.034351 34,000 326 464 0
2022-11-28 04:41:11 GMT 28.465017 49.053417 34,000 326 464 0
2022-11-28 04:40:56 GMT 28.438568 49.073761 34,000 326 463 0
2022-11-28 04:40:43 GMT 28.416325 49.091331 34,000 325 462 0
2022-11-28 04:40:29 GMT 28.390720 49.112442 34,000 324 462 0
2022-11-28 04:40:15 GMT 28.367863 49.132313 34,000 322 461 0
2022-11-28 04:40:01 GMT 28.344727 49.153412 34,000 321 462 0
2022-11-28 04:39:51 GMT 28.321545 49.174698 34,000 321 462 0
2022-11-28 04:39:31 GMT 28.294823 49.199093 34,000 321 462 0
2022-11-28 04:39:03 GMT 28.247665 49.242336 34,000 321 462 0
2022-11-28 04:38:51 GMT 28.227905 49.260426 34,000 321 462 0
2022-11-28 04:38:37 GMT 28.204422 49.281921 34,000 322 461 0
2022-11-28 04:38:23 GMT 28.180956 49.303356 34,000 321 462 0
2022-11-28 04:38:09 GMT 28.158463 49.323914 34,000 321 462 0
2022-11-28 04:37:55 GMT 28.135241 49.345146 34,000 321 461 0
2022-11-28 04:37:41 GMT 28.110989 49.367390 34,000 321 461 0
2022-11-28 04:37:26 GMT 28.087339 49.389091 34,000 321 460 0
2022-11-28 04:37:11 GMT 28.062248 49.412086 34,000 321 460 0
2022-11-28 04:36:59 GMT 28.042463 49.430019 34,000 322 461 0
2022-11-28 04:36:45 GMT 28.019165 49.450996 34,000 322 461 0
2022-11-28 04:36:30 GMT 27.993118 49.474342 34,000 322 461 0
2022-11-28 04:36:17 GMT 27.972107 49.493092 34,000 322 461 0
2022-11-28 04:35:53 GMT 27.931576 49.529377 34,000 322 461 0
2022-11-28 04:35:40 GMT 27.909988 49.548653 34,000 322 460 0
2022-11-28 04:35:32 GMT 27.896622 49.560623 34,000 322 459 0
2022-11-28 04:35:28 GMT 27.889114 49.567307 34,000 322 459 0
2022-11-28 04:35:21 GMT 27.878693 49.576653 34,000 322 460 0
2022-11-28 04:35:03 GMT 27.847183 49.604877 34,000 322 459 0
2022-11-28 04:34:52 GMT 27.830046 49.620174 34,000 322 459 0
2022-11-28 04:34:33 GMT 27.798065 49.648720 34,000 322 458 0
2022-11-28 04:34:18 GMT 27.773071 49.670898 34,000 322 458 0
2022-11-28 04:34:04 GMT 27.749044 49.692165 34,000 322 457 0
2022-11-28 04:33:47 GMT 27.721951 49.716145 34,000 322 457 0
2022-11-28 04:33:34 GMT 27.698954 49.736427 34,000 322 457 0
2022-11-28 04:32:52 GMT 27.629471 49.797657 34,000 322 457 0
2022-11-28 04:32:41 GMT 27.594727 49.828285 34,000 322 457 0
2022-11-28 04:32:31 GMT 27.594727 49.828285 34,000 322 457 0
2022-11-28 04:32:02 GMT 27.546913 49.870430 34,000 322 457 0
2022-11-28 04:31:59 GMT 27.541580 49.875183 34,000 322 457 0
2022-11-28 04:31:47 GMT 27.521589 49.892826 34,000 322 457 0
2022-11-28 04:31:36 GMT 27.503202 49.909092 34,000 322 457 0
2022-11-28 04:31:31 GMT 27.494495 49.916805 34,000 322 457 0
2022-11-28 04:31:26 GMT 27.485977 49.924412 34,000 322 458 0
2022-11-28 04:31:14 GMT 27.466192 49.941998 34,000 322 458 0
2022-11-28 04:31:06 GMT 27.452545 49.954212 34,000 322 457 0
2022-11-28 04:30:54 GMT 27.432442 49.972160 34,000 322 457 0
2022-11-28 04:30:21 GMT 27.377426 50.020699 34,000 324 457 0
2022-11-28 04:30:11 GMT 27.360489 50.034798 34,000 324 457 0
2022-11-28 04:30:02 GMT 27.345203 50.047424 34,000 324 458 0
2022-11-28 04:29:53 GMT 27.329727 50.060242 34,000 324 458 0
2022-11-28 04:29:38 GMT 27.303911 50.081493 34,000 324 458 0
2022-11-28 04:29:31 GMT 27.292088 50.091213 34,000 324 458 0
2022-11-28 04:29:21 GMT 27.275234 50.105156 34,000 324 459 0
2022-11-28 04:29:14 GMT 27.264202 50.114292 34,000 324 459 0
2022-11-28 04:29:10 GMT 27.257034 50.120251 34,000 324 459 0
2022-11-28 04:29:02 GMT 27.242935 50.131912 34,000 324 459 0
2022-11-28 04:29:00 GMT 27.239365 50.134865 34,000 324 459 0
2022-11-28 04:28:50 GMT 27.222118 50.149208 34,000 324 459 0
2022-11-28 04:28:44 GMT 27.213409 50.156422 34,000 324 459 0
2022-11-28 04:28:38 GMT 27.201416 50.166218 34,000 324 459 0
2022-11-28 04:28:34 GMT 27.194229 50.172333 34,000 323 458 0
2022-11-28 04:28:28 GMT 27.185297 50.180107 34,000 322 458 0
2022-11-28 04:28:25 GMT 27.179489 50.185390 34,000 321 457 0
2022-11-28 04:28:16 GMT 27.164814 50.199387 34,000 320 457 0
2022-11-28 04:28:14 GMT 27.162252 50.201920 34,000 319 457 0
2022-11-28 04:28:09 GMT 27.146286 50.218506 34,000 317 456 0
2022-11-28 04:28:04 GMT 27.146286 50.218506 34,000 316 456 0
2022-11-28 04:27:57 GMT 27.136185 50.229809 34,000 315 456 0
2022-11-28 04:27:53 GMT 27.130188 50.236797 34,000 313 457 0
2022-11-28 04:27:48 GMT 27.123505 50.244831 34,000 313 457 0
2022-11-28 04:27:46 GMT 27.120449 50.248562 34,000 313 457 0
2022-11-28 04:27:43 GMT 27.116213 50.253681 34,000 313 457 0
2022-11-28 04:27:39 GMT 27.109650 50.261658 34,000 313 457 0
2022-11-28 04:27:33 GMT 27.101501 50.271538 34,000 313 458 0
2022-11-28 04:27:23 GMT 27.086744 50.289391 34,000 313 457 0
2022-11-28 04:27:17 GMT 27.078873 50.298935 34,000 313 458 0
2022-11-28 04:27:14 GMT 27.074968 50.303596 34,000 313 458 0
2022-11-28 04:27:11 GMT 27.071136 50.308208 34,000 313 458 0
2022-11-28 04:27:04 GMT 27.060118 50.321449 34,000 314 458 0
2022-11-28 04:27:01 GMT 27.055756 50.326660 34,000 314 458 0
2022-11-28 04:26:55 GMT 27.047176 50.336819 34,000 314 458 0
2022-11-28 04:26:50 GMT 27.040239 50.345058 34,000 314 458 0
2022-11-28 04:26:43 GMT 27.029343 50.357960 34,000 314 458 0
2022-11-28 04:26:41 GMT 27.026089 50.361855 34,000 314 458 0
2022-11-28 04:26:35 GMT 27.016983 50.372623 34,000 314 459 0
2022-11-28 04:26:31 GMT 27.011078 50.379673 34,000 314 459 0
2022-11-28 04:26:20 GMT 26.995743 50.397964 34,000 314 459 0
2022-11-28 04:26:15 GMT 26.987961 50.407192 34,000 314 459 0
2022-11-28 04:26:10 GMT 26.980682 50.415897 34,000 314 459 0
2022-11-28 04:26:04 GMT 26.972076 50.426105 34,000 314 459 0
2022-11-28 04:26:00 GMT 26.965714 50.433723 34,000 314 459 0
2022-11-28 04:25:56 GMT 26.960083 50.440411 34,000 313 458 0
2022-11-28 04:25:49 GMT 26.950859 50.451385 34,000 313 458 0
2022-11-28 04:25:41 GMT 26.940216 50.464249 34,000 313 457 0
2022-11-28 04:25:39 GMT 26.935501 50.469997 34,000 313 458 0
2022-11-28 04:25:29 GMT 26.920807 50.488293 34,000 312 458 0
2022-11-28 04:25:20 GMT 26.909754 50.502354 34,000 311 457 0
2022-11-28 04:25:18 GMT 26.906448 50.506634 34,000 311 457 0
2022-11-28 04:25:13 GMT 26.898788 50.516689 34,000 310 456 0
2022-11-28 04:25:07 GMT 26.891830 50.526070 34,000 310 456 0
2022-11-28 04:24:57 GMT 26.878611 50.544132 34,000 310 457 0
2022-11-28 04:24:47 GMT 26.864552 50.563465 34,000 309 456 0
2022-11-28 04:24:36 GMT 26.850311 50.583282 34,000 309 456 0
2022-11-28 04:24:26 GMT 26.836481 50.602448 34,000 309 456 0
2022-11-28 04:24:21 GMT 26.830849 50.610210 34,000 308 454 0
2022-11-28 04:24:16 GMT 26.823029 50.621578 34,000 306 454 0
2022-11-28 04:24:11 GMT 26.817394 50.630440 34,000 302 452 0
2022-11-28 04:24:03 GMT 26.809200 50.644596 34,000 302 452 0
2022-11-28 04:23:53 GMT 26.798866 50.664879 34,000 298 451 0
2022-11-28 04:23:44 GMT 26.790436 50.684387 34,000 294 449 0
2022-11-28 04:23:38 GMT 26.785629 50.697601 34,000 291 450 0
2022-11-28 04:23:35 GMT 26.783066 50.705273 34,000 290 451 0
2022-11-28 04:23:31 GMT 26.780914 50.712112 34,000 290 451 0
2022-11-28 04:23:23 GMT 26.775126 50.730320 34,000 290 451 0
2022-11-28 04:23:18 GMT 26.772099 50.739723 34,000 290 451 0
2022-11-28 04:23:13 GMT 26.767771 50.753296 34,000 290 451 0
2022-11-28 04:23:10 GMT 26.765945 50.759117 34,000 290 451 0
2022-11-28 04:23:06 GMT 26.763533 50.766605 34,000 290 451 0
2022-11-28 04:23:04 GMT 26.761414 50.773315 34,000 290 452 0
2022-11-28 04:23:00 GMT 26.758942 50.780987 34,000 290 452 0
2022-11-28 04:22:52 GMT 26.753082 50.799381 34,000 290 452 0
2022-11-28 04:22:48 GMT 26.750963 50.805904 34,000 290 452 0
2022-11-28 04:22:43 GMT 26.746729 50.819214 34,000 290 452 0
2022-11-28 04:22:39 GMT 26.743881 50.828144 34,000 290 451 0
2022-11-28 04:22:30 GMT 26.738022 50.846592 34,000 290 452 0
2022-11-28 04:22:27 GMT 26.735601 50.854130 34,000 290 452 0
2022-11-28 04:22:22 GMT 26.732346 50.864368 34,000 290 452 0
2022-11-28 04:22:16 GMT 26.728134 50.877686 34,000 290 452 0
2022-11-28 04:22:12 GMT 26.725313 50.886452 34,000 290 452 0
2022-11-28 04:22:07 GMT 26.721863 50.897430 34,000 290 452 0
2022-11-28 04:22:02 GMT 26.717926 50.909817 34,000 290 452 0
2022-11-28 04:21:57 GMT 26.714281 50.921207 34,000 290 452 0
2022-11-28 04:21:52 GMT 26.710882 50.931931 34,000 290 452 0
2022-11-28 04:21:48 GMT 26.708679 50.938938 34,000 290 452 0
2022-11-28 04:21:45 GMT 26.706345 50.946247 34,000 290 452 0
2022-11-28 04:21:42 GMT 26.703808 50.954220 34,000 290 453 0
2022-11-28 04:21:37 GMT 26.700485 50.964695 34,000 290 453 0
2022-11-28 04:21:30 GMT 26.696218 50.977936 34,000 290 453 0
2022-11-28 04:21:25 GMT 26.691982 50.991142 34,000 291 454 0
2022-11-28 04:21:21 GMT 26.689041 51.000092 34,000 291 454 0
2022-11-28 04:21:15 GMT 26.685242 51.011593 34,000 291 454 0
2022-11-28 04:21:10 GMT 26.681351 51.023411 34,000 291 454 0
2022-11-28 04:21:04 GMT 26.677689 51.034554 34,000 291 455 0
2022-11-28 04:21:00 GMT 26.674152 51.045174 34,000 291 455 0
2022-11-28 04:20:54 GMT 26.669683 51.058697 34,000 291 454 0
2022-11-28 04:20:48 GMT 26.665054 51.072693 34,000 291 454 64
2022-11-28 04:20:44 GMT 26.662216 51.081245 34,000 291 454 0
2022-11-28 04:20:39 GMT 26.658325 51.093239 34,000 291 455 0
2022-11-28 04:20:35 GMT 26.655762 51.100986 34,000 291 455 0
2022-11-28 04:20:31 GMT 26.652645 51.110512 34,000 291 455 0
2022-11-28 04:20:27 GMT 26.650366 51.117325 34,000 291 455 0
2022-11-28 04:20:24 GMT 26.647934 51.124722 34,000 291 455 0
2022-11-28 04:20:21 GMT 26.645966 51.130733 34,000 291 455 0
2022-11-28 04:20:19 GMT 26.643894 51.137028 34,000 291 455 0
2022-11-28 04:20:12 GMT 26.639191 51.151257 34,000 291 455 0
2022-11-28 04:20:09 GMT 26.636633 51.159054 34,000 291 456 0
2022-11-28 04:20:03 GMT 26.630356 51.177891 34,000 291 456 0
2022-11-28 04:19:58 GMT 26.629211 51.181313 34,000 291 455 0
2022-11-28 04:19:52 GMT 26.624542 51.195461 34,000 291 455 0
2022-11-28 04:19:48 GMT 26.621641 51.204212 34,000 291 455 0
2022-11-28 04:19:40 GMT 26.616289 51.220322 34,000 291 456 0
2022-11-28 04:19:37 GMT 26.613775 51.227928 34,000 291 456 0
2022-11-28 04:19:28 GMT 26.606735 51.249149 34,000 291 456 0
2022-11-28 04:19:21 GMT 26.601530 51.264847 34,000 291 455 0
2022-11-28 04:19:17 GMT 26.598925 51.272823 34,000 291 455 0
2022-11-28 04:19:09 GMT 26.593231 51.289986 34,000 291 455 0
2022-11-28 04:19:07 GMT 26.591476 51.295322 34,000 291 455 0
2022-11-28 04:18:59 GMT 26.585770 51.312630 34,000 291 455 0
2022-11-28 04:18:56 GMT 26.583984 51.318020 34,000 291 455 0
2022-11-28 04:18:48 GMT 26.577896 51.336521 34,000 291 454 0
2022-11-28 04:18:46 GMT 26.576431 51.340874 34,000 291 454 0
2022-11-28 04:18:38 GMT 26.570297 51.359425 34,000 291 455 0
2022-11-28 04:18:36 GMT 26.568712 51.364094 34,000 291 455 0
2022-11-28 04:18:26 GMT 26.561403 51.386227 34,000 291 454 0
2022-11-28 04:18:18 GMT 26.555771 51.403130 34,000 291 454 0
2022-11-28 04:18:15 GMT 26.553543 51.409950 34,000 291 454 0
2022-11-28 04:18:07 GMT 26.547867 51.427055 34,000 291 453 0
2022-11-28 04:18:04 GMT 26.545807 51.433220 34,000 291 453 0
2022-11-28 04:17:56 GMT 26.540131 51.450321 34,000 291 453 0
2022-11-28 04:17:54 GMT 26.538500 51.455315 34,000 291 453 0
2022-11-28 04:17:47 GMT 26.533127 51.471413 34,000 291 451 0
2022-11-28 04:17:44 GMT 26.530655 51.478928 34,000 291 452 0
2022-11-28 04:17:36 GMT 26.525299 51.495045 34,000 291 452 0
2022-11-28 04:17:33 GMT 26.523184 51.501320 34,000 291 452 0
2022-11-28 04:17:23 GMT 26.515732 51.523754 34,000 291 451 0
2022-11-28 04:17:13 GMT 26.508242 51.546268 34,000 291 451 0
2022-11-28 04:17:04 GMT 26.502562 51.563328 34,000 291 451 0
2022-11-28 04:17:02 GMT 26.500652 51.569031 34,000 291 451 0
2022-11-28 04:16:55 GMT 26.495316 51.585007 34,000 291 450 0
2022-11-28 04:16:52 GMT 26.493158 51.591534 34,000 291 450 0
2022-11-28 04:16:44 GMT 26.487808 51.607552 34,000 291 451 0
2022-11-28 04:16:41 GMT 26.484924 51.616310 34,000 291 451 0
2022-11-28 04:16:33 GMT 26.479523 51.632530 34,000 291 451 0
2022-11-28 04:16:30 GMT 26.477783 51.637711 34,000 291 451 0
2022-11-28 04:16:21 GMT 26.470533 51.659405 34,000 291 451 0
2022-11-28 04:16:12 GMT 26.464279 51.678028 34,000 291 451 0
2022-11-28 04:16:09 GMT 26.462759 51.682697 34,000 291 451 0
2022-11-28 04:16:02 GMT 26.457275 51.699017 34,000 291 451 0
2022-11-28 04:16:00 GMT 26.455544 51.704193 34,000 291 451 0
2022-11-28 04:15:49 GMT 26.447617 51.727829 34,000 291 450 0
2022-11-28 04:15:42 GMT 26.442509 51.743176 34,000 291 450 0
2022-11-28 04:15:39 GMT 26.440414 51.749355 34,000 291 450 0
2022-11-28 04:15:30 GMT 26.433517 51.769909 34,000 291 451 0
2022-11-28 04:15:19 GMT 26.425598 51.793594 34,000 291 451 0
2022-11-28 04:15:10 GMT 26.419418 51.812042 34,000 291 451 0
2022-11-28 04:15:07 GMT 26.417267 51.818466 34,000 291 451 0
2022-11-28 04:15:01 GMT 26.412277 51.833340 34,000 291 452 0
2022-11-28 04:14:57 GMT 26.409876 51.840416 34,000 291 452 0
2022-11-28 04:14:48 GMT 26.402847 51.861279 34,000 291 452 0
2022-11-28 04:14:38 GMT 26.395935 51.881794 34,000 291 453 0
2022-11-28 04:14:36 GMT 26.394140 51.887161 34,000 291 454 0
2022-11-28 04:14:29 GMT 26.389254 51.901581 34,000 292 454 0
2022-11-28 04:14:22 GMT 26.383942 51.916721 34,000 292 455 0
2022-11-28 04:14:15 GMT 26.378035 51.932796 34,000 293 455 0
2022-11-28 04:14:05 GMT 26.369705 51.954605 34,000 294 456 0
2022-11-28 04:13:56 GMT 26.362066 51.973572 34,000 295 455 0
2022-11-28 04:13:54 GMT 26.360298 51.977852 34,000 295 456 0
2022-11-28 04:13:46 GMT 26.353683 51.993366 34,000 296 455 0
2022-11-28 04:13:44 GMT 26.351780 51.997765 34,000 296 454 0
2022-11-28 04:13:36 GMT 26.344284 52.015087 34,000 296 454 0
2022-11-28 04:13:33 GMT 26.341537 52.021374 34,000 296 454 0
2022-11-28 04:13:23 GMT 26.332123 52.043167 34,000 296 454 0
2022-11-28 04:13:16 GMT 26.325895 52.057606 34,000 296 454 0
2022-11-28 04:13:14 GMT 26.323654 52.062759 34,000 296 454 0
2022-11-28 04:13:11 GMT 26.321411 52.067886 34,000 296 454 0
2022-11-28 04:13:05 GMT 26.316214 52.080055 34,000 296 454 0
2022-11-28 04:13:01 GMT 26.312443 52.088718 34,000 296 454 0
2022-11-28 04:12:55 GMT 26.306351 52.102921 34,000 296 454 0
2022-11-28 04:12:50 GMT 26.302185 52.112507 34,000 296 453 0
2022-11-28 04:12:42 GMT 26.295263 52.128647 34,000 296 453 0
2022-11-28 04:12:37 GMT 26.290604 52.139454 34,000 296 453 0
2022-11-28 04:12:34 GMT 26.287582 52.146450 34,000 296 453 0
2022-11-28 04:12:30 GMT 26.283718 52.155426 34,000 296 453 0
2022-11-28 04:12:26 GMT 26.281019 52.161659 34,000 296 452 0
2022-11-28 04:12:24 GMT 26.278152 52.168320 34,000 296 453 0
2022-11-28 04:12:22 GMT 26.276825 52.171429 34,000 296 453 0
2022-11-28 04:12:17 GMT 26.271927 52.182831 34,000 296 452 0
2022-11-28 04:12:12 GMT 26.267853 52.192417 34,000 296 452 0
2022-11-28 04:12:10 GMT 26.266068 52.196564 34,000 296 451 0
2022-11-28 04:12:03 GMT 26.260210 52.210255 34,000 296 451 0
2022-11-28 04:11:59 GMT 26.256533 52.218914 34,000 296 451 0
2022-11-28 04:11:54 GMT 26.250994 52.231804 34,000 296 451 0
2022-11-28 04:11:49 GMT 26.247269 52.240517 34,000 296 451 0
2022-11-28 04:11:42 GMT 26.240984 52.255203 34,000 296 452 0
2022-11-28 04:11:38 GMT 26.237320 52.263672 34,000 296 451 0
2022-11-28 04:11:32 GMT 26.231627 52.276859 34,000 296 451 0
2022-11-28 04:11:29 GMT 26.229345 52.282036 34,000 297 452 0
2022-11-28 04:11:22 GMT 26.222458 52.297562 34,000 297 451 0
2022-11-28 04:11:18 GMT 26.219011 52.305275 34,000 297 451 0
2022-11-28 04:11:09 GMT 26.210260 52.324657 34,000 297 451 0
2022-11-28 04:11:01 GMT 26.202850 52.341305 34,000 297 450 0
2022-11-28 04:10:57 GMT 26.199598 52.348480 34,000 297 450 0
2022-11-28 04:10:48 GMT 26.190847 52.368076 34,000 297 449 0
2022-11-28 04:10:36 GMT 26.180141 52.391949 34,000 297 449 0
2022-11-28 04:10:33 GMT 26.176697 52.399662 34,000 297 449 0
2022-11-28 04:10:30 GMT 26.174274 52.405102 34,000 297 449 0
2022-11-28 04:10:19 GMT 26.164221 52.427605 34,000 297 449 0
2022-11-28 04:10:14 GMT 26.159958 52.437069 34,000 297 449 0
2022-11-28 04:10:10 GMT 26.155190 52.447620 34,000 297 448 0
2022-11-28 04:10:02 GMT 26.148102 52.463345 34,000 297 448 0
2022-11-28 04:09:59 GMT 26.145767 52.468578 34,000 297 448 0
2022-11-28 04:09:52 GMT 26.139269 52.483009 34,000 297 448 0
2022-11-28 04:09:49 GMT 26.136200 52.489876 34,000 297 448 0
2022-11-28 04:09:39 GMT 26.115852 52.534878 34,000 297 448 0
2022-11-28 04:09:27 GMT 26.115852 52.534878 34,000 297 448 0
2022-11-28 04:09:17 GMT 26.106903 52.554760 34,000 297 448 0
2022-11-28 04:09:08 GMT 26.097651 52.575127 34,000 297 449 0
2022-11-28 04:08:58 GMT 26.088665 52.594879 34,000 297 449 0
2022-11-28 04:08:55 GMT 26.085846 52.600983 34,000 297 449 0
2022-11-28 04:08:49 GMT 26.080673 52.612282 34,000 298 449 0
2022-11-28 04:08:41 GMT 26.072233 52.630531 34,000 298 449 0
2022-11-28 04:08:37 GMT 26.068039 52.639591 34,000 298 450 0
2022-11-28 04:08:28 GMT 26.060549 52.655727 34,000 298 450 0
2022-11-28 04:08:24 GMT 26.057053 52.663277 34,000 298 450 0
2022-11-28 04:08:17 GMT 26.048904 52.680843 34,000 298 450 0
2022-11-28 04:08:06 GMT 26.039291 52.701675 34,000 297 450 0
2022-11-28 04:07:55 GMT 26.028799 52.725288 34,000 295 449 0
2022-11-28 04:07:43 GMT 26.019241 52.748730 34,000 295 450 0
2022-11-28 04:07:34 GMT 26.011642 52.767540 34,000 295 450 0
2022-11-28 04:07:24 GMT 26.003082 52.788788 34,000 295 450 0
2022-11-28 04:07:14 GMT 25.993420 52.812599 34,000 295 450 0
2022-11-28 04:07:03 GMT 25.984995 52.833462 34,000 295 450 0
2022-11-28 04:06:53 GMT 25.976427 52.854694 34,000 295 450 0
2022-11-28 04:06:43 GMT 25.967743 52.876110 34,000 295 450 0
2022-11-28 04:06:31 GMT 25.957714 52.900860 34,000 295 450 0
2022-11-28 04:06:22 GMT 25.949890 52.920212 34,000 295 449 0
2022-11-28 04:06:13 GMT 25.941700 52.940315 34,000 295 449 0
2022-11-28 04:06:04 GMT 25.934484 52.958012 34,000 295 449 0
2022-11-28 04:06:00 GMT 25.930668 52.967411 34,000 295 449 0
2022-11-28 04:05:50 GMT 25.922745 52.986855 34,000 295 449 0
2022-11-28 04:05:42 GMT 25.916002 53.003433 34,000 295 449 0
2022-11-28 04:05:39 GMT 25.912903 53.011055 34,000 295 449 0
2022-11-28 04:05:31 GMT 25.906275 53.027412 34,000 295 450 0
2022-11-28 04:05:29 GMT 25.904457 53.031853 34,000 295 449 0
2022-11-28 04:05:19 GMT 25.895706 53.053349 34,000 295 450 0
2022-11-28 04:05:09 GMT 25.887268 53.074173 34,000 295 451 0
2022-11-28 04:04:59 GMT 25.878483 53.095867 34,000 295 451 0
2022-11-28 04:04:47 GMT 25.860626 53.139885 34,000 295 451 0
2022-11-28 04:04:38 GMT 25.860626 53.139885 34,000 294 451 0
2022-11-28 04:04:31 GMT 25.845802 53.179321 34,000 292 451 0
2022-11-28 04:04:20 GMT 25.845802 53.179321 34,000 291 450 0
2022-11-28 04:04:13 GMT 25.841354 53.192173 34,000 291 451 0
2022-11-28 04:04:09 GMT 25.838448 53.200977 34,000 290 450 0
2022-11-28 04:04:04 GMT 25.835049 53.211700 34,000 288 450 0
2022-11-28 04:04:00 GMT 25.832069 53.221416 34,000 288 449 0
2022-11-28 04:03:46 GMT 25.823593 53.251495 34,000 288 449 0
2022-11-28 04:03:40 GMT 25.819639 53.265656 34,000 288 449 0
2022-11-28 04:03:36 GMT 25.816818 53.275860 34,000 288 450 0
2022-11-28 04:03:34 GMT 25.815903 53.279064 34,000 288 450 0
2022-11-28 04:03:29 GMT 25.813124 53.289028 34,000 288 451 0
2022-11-28 04:03:24 GMT 25.809952 53.300323 34,000 288 452 -64
2022-11-28 04:03:18 GMT 25.806559 53.312347 34,000 288 452 -64
2022-11-28 04:03:13 GMT 25.802856 53.325703 34,025 288 453 -64
2022-11-28 04:03:08 GMT 25.800156 53.335316 34,025 288 453 128
2022-11-28 04:03:02 GMT 25.796085 53.349918 33,975 288 454 384
2022-11-28 04:02:57 GMT 25.792780 53.361633 33,950 288 454 512
2022-11-28 04:02:52 GMT 25.790268 53.370667 33,900 288 455 576
2022-11-28 04:02:46 GMT 25.786423 53.384399 33,850 288 455 576
2022-11-28 04:02:41 GMT 25.783539 53.394623 33,800 288 455 640
2022-11-28 04:02:39 GMT 25.782305 53.399101 33,775 288 455 576
2022-11-28 04:02:30 GMT 25.776579 53.419518 33,675 288 455 704
2022-11-28 04:02:22 GMT 25.769714 53.443859 33,550 288 455 1024
2022-11-28 04:02:19 GMT 25.769714 53.443859 33,525 288 455 1024
2022-11-28 04:02:13 GMT 25.765274 53.459675 33,400 288 455 1088
2022-11-28 04:02:04 GMT 25.760284 53.477528 33,250 288 455 1088
2022-11-28 04:02:02 GMT 25.759094 53.481750 33,200 288 455 1152
2022-11-28 04:01:58 GMT 25.756668 53.490498 33,125 288 454 1344
2022-11-28 04:01:54 GMT 25.753510 53.501789 33,025 288 454 1280
2022-11-28 04:01:50 GMT 25.751440 53.509274 32,950 288 454 1344
2022-11-28 04:01:41 GMT 25.746227 53.528034 32,750 288 454 1600
2022-11-28 04:01:39 GMT 25.744411 53.534409 32,675 288 454 1664
2022-11-28 04:01:32 GMT 25.740463 53.548534 32,475 288 455 1984
2022-11-28 04:01:29 GMT 25.738220 53.556416 32,350 288 455 2048
2022-11-28 04:01:22 GMT 25.733963 53.571472 32,100 288 457 2112
2022-11-28 04:01:19 GMT 25.732307 53.577370 32,025 288 457 2112
2022-11-28 04:01:10 GMT 25.721601 53.615353 30,925 288 463 2496
2022-11-28 04:01:03 GMT 25.721601 53.615353 31,400 288 461 2368
2022-11-28 04:01:00 GMT 25.719681 53.622181 31,275 288 461 2432
2022-11-28 04:00:51 GMT 25.714293 53.641422 30,925 288 464 2560
2022-11-28 04:00:49 GMT 25.713036 53.645878 30,850 288 464 2624
2022-11-28 04:00:39 GMT 25.706192 53.670338 30,375 288 468 2496
2022-11-28 04:00:29 GMT 25.700226 53.691357 30,025 288 469 2048
2022-11-28 04:00:27 GMT 25.699265 53.694763 29,975 288 469 1920
2022-11-28 04:00:20 GMT 25.693810 53.714180 29,750 288 469 1600
2022-11-28 04:00:11 GMT 25.688875 53.731541 29,550 288 467 1536
2022-11-28 04:00:05 GMT 25.682451 53.754341 29,250 288 466 1536
2022-11-28 04:00:01 GMT 25.682451 53.754341 29,300 288 466 1536
2022-11-28 03:59:56 GMT 25.679052 53.766365 29,150 288 464 1664
2022-11-28 03:59:52 GMT 25.676025 53.777092 29,025 288 464 2176
2022-11-28 03:59:47 GMT 25.672623 53.789165 28,850 288 464 2048
2022-11-28 03:59:45 GMT 25.671707 53.792419 28,800 288 464 1792
2022-11-28 03:59:42 GMT 25.669601 53.799740 28,675 288 464 2176
2022-11-28 03:59:36 GMT 25.665878 53.812954 28,475 288 464 2048
2022-11-28 03:59:30 GMT 25.662712 53.824043 28,325 288 464 1792
2022-11-28 03:59:26 GMT 25.659407 53.835442 28,175 288 463 1728
2022-11-28 03:59:18 GMT 25.654753 53.851871 27,950 288 463 1792
2022-11-28 03:59:13 GMT 25.651474 53.863220 27,775 288 462 1728
2022-11-28 03:59:11 GMT 25.649586 53.869957 27,725 288 460 1728
2022-11-28 03:59:05 GMT 25.646000 53.882652 27,575 288 459 1792
2022-11-28 03:59:00 GMT 25.642776 53.893993 27,425 288 458 1728
2022-11-28 03:58:55 GMT 25.639111 53.906906 27,250 288 457 1664
2022-11-28 03:58:50 GMT 25.636002 53.917896 27,100 288 457 1728
2022-11-28 03:58:44 GMT 25.632614 53.929798 26,950 288 455 2048
2022-11-28 03:58:40 GMT 25.630325 53.937939 26,800 288 455 2240
2022-11-28 03:58:32 GMT 25.625198 53.955944 26,500 288 454 1984
2022-11-28 03:58:28 GMT 25.622816 53.964325 26,200 288 454 1984
2022-11-28 03:58:23 GMT 25.619476 53.976086 26,200 288 453 2048
2022-11-28 03:58:16 GMT 25.615229 53.991066 25,975 288 453 2048
2022-11-28 03:58:13 GMT 25.613041 53.998840 25,850 288 452 1984
2022-11-28 03:58:07 GMT 25.609726 54.010517 25,675 288 452 1984
2022-11-28 03:58:04 GMT 25.607363 54.018894 25,550 288 450 1984
2022-11-28 03:57:59 GMT 25.604828 54.027813 25,425 288 451 1984
2022-11-28 03:57:56 GMT 25.602585 54.035694 25,300 288 450 1984
2022-11-28 03:57:52 GMT 25.599773 54.045479 25,150 288 450 1984
2022-11-28 03:57:49 GMT 25.598099 54.051258 25,075 288 449 1984
2022-11-28 03:57:41 GMT 25.593201 54.068043 24,825 288 447 1984
2022-11-28 03:57:31 GMT 25.586609 54.090679 24,450 288 445 2112
2022-11-28 03:57:25 GMT 25.582970 54.103107 24,250 288 445 2112
2022-11-28 03:57:17 GMT 25.577911 54.120228 23,925 289 444 2496
2022-11-28 03:57:09 GMT 25.572372 54.138996 23,600 288 443 2304
2022-11-28 03:57:01 GMT 25.567513 54.155396 23,300 288 443 2240
2022-11-28 03:56:59 GMT 25.566284 54.159595 23,250 289 442 2240
2022-11-28 03:56:48 GMT 25.559320 54.183170 22,850 288 440 2240
2022-11-28 03:56:46 GMT 25.558411 54.186298 22,775 289 439 2240
2022-11-28 03:56:38 GMT 25.552963 54.204815 22,400 288 438 2368
2022-11-28 03:56:27 GMT 25.546286 54.227634 22,025 288 436 2304
2022-11-28 03:56:14 GMT 25.538046 54.255825 21,475 288 432 2304
2022-11-28 03:56:06 GMT 25.533234 54.272411 21,225 288 431 2304
2022-11-28 03:55:56 GMT 25.520914 54.314335 20,575 289 426 2176
2022-11-28 03:55:46 GMT 25.520914 54.314335 20,525 289 426 2176
2022-11-28 03:55:36 GMT 25.514629 54.335735 20,075 289 424 2624
2022-11-28 03:55:26 GMT 25.508438 54.356415 19,650 289 421 2560
2022-11-28 03:55:17 GMT 25.502930 54.375153 19,275 289 419 2176
2022-11-28 03:55:15 GMT 25.502247 54.377350 19,250 289 419 2176
2022-11-28 03:55:07 GMT 25.496847 54.395641 18,925 288 415 2176
2022-11-28 03:55:02 GMT 25.494141 54.404804 18,750 288 414 2304
2022-11-28 03:54:55 GMT 25.490469 54.417461 18,475 288 413 2688
2022-11-28 03:54:53 GMT 25.488701 54.423626 18,350 288 413 2624
2022-11-28 03:54:45 GMT 25.483932 54.439747 18,025 289 411 2368
2022-11-28 03:54:35 GMT 25.478132 54.459332 17,650 288 407 2240
2022-11-28 03:54:24 GMT 25.472034 54.480061 17,250 288 405 2560
2022-11-28 03:54:14 GMT 25.466309 54.499817 16,750 288 403 3008
2022-11-28 03:54:03 GMT 25.459991 54.521179 16,150 289 403 3392
2022-11-28 03:53:54 GMT 25.454361 54.539948 15,675 289 403 2752
2022-11-28 03:53:43 GMT 25.447952 54.561108 15,275 289 396 1792
2022-11-28 03:53:31 GMT 25.440939 54.584846 14,900 288 392 1792
2022-11-28 03:53:24 GMT 25.437075 54.598061 14,650 288 388 2368
2022-11-28 03:53:14 GMT 25.432068 54.615479 14,250 288 386 2432
2022-11-28 03:53:12 GMT 25.430603 54.620514 14,200 288 383 2432
2022-11-28 03:53:02 GMT 25.425203 54.639622 13,675 287 380 3456
2022-11-28 03:52:52 GMT 25.420120 54.658356 13,125 287 380 3328
2022-11-28 03:52:40 GMT 25.414581 54.678242 12,525 288 381 3584
2022-11-28 03:52:30 GMT 25.409002 54.697922 11,875 288 382 3584
2022-11-28 03:52:26 GMT 25.406675 54.706059 11,625 288 383 2816
2022-11-28 03:52:22 GMT 25.404488 54.713573 11,425 288 384 2880
2022-11-28 03:52:19 GMT 25.403231 54.717873 11,325 288 383 2816
2022-11-28 03:52:14 GMT 25.400299 54.727886 11,100 288 378 1280
2022-11-28 03:52:11 GMT 25.396591 54.740295 10,925 288 380 1536
2022-11-28 03:52:02 GMT 25.393408 54.751247 10,800 288 373 1280
2022-11-28 03:51:58 GMT 25.391359 54.758400 10,700 288 369 1664
2022-11-28 03:51:51 GMT 25.388102 54.770008 10,500 287 367 1856
2022-11-28 03:51:40 GMT 25.382812 54.789124 10,150 288 365 2240
2022-11-28 03:51:31 GMT 25.378098 54.805908 9,775 288 364 2112
2022-11-28 03:51:18 GMT 25.371807 54.828098 9,400 288 360 1408
2022-11-28 03:51:08 GMT 25.366882 54.845428 9,175 288 354 1600
2022-11-28 03:51:00 GMT 25.362488 54.860737 8,900 288 351 2496
2022-11-28 03:50:48 GMT 25.356903 54.879864 8,375 286 353 3200
2022-11-28 03:50:40 GMT 25.353466 54.894588 7,975 282 354 2624
2022-11-28 03:50:37 GMT 25.352646 54.899090 7,875 281 353 2112
2022-11-28 03:50:32 GMT 25.351135 54.909210 7,750 278 351 1216
2022-11-28 03:50:29 GMT 25.350393 54.915264 7,675 277 349 1152
2022-11-28 03:50:22 GMT 25.349369 54.927704 7,550 270 350 1088
2022-11-28 03:50:17 GMT 25.349323 54.934853 7,475 269 351 1088
2022-11-28 03:50:12 GMT 25.349649 54.945995 7,350 268 351 1088
2022-11-28 03:50:08 GMT 25.349880 54.952061 7,300 268 352 1024
2022-11-28 03:50:01 GMT 25.350300 54.964081 7,175 268 352 1024
2022-11-28 03:49:58 GMT 25.350533 54.970146 7,125 268 352 1024
2022-11-28 03:49:51 GMT 25.350952 54.982349 7,025 268 351 1024
2022-11-28 03:49:48 GMT 25.351227 54.989014 6,950 268 350 1088
2022-11-28 03:49:41 GMT 25.351593 55.000050 6,850 268 347 1152
2022-11-28 03:49:31 GMT 25.352188 55.017853 6,650 268 339 960
2022-11-28 03:49:27 GMT 25.352463 55.025787 6,575 268 340 1088
2022-11-28 03:49:21 GMT 25.352875 55.035858 6,475 268 340 1088
2022-11-28 03:49:17 GMT 25.353140 55.042904 6,400 268 339 1088
2022-11-28 03:49:10 GMT 25.353559 55.054718 6,300 268 339 1024
2022-11-28 03:49:06 GMT 25.353790 55.060528 6,250 268 338 1024
2022-11-28 03:49:00 GMT 25.354212 55.070992 6,150 268 337 960
2022-11-28 03:48:54 GMT 25.354568 55.080975 6,075 268 337 704
2022-11-28 03:48:49 GMT 25.354910 55.089336 6,050 268 333 0
2022-11-28 03:48:46 GMT 25.355188 55.096642 6,050 268 332 -64
2022-11-28 03:48:39 GMT 25.355576 55.106457 6,075 268 323 -128
2022-11-28 03:48:36 GMT 25.355886 55.113121 6,075 268 318 -128
2022-11-28 03:48:27 GMT 25.356445 55.126026 6,050 268 309 384
2022-11-28 03:48:25 GMT 25.356632 55.129967 6,025 267 302 320
2022-11-28 03:48:20 GMT 25.357004 55.138100 6,000 268 295 384
2022-11-28 03:48:15 GMT 25.357376 55.145927 5,900 268 290 1536
2022-11-28 03:48:09 GMT 25.357702 55.153492 5,750 268 287 1728
2022-11-28 03:48:03 GMT 25.357983 55.161472 5,600 268 284 1792
2022-11-28 03:47:58 GMT 25.358261 55.169144 5,425 269 282 1984
2022-11-28 03:47:54 GMT 25.358368 55.176746 5,225 273 280 2112
2022-11-28 03:47:47 GMT 25.357935 55.185001 5,025 282 279 2240
2022-11-28 03:47:43 GMT 25.356817 55.191685 4,850 287 278 2048
2022-11-28 03:47:39 GMT 25.355164 55.197651 4,725 296 275 1984
2022-11-28 03:47:32 GMT 25.352070 55.205158 4,525 302 272 1792
2022-11-28 03:47:28 GMT 25.349350 55.210011 4,425 306 264 960
2022-11-28 03:47:21 GMT 25.344589 55.217590 4,325 305 258 704
2022-11-28 03:47:16 GMT 25.341501 55.222466 4,250 305 252 832
2022-11-28 03:47:11 GMT 25.337500 55.228790 4,175 305 246 1088
2022-11-28 03:47:07 GMT 25.335032 55.232727 4,100 305 243 1216
2022-11-28 03:47:01 GMT 25.331085 55.238953 3,950 305 237 1216
2022-11-28 03:46:57 GMT 25.328375 55.243195 3,875 305 232 1024
2022-11-28 03:46:51 GMT 25.324585 55.249176 3,800 305 225 704
2022-11-28 03:46:47 GMT 25.322250 55.252838 3,750 306 221 768
2022-11-28 03:46:40 GMT 25.318451 55.258789 3,650 305 214 1024
2022-11-28 03:46:37 GMT 25.316410 55.262058 3,600 305 211 832
2022-11-28 03:46:30 GMT 25.312592 55.267994 3,500 305 203 896
2022-11-28 03:46:27 GMT 25.310871 55.270714 3,450 305 201 960
2022-11-28 03:46:20 GMT 25.307240 55.276413 3,300 306 197 1664
2022-11-28 03:46:16 GMT 25.305191 55.279629 3,175 306 197 1856
2022-11-28 03:46:09 GMT 25.301743 55.284931 2,975 306 195 1728
2022-11-28 03:46:06 GMT 25.300140 55.287426 2,875 305 195 1600
2022-11-28 03:45:59 GMT 25.296392 55.293362 2,700 304 192 1600
2022-11-28 03:45:55 GMT 25.294373 55.296680 2,575 303 191 2112
2022-11-28 03:45:49 GMT 25.291489 55.301769 2,350 301 192 2048
2022-11-28 03:45:45 GMT 25.289829 55.304867 2,225 301 193 1856
2022-11-28 03:45:39 GMT 25.286757 55.310513 2,025 301 192 1792
2022-11-28 03:45:38 GMT 25.286339 55.311291 2,000 302 192 1792
2022-11-28 03:45:37 GMT 25.285400 55.313007 1,925 302 192 1728
2022-11-28 03:45:35 GMT 25.284943 55.313824 1,900 302 191 1664
2022-11-28 03:45:34 GMT 25.284521 55.314606 1,875 302 191 1664
2022-11-28 03:45:33 GMT 25.284027 55.315449 1,850 302 190 1664
2022-11-28 03:45:31 GMT 25.283031 55.317249 1,775 302 190 1728
2022-11-28 03:45:30 GMT 25.282654 55.317944 1,750 302 190 1856
2022-11-28 03:45:29 GMT 25.282104 55.318909 1,725 302 190 2048
2022-11-28 03:45:28 GMT 25.281143 55.320587 1,650 302 190 2368
2022-11-28 03:45:26 GMT 25.280704 55.321342 1,600 302 191 2560
2022-11-28 03:45:24 GMT 25.280193 55.322277 1,550 302 191 2752
2022-11-28 03:45:23 GMT 25.279263 55.323883 1,450 302 192 2944
2022-11-28 03:45:21 GMT 25.278809 55.324707 1,400 302 193 3072
2022-11-28 03:45:20 GMT 25.276749 55.328522 1,175 301 196 3136
2022-11-28 03:45:16 GMT 25.276749 55.328522 1,175 302 197 3136
2022-11-28 03:45:15 GMT 25.275583 55.330673 1,075 301 198 3072
2022-11-28 03:45:14 GMT 25.275583 55.330673 1,050 301 198 3072
2022-11-28 03:45:13 GMT 25.275120 55.331554 1,000 302 199 3008
2022-11-28 03:45:11 GMT 25.273582 55.334301 875 302 199 2816
2022-11-28 03:45:10 GMT 25.273582 55.334301 850 302 200 2816
2022-11-28 03:45:09 GMT 25.272629 55.336048 750 302 200 2624
2022-11-28 03:45:07 GMT 25.272045 55.337097 700 302 200 2368
2022-11-28 03:45:06 GMT 25.271622 55.337879 675 302 200 2304
2022-11-28 03:45:04 GMT 25.270651 55.339687 600 302 199 1856
2022-11-28 03:45:03 GMT 25.270090 55.340675 575 302 199 1600
2022-11-28 03:45:02 GMT 25.269379 55.341999 525 302 197 1472
2022-11-28 03:45:00 GMT 25.268692 55.343220 500 302 197 1344

Making use of Plane Finder data

You are free to use the raw flight data, aircraft information and images provided in this report for your own purposes provided the data is correctly attributed to Plane Finder. We ask that you please credit Plane Finder and link to planefinder.net in close proximity to the content.

Optionally one of the following logos (no smaller then 150x24px) can be used and must link to planefinder.net

Embedding the Plane Finder map

You are welcome to embed the Plane Finder playback map on your website to offer visitors a more interactive experience. We suggest using the following HTML code:

<iframe src="//planefinder.net/data/report/EK35-A6-EGM-7700-squawk-2022-11-28/map" width="800" height="600" seamless="seamless"></iframe>

Where our data comes from

Plane Finder has a global network of data feeds and antenna radars that receive data broadcast directly from aircraft. The primary technologies used are ADS-B and MLAT. We also show feeds from the FAA and a FLARM glider feed.

Click here to find out more about the Plane Finder network.

How we collect our data